<?xml version="1.0" encoding="UTF-8" standalone="no" ?>
<gpx xmlns="http://www.topografix.com/GPX/1/1" xmlns:xsi="http://www.w3.org/2001/XMLSchema-instance" xsi:schemaLocation="http://www.topografix.com/GPX/1/1 http://www.topografix.com/GPX/1/1/gpx.xsd" version="1.1" creator="VisuGPX - https://www.visugpx.com">
  <metadata>
    <name>gravel 100_19mai22</name>
  </metadata>
  <trk>
    <name><![CDATA[Targon Gravel bike]]></name>
    <extensions>
      <line xmlns="http://www.topografix.com/GPX/gpx_style/0/2">
        <color>fa0000</color>
        <width>4</width>
          <extensions>
            <sens>1</sens>
          </extensions>
      </line>
    </extensions>
    <trkseg>
      <trkpt lat="44.73052" lon="-0.25066">
        <ele>65.400001525879</ele>
        <time>2022-01-16T06:31:49.000Z</time>
      </trkpt>
      <trkpt lat="44.73055" lon="-0.25063">
        <ele>65.400001525879</ele>
        <time>2022-01-16T06:31:53.000Z</time>
      </trkpt>
      <trkpt lat="44.73059" lon="-0.25062">
        <ele>65.599998474121</ele>
        <time>2022-01-16T06:31:55.000Z</time>
      </trkpt>
      <trkpt lat="44.73061" lon="-0.25064">
        <ele>65.400001525879</ele>
        <time>2022-01-16T06:31:56.000Z</time>
      </trkpt>
      <trkpt lat="44.73062" lon="-0.25067">
        <ele>65.400001525879</ele>
        <time>2022-01-16T06:31:57.000Z</time>
      </trkpt>
      <trkpt lat="44.73065" lon="-0.25074">
        <ele>65</ele>
        <time>2022-01-16T06:31:59.000Z</time>
      </trkpt>
      <trkpt lat="44.73066" lon="-0.25079">
        <ele>65</ele>
        <time>2022-01-16T06:32:00.000Z</time>
      </trkpt>
      <trkpt lat="44.73067" lon="-0.25084">
        <ele>65</ele>
        <time>2022-01-16T06:32:01.000Z</time>
      </trkpt>
      <trkpt lat="44.73071" lon="-0.25093">
        <ele>65</ele>
        <time>2022-01-16T06:32:03.000Z</time>
      </trkpt>
      <trkpt lat="44.73074" lon="-0.25104">
        <ele>65</ele>
        <time>2022-01-16T06:32:05.000Z</time>
      </trkpt>
      <trkpt lat="44.73076" lon="-0.25108">
        <ele>65</ele>
        <time>2022-01-16T06:32:06.000Z</time>
      </trkpt>
      <trkpt lat="44.73078" lon="-0.25113">
        <ele>65</ele>
        <time>2022-01-16T06:32:07.000Z</time>
      </trkpt>
      <trkpt lat="44.73079" lon="-0.25119">
        <ele>65</ele>
        <time>2022-01-16T06:32:08.000Z</time>
      </trkpt>
      <trkpt lat="44.73082" lon="-0.25124">
        <ele>65</ele>
        <time>2022-01-16T06:32:09.000Z</time>
      </trkpt>
      <trkpt lat="44.73084" lon="-0.25129">
        <ele>65</ele>
        <time>2022-01-16T06:32:10.000Z</time>
      </trkpt>
      <trkpt lat="44.73086" lon="-0.25135">
        <ele>65</ele>
        <time>2022-01-16T06:32:11.000Z</time>
      </trkpt>
      <trkpt lat="44.73088" lon="-0.2514">
        <ele>65</ele>
        <time>2022-01-16T06:32:12.000Z</time>
      </trkpt>
      <trkpt lat="44.7309" lon="-0.25146">
        <ele>65</ele>
        <time>2022-01-16T06:32:13.000Z</time>
      </trkpt>
      <trkpt lat="44.73094" lon="-0.25158">
        <ele>64.800003051758</ele>
        <time>2022-01-16T06:32:15.000Z</time>
      </trkpt>
      <trkpt lat="44.73099" lon="-0.25169">
        <ele>64.400001525879</ele>
        <time>2022-01-16T06:32:17.000Z</time>
      </trkpt>
      <trkpt lat="44.73103" lon="-0.25181">
        <ele>64</ele>
        <time>2022-01-16T06:32:19.000Z</time>
      </trkpt>
      <trkpt lat="44.73107" lon="-0.25193">
        <ele>63.799999237061</ele>
        <time>2022-01-16T06:32:21.000Z</time>
      </trkpt>
      <trkpt lat="44.73111" lon="-0.25206">
        <ele>63.400001525879</ele>
        <time>2022-01-16T06:32:23.000Z</time>
      </trkpt>
      <trkpt lat="44.73115" lon="-0.25218">
        <ele>63</ele>
        <time>2022-01-16T06:32:25.000Z</time>
      </trkpt>
      <trkpt lat="44.73118" lon="-0.25232">
        <ele>63</ele>
        <time>2022-01-16T06:32:27.000Z</time>
      </trkpt>
      <trkpt lat="44.7312" lon="-0.25239">
        <ele>63</ele>
        <time>2022-01-16T06:32:28.000Z</time>
      </trkpt>
      <trkpt lat="44.73121" lon="-0.25245">
        <ele>63</ele>
        <time>2022-01-16T06:32:29.000Z</time>
      </trkpt>
      <trkpt lat="44.73125" lon="-0.25259">
        <ele>63</ele>
        <time>2022-01-16T06:32:31.000Z</time>
      </trkpt>
      <trkpt lat="44.73126" lon="-0.25266">
        <ele>63</ele>
        <time>2022-01-16T06:32:32.000Z</time>
      </trkpt>
      <trkpt lat="44.73127" lon="-0.25272">
        <ele>63</ele>
        <time>2022-01-16T06:32:33.000Z</time>
      </trkpt>
      <trkpt lat="44.7313" lon="-0.25286">
        <ele>62.400001525879</ele>
        <time>2022-01-16T06:32:35.000Z</time>
      </trkpt>
      <trkpt lat="44.73132" lon="-0.253">
        <ele>62.599998474121</ele>
        <time>2022-01-16T06:32:37.000Z</time>
      </trkpt>
      <trkpt lat="44.73133" lon="-0.25315">
        <ele>62.400001525879</ele>
        <time>2022-01-16T06:32:39.000Z</time>
      </trkpt>
      <trkpt lat="44.73135" lon="-0.25322">
        <ele>62.200000762939</ele>
        <time>2022-01-16T06:32:40.000Z</time>
      </trkpt>
      <trkpt lat="44.73136" lon="-0.25329">
        <ele>62</ele>
        <time>2022-01-16T06:32:41.000Z</time>
      </trkpt>
      <trkpt lat="44.73137" lon="-0.25344">
        <ele>62</ele>
        <time>2022-01-16T06:32:43.000Z</time>
      </trkpt>
      <trkpt lat="44.73139" lon="-0.25358">
        <ele>62</ele>
        <time>2022-01-16T06:32:45.000Z</time>
      </trkpt>
      <trkpt lat="44.73141" lon="-0.25373">
        <ele>62.400001525879</ele>
        <time>2022-01-16T06:32:47.000Z</time>
      </trkpt>
      <trkpt lat="44.73142" lon="-0.2538">
        <ele>62.799999237061</ele>
        <time>2022-01-16T06:32:48.000Z</time>
      </trkpt>
      <trkpt lat="44.73143" lon="-0.25388">
        <ele>63</ele>
        <time>2022-01-16T06:32:49.000Z</time>
      </trkpt>
      <trkpt lat="44.73144" lon="-0.25403">
        <ele>63.599998474121</ele>
        <time>2022-01-16T06:32:51.000Z</time>
      </trkpt>
      <trkpt lat="44.73145" lon="-0.25418">
        <ele>64</ele>
        <time>2022-01-16T06:32:53.000Z</time>
      </trkpt>
      <trkpt lat="44.73146" lon="-0.25425">
        <ele>64</ele>
        <time>2022-01-16T06:32:54.000Z</time>
      </trkpt>
      <trkpt lat="44.73147" lon="-0.25432">
        <ele>64</ele>
        <time>2022-01-16T06:32:55.000Z</time>
      </trkpt>
      <trkpt lat="44.73149" lon="-0.25446">
        <ele>63.599998474121</ele>
        <time>2022-01-16T06:32:57.000Z</time>
      </trkpt>
      <trkpt lat="44.7315" lon="-0.25454">
        <ele>63.400001525879</ele>
        <time>2022-01-16T06:32:58.000Z</time>
      </trkpt>
      <trkpt lat="44.73152" lon="-0.2546">
        <ele>63.200000762939</ele>
        <time>2022-01-16T06:32:59.000Z</time>
      </trkpt>
      <trkpt lat="44.73156" lon="-0.25465">
        <ele>63.400001525879</ele>
        <time>2022-01-16T06:33:00.000Z</time>
      </trkpt>
      <trkpt lat="44.73161" lon="-0.25466">
        <ele>63.599998474121</ele>
        <time>2022-01-16T06:33:01.000Z</time>
      </trkpt>
      <trkpt lat="44.73166" lon="-0.25465">
        <ele>63.799999237061</ele>
        <time>2022-01-16T06:33:02.000Z</time>
      </trkpt>
      <trkpt lat="44.73171" lon="-0.25462">
        <ele>64</ele>
        <time>2022-01-16T06:33:03.000Z</time>
      </trkpt>
      <trkpt lat="44.73175" lon="-0.25459">
        <ele>64</ele>
        <time>2022-01-16T06:33:04.000Z</time>
      </trkpt>
      <trkpt lat="44.7318" lon="-0.25456">
        <ele>64.199996948242</ele>
        <time>2022-01-16T06:33:05.000Z</time>
      </trkpt>
      <trkpt lat="44.73185" lon="-0.25453">
        <ele>64.400001525879</ele>
        <time>2022-01-16T06:33:06.000Z</time>
      </trkpt>
      <trkpt lat="44.7319" lon="-0.25451">
        <ele>64.599998474121</ele>
        <time>2022-01-16T06:33:07.000Z</time>
      </trkpt>
      <trkpt lat="44.732" lon="-0.25447">
        <ele>64.599998474121</ele>
        <time>2022-01-16T06:33:09.000Z</time>
      </trkpt>
      <trkpt lat="44.73211" lon="-0.25442">
        <ele>64.800003051758</ele>
        <time>2022-01-16T06:33:11.000Z</time>
      </trkpt>
      <trkpt lat="44.73222" lon="-0.25438">
        <ele>65</ele>
        <time>2022-01-16T06:33:13.000Z</time>
      </trkpt>
      <trkpt lat="44.73233" lon="-0.25433">
        <ele>65.199996948242</ele>
        <time>2022-01-16T06:33:15.000Z</time>
      </trkpt>
      <trkpt lat="44.73245" lon="-0.25428">
        <ele>65.400001525879</ele>
        <time>2022-01-16T06:33:17.000Z</time>
      </trkpt>
      <trkpt lat="44.73256" lon="-0.25423">
        <ele>65.599998474121</ele>
        <time>2022-01-16T06:33:19.000Z</time>
      </trkpt>
      <trkpt lat="44.73267" lon="-0.25415">
        <ele>65.400001525879</ele>
        <time>2022-01-16T06:33:21.000Z</time>
      </trkpt>
      <trkpt lat="44.73272" lon="-0.25411">
        <ele>65.400001525879</ele>
        <time>2022-01-16T06:33:22.000Z</time>
      </trkpt>
      <trkpt lat="44.73277" lon="-0.25406">
        <ele>65.400001525879</ele>
        <time>2022-01-16T06:33:23.000Z</time>
      </trkpt>
      <trkpt lat="44.73286" lon="-0.25397">
        <ele>65.400001525879</ele>
        <time>2022-01-16T06:33:25.000Z</time>
      </trkpt>
      <trkpt lat="44.73297" lon="-0.2539">
        <ele>65.199996948242</ele>
        <time>2022-01-16T06:33:27.000Z</time>
      </trkpt>
      <trkpt lat="44.73303" lon="-0.25388">
        <ele>65.199996948242</ele>
        <time>2022-01-16T06:33:28.000Z</time>
      </trkpt>
      <trkpt lat="44.73308" lon="-0.25386">
        <ele>65</ele>
        <time>2022-01-16T06:33:29.000Z</time>
      </trkpt>
      <trkpt lat="44.7332" lon="-0.25383">
        <ele>65.199996948242</ele>
        <time>2022-01-16T06:33:31.000Z</time>
      </trkpt>
      <trkpt lat="44.73331" lon="-0.25381">
        <ele>65.599998474121</ele>
        <time>2022-01-16T06:33:33.000Z</time>
      </trkpt>
      <trkpt lat="44.73337" lon="-0.2538">
        <ele>65.800003051758</ele>
        <time>2022-01-16T06:33:34.000Z</time>
      </trkpt>
      <trkpt lat="44.73342" lon="-0.25379">
        <ele>66</ele>
        <time>2022-01-16T06:33:35.000Z</time>
      </trkpt>
      <trkpt lat="44.73353" lon="-0.25376">
        <ele>66.199996948242</ele>
        <time>2022-01-16T06:33:37.000Z</time>
      </trkpt>
      <trkpt lat="44.73364" lon="-0.25375">
        <ele>66.599998474121</ele>
        <time>2022-01-16T06:33:39.000Z</time>
      </trkpt>
      <trkpt lat="44.73374" lon="-0.25373">
        <ele>67</ele>
        <time>2022-01-16T06:33:41.000Z</time>
      </trkpt>
      <trkpt lat="44.7338" lon="-0.25372">
        <ele>67</ele>
        <time>2022-01-16T06:33:42.000Z</time>
      </trkpt>
      <trkpt lat="44.73385" lon="-0.25371">
        <ele>67.199996948242</ele>
        <time>2022-01-16T06:33:43.000Z</time>
      </trkpt>
      <trkpt lat="44.73395" lon="-0.25369">
        <ele>67.599998474121</ele>
        <time>2022-01-16T06:33:45.000Z</time>
      </trkpt>
      <trkpt lat="44.73405" lon="-0.25368">
        <ele>67.800003051758</ele>
        <time>2022-01-16T06:33:47.000Z</time>
      </trkpt>
      <trkpt lat="44.73414" lon="-0.25367">
        <ele>68</ele>
        <time>2022-01-16T06:33:49.000Z</time>
      </trkpt>
      <trkpt lat="44.73422" lon="-0.25365">
        <ele>68</ele>
        <time>2022-01-16T06:33:51.000Z</time>
      </trkpt>
      <trkpt lat="44.73429" lon="-0.25363">
        <ele>68.400001525879</ele>
        <time>2022-01-16T06:33:53.000Z</time>
      </trkpt>
      <trkpt lat="44.7344" lon="-0.25357">
        <ele>69.199996948242</ele>
        <time>2022-01-16T06:33:55.000Z</time>
      </trkpt>
      <trkpt lat="44.73444" lon="-0.25354">
        <ele>69.400001525879</ele>
        <time>2022-01-16T06:33:57.000Z</time>
      </trkpt>
      <trkpt lat="44.7345" lon="-0.25349">
        <ele>69.800003051758</ele>
        <time>2022-01-16T06:33:59.000Z</time>
      </trkpt>
      <trkpt lat="44.73457" lon="-0.25342">
        <ele>69.800003051758</ele>
        <time>2022-01-16T06:34:01.000Z</time>
      </trkpt>
      <trkpt lat="44.7346" lon="-0.25339">
        <ele>69.800003051758</ele>
        <time>2022-01-16T06:34:02.000Z</time>
      </trkpt>
      <trkpt lat="44.73463" lon="-0.25335">
        <ele>69.800003051758</ele>
        <time>2022-01-16T06:34:03.000Z</time>
      </trkpt>
      <trkpt lat="44.7347" lon="-0.25327">
        <ele>69.599998474121</ele>
        <time>2022-01-16T06:34:05.000Z</time>
      </trkpt>
      <trkpt lat="44.73476" lon="-0.25319">
        <ele>70</ele>
        <time>2022-01-16T06:34:07.000Z</time>
      </trkpt>
      <trkpt lat="44.73483" lon="-0.25311">
        <ele>70</ele>
        <time>2022-01-16T06:34:09.000Z</time>
      </trkpt>
      <trkpt lat="44.73486" lon="-0.25307">
        <ele>70</ele>
        <time>2022-01-16T06:34:10.000Z</time>
      </trkpt>
      <trkpt lat="44.73489" lon="-0.25304">
        <ele>70</ele>
        <time>2022-01-16T06:34:11.000Z</time>
      </trkpt>
      <trkpt lat="44.73496" lon="-0.25296">
        <ele>70</ele>
        <time>2022-01-16T06:34:13.000Z</time>
      </trkpt>
      <trkpt lat="44.73503" lon="-0.25289">
        <ele>69.599998474121</ele>
        <time>2022-01-16T06:34:15.000Z</time>
      </trkpt>
      <trkpt lat="44.73511" lon="-0.25282">
        <ele>69.400001525879</ele>
        <time>2022-01-16T06:34:17.000Z</time>
      </trkpt>
      <trkpt lat="44.73519" lon="-0.25275">
        <ele>69.199996948242</ele>
        <time>2022-01-16T06:34:19.000Z</time>
      </trkpt>
      <trkpt lat="44.73523" lon="-0.25272">
        <ele>69</ele>
        <time>2022-01-16T06:34:20.000Z</time>
      </trkpt>
      <trkpt lat="44.73528" lon="-0.2527">
        <ele>69</ele>
        <time>2022-01-16T06:34:21.000Z</time>
      </trkpt>
      <trkpt lat="44.73536" lon="-0.25264">
        <ele>69</ele>
        <time>2022-01-16T06:34:23.000Z</time>
      </trkpt>
      <trkpt lat="44.7354" lon="-0.2526">
        <ele>69</ele>
        <time>2022-01-16T06:34:24.000Z</time>
      </trkpt>
      <trkpt lat="44.73544" lon="-0.25257">
        <ele>69</ele>
        <time>2022-01-16T06:34:25.000Z</time>
      </trkpt>
      <trkpt lat="44.73553" lon="-0.25253">
        <ele>69</ele>
        <time>2022-01-16T06:34:27.000Z</time>
      </trkpt>
      <trkpt lat="44.73561" lon="-0.25247">
        <ele>69</ele>
        <time>2022-01-16T06:34:29.000Z</time>
      </trkpt>
      <trkpt lat="44.73565" lon="-0.25243">
        <ele>69.199996948242</ele>
        <time>2022-01-16T06:34:30.000Z</time>
      </trkpt>
      <trkpt lat="44.73569" lon="-0.2524">
        <ele>69.400001525879</ele>
        <time>2022-01-16T06:34:31.000Z</time>
      </trkpt>
      <trkpt lat="44.73573" lon="-0.25237">
        <ele>69.800003051758</ele>
        <time>2022-01-16T06:34:32.000Z</time>
      </trkpt>
      <trkpt lat="44.73577" lon="-0.25234">
        <ele>70</ele>
        <time>2022-01-16T06:34:33.000Z</time>
      </trkpt>
      <trkpt lat="44.73581" lon="-0.25231">
        <ele>70.400001525879</ele>
        <time>2022-01-16T06:34:34.000Z</time>
      </trkpt>
      <trkpt lat="44.73585" lon="-0.25228">
        <ele>70.599998474121</ele>
        <time>2022-01-16T06:34:35.000Z</time>
      </trkpt>
      <trkpt lat="44.73589" lon="-0.25225">
        <ele>71</ele>
        <time>2022-01-16T06:34:36.000Z</time>
      </trkpt>
      <trkpt lat="44.73593" lon="-0.25221">
        <ele>71.199996948242</ele>
        <time>2022-01-16T06:34:37.000Z</time>
      </trkpt>
      <trkpt lat="44.736" lon="-0.25213">
        <ele>71.400001525879</ele>
        <time>2022-01-16T06:34:39.000Z</time>
      </trkpt>
      <trkpt lat="44.73607" lon="-0.25203">
        <ele>72</ele>
        <time>2022-01-16T06:34:41.000Z</time>
      </trkpt>
      <trkpt lat="44.73613" lon="-0.25195">
        <ele>72.599998474121</ele>
        <time>2022-01-16T06:34:43.000Z</time>
      </trkpt>
      <trkpt lat="44.73616" lon="-0.2519">
        <ele>72.800003051758</ele>
        <time>2022-01-16T06:34:44.000Z</time>
      </trkpt>
      <trkpt lat="44.73619" lon="-0.25185">
        <ele>73</ele>
        <time>2022-01-16T06:34:45.000Z</time>
      </trkpt>
      <trkpt lat="44.73625" lon="-0.25176">
        <ele>73.400001525879</ele>
        <time>2022-01-16T06:34:47.000Z</time>
      </trkpt>
      <trkpt lat="44.73631" lon="-0.25168">
        <ele>73.800003051758</ele>
        <time>2022-01-16T06:34:49.000Z</time>
      </trkpt>
      <trkpt lat="44.73634" lon="-0.25165">
        <ele>73.800003051758</ele>
        <time>2022-01-16T06:34:50.000Z</time>
      </trkpt>
      <trkpt lat="44.73638" lon="-0.25162">
        <ele>74</ele>
        <time>2022-01-16T06:34:51.000Z</time>
      </trkpt>
      <trkpt lat="44.73641" lon="-0.2516">
        <ele>74</ele>
        <time>2022-01-16T06:34:52.000Z</time>
      </trkpt>
      <trkpt lat="44.73645" lon="-0.25158">
        <ele>74</ele>
        <time>2022-01-16T06:34:53.000Z</time>
      </trkpt>
      <trkpt lat="44.73657" lon="-0.25152">
        <ele>74.599998474121</ele>
        <time>2022-01-16T06:34:55.000Z</time>
      </trkpt>
      <trkpt lat="44.7366" lon="-0.25151">
        <ele>74.800003051758</ele>
        <time>2022-01-16T06:34:57.000Z</time>
      </trkpt>
      <trkpt lat="44.73668" lon="-0.25148">
        <ele>75.199996948242</ele>
        <time>2022-01-16T06:34:59.000Z</time>
      </trkpt>
      <trkpt lat="44.73676" lon="-0.25146">
        <ele>75.599998474121</ele>
        <time>2022-01-16T06:35:01.000Z</time>
      </trkpt>
      <trkpt lat="44.73684" lon="-0.25144">
        <ele>75.599998474121</ele>
        <time>2022-01-16T06:35:03.000Z</time>
      </trkpt>
      <trkpt lat="44.73688" lon="-0.25143">
        <ele>75.599998474121</ele>
        <time>2022-01-16T06:35:04.000Z</time>
      </trkpt>
      <trkpt lat="44.73692" lon="-0.25143">
        <ele>75.599998474121</ele>
        <time>2022-01-16T06:35:05.000Z</time>
      </trkpt>
      <trkpt lat="44.73696" lon="-0.25142">
        <ele>75.599998474121</ele>
        <time>2022-01-16T06:35:06.000Z</time>
      </trkpt>
      <trkpt lat="44.737" lon="-0.25141">
        <ele>75.599998474121</ele>
        <time>2022-01-16T06:35:07.000Z</time>
      </trkpt>
      <trkpt lat="44.73704" lon="-0.25138">
        <ele>75.800003051758</ele>
        <time>2022-01-16T06:35:08.000Z</time>
      </trkpt>
      <trkpt lat="44.73707" lon="-0.25136">
        <ele>75.800003051758</ele>
        <time>2022-01-16T06:35:09.000Z</time>
      </trkpt>
      <trkpt lat="44.73714" lon="-0.25129">
        <ele>76.199996948242</ele>
        <time>2022-01-16T06:35:11.000Z</time>
      </trkpt>
      <trkpt lat="44.73719" lon="-0.25121">
        <ele>76.400001525879</ele>
        <time>2022-01-16T06:35:13.000Z</time>
      </trkpt>
      <trkpt lat="44.73721" lon="-0.25116">
        <ele>76.599998474121</ele>
        <time>2022-01-16T06:35:14.000Z</time>
      </trkpt>
      <trkpt lat="44.73722" lon="-0.25111">
        <ele>76.800003051758</ele>
        <time>2022-01-16T06:35:15.000Z</time>
      </trkpt>
      <trkpt lat="44.73724" lon="-0.25101">
        <ele>77.400001525879</ele>
        <time>2022-01-16T06:35:17.000Z</time>
      </trkpt>
      <trkpt lat="44.73725" lon="-0.25091">
        <ele>78.199996948242</ele>
        <time>2022-01-16T06:35:19.000Z</time>
      </trkpt>
      <trkpt lat="44.73725" lon="-0.25081">
        <ele>78.800003051758</ele>
        <time>2022-01-16T06:35:21.000Z</time>
      </trkpt>
      <trkpt lat="44.73724" lon="-0.2507">
        <ele>79.400001525879</ele>
        <time>2022-01-16T06:35:23.000Z</time>
      </trkpt>
      <trkpt lat="44.73724" lon="-0.25059">
        <ele>80.199996948242</ele>
        <time>2022-01-16T06:35:25.000Z</time>
      </trkpt>
      <trkpt lat="44.73723" lon="-0.25046">
        <ele>80.800003051758</ele>
        <time>2022-01-16T06:35:27.000Z</time>
      </trkpt>
      <trkpt lat="44.73726" lon="-0.25036">
        <ele>81.199996948242</ele>
        <time>2022-01-16T06:35:29.000Z</time>
      </trkpt>
      <trkpt lat="44.73727" lon="-0.25025">
        <ele>81.800003051758</ele>
        <time>2022-01-16T06:35:31.000Z</time>
      </trkpt>
      <trkpt lat="44.73728" lon="-0.25014">
        <ele>82</ele>
        <time>2022-01-16T06:35:33.000Z</time>
      </trkpt>
      <trkpt lat="44.73729" lon="-0.25009">
        <ele>82</ele>
        <time>2022-01-16T06:35:34.000Z</time>
      </trkpt>
      <trkpt lat="44.7373" lon="-0.25004">
        <ele>82</ele>
        <time>2022-01-16T06:35:35.000Z</time>
      </trkpt>
      <trkpt lat="44.73731" lon="-0.24993">
        <ele>82</ele>
        <time>2022-01-16T06:35:37.000Z</time>
      </trkpt>
      <trkpt lat="44.73732" lon="-0.24981">
        <ele>82.199996948242</ele>
        <time>2022-01-16T06:35:39.000Z</time>
      </trkpt>
      <trkpt lat="44.73733" lon="-0.24974">
        <ele>82.199996948242</ele>
        <time>2022-01-16T06:35:40.000Z</time>
      </trkpt>
      <trkpt lat="44.73734" lon="-0.24968">
        <ele>82.199996948242</ele>
        <time>2022-01-16T06:35:41.000Z</time>
      </trkpt>
      <trkpt lat="44.73735" lon="-0.24963">
        <ele>82.400001525879</ele>
        <time>2022-01-16T06:35:43.000Z</time>
      </trkpt>
      <trkpt lat="44.73736" lon="-0.24945">
        <ele>82.599998474121</ele>
        <time>2022-01-16T06:35:45.000Z</time>
      </trkpt>
      <trkpt lat="44.73738" lon="-0.24933">
        <ele>82.599998474121</ele>
        <time>2022-01-16T06:35:47.000Z</time>
      </trkpt>
      <trkpt lat="44.73738" lon="-0.24923">
        <ele>82.599998474121</ele>
        <time>2022-01-16T06:35:49.000Z</time>
      </trkpt>
      <trkpt lat="44.73739" lon="-0.24911">
        <ele>82.800003051758</ele>
        <time>2022-01-16T06:35:51.000Z</time>
      </trkpt>
      <trkpt lat="44.7374" lon="-0.24898">
        <ele>83.199996948242</ele>
        <time>2022-01-16T06:35:53.000Z</time>
      </trkpt>
      <trkpt lat="44.73741" lon="-0.24886">
        <ele>84.199996948242</ele>
        <time>2022-01-16T06:35:55.000Z</time>
      </trkpt>
      <trkpt lat="44.73742" lon="-0.24873">
        <ele>84.800003051758</ele>
        <time>2022-01-16T06:35:57.000Z</time>
      </trkpt>
      <trkpt lat="44.73743" lon="-0.2486">
        <ele>85.199996948242</ele>
        <time>2022-01-16T06:35:59.000Z</time>
      </trkpt>
      <trkpt lat="44.73744" lon="-0.24848">
        <ele>85.800003051758</ele>
        <time>2022-01-16T06:36:01.000Z</time>
      </trkpt>
      <trkpt lat="44.73745" lon="-0.24837">
        <ele>86.199996948242</ele>
        <time>2022-01-16T06:36:03.000Z</time>
      </trkpt>
      <trkpt lat="44.73747" lon="-0.24826">
        <ele>87</ele>
        <time>2022-01-16T06:36:05.000Z</time>
      </trkpt>
      <trkpt lat="44.73748" lon="-0.24815">
        <ele>87.400001525879</ele>
        <time>2022-01-16T06:36:07.000Z</time>
      </trkpt>
      <trkpt lat="44.73749" lon="-0.2481">
        <ele>87.599998474121</ele>
        <time>2022-01-16T06:36:08.000Z</time>
      </trkpt>
      <trkpt lat="44.73751" lon="-0.24805">
        <ele>87.800003051758</ele>
        <time>2022-01-16T06:36:09.000Z</time>
      </trkpt>
      <trkpt lat="44.73753" lon="-0.24795">
        <ele>88.400001525879</ele>
        <time>2022-01-16T06:36:11.000Z</time>
      </trkpt>
      <trkpt lat="44.73755" lon="-0.24786">
        <ele>89</ele>
        <time>2022-01-16T06:36:13.000Z</time>
      </trkpt>
      <trkpt lat="44.73758" lon="-0.24777">
        <ele>89.599998474121</ele>
        <time>2022-01-16T06:36:15.000Z</time>
      </trkpt>
      <trkpt lat="44.7376" lon="-0.24769">
        <ele>90</ele>
        <time>2022-01-16T06:36:17.000Z</time>
      </trkpt>
      <trkpt lat="44.73762" lon="-0.24761">
        <ele>90.199996948242</ele>
        <time>2022-01-16T06:36:19.000Z</time>
      </trkpt>
      <trkpt lat="44.73763" lon="-0.24753">
        <ele>90.400001525879</ele>
        <time>2022-01-16T06:36:21.000Z</time>
      </trkpt>
      <trkpt lat="44.73764" lon="-0.24745">
        <ele>90.599998474121</ele>
        <time>2022-01-16T06:36:23.000Z</time>
      </trkpt>
      <trkpt lat="44.73765" lon="-0.24736">
        <ele>91</ele>
        <time>2022-01-16T06:36:25.000Z</time>
      </trkpt>
      <trkpt lat="44.73765" lon="-0.24731">
        <ele>91.199996948242</ele>
        <time>2022-01-16T06:36:26.000Z</time>
      </trkpt>
      <trkpt lat="44.73765" lon="-0.24726">
        <ele>91.400001525879</ele>
        <time>2022-01-16T06:36:27.000Z</time>
      </trkpt>
      <trkpt lat="44.73766" lon="-0.24716">
        <ele>91.599998474121</ele>
        <time>2022-01-16T06:36:29.000Z</time>
      </trkpt>
      <trkpt lat="44.73767" lon="-0.24705">
        <ele>92</ele>
        <time>2022-01-16T06:36:31.000Z</time>
      </trkpt>
      <trkpt lat="44.73769" lon="-0.24695">
        <ele>92</ele>
        <time>2022-01-16T06:36:33.000Z</time>
      </trkpt>
      <trkpt lat="44.73769" lon="-0.24686">
        <ele>92.199996948242</ele>
        <time>2022-01-16T06:36:35.000Z</time>
      </trkpt>
      <trkpt lat="44.7377" lon="-0.24676">
        <ele>92.800003051758</ele>
        <time>2022-01-16T06:36:37.000Z</time>
      </trkpt>
      <trkpt lat="44.7377" lon="-0.24671">
        <ele>93</ele>
        <time>2022-01-16T06:36:38.000Z</time>
      </trkpt>
      <trkpt lat="44.7377" lon="-0.24666">
        <ele>93</ele>
        <time>2022-01-16T06:36:39.000Z</time>
      </trkpt>
      <trkpt lat="44.73772" lon="-0.24656">
        <ele>93</ele>
        <time>2022-01-16T06:36:41.000Z</time>
      </trkpt>
      <trkpt lat="44.73773" lon="-0.24645">
        <ele>93.199996948242</ele>
        <time>2022-01-16T06:36:43.000Z</time>
      </trkpt>
      <trkpt lat="44.73774" lon="-0.24639">
        <ele>93.199996948242</ele>
        <time>2022-01-16T06:36:44.000Z</time>
      </trkpt>
      <trkpt lat="44.73775" lon="-0.24623">
        <ele>93.599998474121</ele>
        <time>2022-01-16T06:36:47.000Z</time>
      </trkpt>
      <trkpt lat="44.73776" lon="-0.24618">
        <ele>93.800003051758</ele>
        <time>2022-01-16T06:36:49.000Z</time>
      </trkpt>
      <trkpt lat="44.73777" lon="-0.24602">
        <ele>95</ele>
        <time>2022-01-16T06:36:51.000Z</time>
      </trkpt>
      <trkpt lat="44.73778" lon="-0.24592">
        <ele>95.599998474121</ele>
        <time>2022-01-16T06:36:53.000Z</time>
      </trkpt>
      <trkpt lat="44.73778" lon="-0.24587">
        <ele>96</ele>
        <time>2022-01-16T06:36:54.000Z</time>
      </trkpt>
      <trkpt lat="44.73779" lon="-0.24583">
        <ele>96.400001525879</ele>
        <time>2022-01-16T06:36:55.000Z</time>
      </trkpt>
      <trkpt lat="44.73779" lon="-0.24574">
        <ele>97</ele>
        <time>2022-01-16T06:36:57.000Z</time>
      </trkpt>
      <trkpt lat="44.7378" lon="-0.24565">
        <ele>97.199996948242</ele>
        <time>2022-01-16T06:36:59.000Z</time>
      </trkpt>
      <trkpt lat="44.7378" lon="-0.2456">
        <ele>97.400001525879</ele>
        <time>2022-01-16T06:37:00.000Z</time>
      </trkpt>
      <trkpt lat="44.73781" lon="-0.24555">
        <ele>97.599998474121</ele>
        <time>2022-01-16T06:37:01.000Z</time>
      </trkpt>
      <trkpt lat="44.73782" lon="-0.24546">
        <ele>98.199996948242</ele>
        <time>2022-01-16T06:37:03.000Z</time>
      </trkpt>
      <trkpt lat="44.73783" lon="-0.24537">
        <ele>98.800003051758</ele>
        <time>2022-01-16T06:37:05.000Z</time>
      </trkpt>
      <trkpt lat="44.73784" lon="-0.24533">
        <ele>99.199996948242</ele>
        <time>2022-01-16T06:37:06.000Z</time>
      </trkpt>
      <trkpt lat="44.73784" lon="-0.24529">
        <ele>99.400001525879</ele>
        <time>2022-01-16T06:37:07.000Z</time>
      </trkpt>
      <trkpt lat="44.73786" lon="-0.24522">
        <ele>100</ele>
        <time>2022-01-16T06:37:09.000Z</time>
      </trkpt>
      <trkpt lat="44.73787" lon="-0.24515">
        <ele>100.19999694824</ele>
        <time>2022-01-16T06:37:11.000Z</time>
      </trkpt>
      <trkpt lat="44.73787" lon="-0.24503">
        <ele>100.59999847412</ele>
        <time>2022-01-16T06:37:13.000Z</time>
      </trkpt>
      <trkpt lat="44.73787" lon="-0.24494">
        <ele>101</ele>
        <time>2022-01-16T06:37:15.000Z</time>
      </trkpt>
      <trkpt lat="44.73787" lon="-0.2449">
        <ele>101.40000152588</ele>
        <time>2022-01-16T06:37:16.000Z</time>
      </trkpt>
      <trkpt lat="44.73788" lon="-0.24486">
        <ele>101.59999847412</ele>
        <time>2022-01-16T06:37:17.000Z</time>
      </trkpt>
      <trkpt lat="44.73789" lon="-0.24478">
        <ele>102</ele>
        <time>2022-01-16T06:37:19.000Z</time>
      </trkpt>
      <trkpt lat="44.7379" lon="-0.24473">
        <ele>102.19999694824</ele>
        <time>2022-01-16T06:37:20.000Z</time>
      </trkpt>
      <trkpt lat="44.73791" lon="-0.24469">
        <ele>102.40000152588</ele>
        <time>2022-01-16T06:37:21.000Z</time>
      </trkpt>
      <trkpt lat="44.73794" lon="-0.2446">
        <ele>103</ele>
        <time>2022-01-16T06:37:23.000Z</time>
      </trkpt>
      <trkpt lat="44.73797" lon="-0.24453">
        <ele>103.80000305176</ele>
        <time>2022-01-16T06:37:25.000Z</time>
      </trkpt>
      <trkpt lat="44.738" lon="-0.2445">
        <ele>104.19999694824</ele>
        <time>2022-01-16T06:37:27.000Z</time>
      </trkpt>
      <trkpt lat="44.73806" lon="-0.24443">
        <ele>105.19999694824</ele>
        <time>2022-01-16T06:37:29.000Z</time>
      </trkpt>
      <trkpt lat="44.73809" lon="-0.24441">
        <ele>105.59999847412</ele>
        <time>2022-01-16T06:37:31.000Z</time>
      </trkpt>
      <trkpt lat="44.73816" lon="-0.24434">
        <ele>106.40000152588</ele>
        <time>2022-01-16T06:37:33.000Z</time>
      </trkpt>
      <trkpt lat="44.73822" lon="-0.24429">
        <ele>107</ele>
        <time>2022-01-16T06:37:35.000Z</time>
      </trkpt>
      <trkpt lat="44.73826" lon="-0.24425">
        <ele>107.40000152588</ele>
        <time>2022-01-16T06:37:37.000Z</time>
      </trkpt>
      <trkpt lat="44.73828" lon="-0.24422">
        <ele>107.80000305176</ele>
        <time>2022-01-16T06:37:38.000Z</time>
      </trkpt>
      <trkpt lat="44.73831" lon="-0.2442">
        <ele>108</ele>
        <time>2022-01-16T06:37:39.000Z</time>
      </trkpt>
      <trkpt lat="44.73835" lon="-0.24414">
        <ele>108.40000152588</ele>
        <time>2022-01-16T06:37:41.000Z</time>
      </trkpt>
      <trkpt lat="44.7384" lon="-0.24407">
        <ele>109</ele>
        <time>2022-01-16T06:37:43.000Z</time>
      </trkpt>
      <trkpt lat="44.73842" lon="-0.24403">
        <ele>109</ele>
        <time>2022-01-16T06:37:44.000Z</time>
      </trkpt>
      <trkpt lat="44.73845" lon="-0.24399">
        <ele>109.19999694824</ele>
        <time>2022-01-16T06:37:45.000Z</time>
      </trkpt>
      <trkpt lat="44.73849" lon="-0.24392">
        <ele>109.40000152588</ele>
        <time>2022-01-16T06:37:47.000Z</time>
      </trkpt>
      <trkpt lat="44.73853" lon="-0.24383">
        <ele>109.40000152588</ele>
        <time>2022-01-16T06:37:49.000Z</time>
      </trkpt>
      <trkpt lat="44.73855" lon="-0.24379">
        <ele>109.40000152588</ele>
        <time>2022-01-16T06:37:50.000Z</time>
      </trkpt>
      <trkpt lat="44.73857" lon="-0.24375">
        <ele>109.40000152588</ele>
        <time>2022-01-16T06:37:51.000Z</time>
      </trkpt>
      <trkpt lat="44.73859" lon="-0.24367">
        <ele>109.19999694824</ele>
        <time>2022-01-16T06:37:53.000Z</time>
      </trkpt>
      <trkpt lat="44.73861" lon="-0.24358">
        <ele>108.80000305176</ele>
        <time>2022-01-16T06:37:55.000Z</time>
      </trkpt>
      <trkpt lat="44.73862" lon="-0.24353">
        <ele>108.80000305176</ele>
        <time>2022-01-16T06:37:56.000Z</time>
      </trkpt>
      <trkpt lat="44.73863" lon="-0.24349">
        <ele>108.59999847412</ele>
        <time>2022-01-16T06:37:57.000Z</time>
      </trkpt>
      <trkpt lat="44.73865" lon="-0.24339">
        <ele>108.40000152588</ele>
        <time>2022-01-16T06:37:59.000Z</time>
      </trkpt>
      <trkpt lat="44.73867" lon="-0.2433">
        <ele>108.19999694824</ele>
        <time>2022-01-16T06:38:01.000Z</time>
      </trkpt>
      <trkpt lat="44.73867" lon="-0.24326">
        <ele>108</ele>
        <time>2022-01-16T06:38:02.000Z</time>
      </trkpt>
      <trkpt lat="44.73868" lon="-0.24321">
        <ele>108.19999694824</ele>
        <time>2022-01-16T06:38:03.000Z</time>
      </trkpt>
      <trkpt lat="44.7387" lon="-0.24312">
        <ele>108.40000152588</ele>
        <time>2022-01-16T06:38:05.000Z</time>
      </trkpt>
      <trkpt lat="44.73872" lon="-0.24304">
        <ele>108.80000305176</ele>
        <time>2022-01-16T06:38:07.000Z</time>
      </trkpt>
      <trkpt lat="44.73873" lon="-0.24295">
        <ele>108.80000305176</ele>
        <time>2022-01-16T06:38:09.000Z</time>
      </trkpt>
      <trkpt lat="44.73875" lon="-0.24286">
        <ele>108.80000305176</ele>
        <time>2022-01-16T06:38:11.000Z</time>
      </trkpt>
      <trkpt lat="44.73876" lon="-0.24276">
        <ele>108.80000305176</ele>
        <time>2022-01-16T06:38:13.000Z</time>
      </trkpt>
      <trkpt lat="44.73877" lon="-0.24267">
        <ele>108.59999847412</ele>
        <time>2022-01-16T06:38:15.000Z</time>
      </trkpt>
      <trkpt lat="44.73877" lon="-0.24259">
        <ele>108.59999847412</ele>
        <time>2022-01-16T06:38:17.000Z</time>
      </trkpt>
      <trkpt lat="44.73878" lon="-0.24256">
        <ele>108.59999847412</ele>
        <time>2022-01-16T06:38:18.000Z</time>
      </trkpt>
      <trkpt lat="44.73879" lon="-0.24252">
        <ele>108.59999847412</ele>
        <time>2022-01-16T06:38:19.000Z</time>
      </trkpt>
      <trkpt lat="44.7388" lon="-0.24244">
        <ele>108.59999847412</ele>
        <time>2022-01-16T06:38:21.000Z</time>
      </trkpt>
      <trkpt lat="44.73881" lon="-0.24235">
        <ele>108.80000305176</ele>
        <time>2022-01-16T06:38:23.000Z</time>
      </trkpt>
      <trkpt lat="44.73881" lon="-0.24231">
        <ele>109</ele>
        <time>2022-01-16T06:38:24.000Z</time>
      </trkpt>
      <trkpt lat="44.73882" lon="-0.24227">
        <ele>109</ele>
        <time>2022-01-16T06:38:25.000Z</time>
      </trkpt>
      <trkpt lat="44.73882" lon="-0.24219">
        <ele>109</ele>
        <time>2022-01-16T06:38:27.000Z</time>
      </trkpt>
      <trkpt lat="44.73883" lon="-0.24215">
        <ele>109</ele>
        <time>2022-01-16T06:38:28.000Z</time>
      </trkpt>
      <trkpt lat="44.73884" lon="-0.2421">
        <ele>109</ele>
        <time>2022-01-16T06:38:29.000Z</time>
      </trkpt>
      <trkpt lat="44.73886" lon="-0.242">
        <ele>109</ele>
        <time>2022-01-16T06:38:31.000Z</time>
      </trkpt>
      <trkpt lat="44.73888" lon="-0.24192">
        <ele>109</ele>
        <time>2022-01-16T06:38:33.000Z</time>
      </trkpt>
      <trkpt lat="44.73891" lon="-0.24185">
        <ele>108.80000305176</ele>
        <time>2022-01-16T06:38:35.000Z</time>
      </trkpt>
      <trkpt lat="44.73893" lon="-0.24176">
        <ele>108.59999847412</ele>
        <time>2022-01-16T06:38:37.000Z</time>
      </trkpt>
      <trkpt lat="44.73896" lon="-0.24167">
        <ele>108.19999694824</ele>
        <time>2022-01-16T06:38:39.000Z</time>
      </trkpt>
      <trkpt lat="44.73899" lon="-0.24159">
        <ele>108.40000152588</ele>
        <time>2022-01-16T06:38:41.000Z</time>
      </trkpt>
      <trkpt lat="44.73903" lon="-0.24152">
        <ele>109.19999694824</ele>
        <time>2022-01-16T06:38:43.000Z</time>
      </trkpt>
      <trkpt lat="44.73906" lon="-0.2415">
        <ele>109.59999847412</ele>
        <time>2022-01-16T06:38:44.000Z</time>
      </trkpt>
      <trkpt lat="44.7391" lon="-0.24149">
        <ele>109.80000305176</ele>
        <time>2022-01-16T06:38:45.000Z</time>
      </trkpt>
      <trkpt lat="44.73916" lon="-0.24151">
        <ele>110.40000152588</ele>
        <time>2022-01-16T06:38:47.000Z</time>
      </trkpt>
      <trkpt lat="44.73919" lon="-0.24153">
        <ele>110.80000305176</ele>
        <time>2022-01-16T06:38:48.000Z</time>
      </trkpt>
      <trkpt lat="44.73922" lon="-0.24154">
        <ele>111</ele>
        <time>2022-01-16T06:38:49.000Z</time>
      </trkpt>
      <trkpt lat="44.73927" lon="-0.24157">
        <ele>111.19999694824</ele>
        <time>2022-01-16T06:38:51.000Z</time>
      </trkpt>
      <trkpt lat="44.73933" lon="-0.24159">
        <ele>111.80000305176</ele>
        <time>2022-01-16T06:38:53.000Z</time>
      </trkpt>
      <trkpt lat="44.73939" lon="-0.24161">
        <ele>112.19999694824</ele>
        <time>2022-01-16T06:38:55.000Z</time>
      </trkpt>
      <trkpt lat="44.73944" lon="-0.24164">
        <ele>112.59999847412</ele>
        <time>2022-01-16T06:38:57.000Z</time>
      </trkpt>
      <trkpt lat="44.7395" lon="-0.24165">
        <ele>112.80000305176</ele>
        <time>2022-01-16T06:38:59.000Z</time>
      </trkpt>
      <trkpt lat="44.73956" lon="-0.24167">
        <ele>112.80000305176</ele>
        <time>2022-01-16T06:39:01.000Z</time>
      </trkpt>
      <trkpt lat="44.73962" lon="-0.24167">
        <ele>112.80000305176</ele>
        <time>2022-01-16T06:39:03.000Z</time>
      </trkpt>
      <trkpt lat="44.73968" lon="-0.24169">
        <ele>112.59999847412</ele>
        <time>2022-01-16T06:39:05.000Z</time>
      </trkpt>
      <trkpt lat="44.73974" lon="-0.24171">
        <ele>112.59999847412</ele>
        <time>2022-01-16T06:39:07.000Z</time>
      </trkpt>
      <trkpt lat="44.73979" lon="-0.24172">
        <ele>112.59999847412</ele>
        <time>2022-01-16T06:39:09.000Z</time>
      </trkpt>
      <trkpt lat="44.73983" lon="-0.24171">
        <ele>112.59999847412</ele>
        <time>2022-01-16T06:39:10.000Z</time>
      </trkpt>
      <trkpt lat="44.73986" lon="-0.2417">
        <ele>112.59999847412</ele>
        <time>2022-01-16T06:39:11.000Z</time>
      </trkpt>
      <trkpt lat="44.73993" lon="-0.24167">
        <ele>112.80000305176</ele>
        <time>2022-01-16T06:39:13.000Z</time>
      </trkpt>
      <trkpt lat="44.73996" lon="-0.24165">
        <ele>112.80000305176</ele>
        <time>2022-01-16T06:39:14.000Z</time>
      </trkpt>
      <trkpt lat="44.73999" lon="-0.24163">
        <ele>112.80000305176</ele>
        <time>2022-01-16T06:39:15.000Z</time>
      </trkpt>
      <trkpt lat="44.74002" lon="-0.24159">
        <ele>113</ele>
        <time>2022-01-16T06:39:16.000Z</time>
      </trkpt>
      <trkpt lat="44.74003" lon="-0.24155">
        <ele>113</ele>
        <time>2022-01-16T06:39:17.000Z</time>
      </trkpt>
      <trkpt lat="44.74005" lon="-0.24151">
        <ele>113</ele>
        <time>2022-01-16T06:39:18.000Z</time>
      </trkpt>
      <trkpt lat="44.74006" lon="-0.24147">
        <ele>113</ele>
        <time>2022-01-16T06:39:19.000Z</time>
      </trkpt>
      <trkpt lat="44.74009" lon="-0.24139">
        <ele>113</ele>
        <time>2022-01-16T06:39:21.000Z</time>
      </trkpt>
      <trkpt lat="44.74013" lon="-0.24131">
        <ele>113.19999694824</ele>
        <time>2022-01-16T06:39:23.000Z</time>
      </trkpt>
      <trkpt lat="44.74015" lon="-0.24127">
        <ele>113.19999694824</ele>
        <time>2022-01-16T06:39:24.000Z</time>
      </trkpt>
      <trkpt lat="44.74017" lon="-0.24123">
        <ele>113.40000152588</ele>
        <time>2022-01-16T06:39:25.000Z</time>
      </trkpt>
      <trkpt lat="44.74021" lon="-0.24116">
        <ele>113.59999847412</ele>
        <time>2022-01-16T06:39:27.000Z</time>
      </trkpt>
      <trkpt lat="44.74024" lon="-0.24108">
        <ele>113.80000305176</ele>
        <time>2022-01-16T06:39:29.000Z</time>
      </trkpt>
      <trkpt lat="44.74025" lon="-0.24099">
        <ele>114.19999694824</ele>
        <time>2022-01-16T06:39:31.000Z</time>
      </trkpt>
      <trkpt lat="44.74025" lon="-0.24092">
        <ele>114.40000152588</ele>
        <time>2022-01-16T06:39:33.000Z</time>
      </trkpt>
      <trkpt lat="44.74025" lon="-0.24085">
        <ele>114.59999847412</ele>
        <time>2022-01-16T06:39:35.000Z</time>
      </trkpt>
      <trkpt lat="44.74025" lon="-0.2408">
        <ele>114.59999847412</ele>
        <time>2022-01-16T06:39:36.000Z</time>
      </trkpt>
      <trkpt lat="44.74026" lon="-0.24076">
        <ele>114.80000305176</ele>
        <time>2022-01-16T06:39:37.000Z</time>
      </trkpt>
      <trkpt lat="44.74027" lon="-0.24066">
        <ele>115</ele>
        <time>2022-01-16T06:39:39.000Z</time>
      </trkpt>
      <trkpt lat="44.74028" lon="-0.24056">
        <ele>115.59999847412</ele>
        <time>2022-01-16T06:39:41.000Z</time>
      </trkpt>
      <trkpt lat="44.74032" lon="-0.24045">
        <ele>115.80000305176</ele>
        <time>2022-01-16T06:39:43.000Z</time>
      </trkpt>
      <trkpt lat="44.74036" lon="-0.24035">
        <ele>116.19999694824</ele>
        <time>2022-01-16T06:39:45.000Z</time>
      </trkpt>
      <trkpt lat="44.74037" lon="-0.2403">
        <ele>116.19999694824</ele>
        <time>2022-01-16T06:39:46.000Z</time>
      </trkpt>
      <trkpt lat="44.74038" lon="-0.24026">
        <ele>116.19999694824</ele>
        <time>2022-01-16T06:39:47.000Z</time>
      </trkpt>
      <trkpt lat="44.74039" lon="-0.24018">
        <ele>116.40000152588</ele>
        <time>2022-01-16T06:39:49.000Z</time>
      </trkpt>
      <trkpt lat="44.74039" lon="-0.24009">
        <ele>116.40000152588</ele>
        <time>2022-01-16T06:39:51.000Z</time>
      </trkpt>
      <trkpt lat="44.74039" lon="-0.23999">
        <ele>116.40000152588</ele>
        <time>2022-01-16T06:39:53.000Z</time>
      </trkpt>
      <trkpt lat="44.74041" lon="-0.23989">
        <ele>116.19999694824</ele>
        <time>2022-01-16T06:39:55.000Z</time>
      </trkpt>
      <trkpt lat="44.74044" lon="-0.23985">
        <ele>116</ele>
        <time>2022-01-16T06:39:56.000Z</time>
      </trkpt>
      <trkpt lat="44.74046" lon="-0.2398">
        <ele>116</ele>
        <time>2022-01-16T06:39:57.000Z</time>
      </trkpt>
      <trkpt lat="44.74049" lon="-0.2397">
        <ele>115.80000305176</ele>
        <time>2022-01-16T06:39:59.000Z</time>
      </trkpt>
      <trkpt lat="44.74052" lon="-0.23964">
        <ele>115.59999847412</ele>
        <time>2022-01-16T06:40:00.000Z</time>
      </trkpt>
      <trkpt lat="44.74053" lon="-0.23959">
        <ele>115.40000152588</ele>
        <time>2022-01-16T06:40:01.000Z</time>
      </trkpt>
      <trkpt lat="44.74054" lon="-0.23953">
        <ele>115.19999694824</ele>
        <time>2022-01-16T06:40:02.000Z</time>
      </trkpt>
      <trkpt lat="44.74054" lon="-0.23946">
        <ele>115</ele>
        <time>2022-01-16T06:40:03.000Z</time>
      </trkpt>
      <trkpt lat="44.74053" lon="-0.2394">
        <ele>114.80000305176</ele>
        <time>2022-01-16T06:40:04.000Z</time>
      </trkpt>
      <trkpt lat="44.74053" lon="-0.23934">
        <ele>114.59999847412</ele>
        <time>2022-01-16T06:40:05.000Z</time>
      </trkpt>
      <trkpt lat="44.74053" lon="-0.23924">
        <ele>114.19999694824</ele>
        <time>2022-01-16T06:40:07.000Z</time>
      </trkpt>
      <trkpt lat="44.74053" lon="-0.23919">
        <ele>114</ele>
        <time>2022-01-16T06:40:08.000Z</time>
      </trkpt>
      <trkpt lat="44.74053" lon="-0.23913">
        <ele>114</ele>
        <time>2022-01-16T06:40:09.000Z</time>
      </trkpt>
      <trkpt lat="44.74054" lon="-0.23903">
        <ele>113.80000305176</ele>
        <time>2022-01-16T06:40:11.000Z</time>
      </trkpt>
      <trkpt lat="44.74055" lon="-0.23897">
        <ele>113.59999847412</ele>
        <time>2022-01-16T06:40:12.000Z</time>
      </trkpt>
      <trkpt lat="44.74055" lon="-0.23891">
        <ele>113.40000152588</ele>
        <time>2022-01-16T06:40:13.000Z</time>
      </trkpt>
      <trkpt lat="44.74055" lon="-0.2388">
        <ele>113</ele>
        <time>2022-01-16T06:40:15.000Z</time>
      </trkpt>
      <trkpt lat="44.74055" lon="-0.23869">
        <ele>113.40000152588</ele>
        <time>2022-01-16T06:40:17.000Z</time>
      </trkpt>
      <trkpt lat="44.74054" lon="-0.23864">
        <ele>113.59999847412</ele>
        <time>2022-01-16T06:40:18.000Z</time>
      </trkpt>
      <trkpt lat="44.74054" lon="-0.2386">
        <ele>113.59999847412</ele>
        <time>2022-01-16T06:40:19.000Z</time>
      </trkpt>
      <trkpt lat="44.74051" lon="-0.23852">
        <ele>113.59999847412</ele>
        <time>2022-01-16T06:40:21.000Z</time>
      </trkpt>
      <trkpt lat="44.74048" lon="-0.23848">
        <ele>113.59999847412</ele>
        <time>2022-01-16T06:40:22.000Z</time>
      </trkpt>
      <trkpt lat="44.74046" lon="-0.23843">
        <ele>113.80000305176</ele>
        <time>2022-01-16T06:40:23.000Z</time>
      </trkpt>
      <trkpt lat="44.74041" lon="-0.23833">
        <ele>114.59999847412</ele>
        <time>2022-01-16T06:40:25.000Z</time>
      </trkpt>
      <trkpt lat="44.74039" lon="-0.23822">
        <ele>114.80000305176</ele>
        <time>2022-01-16T06:40:27.000Z</time>
      </trkpt>
      <trkpt lat="44.74036" lon="-0.23813">
        <ele>115.40000152588</ele>
        <time>2022-01-16T06:40:29.000Z</time>
      </trkpt>
      <trkpt lat="44.74034" lon="-0.23809">
        <ele>115.59999847412</ele>
        <time>2022-01-16T06:40:30.000Z</time>
      </trkpt>
      <trkpt lat="44.74032" lon="-0.23805">
        <ele>115.59999847412</ele>
        <time>2022-01-16T06:40:31.000Z</time>
      </trkpt>
      <trkpt lat="44.74027" lon="-0.238">
        <ele>115.40000152588</ele>
        <time>2022-01-16T06:40:33.000Z</time>
      </trkpt>
      <trkpt lat="44.74024" lon="-0.23798">
        <ele>115.19999694824</ele>
        <time>2022-01-16T06:40:34.000Z</time>
      </trkpt>
      <trkpt lat="44.74022" lon="-0.23796">
        <ele>115.19999694824</ele>
        <time>2022-01-16T06:40:35.000Z</time>
      </trkpt>
      <trkpt lat="44.74017" lon="-0.2379">
        <ele>114.80000305176</ele>
        <time>2022-01-16T06:40:37.000Z</time>
      </trkpt>
      <trkpt lat="44.74011" lon="-0.23784">
        <ele>114.59999847412</ele>
        <time>2022-01-16T06:40:39.000Z</time>
      </trkpt>
      <trkpt lat="44.74005" lon="-0.23777">
        <ele>114.80000305176</ele>
        <time>2022-01-16T06:40:41.000Z</time>
      </trkpt>
      <trkpt lat="44.74001" lon="-0.23769">
        <ele>114.59999847412</ele>
        <time>2022-01-16T06:40:43.000Z</time>
      </trkpt>
      <trkpt lat="44.73999" lon="-0.23765">
        <ele>114.40000152588</ele>
        <time>2022-01-16T06:40:44.000Z</time>
      </trkpt>
      <trkpt lat="44.73997" lon="-0.23761">
        <ele>114.40000152588</ele>
        <time>2022-01-16T06:40:45.000Z</time>
      </trkpt>
      <trkpt lat="44.73994" lon="-0.23751">
        <ele>114.19999694824</ele>
        <time>2022-01-16T06:40:47.000Z</time>
      </trkpt>
      <trkpt lat="44.73992" lon="-0.2374">
        <ele>114.59999847412</ele>
        <time>2022-01-16T06:40:49.000Z</time>
      </trkpt>
      <trkpt lat="44.73992" lon="-0.2373">
        <ele>115</ele>
        <time>2022-01-16T06:40:51.000Z</time>
      </trkpt>
      <trkpt lat="44.73991" lon="-0.23721">
        <ele>114.80000305176</ele>
        <time>2022-01-16T06:40:53.000Z</time>
      </trkpt>
      <trkpt lat="44.73989" lon="-0.23713">
        <ele>114.59999847412</ele>
        <time>2022-01-16T06:40:55.000Z</time>
      </trkpt>
      <trkpt lat="44.73988" lon="-0.23703">
        <ele>114.40000152588</ele>
        <time>2022-01-16T06:40:57.000Z</time>
      </trkpt>
      <trkpt lat="44.73987" lon="-0.23693">
        <ele>114.80000305176</ele>
        <time>2022-01-16T06:40:59.000Z</time>
      </trkpt>
      <trkpt lat="44.73984" lon="-0.23684">
        <ele>115</ele>
        <time>2022-01-16T06:41:01.000Z</time>
      </trkpt>
      <trkpt lat="44.73981" lon="-0.23675">
        <ele>115</ele>
        <time>2022-01-16T06:41:03.000Z</time>
      </trkpt>
      <trkpt lat="44.73978" lon="-0.23665">
        <ele>115</ele>
        <time>2022-01-16T06:41:05.000Z</time>
      </trkpt>
      <trkpt lat="44.73977" lon="-0.2366">
        <ele>115</ele>
        <time>2022-01-16T06:41:06.000Z</time>
      </trkpt>
      <trkpt lat="44.73977" lon="-0.23656">
        <ele>115</ele>
        <time>2022-01-16T06:41:07.000Z</time>
      </trkpt>
      <trkpt lat="44.73977" lon="-0.23654">
        <ele>115</ele>
        <time>2022-01-16T06:41:09.000Z</time>
      </trkpt>
      <trkpt lat="44.73979" lon="-0.2365">
        <ele>115.40000152588</ele>
        <time>2022-01-16T06:42:27.000Z</time>
      </trkpt>
      <trkpt lat="44.73978" lon="-0.23645">
        <ele>115.40000152588</ele>
        <time>2022-01-16T06:42:29.000Z</time>
      </trkpt>
      <trkpt lat="44.73976" lon="-0.23638">
        <ele>115.59999847412</ele>
        <time>2022-01-16T06:42:31.000Z</time>
      </trkpt>
      <trkpt lat="44.73971" lon="-0.23631">
        <ele>115.80000305176</ele>
        <time>2022-01-16T06:42:33.000Z</time>
      </trkpt>
      <trkpt lat="44.73969" lon="-0.23627">
        <ele>115.59999847412</ele>
        <time>2022-01-16T06:42:34.000Z</time>
      </trkpt>
      <trkpt lat="44.73967" lon="-0.23623">
        <ele>115.59999847412</ele>
        <time>2022-01-16T06:42:35.000Z</time>
      </trkpt>
      <trkpt lat="44.73963" lon="-0.23613">
        <ele>115.59999847412</ele>
        <time>2022-01-16T06:42:37.000Z</time>
      </trkpt>
      <trkpt lat="44.73961" lon="-0.23608">
        <ele>115.80000305176</ele>
        <time>2022-01-16T06:42:38.000Z</time>
      </trkpt>
      <trkpt lat="44.7396" lon="-0.23605">
        <ele>116</ele>
        <time>2022-01-16T06:42:39.000Z</time>
      </trkpt>
      <trkpt lat="44.73958" lon="-0.23602">
        <ele>116</ele>
        <time>2022-01-16T06:42:40.000Z</time>
      </trkpt>
      <trkpt lat="44.73956" lon="-0.23601">
        <ele>115.80000305176</ele>
        <time>2022-01-16T06:42:41.000Z</time>
      </trkpt>
      <trkpt lat="44.73955" lon="-0.23598">
        <ele>115.80000305176</ele>
        <time>2022-01-16T06:42:42.000Z</time>
      </trkpt>
      <trkpt lat="44.73954" lon="-0.23596">
        <ele>115.80000305176</ele>
        <time>2022-01-16T06:42:43.000Z</time>
      </trkpt>
      <trkpt lat="44.73953" lon="-0.23589">
        <ele>116</ele>
        <time>2022-01-16T06:42:45.000Z</time>
      </trkpt>
      <trkpt lat="44.73951" lon="-0.23585">
        <ele>116</ele>
        <time>2022-01-16T06:42:46.000Z</time>
      </trkpt>
      <trkpt lat="44.7395" lon="-0.2358">
        <ele>116</ele>
        <time>2022-01-16T06:42:47.000Z</time>
      </trkpt>
      <trkpt lat="44.73947" lon="-0.23571">
        <ele>116.19999694824</ele>
        <time>2022-01-16T06:42:49.000Z</time>
      </trkpt>
      <trkpt lat="44.73945" lon="-0.2356">
        <ele>116.19999694824</ele>
        <time>2022-01-16T06:42:51.000Z</time>
      </trkpt>
      <trkpt lat="44.73943" lon="-0.23556">
        <ele>116.19999694824</ele>
        <time>2022-01-16T06:42:52.000Z</time>
      </trkpt>
      <trkpt lat="44.73941" lon="-0.23552">
        <ele>116.40000152588</ele>
        <time>2022-01-16T06:42:53.000Z</time>
      </trkpt>
      <trkpt lat="44.73936" lon="-0.23544">
        <ele>116.40000152588</ele>
        <time>2022-01-16T06:42:55.000Z</time>
      </trkpt>
      <trkpt lat="44.73931" lon="-0.23535">
        <ele>116.40000152588</ele>
        <time>2022-01-16T06:42:57.000Z</time>
      </trkpt>
      <trkpt lat="44.73926" lon="-0.23526">
        <ele>116.80000305176</ele>
        <time>2022-01-16T06:42:59.000Z</time>
      </trkpt>
      <trkpt lat="44.73921" lon="-0.23517">
        <ele>117</ele>
        <time>2022-01-16T06:43:01.000Z</time>
      </trkpt>
      <trkpt lat="44.73918" lon="-0.23512">
        <ele>117.19999694824</ele>
        <time>2022-01-16T06:43:02.000Z</time>
      </trkpt>
      <trkpt lat="44.73915" lon="-0.23508">
        <ele>117.19999694824</ele>
        <time>2022-01-16T06:43:03.000Z</time>
      </trkpt>
      <trkpt lat="44.7391" lon="-0.235">
        <ele>117.59999847412</ele>
        <time>2022-01-16T06:43:05.000Z</time>
      </trkpt>
      <trkpt lat="44.73904" lon="-0.23492">
        <ele>118.40000152588</ele>
        <time>2022-01-16T06:43:07.000Z</time>
      </trkpt>
      <trkpt lat="44.73901" lon="-0.23488">
        <ele>118.40000152588</ele>
        <time>2022-01-16T06:43:08.000Z</time>
      </trkpt>
      <trkpt lat="44.73897" lon="-0.23485">
        <ele>118.59999847412</ele>
        <time>2022-01-16T06:43:09.000Z</time>
      </trkpt>
      <trkpt lat="44.7389" lon="-0.23478">
        <ele>118.40000152588</ele>
        <time>2022-01-16T06:43:11.000Z</time>
      </trkpt>
      <trkpt lat="44.73883" lon="-0.23469">
        <ele>118.19999694824</ele>
        <time>2022-01-16T06:43:13.000Z</time>
      </trkpt>
      <trkpt lat="44.7388" lon="-0.23464">
        <ele>118</ele>
        <time>2022-01-16T06:43:14.000Z</time>
      </trkpt>
      <trkpt lat="44.73877" lon="-0.23459">
        <ele>117.40000152588</ele>
        <time>2022-01-16T06:43:15.000Z</time>
      </trkpt>
      <trkpt lat="44.73873" lon="-0.23455">
        <ele>117</ele>
        <time>2022-01-16T06:43:16.000Z</time>
      </trkpt>
      <trkpt lat="44.73869" lon="-0.23452">
        <ele>117</ele>
        <time>2022-01-16T06:43:17.000Z</time>
      </trkpt>
      <trkpt lat="44.73865" lon="-0.23449">
        <ele>116.59999847412</ele>
        <time>2022-01-16T06:43:18.000Z</time>
      </trkpt>
      <trkpt lat="44.7386" lon="-0.23446">
        <ele>116</ele>
        <time>2022-01-16T06:43:19.000Z</time>
      </trkpt>
      <trkpt lat="44.73851" lon="-0.23441">
        <ele>115.59999847412</ele>
        <time>2022-01-16T06:43:21.000Z</time>
      </trkpt>
      <trkpt lat="44.73842" lon="-0.23436">
        <ele>115</ele>
        <time>2022-01-16T06:43:23.000Z</time>
      </trkpt>
      <trkpt lat="44.73835" lon="-0.2343">
        <ele>114.40000152588</ele>
        <time>2022-01-16T06:43:25.000Z</time>
      </trkpt>
      <trkpt lat="44.73831" lon="-0.23426">
        <ele>113.80000305176</ele>
        <time>2022-01-16T06:43:27.000Z</time>
      </trkpt>
      <trkpt lat="44.73826" lon="-0.23421">
        <ele>113.40000152588</ele>
        <time>2022-01-16T06:43:29.000Z</time>
      </trkpt>
      <trkpt lat="44.73824" lon="-0.23418">
        <ele>113.59999847412</ele>
        <time>2022-01-16T06:43:30.000Z</time>
      </trkpt>
      <trkpt lat="44.73821" lon="-0.23416">
        <ele>113.59999847412</ele>
        <time>2022-01-16T06:43:31.000Z</time>
      </trkpt>
      <trkpt lat="44.73816" lon="-0.23411">
        <ele>113.80000305176</ele>
        <time>2022-01-16T06:43:33.000Z</time>
      </trkpt>
      <trkpt lat="44.73812" lon="-0.23404">
        <ele>113.40000152588</ele>
        <time>2022-01-16T06:43:35.000Z</time>
      </trkpt>
      <trkpt lat="44.7381" lon="-0.23401">
        <ele>113</ele>
        <time>2022-01-16T06:43:36.000Z</time>
      </trkpt>
      <trkpt lat="44.73808" lon="-0.23398">
        <ele>112.80000305176</ele>
        <time>2022-01-16T06:43:37.000Z</time>
      </trkpt>
      <trkpt lat="44.73806" lon="-0.23396">
        <ele>112.59999847412</ele>
        <time>2022-01-16T06:43:38.000Z</time>
      </trkpt>
      <trkpt lat="44.73804" lon="-0.23394">
        <ele>112.19999694824</ele>
        <time>2022-01-16T06:43:39.000Z</time>
      </trkpt>
      <trkpt lat="44.73801" lon="-0.2339">
        <ele>112</ele>
        <time>2022-01-16T06:43:40.000Z</time>
      </trkpt>
      <trkpt lat="44.73799" lon="-0.23387">
        <ele>112.19999694824</ele>
        <time>2022-01-16T06:43:41.000Z</time>
      </trkpt>
      <trkpt lat="44.73795" lon="-0.23379">
        <ele>112.19999694824</ele>
        <time>2022-01-16T06:43:43.000Z</time>
      </trkpt>
      <trkpt lat="44.7379" lon="-0.23372">
        <ele>112.19999694824</ele>
        <time>2022-01-16T06:43:45.000Z</time>
      </trkpt>
      <trkpt lat="44.73784" lon="-0.23366">
        <ele>112.40000152588</ele>
        <time>2022-01-16T06:43:47.000Z</time>
      </trkpt>
      <trkpt lat="44.73779" lon="-0.23361">
        <ele>112.59999847412</ele>
        <time>2022-01-16T06:43:49.000Z</time>
      </trkpt>
      <trkpt lat="44.73774" lon="-0.23356">
        <ele>113.19999694824</ele>
        <time>2022-01-16T06:43:51.000Z</time>
      </trkpt>
      <trkpt lat="44.73768" lon="-0.2335">
        <ele>113.80000305176</ele>
        <time>2022-01-16T06:43:53.000Z</time>
      </trkpt>
      <trkpt lat="44.73763" lon="-0.23343">
        <ele>114.40000152588</ele>
        <time>2022-01-16T06:43:55.000Z</time>
      </trkpt>
      <trkpt lat="44.7376" lon="-0.2334">
        <ele>114.59999847412</ele>
        <time>2022-01-16T06:43:56.000Z</time>
      </trkpt>
      <trkpt lat="44.73758" lon="-0.23337">
        <ele>114.80000305176</ele>
        <time>2022-01-16T06:43:57.000Z</time>
      </trkpt>
      <trkpt lat="44.73752" lon="-0.23331">
        <ele>115</ele>
        <time>2022-01-16T06:43:59.000Z</time>
      </trkpt>
      <trkpt lat="44.73745" lon="-0.23325">
        <ele>115.40000152588</ele>
        <time>2022-01-16T06:44:01.000Z</time>
      </trkpt>
      <trkpt lat="44.73741" lon="-0.23323">
        <ele>115.40000152588</ele>
        <time>2022-01-16T06:44:02.000Z</time>
      </trkpt>
      <trkpt lat="44.73738" lon="-0.23322">
        <ele>115.59999847412</ele>
        <time>2022-01-16T06:44:03.000Z</time>
      </trkpt>
      <trkpt lat="44.7373" lon="-0.23319">
        <ele>116</ele>
        <time>2022-01-16T06:44:05.000Z</time>
      </trkpt>
      <trkpt lat="44.73722" lon="-0.23316">
        <ele>115.80000305176</ele>
        <time>2022-01-16T06:44:07.000Z</time>
      </trkpt>
      <trkpt lat="44.73716" lon="-0.23313">
        <ele>115.59999847412</ele>
        <time>2022-01-16T06:44:09.000Z</time>
      </trkpt>
      <trkpt lat="44.73709" lon="-0.23308">
        <ele>116</ele>
        <time>2022-01-16T06:44:11.000Z</time>
      </trkpt>
      <trkpt lat="44.73702" lon="-0.23301">
        <ele>116.80000305176</ele>
        <time>2022-01-16T06:44:13.000Z</time>
      </trkpt>
      <trkpt lat="44.73697" lon="-0.23293">
        <ele>116.80000305176</ele>
        <time>2022-01-16T06:44:15.000Z</time>
      </trkpt>
      <trkpt lat="44.73695" lon="-0.23289">
        <ele>116.80000305176</ele>
        <time>2022-01-16T06:44:16.000Z</time>
      </trkpt>
      <trkpt lat="44.73693" lon="-0.23285">
        <ele>116.80000305176</ele>
        <time>2022-01-16T06:44:17.000Z</time>
      </trkpt>
      <trkpt lat="44.73688" lon="-0.23276">
        <ele>116.80000305176</ele>
        <time>2022-01-16T06:44:19.000Z</time>
      </trkpt>
      <trkpt lat="44.73686" lon="-0.23272">
        <ele>117</ele>
        <time>2022-01-16T06:44:20.000Z</time>
      </trkpt>
      <trkpt lat="44.73683" lon="-0.23268">
        <ele>117</ele>
        <time>2022-01-16T06:44:21.000Z</time>
      </trkpt>
      <trkpt lat="44.73676" lon="-0.23259">
        <ele>117</ele>
        <time>2022-01-16T06:44:23.000Z</time>
      </trkpt>
      <trkpt lat="44.73668" lon="-0.23251">
        <ele>116.80000305176</ele>
        <time>2022-01-16T06:44:25.000Z</time>
      </trkpt>
      <trkpt lat="44.73659" lon="-0.23243">
        <ele>116.40000152588</ele>
        <time>2022-01-16T06:44:27.000Z</time>
      </trkpt>
      <trkpt lat="44.73649" lon="-0.23236">
        <ele>115.80000305176</ele>
        <time>2022-01-16T06:44:29.000Z</time>
      </trkpt>
      <trkpt lat="44.73642" lon="-0.23226">
        <ele>115.19999694824</ele>
        <time>2022-01-16T06:44:31.000Z</time>
      </trkpt>
      <trkpt lat="44.73639" lon="-0.23219">
        <ele>114.80000305176</ele>
        <time>2022-01-16T06:44:32.000Z</time>
      </trkpt>
      <trkpt lat="44.73637" lon="-0.23212">
        <ele>114.19999694824</ele>
        <time>2022-01-16T06:44:33.000Z</time>
      </trkpt>
      <trkpt lat="44.73633" lon="-0.23198">
        <ele>113.40000152588</ele>
        <time>2022-01-16T06:44:35.000Z</time>
      </trkpt>
      <trkpt lat="44.73628" lon="-0.23187">
        <ele>112.80000305176</ele>
        <time>2022-01-16T06:44:37.000Z</time>
      </trkpt>
      <trkpt lat="44.73622" lon="-0.23177">
        <ele>112.19999694824</ele>
        <time>2022-01-16T06:44:39.000Z</time>
      </trkpt>
      <trkpt lat="44.73618" lon="-0.23167">
        <ele>111.40000152588</ele>
        <time>2022-01-16T06:44:41.000Z</time>
      </trkpt>
      <trkpt lat="44.73616" lon="-0.23162">
        <ele>111</ele>
        <time>2022-01-16T06:44:42.000Z</time>
      </trkpt>
      <trkpt lat="44.73615" lon="-0.23157">
        <ele>111</ele>
        <time>2022-01-16T06:44:43.000Z</time>
      </trkpt>
      <trkpt lat="44.73611" lon="-0.23149">
        <ele>111.19999694824</ele>
        <time>2022-01-16T06:44:45.000Z</time>
      </trkpt>
      <trkpt lat="44.73609" lon="-0.23144">
        <ele>111.19999694824</ele>
        <time>2022-01-16T06:44:46.000Z</time>
      </trkpt>
      <trkpt lat="44.73608" lon="-0.23138">
        <ele>111.19999694824</ele>
        <time>2022-01-16T06:44:47.000Z</time>
      </trkpt>
      <trkpt lat="44.73606" lon="-0.23133">
        <ele>111.19999694824</ele>
        <time>2022-01-16T06:44:48.000Z</time>
      </trkpt>
      <trkpt lat="44.73603" lon="-0.23127">
        <ele>111</ele>
        <time>2022-01-16T06:44:49.000Z</time>
      </trkpt>
      <trkpt lat="44.736" lon="-0.23123">
        <ele>110.59999847412</ele>
        <time>2022-01-16T06:44:50.000Z</time>
      </trkpt>
      <trkpt lat="44.73596" lon="-0.23119">
        <ele>110.59999847412</ele>
        <time>2022-01-16T06:44:51.000Z</time>
      </trkpt>
      <trkpt lat="44.73588" lon="-0.23113">
        <ele>110.59999847412</ele>
        <time>2022-01-16T06:44:53.000Z</time>
      </trkpt>
      <trkpt lat="44.73584" lon="-0.23109">
        <ele>110.40000152588</ele>
        <time>2022-01-16T06:44:54.000Z</time>
      </trkpt>
      <trkpt lat="44.7358" lon="-0.23106">
        <ele>110.19999694824</ele>
        <time>2022-01-16T06:44:55.000Z</time>
      </trkpt>
      <trkpt lat="44.73576" lon="-0.23102">
        <ele>110</ele>
        <time>2022-01-16T06:44:56.000Z</time>
      </trkpt>
      <trkpt lat="44.73572" lon="-0.23099">
        <ele>110</ele>
        <time>2022-01-16T06:44:57.000Z</time>
      </trkpt>
      <trkpt lat="44.73568" lon="-0.23095">
        <ele>110</ele>
        <time>2022-01-16T06:44:58.000Z</time>
      </trkpt>
      <trkpt lat="44.73564" lon="-0.23091">
        <ele>109.59999847412</ele>
        <time>2022-01-16T06:44:59.000Z</time>
      </trkpt>
      <trkpt lat="44.73556" lon="-0.23085">
        <ele>109.40000152588</ele>
        <time>2022-01-16T06:45:01.000Z</time>
      </trkpt>
      <trkpt lat="44.73551" lon="-0.23081">
        <ele>109.59999847412</ele>
        <time>2022-01-16T06:45:02.000Z</time>
      </trkpt>
      <trkpt lat="44.73547" lon="-0.23078">
        <ele>109.80000305176</ele>
        <time>2022-01-16T06:45:03.000Z</time>
      </trkpt>
      <trkpt lat="44.73543" lon="-0.23075">
        <ele>110</ele>
        <time>2022-01-16T06:45:04.000Z</time>
      </trkpt>
      <trkpt lat="44.73538" lon="-0.23073">
        <ele>110.19999694824</ele>
        <time>2022-01-16T06:45:05.000Z</time>
      </trkpt>
      <trkpt lat="44.73533" lon="-0.23071">
        <ele>109.80000305176</ele>
        <time>2022-01-16T06:45:06.000Z</time>
      </trkpt>
      <trkpt lat="44.73528" lon="-0.23071">
        <ele>109.80000305176</ele>
        <time>2022-01-16T06:45:07.000Z</time>
      </trkpt>
      <trkpt lat="44.73519" lon="-0.23072">
        <ele>109.80000305176</ele>
        <time>2022-01-16T06:45:09.000Z</time>
      </trkpt>
      <trkpt lat="44.7351" lon="-0.23074">
        <ele>110</ele>
        <time>2022-01-16T06:45:11.000Z</time>
      </trkpt>
      <trkpt lat="44.73505" lon="-0.23074">
        <ele>110</ele>
        <time>2022-01-16T06:45:12.000Z</time>
      </trkpt>
      <trkpt lat="44.735" lon="-0.23074">
        <ele>110</ele>
        <time>2022-01-16T06:45:13.000Z</time>
      </trkpt>
      <trkpt lat="44.73491" lon="-0.23071">
        <ele>109.80000305176</ele>
        <time>2022-01-16T06:45:15.000Z</time>
      </trkpt>
      <trkpt lat="44.73486" lon="-0.23069">
        <ele>109.80000305176</ele>
        <time>2022-01-16T06:45:16.000Z</time>
      </trkpt>
      <trkpt lat="44.73482" lon="-0.23067">
        <ele>109.80000305176</ele>
        <time>2022-01-16T06:45:17.000Z</time>
      </trkpt>
      <trkpt lat="44.73473" lon="-0.23062">
        <ele>110</ele>
        <time>2022-01-16T06:45:19.000Z</time>
      </trkpt>
      <trkpt lat="44.73469" lon="-0.2306">
        <ele>110</ele>
        <time>2022-01-16T06:45:20.000Z</time>
      </trkpt>
      <trkpt lat="44.73465" lon="-0.23057">
        <ele>110</ele>
        <time>2022-01-16T06:45:21.000Z</time>
      </trkpt>
      <trkpt lat="44.7346" lon="-0.23052">
        <ele>110</ele>
        <time>2022-01-16T06:45:23.000Z</time>
      </trkpt>
      <trkpt lat="44.73459" lon="-0.23048">
        <ele>110</ele>
        <time>2022-01-16T06:45:24.000Z</time>
      </trkpt>
      <trkpt lat="44.73459" lon="-0.23043">
        <ele>109.59999847412</ele>
        <time>2022-01-16T06:45:25.000Z</time>
      </trkpt>
      <trkpt lat="44.73458" lon="-0.23034">
        <ele>109.80000305176</ele>
        <time>2022-01-16T06:45:27.000Z</time>
      </trkpt>
      <trkpt lat="44.73456" lon="-0.2303">
        <ele>110.19999694824</ele>
        <time>2022-01-16T06:45:28.000Z</time>
      </trkpt>
      <trkpt lat="44.73454" lon="-0.23026">
        <ele>110.59999847412</ele>
        <time>2022-01-16T06:45:29.000Z</time>
      </trkpt>
      <trkpt lat="44.7345" lon="-0.23016">
        <ele>110.80000305176</ele>
        <time>2022-01-16T06:45:31.000Z</time>
      </trkpt>
      <trkpt lat="44.73447" lon="-0.23012">
        <ele>110.59999847412</ele>
        <time>2022-01-16T06:45:32.000Z</time>
      </trkpt>
      <trkpt lat="44.73444" lon="-0.23009">
        <ele>110.40000152588</ele>
        <time>2022-01-16T06:45:33.000Z</time>
      </trkpt>
      <trkpt lat="44.73436" lon="-0.23003">
        <ele>110.59999847412</ele>
        <time>2022-01-16T06:45:35.000Z</time>
      </trkpt>
      <trkpt lat="44.73431" lon="-0.22996">
        <ele>111.19999694824</ele>
        <time>2022-01-16T06:45:37.000Z</time>
      </trkpt>
      <trkpt lat="44.73426" lon="-0.22991">
        <ele>111.59999847412</ele>
        <time>2022-01-16T06:45:39.000Z</time>
      </trkpt>
      <trkpt lat="44.73421" lon="-0.22985">
        <ele>111.40000152588</ele>
        <time>2022-01-16T06:45:41.000Z</time>
      </trkpt>
      <trkpt lat="44.73413" lon="-0.22982">
        <ele>111.19999694824</ele>
        <time>2022-01-16T06:45:43.000Z</time>
      </trkpt>
      <trkpt lat="44.73406" lon="-0.2298">
        <ele>111.19999694824</ele>
        <time>2022-01-16T06:45:45.000Z</time>
      </trkpt>
      <trkpt lat="44.73398" lon="-0.22979">
        <ele>111.80000305176</ele>
        <time>2022-01-16T06:45:47.000Z</time>
      </trkpt>
      <trkpt lat="44.73391" lon="-0.22977">
        <ele>111.59999847412</ele>
        <time>2022-01-16T06:45:49.000Z</time>
      </trkpt>
      <trkpt lat="44.73386" lon="-0.22977">
        <ele>111.40000152588</ele>
        <time>2022-01-16T06:45:51.000Z</time>
      </trkpt>
      <trkpt lat="44.73383" lon="-0.22977">
        <ele>111.19999694824</ele>
        <time>2022-01-16T06:45:52.000Z</time>
      </trkpt>
      <trkpt lat="44.73381" lon="-0.22975">
        <ele>111.19999694824</ele>
        <time>2022-01-16T06:45:53.000Z</time>
      </trkpt>
      <trkpt lat="44.73378" lon="-0.22972">
        <ele>111.19999694824</ele>
        <time>2022-01-16T06:45:55.000Z</time>
      </trkpt>
      <trkpt lat="44.73376" lon="-0.22972">
        <ele>111</ele>
        <time>2022-01-16T06:45:56.000Z</time>
      </trkpt>
      <trkpt lat="44.73375" lon="-0.22972">
        <ele>111</ele>
        <time>2022-01-16T06:45:57.000Z</time>
      </trkpt>
      <trkpt lat="44.73372" lon="-0.22973">
        <ele>110.80000305176</ele>
        <time>2022-01-16T06:45:58.000Z</time>
      </trkpt>
      <trkpt lat="44.7337" lon="-0.22974">
        <ele>110.80000305176</ele>
        <time>2022-01-16T06:45:59.000Z</time>
      </trkpt>
      <trkpt lat="44.73364" lon="-0.22975">
        <ele>110.40000152588</ele>
        <time>2022-01-16T06:46:01.000Z</time>
      </trkpt>
      <trkpt lat="44.73358" lon="-0.22976">
        <ele>109.80000305176</ele>
        <time>2022-01-16T06:46:03.000Z</time>
      </trkpt>
      <trkpt lat="44.73352" lon="-0.22976">
        <ele>109.40000152588</ele>
        <time>2022-01-16T06:46:05.000Z</time>
      </trkpt>
      <trkpt lat="44.73346" lon="-0.22976">
        <ele>109</ele>
        <time>2022-01-16T06:46:07.000Z</time>
      </trkpt>
      <trkpt lat="44.7334" lon="-0.22974">
        <ele>108.59999847412</ele>
        <time>2022-01-16T06:46:09.000Z</time>
      </trkpt>
      <trkpt lat="44.73333" lon="-0.22974">
        <ele>108.59999847412</ele>
        <time>2022-01-16T06:46:11.000Z</time>
      </trkpt>
      <trkpt lat="44.73327" lon="-0.22975">
        <ele>108.80000305176</ele>
        <time>2022-01-16T06:46:13.000Z</time>
      </trkpt>
      <trkpt lat="44.7332" lon="-0.22974">
        <ele>109</ele>
        <time>2022-01-16T06:46:15.000Z</time>
      </trkpt>
      <trkpt lat="44.73317" lon="-0.22974">
        <ele>109.19999694824</ele>
        <time>2022-01-16T06:46:16.000Z</time>
      </trkpt>
      <trkpt lat="44.73313" lon="-0.22975">
        <ele>109.19999694824</ele>
        <time>2022-01-16T06:46:17.000Z</time>
      </trkpt>
      <trkpt lat="44.73307" lon="-0.22976">
        <ele>109.40000152588</ele>
        <time>2022-01-16T06:46:19.000Z</time>
      </trkpt>
      <trkpt lat="44.73301" lon="-0.22978">
        <ele>109.40000152588</ele>
        <time>2022-01-16T06:46:21.000Z</time>
      </trkpt>
      <trkpt lat="44.73294" lon="-0.2298">
        <ele>109.40000152588</ele>
        <time>2022-01-16T06:46:23.000Z</time>
      </trkpt>
      <trkpt lat="44.73288" lon="-0.2298">
        <ele>109.40000152588</ele>
        <time>2022-01-16T06:46:25.000Z</time>
      </trkpt>
      <trkpt lat="44.73284" lon="-0.22974">
        <ele>109.59999847412</ele>
        <time>2022-01-16T06:46:27.000Z</time>
      </trkpt>
      <trkpt lat="44.73282" lon="-0.22967">
        <ele>110.19999694824</ele>
        <time>2022-01-16T06:46:29.000Z</time>
      </trkpt>
      <trkpt lat="44.7328" lon="-0.2296">
        <ele>110.59999847412</ele>
        <time>2022-01-16T06:46:31.000Z</time>
      </trkpt>
      <trkpt lat="44.73277" lon="-0.22952">
        <ele>111.19999694824</ele>
        <time>2022-01-16T06:46:33.000Z</time>
      </trkpt>
      <trkpt lat="44.73274" lon="-0.22945">
        <ele>111.80000305176</ele>
        <time>2022-01-16T06:46:35.000Z</time>
      </trkpt>
      <trkpt lat="44.73272" lon="-0.22938">
        <ele>112</ele>
        <time>2022-01-16T06:46:37.000Z</time>
      </trkpt>
      <trkpt lat="44.73269" lon="-0.22931">
        <ele>112</ele>
        <time>2022-01-16T06:46:39.000Z</time>
      </trkpt>
      <trkpt lat="44.73265" lon="-0.22924">
        <ele>112.40000152588</ele>
        <time>2022-01-16T06:46:41.000Z</time>
      </trkpt>
      <trkpt lat="44.7326" lon="-0.22917">
        <ele>112.80000305176</ele>
        <time>2022-01-16T06:46:43.000Z</time>
      </trkpt>
      <trkpt lat="44.73257" lon="-0.22914">
        <ele>113</ele>
        <time>2022-01-16T06:46:44.000Z</time>
      </trkpt>
      <trkpt lat="44.73255" lon="-0.2291">
        <ele>113.19999694824</ele>
        <time>2022-01-16T06:46:45.000Z</time>
      </trkpt>
      <trkpt lat="44.73251" lon="-0.22901">
        <ele>113.40000152588</ele>
        <time>2022-01-16T06:46:47.000Z</time>
      </trkpt>
      <trkpt lat="44.73248" lon="-0.22893">
        <ele>113.59999847412</ele>
        <time>2022-01-16T06:46:49.000Z</time>
      </trkpt>
      <trkpt lat="44.73246" lon="-0.22884">
        <ele>113.40000152588</ele>
        <time>2022-01-16T06:46:51.000Z</time>
      </trkpt>
      <trkpt lat="44.73245" lon="-0.22877">
        <ele>113.40000152588</ele>
        <time>2022-01-16T06:46:53.000Z</time>
      </trkpt>
      <trkpt lat="44.73244" lon="-0.22876">
        <ele>113.40000152588</ele>
        <time>2022-01-16T06:46:54.000Z</time>
      </trkpt>
      <trkpt lat="44.73243" lon="-0.22874">
        <ele>113.40000152588</ele>
        <time>2022-01-16T06:46:55.000Z</time>
      </trkpt>
      <trkpt lat="44.73242" lon="-0.22871">
        <ele>113.59999847412</ele>
        <time>2022-01-16T06:46:57.000Z</time>
      </trkpt>
      <trkpt lat="44.73241" lon="-0.22869">
        <ele>113.59999847412</ele>
        <time>2022-01-16T06:46:58.000Z</time>
      </trkpt>
      <trkpt lat="44.7324" lon="-0.22869">
        <ele>113.59999847412</ele>
        <time>2022-01-16T06:46:59.000Z</time>
      </trkpt>
      <trkpt lat="44.73239" lon="-0.22868">
        <ele>113.59999847412</ele>
        <time>2022-01-16T06:47:00.000Z</time>
      </trkpt>
      <trkpt lat="44.73237" lon="-0.22867">
        <ele>113.80000305176</ele>
        <time>2022-01-16T06:47:01.000Z</time>
      </trkpt>
      <trkpt lat="44.73235" lon="-0.22865">
        <ele>113.80000305176</ele>
        <time>2022-01-16T06:47:03.000Z</time>
      </trkpt>
      <trkpt lat="44.73234" lon="-0.22862">
        <ele>113.80000305176</ele>
        <time>2022-01-16T06:47:05.000Z</time>
      </trkpt>
      <trkpt lat="44.73232" lon="-0.22859">
        <ele>113.80000305176</ele>
        <time>2022-01-16T06:47:07.000Z</time>
      </trkpt>
      <trkpt lat="44.7323" lon="-0.22857">
        <ele>114</ele>
        <time>2022-01-16T06:47:08.000Z</time>
      </trkpt>
      <trkpt lat="44.73229" lon="-0.22854">
        <ele>114</ele>
        <time>2022-01-16T06:47:09.000Z</time>
      </trkpt>
      <trkpt lat="44.73226" lon="-0.22849">
        <ele>114</ele>
        <time>2022-01-16T06:47:11.000Z</time>
      </trkpt>
      <trkpt lat="44.73224" lon="-0.22845">
        <ele>114</ele>
        <time>2022-01-16T06:47:12.000Z</time>
      </trkpt>
      <trkpt lat="44.73222" lon="-0.22842">
        <ele>114</ele>
        <time>2022-01-16T06:47:13.000Z</time>
      </trkpt>
      <trkpt lat="44.73218" lon="-0.22834">
        <ele>114</ele>
        <time>2022-01-16T06:47:15.000Z</time>
      </trkpt>
      <trkpt lat="44.73214" lon="-0.22828">
        <ele>114</ele>
        <time>2022-01-16T06:47:17.000Z</time>
      </trkpt>
      <trkpt lat="44.73209" lon="-0.22822">
        <ele>114</ele>
        <time>2022-01-16T06:47:19.000Z</time>
      </trkpt>
      <trkpt lat="44.73206" lon="-0.2282">
        <ele>114</ele>
        <time>2022-01-16T06:47:20.000Z</time>
      </trkpt>
      <trkpt lat="44.73204" lon="-0.22819">
        <ele>114</ele>
        <time>2022-01-16T06:47:21.000Z</time>
      </trkpt>
      <trkpt lat="44.73201" lon="-0.22818">
        <ele>114</ele>
        <time>2022-01-16T06:47:22.000Z</time>
      </trkpt>
      <trkpt lat="44.73198" lon="-0.22818">
        <ele>113.80000305176</ele>
        <time>2022-01-16T06:47:23.000Z</time>
      </trkpt>
      <trkpt lat="44.73191" lon="-0.2282">
        <ele>113.59999847412</ele>
        <time>2022-01-16T06:47:25.000Z</time>
      </trkpt>
      <trkpt lat="44.73187" lon="-0.2282">
        <ele>113.59999847412</ele>
        <time>2022-01-16T06:47:26.000Z</time>
      </trkpt>
      <trkpt lat="44.73184" lon="-0.2282">
        <ele>113.40000152588</ele>
        <time>2022-01-16T06:47:27.000Z</time>
      </trkpt>
      <trkpt lat="44.73175" lon="-0.2282">
        <ele>113</ele>
        <time>2022-01-16T06:47:29.000Z</time>
      </trkpt>
      <trkpt lat="44.73171" lon="-0.2282">
        <ele>113</ele>
        <time>2022-01-16T06:47:30.000Z</time>
      </trkpt>
      <trkpt lat="44.73167" lon="-0.22819">
        <ele>113</ele>
        <time>2022-01-16T06:47:31.000Z</time>
      </trkpt>
      <trkpt lat="44.73159" lon="-0.22818">
        <ele>113</ele>
        <time>2022-01-16T06:47:33.000Z</time>
      </trkpt>
      <trkpt lat="44.73151" lon="-0.22816">
        <ele>112.80000305176</ele>
        <time>2022-01-16T06:47:35.000Z</time>
      </trkpt>
      <trkpt lat="44.73144" lon="-0.22813">
        <ele>112.59999847412</ele>
        <time>2022-01-16T06:47:37.000Z</time>
      </trkpt>
      <trkpt lat="44.73138" lon="-0.22808">
        <ele>112.59999847412</ele>
        <time>2022-01-16T06:47:39.000Z</time>
      </trkpt>
      <trkpt lat="44.73135" lon="-0.22805">
        <ele>112.59999847412</ele>
        <time>2022-01-16T06:47:40.000Z</time>
      </trkpt>
      <trkpt lat="44.73132" lon="-0.22801">
        <ele>112.59999847412</ele>
        <time>2022-01-16T06:47:41.000Z</time>
      </trkpt>
      <trkpt lat="44.73126" lon="-0.22793">
        <ele>112.59999847412</ele>
        <time>2022-01-16T06:47:43.000Z</time>
      </trkpt>
      <trkpt lat="44.73121" lon="-0.22786">
        <ele>112.59999847412</ele>
        <time>2022-01-16T06:47:45.000Z</time>
      </trkpt>
      <trkpt lat="44.73118" lon="-0.22782">
        <ele>112.40000152588</ele>
        <time>2022-01-16T06:47:46.000Z</time>
      </trkpt>
      <trkpt lat="44.73115" lon="-0.22778">
        <ele>112.19999694824</ele>
        <time>2022-01-16T06:47:47.000Z</time>
      </trkpt>
      <trkpt lat="44.73109" lon="-0.22768">
        <ele>112</ele>
        <time>2022-01-16T06:47:49.000Z</time>
      </trkpt>
      <trkpt lat="44.73103" lon="-0.22759">
        <ele>111.59999847412</ele>
        <time>2022-01-16T06:47:51.000Z</time>
      </trkpt>
      <trkpt lat="44.73097" lon="-0.22751">
        <ele>111.40000152588</ele>
        <time>2022-01-16T06:47:53.000Z</time>
      </trkpt>
      <trkpt lat="44.73093" lon="-0.22748">
        <ele>111.19999694824</ele>
        <time>2022-01-16T06:47:54.000Z</time>
      </trkpt>
      <trkpt lat="44.73089" lon="-0.22746">
        <ele>111</ele>
        <time>2022-01-16T06:47:55.000Z</time>
      </trkpt>
      <trkpt lat="44.73081" lon="-0.22741">
        <ele>110.59999847412</ele>
        <time>2022-01-16T06:47:57.000Z</time>
      </trkpt>
      <trkpt lat="44.73073" lon="-0.22737">
        <ele>110</ele>
        <time>2022-01-16T06:47:59.000Z</time>
      </trkpt>
      <trkpt lat="44.73065" lon="-0.22735">
        <ele>109.80000305176</ele>
        <time>2022-01-16T06:48:01.000Z</time>
      </trkpt>
      <trkpt lat="44.7306" lon="-0.22734">
        <ele>109.59999847412</ele>
        <time>2022-01-16T06:48:02.000Z</time>
      </trkpt>
      <trkpt lat="44.73056" lon="-0.22734">
        <ele>109.59999847412</ele>
        <time>2022-01-16T06:48:03.000Z</time>
      </trkpt>
      <trkpt lat="44.73048" lon="-0.22734">
        <ele>109.80000305176</ele>
        <time>2022-01-16T06:48:05.000Z</time>
      </trkpt>
      <trkpt lat="44.73042" lon="-0.22734">
        <ele>109.59999847412</ele>
        <time>2022-01-16T06:48:07.000Z</time>
      </trkpt>
      <trkpt lat="44.73036" lon="-0.22732">
        <ele>109.59999847412</ele>
        <time>2022-01-16T06:48:09.000Z</time>
      </trkpt>
      <trkpt lat="44.73033" lon="-0.22732">
        <ele>109.59999847412</ele>
        <time>2022-01-16T06:48:10.000Z</time>
      </trkpt>
      <trkpt lat="44.73029" lon="-0.22731">
        <ele>109.80000305176</ele>
        <time>2022-01-16T06:48:11.000Z</time>
      </trkpt>
      <trkpt lat="44.73026" lon="-0.22729">
        <ele>109.80000305176</ele>
        <time>2022-01-16T06:48:12.000Z</time>
      </trkpt>
      <trkpt lat="44.73022" lon="-0.22725">
        <ele>109.80000305176</ele>
        <time>2022-01-16T06:48:13.000Z</time>
      </trkpt>
      <trkpt lat="44.73016" lon="-0.22718">
        <ele>110.40000152588</ele>
        <time>2022-01-16T06:48:15.000Z</time>
      </trkpt>
      <trkpt lat="44.73008" lon="-0.22713">
        <ele>110.80000305176</ele>
        <time>2022-01-16T06:48:17.000Z</time>
      </trkpt>
      <trkpt lat="44.73" lon="-0.22709">
        <ele>110.80000305176</ele>
        <time>2022-01-16T06:48:19.000Z</time>
      </trkpt>
      <trkpt lat="44.72993" lon="-0.22707">
        <ele>110.80000305176</ele>
        <time>2022-01-16T06:48:21.000Z</time>
      </trkpt>
      <trkpt lat="44.72986" lon="-0.22702">
        <ele>110.80000305176</ele>
        <time>2022-01-16T06:48:23.000Z</time>
      </trkpt>
      <trkpt lat="44.7298" lon="-0.22696">
        <ele>111</ele>
        <time>2022-01-16T06:48:25.000Z</time>
      </trkpt>
      <trkpt lat="44.72977" lon="-0.22693">
        <ele>110.80000305176</ele>
        <time>2022-01-16T06:48:26.000Z</time>
      </trkpt>
      <trkpt lat="44.72973" lon="-0.22691">
        <ele>110.59999847412</ele>
        <time>2022-01-16T06:48:27.000Z</time>
      </trkpt>
      <trkpt lat="44.72971" lon="-0.22688">
        <ele>110.19999694824</ele>
        <time>2022-01-16T06:48:28.000Z</time>
      </trkpt>
      <trkpt lat="44.72969" lon="-0.22684">
        <ele>109.80000305176</ele>
        <time>2022-01-16T06:48:29.000Z</time>
      </trkpt>
      <trkpt lat="44.72968" lon="-0.2268">
        <ele>109.59999847412</ele>
        <time>2022-01-16T06:48:30.000Z</time>
      </trkpt>
      <trkpt lat="44.72969" lon="-0.22676">
        <ele>109.59999847412</ele>
        <time>2022-01-16T06:48:31.000Z</time>
      </trkpt>
      <trkpt lat="44.72972" lon="-0.22669">
        <ele>109.59999847412</ele>
        <time>2022-01-16T06:48:33.000Z</time>
      </trkpt>
      <trkpt lat="44.72974" lon="-0.22666">
        <ele>109.80000305176</ele>
        <time>2022-01-16T06:48:34.000Z</time>
      </trkpt>
      <trkpt lat="44.72976" lon="-0.22662">
        <ele>109.80000305176</ele>
        <time>2022-01-16T06:48:35.000Z</time>
      </trkpt>
      <trkpt lat="44.7298" lon="-0.22653">
        <ele>109.40000152588</ele>
        <time>2022-01-16T06:48:37.000Z</time>
      </trkpt>
      <trkpt lat="44.72982" lon="-0.22647">
        <ele>109</ele>
        <time>2022-01-16T06:48:38.000Z</time>
      </trkpt>
      <trkpt lat="44.72983" lon="-0.2264">
        <ele>108.40000152588</ele>
        <time>2022-01-16T06:48:39.000Z</time>
      </trkpt>
      <trkpt lat="44.72989" lon="-0.2263">
        <ele>107.59999847412</ele>
        <time>2022-01-16T06:48:41.000Z</time>
      </trkpt>
      <trkpt lat="44.72992" lon="-0.22628">
        <ele>107.40000152588</ele>
        <time>2022-01-16T06:48:42.000Z</time>
      </trkpt>
      <trkpt lat="44.72995" lon="-0.22626">
        <ele>107.19999694824</ele>
        <time>2022-01-16T06:48:43.000Z</time>
      </trkpt>
      <trkpt lat="44.72999" lon="-0.22623">
        <ele>107</ele>
        <time>2022-01-16T06:48:44.000Z</time>
      </trkpt>
      <trkpt lat="44.73004" lon="-0.22618">
        <ele>106.59999847412</ele>
        <time>2022-01-16T06:48:45.000Z</time>
      </trkpt>
      <trkpt lat="44.73009" lon="-0.22615">
        <ele>106.19999694824</ele>
        <time>2022-01-16T06:48:46.000Z</time>
      </trkpt>
      <trkpt lat="44.73014" lon="-0.22614">
        <ele>105.59999847412</ele>
        <time>2022-01-16T06:48:47.000Z</time>
      </trkpt>
      <trkpt lat="44.73019" lon="-0.22613">
        <ele>105</ele>
        <time>2022-01-16T06:48:48.000Z</time>
      </trkpt>
      <trkpt lat="44.73024" lon="-0.22613">
        <ele>104.40000152588</ele>
        <time>2022-01-16T06:48:49.000Z</time>
      </trkpt>
      <trkpt lat="44.7303" lon="-0.22613">
        <ele>104</ele>
        <time>2022-01-16T06:48:50.000Z</time>
      </trkpt>
      <trkpt lat="44.73034" lon="-0.22612">
        <ele>103.59999847412</ele>
        <time>2022-01-16T06:48:51.000Z</time>
      </trkpt>
      <trkpt lat="44.73042" lon="-0.22609">
        <ele>103.19999694824</ele>
        <time>2022-01-16T06:48:53.000Z</time>
      </trkpt>
      <trkpt lat="44.73051" lon="-0.22608">
        <ele>102.59999847412</ele>
        <time>2022-01-16T06:48:55.000Z</time>
      </trkpt>
      <trkpt lat="44.73057" lon="-0.22605">
        <ele>102.19999694824</ele>
        <time>2022-01-16T06:48:57.000Z</time>
      </trkpt>
      <trkpt lat="44.7306" lon="-0.22602">
        <ele>102</ele>
        <time>2022-01-16T06:48:59.000Z</time>
      </trkpt>
      <trkpt lat="44.73062" lon="-0.226">
        <ele>101.59999847412</ele>
        <time>2022-01-16T06:49:15.000Z</time>
      </trkpt>
      <trkpt lat="44.73065" lon="-0.22596">
        <ele>101.19999694824</ele>
        <time>2022-01-16T06:49:17.000Z</time>
      </trkpt>
      <trkpt lat="44.73067" lon="-0.22593">
        <ele>100.80000305176</ele>
        <time>2022-01-16T06:49:18.000Z</time>
      </trkpt>
      <trkpt lat="44.73068" lon="-0.2259">
        <ele>100.40000152588</ele>
        <time>2022-01-16T06:49:19.000Z</time>
      </trkpt>
      <trkpt lat="44.73072" lon="-0.22583">
        <ele>99.800003051758</ele>
        <time>2022-01-16T06:49:21.000Z</time>
      </trkpt>
      <trkpt lat="44.73073" lon="-0.2258">
        <ele>99.400001525879</ele>
        <time>2022-01-16T06:49:22.000Z</time>
      </trkpt>
      <trkpt lat="44.73075" lon="-0.22576">
        <ele>99</ele>
        <time>2022-01-16T06:49:23.000Z</time>
      </trkpt>
      <trkpt lat="44.73078" lon="-0.22569">
        <ele>98.599998474121</ele>
        <time>2022-01-16T06:49:25.000Z</time>
      </trkpt>
      <trkpt lat="44.73079" lon="-0.22559">
        <ele>97.800003051758</ele>
        <time>2022-01-16T06:49:27.000Z</time>
      </trkpt>
      <trkpt lat="44.73081" lon="-0.2255">
        <ele>97.199996948242</ele>
        <time>2022-01-16T06:49:29.000Z</time>
      </trkpt>
      <trkpt lat="44.73084" lon="-0.22539">
        <ele>96.400001525879</ele>
        <time>2022-01-16T06:49:31.000Z</time>
      </trkpt>
      <trkpt lat="44.73087" lon="-0.22529">
        <ele>95.599998474121</ele>
        <time>2022-01-16T06:49:33.000Z</time>
      </trkpt>
      <trkpt lat="44.73089" lon="-0.22524">
        <ele>95.199996948242</ele>
        <time>2022-01-16T06:49:34.000Z</time>
      </trkpt>
      <trkpt lat="44.73091" lon="-0.22518">
        <ele>95</ele>
        <time>2022-01-16T06:49:35.000Z</time>
      </trkpt>
      <trkpt lat="44.73096" lon="-0.22505">
        <ele>94.800003051758</ele>
        <time>2022-01-16T06:49:37.000Z</time>
      </trkpt>
      <trkpt lat="44.73099" lon="-0.2249">
        <ele>94.599998474121</ele>
        <time>2022-01-16T06:49:39.000Z</time>
      </trkpt>
      <trkpt lat="44.731" lon="-0.22484">
        <ele>94.400001525879</ele>
        <time>2022-01-16T06:49:40.000Z</time>
      </trkpt>
      <trkpt lat="44.731" lon="-0.22478">
        <ele>94.199996948242</ele>
        <time>2022-01-16T06:49:41.000Z</time>
      </trkpt>
      <trkpt lat="44.73099" lon="-0.22474">
        <ele>94</ele>
        <time>2022-01-16T06:49:42.000Z</time>
      </trkpt>
      <trkpt lat="44.73098" lon="-0.2247">
        <ele>94</ele>
        <time>2022-01-16T06:49:43.000Z</time>
      </trkpt>
      <trkpt lat="44.73093" lon="-0.22461">
        <ele>93.599998474121</ele>
        <time>2022-01-16T06:49:45.000Z</time>
      </trkpt>
      <trkpt lat="44.73091" lon="-0.22452">
        <ele>93</ele>
        <time>2022-01-16T06:49:47.000Z</time>
      </trkpt>
      <trkpt lat="44.73092" lon="-0.2244">
        <ele>92.199996948242</ele>
        <time>2022-01-16T06:49:49.000Z</time>
      </trkpt>
      <trkpt lat="44.73093" lon="-0.22435">
        <ele>91.800003051758</ele>
        <time>2022-01-16T06:49:50.000Z</time>
      </trkpt>
      <trkpt lat="44.73095" lon="-0.2243">
        <ele>91.400001525879</ele>
        <time>2022-01-16T06:49:51.000Z</time>
      </trkpt>
      <trkpt lat="44.73099" lon="-0.22419">
        <ele>90.599998474121</ele>
        <time>2022-01-16T06:49:53.000Z</time>
      </trkpt>
      <trkpt lat="44.73101" lon="-0.22414">
        <ele>90.400001525879</ele>
        <time>2022-01-16T06:49:54.000Z</time>
      </trkpt>
      <trkpt lat="44.73104" lon="-0.22409">
        <ele>90</ele>
        <time>2022-01-16T06:49:55.000Z</time>
      </trkpt>
      <trkpt lat="44.7311" lon="-0.22397">
        <ele>89.199996948242</ele>
        <time>2022-01-16T06:49:57.000Z</time>
      </trkpt>
      <trkpt lat="44.73116" lon="-0.22385">
        <ele>88.199996948242</ele>
        <time>2022-01-16T06:49:59.000Z</time>
      </trkpt>
      <trkpt lat="44.73123" lon="-0.22373">
        <ele>87.800003051758</ele>
        <time>2022-01-16T06:50:01.000Z</time>
      </trkpt>
      <trkpt lat="44.73129" lon="-0.22362">
        <ele>87.400001525879</ele>
        <time>2022-01-16T06:50:03.000Z</time>
      </trkpt>
      <trkpt lat="44.73136" lon="-0.2235">
        <ele>86.800003051758</ele>
        <time>2022-01-16T06:50:05.000Z</time>
      </trkpt>
      <trkpt lat="44.7314" lon="-0.22344">
        <ele>86.599998474121</ele>
        <time>2022-01-16T06:50:06.000Z</time>
      </trkpt>
      <trkpt lat="44.73143" lon="-0.22338">
        <ele>86.400001525879</ele>
        <time>2022-01-16T06:50:07.000Z</time>
      </trkpt>
      <trkpt lat="44.7315" lon="-0.22325">
        <ele>86</ele>
        <time>2022-01-16T06:50:09.000Z</time>
      </trkpt>
      <trkpt lat="44.73153" lon="-0.22319">
        <ele>85.800003051758</ele>
        <time>2022-01-16T06:50:10.000Z</time>
      </trkpt>
      <trkpt lat="44.73155" lon="-0.22315">
        <ele>85.599998474121</ele>
        <time>2022-01-16T06:50:11.000Z</time>
      </trkpt>
      <trkpt lat="44.73159" lon="-0.2231">
        <ele>85.400001525879</ele>
        <time>2022-01-16T06:50:13.000Z</time>
      </trkpt>
      <trkpt lat="44.7316" lon="-0.22309">
        <ele>85.400001525879</ele>
        <time>2022-01-16T06:50:15.000Z</time>
      </trkpt>
      <trkpt lat="44.7316" lon="-0.2231">
        <ele>85.400001525879</ele>
        <time>2022-01-16T06:50:17.000Z</time>
      </trkpt>
      <trkpt lat="44.73161" lon="-0.2231">
        <ele>85.400001525879</ele>
        <time>2022-01-16T06:50:19.000Z</time>
      </trkpt>
      <trkpt lat="44.73161" lon="-0.22309">
        <ele>85.400001525879</ele>
        <time>2022-01-16T06:50:31.000Z</time>
      </trkpt>
      <trkpt lat="44.73163" lon="-0.22308">
        <ele>85.400001525879</ele>
        <time>2022-01-16T06:50:35.000Z</time>
      </trkpt>
      <trkpt lat="44.73165" lon="-0.22304">
        <ele>85.199996948242</ele>
        <time>2022-01-16T06:50:37.000Z</time>
      </trkpt>
      <trkpt lat="44.73169" lon="-0.223">
        <ele>85</ele>
        <time>2022-01-16T06:50:39.000Z</time>
      </trkpt>
      <trkpt lat="44.73172" lon="-0.22294">
        <ele>84.800003051758</ele>
        <time>2022-01-16T06:50:41.000Z</time>
      </trkpt>
      <trkpt lat="44.73175" lon="-0.22286">
        <ele>84.599998474121</ele>
        <time>2022-01-16T06:50:43.000Z</time>
      </trkpt>
      <trkpt lat="44.73179" lon="-0.22279">
        <ele>84.599998474121</ele>
        <time>2022-01-16T06:50:45.000Z</time>
      </trkpt>
      <trkpt lat="44.73181" lon="-0.22276">
        <ele>84.400001525879</ele>
        <time>2022-01-16T06:50:46.000Z</time>
      </trkpt>
      <trkpt lat="44.73183" lon="-0.22272">
        <ele>84.400001525879</ele>
        <time>2022-01-16T06:50:47.000Z</time>
      </trkpt>
      <trkpt lat="44.73188" lon="-0.22263">
        <ele>84.599998474121</ele>
        <time>2022-01-16T06:50:49.000Z</time>
      </trkpt>
      <trkpt lat="44.73191" lon="-0.22257">
        <ele>84.599998474121</ele>
        <time>2022-01-16T06:50:50.000Z</time>
      </trkpt>
      <trkpt lat="44.73193" lon="-0.22252">
        <ele>84.800003051758</ele>
        <time>2022-01-16T06:50:51.000Z</time>
      </trkpt>
      <trkpt lat="44.73197" lon="-0.22242">
        <ele>85</ele>
        <time>2022-01-16T06:50:53.000Z</time>
      </trkpt>
      <trkpt lat="44.73201" lon="-0.22233">
        <ele>85.400001525879</ele>
        <time>2022-01-16T06:50:55.000Z</time>
      </trkpt>
      <trkpt lat="44.73202" lon="-0.22229">
        <ele>85.400001525879</ele>
        <time>2022-01-16T06:50:56.000Z</time>
      </trkpt>
      <trkpt lat="44.73204" lon="-0.22225">
        <ele>85.599998474121</ele>
        <time>2022-01-16T06:50:57.000Z</time>
      </trkpt>
      <trkpt lat="44.73209" lon="-0.22216">
        <ele>86</ele>
        <time>2022-01-16T06:50:59.000Z</time>
      </trkpt>
      <trkpt lat="44.73212" lon="-0.22209">
        <ele>86.199996948242</ele>
        <time>2022-01-16T06:51:01.000Z</time>
      </trkpt>
      <trkpt lat="44.73216" lon="-0.22202">
        <ele>86.400001525879</ele>
        <time>2022-01-16T06:51:03.000Z</time>
      </trkpt>
      <trkpt lat="44.73221" lon="-0.22198">
        <ele>86.599998474121</ele>
        <time>2022-01-16T06:51:05.000Z</time>
      </trkpt>
      <trkpt lat="44.73223" lon="-0.22196">
        <ele>86.599998474121</ele>
        <time>2022-01-16T06:51:06.000Z</time>
      </trkpt>
      <trkpt lat="44.73225" lon="-0.22194">
        <ele>86.800003051758</ele>
        <time>2022-01-16T06:51:07.000Z</time>
      </trkpt>
      <trkpt lat="44.73228" lon="-0.2219">
        <ele>86.800003051758</ele>
        <time>2022-01-16T06:51:09.000Z</time>
      </trkpt>
      <trkpt lat="44.7323" lon="-0.22186">
        <ele>87</ele>
        <time>2022-01-16T06:51:10.000Z</time>
      </trkpt>
      <trkpt lat="44.73232" lon="-0.22183">
        <ele>87</ele>
        <time>2022-01-16T06:51:11.000Z</time>
      </trkpt>
      <trkpt lat="44.73236" lon="-0.22177">
        <ele>86.800003051758</ele>
        <time>2022-01-16T06:51:13.000Z</time>
      </trkpt>
      <trkpt lat="44.73241" lon="-0.22172">
        <ele>86.599998474121</ele>
        <time>2022-01-16T06:51:15.000Z</time>
      </trkpt>
      <trkpt lat="44.73246" lon="-0.22165">
        <ele>86.599998474121</ele>
        <time>2022-01-16T06:51:17.000Z</time>
      </trkpt>
      <trkpt lat="44.73252" lon="-0.22159">
        <ele>86.400001525879</ele>
        <time>2022-01-16T06:51:19.000Z</time>
      </trkpt>
      <trkpt lat="44.73255" lon="-0.22158">
        <ele>86</ele>
        <time>2022-01-16T06:51:20.000Z</time>
      </trkpt>
      <trkpt lat="44.73258" lon="-0.22157">
        <ele>85.800003051758</ele>
        <time>2022-01-16T06:51:21.000Z</time>
      </trkpt>
      <trkpt lat="44.73266" lon="-0.22158">
        <ele>85.599998474121</ele>
        <time>2022-01-16T06:51:23.000Z</time>
      </trkpt>
      <trkpt lat="44.73273" lon="-0.22158">
        <ele>85.199996948242</ele>
        <time>2022-01-16T06:51:25.000Z</time>
      </trkpt>
      <trkpt lat="44.73275" lon="-0.22157">
        <ele>85.199996948242</ele>
        <time>2022-01-16T06:51:26.000Z</time>
      </trkpt>
      <trkpt lat="44.73278" lon="-0.22156">
        <ele>84.800003051758</ele>
        <time>2022-01-16T06:51:27.000Z</time>
      </trkpt>
      <trkpt lat="44.73282" lon="-0.22152">
        <ele>84.400001525879</ele>
        <time>2022-01-16T06:51:29.000Z</time>
      </trkpt>
      <trkpt lat="44.73284" lon="-0.22148">
        <ele>83.800003051758</ele>
        <time>2022-01-16T06:51:31.000Z</time>
      </trkpt>
      <trkpt lat="44.73286" lon="-0.22146">
        <ele>83.599998474121</ele>
        <time>2022-01-16T06:51:32.000Z</time>
      </trkpt>
      <trkpt lat="44.73286" lon="-0.22144">
        <ele>83.400001525879</ele>
        <time>2022-01-16T06:51:33.000Z</time>
      </trkpt>
      <trkpt lat="44.73287" lon="-0.22142">
        <ele>83.199996948242</ele>
        <time>2022-01-16T06:51:34.000Z</time>
      </trkpt>
      <trkpt lat="44.73289" lon="-0.2214">
        <ele>83</ele>
        <time>2022-01-16T06:51:35.000Z</time>
      </trkpt>
      <trkpt lat="44.73293" lon="-0.22135">
        <ele>82.400001525879</ele>
        <time>2022-01-16T06:51:37.000Z</time>
      </trkpt>
      <trkpt lat="44.73298" lon="-0.22129">
        <ele>81.800003051758</ele>
        <time>2022-01-16T06:51:39.000Z</time>
      </trkpt>
      <trkpt lat="44.73302" lon="-0.22125">
        <ele>81.599998474121</ele>
        <time>2022-01-16T06:51:41.000Z</time>
      </trkpt>
      <trkpt lat="44.73305" lon="-0.22119">
        <ele>81.199996948242</ele>
        <time>2022-01-16T06:51:43.000Z</time>
      </trkpt>
      <trkpt lat="44.73311" lon="-0.22112">
        <ele>80.599998474121</ele>
        <time>2022-01-16T06:51:45.000Z</time>
      </trkpt>
      <trkpt lat="44.73316" lon="-0.22103">
        <ele>80.199996948242</ele>
        <time>2022-01-16T06:51:47.000Z</time>
      </trkpt>
      <trkpt lat="44.7332" lon="-0.22099">
        <ele>80.199996948242</ele>
        <time>2022-01-16T06:51:48.000Z</time>
      </trkpt>
      <trkpt lat="44.73323" lon="-0.22095">
        <ele>80.400001525879</ele>
        <time>2022-01-16T06:51:49.000Z</time>
      </trkpt>
      <trkpt lat="44.7333" lon="-0.22088">
        <ele>80.599998474121</ele>
        <time>2022-01-16T06:51:51.000Z</time>
      </trkpt>
      <trkpt lat="44.73333" lon="-0.22084">
        <ele>80.800003051758</ele>
        <time>2022-01-16T06:51:53.000Z</time>
      </trkpt>
      <trkpt lat="44.73332" lon="-0.22084">
        <ele>80.800003051758</ele>
        <time>2022-01-16T06:51:57.000Z</time>
      </trkpt>
      <trkpt lat="44.73333" lon="-0.22083">
        <ele>80.800003051758</ele>
        <time>2022-01-16T06:52:13.000Z</time>
      </trkpt>
      <trkpt lat="44.73336" lon="-0.2208">
        <ele>80.800003051758</ele>
        <time>2022-01-16T06:52:15.000Z</time>
      </trkpt>
      <trkpt lat="44.73337" lon="-0.22077">
        <ele>81</ele>
        <time>2022-01-16T06:52:16.000Z</time>
      </trkpt>
      <trkpt lat="44.73339" lon="-0.22075">
        <ele>81</ele>
        <time>2022-01-16T06:52:17.000Z</time>
      </trkpt>
      <trkpt lat="44.73344" lon="-0.22069">
        <ele>81.199996948242</ele>
        <time>2022-01-16T06:52:19.000Z</time>
      </trkpt>
      <trkpt lat="44.7335" lon="-0.22062">
        <ele>81.400001525879</ele>
        <time>2022-01-16T06:52:21.000Z</time>
      </trkpt>
      <trkpt lat="44.73356" lon="-0.22055">
        <ele>81.599998474121</ele>
        <time>2022-01-16T06:52:23.000Z</time>
      </trkpt>
      <trkpt lat="44.73359" lon="-0.22051">
        <ele>81.599998474121</ele>
        <time>2022-01-16T06:52:24.000Z</time>
      </trkpt>
      <trkpt lat="44.73362" lon="-0.22046">
        <ele>81.800003051758</ele>
        <time>2022-01-16T06:52:25.000Z</time>
      </trkpt>
      <trkpt lat="44.73366" lon="-0.22042">
        <ele>81.800003051758</ele>
        <time>2022-01-16T06:52:26.000Z</time>
      </trkpt>
      <trkpt lat="44.73369" lon="-0.22037">
        <ele>81.599998474121</ele>
        <time>2022-01-16T06:52:27.000Z</time>
      </trkpt>
      <trkpt lat="44.73376" lon="-0.22028">
        <ele>81.599998474121</ele>
        <time>2022-01-16T06:52:29.000Z</time>
      </trkpt>
      <trkpt lat="44.73384" lon="-0.22017">
        <ele>81.400001525879</ele>
        <time>2022-01-16T06:52:31.000Z</time>
      </trkpt>
      <trkpt lat="44.73392" lon="-0.22007">
        <ele>81.400001525879</ele>
        <time>2022-01-16T06:52:33.000Z</time>
      </trkpt>
      <trkpt lat="44.73401" lon="-0.21994">
        <ele>80.800003051758</ele>
        <time>2022-01-16T06:52:35.000Z</time>
      </trkpt>
      <trkpt lat="44.73405" lon="-0.21987">
        <ele>80.400001525879</ele>
        <time>2022-01-16T06:52:36.000Z</time>
      </trkpt>
      <trkpt lat="44.73411" lon="-0.21981">
        <ele>80</ele>
        <time>2022-01-16T06:52:37.000Z</time>
      </trkpt>
      <trkpt lat="44.73421" lon="-0.2197">
        <ele>79.199996948242</ele>
        <time>2022-01-16T06:52:39.000Z</time>
      </trkpt>
      <trkpt lat="44.73433" lon="-0.21958">
        <ele>78</ele>
        <time>2022-01-16T06:52:41.000Z</time>
      </trkpt>
      <trkpt lat="44.73439" lon="-0.21953">
        <ele>77.199996948242</ele>
        <time>2022-01-16T06:52:42.000Z</time>
      </trkpt>
      <trkpt lat="44.73445" lon="-0.21948">
        <ele>76.599998474121</ele>
        <time>2022-01-16T06:52:43.000Z</time>
      </trkpt>
      <trkpt lat="44.73458" lon="-0.21938">
        <ele>75.599998474121</ele>
        <time>2022-01-16T06:52:45.000Z</time>
      </trkpt>
      <trkpt lat="44.7347" lon="-0.21928">
        <ele>75</ele>
        <time>2022-01-16T06:52:47.000Z</time>
      </trkpt>
      <trkpt lat="44.73483" lon="-0.21919">
        <ele>74.599998474121</ele>
        <time>2022-01-16T06:52:49.000Z</time>
      </trkpt>
      <trkpt lat="44.73489" lon="-0.21915">
        <ele>74.800003051758</ele>
        <time>2022-01-16T06:52:50.000Z</time>
      </trkpt>
      <trkpt lat="44.73496" lon="-0.21912">
        <ele>74.800003051758</ele>
        <time>2022-01-16T06:52:51.000Z</time>
      </trkpt>
      <trkpt lat="44.73508" lon="-0.21905">
        <ele>75.199996948242</ele>
        <time>2022-01-16T06:52:53.000Z</time>
      </trkpt>
      <trkpt lat="44.73519" lon="-0.21897">
        <ele>75.800003051758</ele>
        <time>2022-01-16T06:52:55.000Z</time>
      </trkpt>
      <trkpt lat="44.73524" lon="-0.21893">
        <ele>76.199996948242</ele>
        <time>2022-01-16T06:52:56.000Z</time>
      </trkpt>
      <trkpt lat="44.73529" lon="-0.21888">
        <ele>76.599998474121</ele>
        <time>2022-01-16T06:52:57.000Z</time>
      </trkpt>
      <trkpt lat="44.7354" lon="-0.2188">
        <ele>77.199996948242</ele>
        <time>2022-01-16T06:52:59.000Z</time>
      </trkpt>
      <trkpt lat="44.7355" lon="-0.21871">
        <ele>77.599998474121</ele>
        <time>2022-01-16T06:53:01.000Z</time>
      </trkpt>
      <trkpt lat="44.73559" lon="-0.21863">
        <ele>77.800003051758</ele>
        <time>2022-01-16T06:53:03.000Z</time>
      </trkpt>
      <trkpt lat="44.73566" lon="-0.21857">
        <ele>77.800003051758</ele>
        <time>2022-01-16T06:53:05.000Z</time>
      </trkpt>
      <trkpt lat="44.73568" lon="-0.21854">
        <ele>77.599998474121</ele>
        <time>2022-01-16T06:53:06.000Z</time>
      </trkpt>
      <trkpt lat="44.73569" lon="-0.21853">
        <ele>77.400001525879</ele>
        <time>2022-01-16T06:53:07.000Z</time>
      </trkpt>
      <trkpt lat="44.7357" lon="-0.21853">
        <ele>77.400001525879</ele>
        <time>2022-01-16T06:53:09.000Z</time>
      </trkpt>
      <trkpt lat="44.7366" lon="-0.21916">
        <ele>73</ele>
        <time>2022-01-16T06:54:51.000Z</time>
      </trkpt>
      <trkpt lat="44.73676" lon="-0.21907">
        <ele>71.800003051758</ele>
        <time>2022-01-16T06:54:53.000Z</time>
      </trkpt>
      <trkpt lat="44.73693" lon="-0.21897">
        <ele>70.599998474121</ele>
        <time>2022-01-16T06:54:55.000Z</time>
      </trkpt>
      <trkpt lat="44.73709" lon="-0.21887">
        <ele>69.199996948242</ele>
        <time>2022-01-16T06:54:57.000Z</time>
      </trkpt>
      <trkpt lat="44.73725" lon="-0.21876">
        <ele>67.599998474121</ele>
        <time>2022-01-16T06:54:59.000Z</time>
      </trkpt>
      <trkpt lat="44.73741" lon="-0.21865">
        <ele>66.599998474121</ele>
        <time>2022-01-16T06:55:01.000Z</time>
      </trkpt>
      <trkpt lat="44.73757" lon="-0.21855">
        <ele>66</ele>
        <time>2022-01-16T06:55:03.000Z</time>
      </trkpt>
      <trkpt lat="44.73774" lon="-0.2185">
        <ele>65.599998474121</ele>
        <time>2022-01-16T06:55:05.000Z</time>
      </trkpt>
      <trkpt lat="44.7379" lon="-0.21848">
        <ele>65.400001525879</ele>
        <time>2022-01-16T06:55:07.000Z</time>
      </trkpt>
      <trkpt lat="44.73805" lon="-0.21848">
        <ele>66</ele>
        <time>2022-01-16T06:55:09.000Z</time>
      </trkpt>
      <trkpt lat="44.73812" lon="-0.21847">
        <ele>66.199996948242</ele>
        <time>2022-01-16T06:55:10.000Z</time>
      </trkpt>
      <trkpt lat="44.73819" lon="-0.21845">
        <ele>66.400001525879</ele>
        <time>2022-01-16T06:55:11.000Z</time>
      </trkpt>
      <trkpt lat="44.73824" lon="-0.2184">
        <ele>66.400001525879</ele>
        <time>2022-01-16T06:55:12.000Z</time>
      </trkpt>
      <trkpt lat="44.73827" lon="-0.21833">
        <ele>66.800003051758</ele>
        <time>2022-01-16T06:55:13.000Z</time>
      </trkpt>
      <trkpt lat="44.73829" lon="-0.21825">
        <ele>67</ele>
        <time>2022-01-16T06:55:14.000Z</time>
      </trkpt>
      <trkpt lat="44.7383" lon="-0.21816">
        <ele>67</ele>
        <time>2022-01-16T06:55:15.000Z</time>
      </trkpt>
      <trkpt lat="44.73831" lon="-0.21799">
        <ele>67.199996948242</ele>
        <time>2022-01-16T06:55:17.000Z</time>
      </trkpt>
      <trkpt lat="44.73834" lon="-0.21783">
        <ele>67.199996948242</ele>
        <time>2022-01-16T06:55:19.000Z</time>
      </trkpt>
      <trkpt lat="44.73835" lon="-0.21775">
        <ele>67.199996948242</ele>
        <time>2022-01-16T06:55:20.000Z</time>
      </trkpt>
      <trkpt lat="44.73837" lon="-0.21768">
        <ele>67.400001525879</ele>
        <time>2022-01-16T06:55:21.000Z</time>
      </trkpt>
      <trkpt lat="44.73841" lon="-0.21754">
        <ele>67.599998474121</ele>
        <time>2022-01-16T06:55:23.000Z</time>
      </trkpt>
      <trkpt lat="44.73845" lon="-0.2174">
        <ele>68</ele>
        <time>2022-01-16T06:55:25.000Z</time>
      </trkpt>
      <trkpt lat="44.73851" lon="-0.21727">
        <ele>68.599998474121</ele>
        <time>2022-01-16T06:55:27.000Z</time>
      </trkpt>
      <trkpt lat="44.73855" lon="-0.21721">
        <ele>68.800003051758</ele>
        <time>2022-01-16T06:55:28.000Z</time>
      </trkpt>
      <trkpt lat="44.73859" lon="-0.21715">
        <ele>69</ele>
        <time>2022-01-16T06:55:29.000Z</time>
      </trkpt>
      <trkpt lat="44.73867" lon="-0.21707">
        <ele>69</ele>
        <time>2022-01-16T06:55:31.000Z</time>
      </trkpt>
      <trkpt lat="44.73873" lon="-0.21699">
        <ele>69.199996948242</ele>
        <time>2022-01-16T06:55:33.000Z</time>
      </trkpt>
      <trkpt lat="44.73877" lon="-0.2169">
        <ele>69.400001525879</ele>
        <time>2022-01-16T06:55:35.000Z</time>
      </trkpt>
      <trkpt lat="44.73882" lon="-0.21683">
        <ele>69.599998474121</ele>
        <time>2022-01-16T06:55:37.000Z</time>
      </trkpt>
      <trkpt lat="44.73891" lon="-0.21679">
        <ele>70.199996948242</ele>
        <time>2022-01-16T06:55:39.000Z</time>
      </trkpt>
      <trkpt lat="44.73896" lon="-0.21677">
        <ele>70.400001525879</ele>
        <time>2022-01-16T06:55:40.000Z</time>
      </trkpt>
      <trkpt lat="44.73902" lon="-0.21675">
        <ele>70.199996948242</ele>
        <time>2022-01-16T06:55:41.000Z</time>
      </trkpt>
      <trkpt lat="44.73907" lon="-0.21673">
        <ele>70</ele>
        <time>2022-01-16T06:55:42.000Z</time>
      </trkpt>
      <trkpt lat="44.73913" lon="-0.2167">
        <ele>70</ele>
        <time>2022-01-16T06:55:43.000Z</time>
      </trkpt>
      <trkpt lat="44.73918" lon="-0.21666">
        <ele>70</ele>
        <time>2022-01-16T06:55:44.000Z</time>
      </trkpt>
      <trkpt lat="44.73924" lon="-0.21661">
        <ele>70</ele>
        <time>2022-01-16T06:55:45.000Z</time>
      </trkpt>
      <trkpt lat="44.73937" lon="-0.21654">
        <ele>68.400001525879</ele>
        <time>2022-01-16T06:55:47.000Z</time>
      </trkpt>
      <trkpt lat="44.73944" lon="-0.21651">
        <ele>67.400001525879</ele>
        <time>2022-01-16T06:55:48.000Z</time>
      </trkpt>
      <trkpt lat="44.73951" lon="-0.2165">
        <ele>66.599998474121</ele>
        <time>2022-01-16T06:55:49.000Z</time>
      </trkpt>
      <trkpt lat="44.73958" lon="-0.21651">
        <ele>66.199996948242</ele>
        <time>2022-01-16T06:55:50.000Z</time>
      </trkpt>
      <trkpt lat="44.73965" lon="-0.21653">
        <ele>65.800003051758</ele>
        <time>2022-01-16T06:55:51.000Z</time>
      </trkpt>
      <trkpt lat="44.73972" lon="-0.21655">
        <ele>65.400001525879</ele>
        <time>2022-01-16T06:55:52.000Z</time>
      </trkpt>
      <trkpt lat="44.73978" lon="-0.21659">
        <ele>65</ele>
        <time>2022-01-16T06:55:53.000Z</time>
      </trkpt>
      <trkpt lat="44.73984" lon="-0.21663">
        <ele>65.400001525879</ele>
        <time>2022-01-16T06:55:54.000Z</time>
      </trkpt>
      <trkpt lat="44.7399" lon="-0.21668">
        <ele>65.599998474121</ele>
        <time>2022-01-16T06:55:55.000Z</time>
      </trkpt>
      <trkpt lat="44.74002" lon="-0.21677">
        <ele>65.800003051758</ele>
        <time>2022-01-16T06:55:57.000Z</time>
      </trkpt>
      <trkpt lat="44.74013" lon="-0.21686">
        <ele>65.599998474121</ele>
        <time>2022-01-16T06:55:59.000Z</time>
      </trkpt>
      <trkpt lat="44.74019" lon="-0.21692">
        <ele>65.400001525879</ele>
        <time>2022-01-16T06:56:00.000Z</time>
      </trkpt>
      <trkpt lat="44.74024" lon="-0.21697">
        <ele>65.199996948242</ele>
        <time>2022-01-16T06:56:01.000Z</time>
      </trkpt>
      <trkpt lat="44.74034" lon="-0.2171">
        <ele>64.800003051758</ele>
        <time>2022-01-16T06:56:03.000Z</time>
      </trkpt>
      <trkpt lat="44.7404" lon="-0.21716">
        <ele>64.800003051758</ele>
        <time>2022-01-16T06:56:04.000Z</time>
      </trkpt>
      <trkpt lat="44.74046" lon="-0.21719">
        <ele>64.400001525879</ele>
        <time>2022-01-16T06:56:05.000Z</time>
      </trkpt>
      <trkpt lat="44.74052" lon="-0.21719">
        <ele>64.199996948242</ele>
        <time>2022-01-16T06:56:06.000Z</time>
      </trkpt>
      <trkpt lat="44.74058" lon="-0.21717">
        <ele>64</ele>
        <time>2022-01-16T06:56:07.000Z</time>
      </trkpt>
      <trkpt lat="44.74063" lon="-0.21714">
        <ele>64</ele>
        <time>2022-01-16T06:56:08.000Z</time>
      </trkpt>
      <trkpt lat="44.74069" lon="-0.2171">
        <ele>64.199996948242</ele>
        <time>2022-01-16T06:56:09.000Z</time>
      </trkpt>
      <trkpt lat="44.74074" lon="-0.21707">
        <ele>64.199996948242</ele>
        <time>2022-01-16T06:56:10.000Z</time>
      </trkpt>
      <trkpt lat="44.7408" lon="-0.21704">
        <ele>64.400001525879</ele>
        <time>2022-01-16T06:56:11.000Z</time>
      </trkpt>
      <trkpt lat="44.74091" lon="-0.21698">
        <ele>64.599998474121</ele>
        <time>2022-01-16T06:56:13.000Z</time>
      </trkpt>
      <trkpt lat="44.74103" lon="-0.21692">
        <ele>65.199996948242</ele>
        <time>2022-01-16T06:56:15.000Z</time>
      </trkpt>
      <trkpt lat="44.74115" lon="-0.21686">
        <ele>66</ele>
        <time>2022-01-16T06:56:17.000Z</time>
      </trkpt>
      <trkpt lat="44.74126" lon="-0.21681">
        <ele>66.599998474121</ele>
        <time>2022-01-16T06:56:19.000Z</time>
      </trkpt>
      <trkpt lat="44.74137" lon="-0.21675">
        <ele>67</ele>
        <time>2022-01-16T06:56:21.000Z</time>
      </trkpt>
      <trkpt lat="44.74147" lon="-0.21671">
        <ele>67.599998474121</ele>
        <time>2022-01-16T06:56:23.000Z</time>
      </trkpt>
      <trkpt lat="44.74152" lon="-0.21668">
        <ele>67.800003051758</ele>
        <time>2022-01-16T06:56:24.000Z</time>
      </trkpt>
      <trkpt lat="44.74156" lon="-0.21665">
        <ele>68.199996948242</ele>
        <time>2022-01-16T06:56:25.000Z</time>
      </trkpt>
      <trkpt lat="44.7416" lon="-0.21663">
        <ele>68.400001525879</ele>
        <time>2022-01-16T06:56:26.000Z</time>
      </trkpt>
      <trkpt lat="44.74164" lon="-0.21661">
        <ele>68.599998474121</ele>
        <time>2022-01-16T06:56:27.000Z</time>
      </trkpt>
      <trkpt lat="44.74173" lon="-0.21658">
        <ele>69</ele>
        <time>2022-01-16T06:56:29.000Z</time>
      </trkpt>
      <trkpt lat="44.74183" lon="-0.21654">
        <ele>68.800003051758</ele>
        <time>2022-01-16T06:56:31.000Z</time>
      </trkpt>
      <trkpt lat="44.74194" lon="-0.21651">
        <ele>68.599998474121</ele>
        <time>2022-01-16T06:56:33.000Z</time>
      </trkpt>
      <trkpt lat="44.74205" lon="-0.21647">
        <ele>68.199996948242</ele>
        <time>2022-01-16T06:56:35.000Z</time>
      </trkpt>
      <trkpt lat="44.74217" lon="-0.21643">
        <ele>67.400001525879</ele>
        <time>2022-01-16T06:56:37.000Z</time>
      </trkpt>
      <trkpt lat="44.74228" lon="-0.21638">
        <ele>67.199996948242</ele>
        <time>2022-01-16T06:56:39.000Z</time>
      </trkpt>
      <trkpt lat="44.7424" lon="-0.21635">
        <ele>67.199996948242</ele>
        <time>2022-01-16T06:56:41.000Z</time>
      </trkpt>
      <trkpt lat="44.74253" lon="-0.2163">
        <ele>67</ele>
        <time>2022-01-16T06:56:43.000Z</time>
      </trkpt>
      <trkpt lat="44.74266" lon="-0.21625">
        <ele>66.800003051758</ele>
        <time>2022-01-16T06:56:45.000Z</time>
      </trkpt>
      <trkpt lat="44.7428" lon="-0.21621">
        <ele>66.599998474121</ele>
        <time>2022-01-16T06:56:47.000Z</time>
      </trkpt>
      <trkpt lat="44.74295" lon="-0.21617">
        <ele>66.199996948242</ele>
        <time>2022-01-16T06:56:49.000Z</time>
      </trkpt>
      <trkpt lat="44.7431" lon="-0.21615">
        <ele>65.400001525879</ele>
        <time>2022-01-16T06:56:51.000Z</time>
      </trkpt>
      <trkpt lat="44.74327" lon="-0.21613">
        <ele>64.800003051758</ele>
        <time>2022-01-16T06:56:53.000Z</time>
      </trkpt>
      <trkpt lat="44.74343" lon="-0.21611">
        <ele>64.199996948242</ele>
        <time>2022-01-16T06:56:55.000Z</time>
      </trkpt>
      <trkpt lat="44.74351" lon="-0.2161">
        <ele>64.199996948242</ele>
        <time>2022-01-16T06:56:56.000Z</time>
      </trkpt>
      <trkpt lat="44.74359" lon="-0.2161">
        <ele>64.199996948242</ele>
        <time>2022-01-16T06:56:57.000Z</time>
      </trkpt>
      <trkpt lat="44.74376" lon="-0.21609">
        <ele>63.799999237061</ele>
        <time>2022-01-16T06:56:59.000Z</time>
      </trkpt>
      <trkpt lat="44.74393" lon="-0.21608">
        <ele>63.200000762939</ele>
        <time>2022-01-16T06:57:01.000Z</time>
      </trkpt>
      <trkpt lat="44.74409" lon="-0.21606">
        <ele>63</ele>
        <time>2022-01-16T06:57:03.000Z</time>
      </trkpt>
      <trkpt lat="44.74417" lon="-0.21605">
        <ele>63</ele>
        <time>2022-01-16T06:57:04.000Z</time>
      </trkpt>
      <trkpt lat="44.74425" lon="-0.21605">
        <ele>63</ele>
        <time>2022-01-16T06:57:05.000Z</time>
      </trkpt>
      <trkpt lat="44.74442" lon="-0.21604">
        <ele>62.400001525879</ele>
        <time>2022-01-16T06:57:07.000Z</time>
      </trkpt>
      <trkpt lat="44.74459" lon="-0.21604">
        <ele>62</ele>
        <time>2022-01-16T06:57:09.000Z</time>
      </trkpt>
      <trkpt lat="44.74475" lon="-0.21606">
        <ele>62</ele>
        <time>2022-01-16T06:57:11.000Z</time>
      </trkpt>
      <trkpt lat="44.74491" lon="-0.21606">
        <ele>61.799999237061</ele>
        <time>2022-01-16T06:57:13.000Z</time>
      </trkpt>
      <trkpt lat="44.74506" lon="-0.21607">
        <ele>61.799999237061</ele>
        <time>2022-01-16T06:57:15.000Z</time>
      </trkpt>
      <trkpt lat="44.74521" lon="-0.21609">
        <ele>62</ele>
        <time>2022-01-16T06:57:17.000Z</time>
      </trkpt>
      <trkpt lat="44.74529" lon="-0.2161">
        <ele>62.200000762939</ele>
        <time>2022-01-16T06:57:18.000Z</time>
      </trkpt>
      <trkpt lat="44.74536" lon="-0.21612">
        <ele>62.200000762939</ele>
        <time>2022-01-16T06:57:19.000Z</time>
      </trkpt>
      <trkpt lat="44.7455" lon="-0.21617">
        <ele>62.599998474121</ele>
        <time>2022-01-16T06:57:21.000Z</time>
      </trkpt>
      <trkpt lat="44.74564" lon="-0.21622">
        <ele>63.799999237061</ele>
        <time>2022-01-16T06:57:23.000Z</time>
      </trkpt>
      <trkpt lat="44.74577" lon="-0.21627">
        <ele>64.400001525879</ele>
        <time>2022-01-16T06:57:25.000Z</time>
      </trkpt>
      <trkpt lat="44.7459" lon="-0.21633">
        <ele>64.800003051758</ele>
        <time>2022-01-16T06:57:27.000Z</time>
      </trkpt>
      <trkpt lat="44.74602" lon="-0.2164">
        <ele>64.400001525879</ele>
        <time>2022-01-16T06:57:29.000Z</time>
      </trkpt>
      <trkpt lat="44.74609" lon="-0.21643">
        <ele>64.400001525879</ele>
        <time>2022-01-16T06:57:30.000Z</time>
      </trkpt>
      <trkpt lat="44.74615" lon="-0.21646">
        <ele>64.400001525879</ele>
        <time>2022-01-16T06:57:31.000Z</time>
      </trkpt>
      <trkpt lat="44.74628" lon="-0.2165">
        <ele>63.200000762939</ele>
        <time>2022-01-16T06:57:33.000Z</time>
      </trkpt>
      <trkpt lat="44.7464" lon="-0.21654">
        <ele>62.599998474121</ele>
        <time>2022-01-16T06:57:35.000Z</time>
      </trkpt>
      <trkpt lat="44.74653" lon="-0.21656">
        <ele>62.200000762939</ele>
        <time>2022-01-16T06:57:37.000Z</time>
      </trkpt>
      <trkpt lat="44.74665" lon="-0.21656">
        <ele>62.200000762939</ele>
        <time>2022-01-16T06:57:39.000Z</time>
      </trkpt>
      <trkpt lat="44.74678" lon="-0.21655">
        <ele>62.400001525879</ele>
        <time>2022-01-16T06:57:41.000Z</time>
      </trkpt>
      <trkpt lat="44.74684" lon="-0.21654">
        <ele>62.799999237061</ele>
        <time>2022-01-16T06:57:42.000Z</time>
      </trkpt>
      <trkpt lat="44.7469" lon="-0.21653">
        <ele>63</ele>
        <time>2022-01-16T06:57:43.000Z</time>
      </trkpt>
      <trkpt lat="44.74703" lon="-0.2165">
        <ele>63.599998474121</ele>
        <time>2022-01-16T06:57:45.000Z</time>
      </trkpt>
      <trkpt lat="44.74715" lon="-0.21648">
        <ele>63.799999237061</ele>
        <time>2022-01-16T06:57:47.000Z</time>
      </trkpt>
      <trkpt lat="44.74721" lon="-0.21648">
        <ele>64.199996948242</ele>
        <time>2022-01-16T06:57:48.000Z</time>
      </trkpt>
      <trkpt lat="44.74728" lon="-0.21649">
        <ele>64.400001525879</ele>
        <time>2022-01-16T06:57:49.000Z</time>
      </trkpt>
      <trkpt lat="44.74733" lon="-0.2165">
        <ele>64.400001525879</ele>
        <time>2022-01-16T06:57:50.000Z</time>
      </trkpt>
      <trkpt lat="44.74739" lon="-0.21653">
        <ele>64.400001525879</ele>
        <time>2022-01-16T06:57:51.000Z</time>
      </trkpt>
      <trkpt lat="44.7475" lon="-0.21658">
        <ele>64.800003051758</ele>
        <time>2022-01-16T06:57:53.000Z</time>
      </trkpt>
      <trkpt lat="44.74755" lon="-0.21662">
        <ele>64.800003051758</ele>
        <time>2022-01-16T06:57:54.000Z</time>
      </trkpt>
      <trkpt lat="44.7476" lon="-0.21665">
        <ele>64.800003051758</ele>
        <time>2022-01-16T06:57:55.000Z</time>
      </trkpt>
      <trkpt lat="44.74771" lon="-0.21673">
        <ele>64.599998474121</ele>
        <time>2022-01-16T06:57:57.000Z</time>
      </trkpt>
      <trkpt lat="44.74781" lon="-0.2168">
        <ele>64.800003051758</ele>
        <time>2022-01-16T06:57:59.000Z</time>
      </trkpt>
      <trkpt lat="44.74793" lon="-0.21686">
        <ele>65</ele>
        <time>2022-01-16T06:58:01.000Z</time>
      </trkpt>
      <trkpt lat="44.74804" lon="-0.21691">
        <ele>64.800003051758</ele>
        <time>2022-01-16T06:58:03.000Z</time>
      </trkpt>
      <trkpt lat="44.74817" lon="-0.21695">
        <ele>65</ele>
        <time>2022-01-16T06:58:05.000Z</time>
      </trkpt>
      <trkpt lat="44.74829" lon="-0.21697">
        <ele>65</ele>
        <time>2022-01-16T06:58:07.000Z</time>
      </trkpt>
      <trkpt lat="44.74841" lon="-0.21696">
        <ele>65</ele>
        <time>2022-01-16T06:58:09.000Z</time>
      </trkpt>
      <trkpt lat="44.74854" lon="-0.21693">
        <ele>64.400001525879</ele>
        <time>2022-01-16T06:58:11.000Z</time>
      </trkpt>
      <trkpt lat="44.74861" lon="-0.2169">
        <ele>64.199996948242</ele>
        <time>2022-01-16T06:58:12.000Z</time>
      </trkpt>
      <trkpt lat="44.74867" lon="-0.21686">
        <ele>64</ele>
        <time>2022-01-16T06:58:13.000Z</time>
      </trkpt>
      <trkpt lat="44.7488" lon="-0.21677">
        <ele>63.599998474121</ele>
        <time>2022-01-16T06:58:15.000Z</time>
      </trkpt>
      <trkpt lat="44.74894" lon="-0.21668">
        <ele>63</ele>
        <time>2022-01-16T06:58:17.000Z</time>
      </trkpt>
      <trkpt lat="44.749" lon="-0.21663">
        <ele>62.799999237061</ele>
        <time>2022-01-16T06:58:18.000Z</time>
      </trkpt>
      <trkpt lat="44.74907" lon="-0.21658">
        <ele>62.599998474121</ele>
        <time>2022-01-16T06:58:19.000Z</time>
      </trkpt>
      <trkpt lat="44.74922" lon="-0.21648">
        <ele>62</ele>
        <time>2022-01-16T06:58:21.000Z</time>
      </trkpt>
      <trkpt lat="44.74937" lon="-0.21637">
        <ele>61.599998474121</ele>
        <time>2022-01-16T06:58:23.000Z</time>
      </trkpt>
      <trkpt lat="44.74945" lon="-0.21632">
        <ele>61.200000762939</ele>
        <time>2022-01-16T06:58:24.000Z</time>
      </trkpt>
      <trkpt lat="44.74952" lon="-0.21626">
        <ele>60.799999237061</ele>
        <time>2022-01-16T06:58:25.000Z</time>
      </trkpt>
      <trkpt lat="44.74968" lon="-0.21615">
        <ele>59.799999237061</ele>
        <time>2022-01-16T06:58:27.000Z</time>
      </trkpt>
      <trkpt lat="44.74984" lon="-0.21603">
        <ele>58.799999237061</ele>
        <time>2022-01-16T06:58:29.000Z</time>
      </trkpt>
      <trkpt lat="44.74992" lon="-0.21598">
        <ele>58.400001525879</ele>
        <time>2022-01-16T06:58:30.000Z</time>
      </trkpt>
      <trkpt lat="44.75" lon="-0.21592">
        <ele>57.799999237061</ele>
        <time>2022-01-16T06:58:31.000Z</time>
      </trkpt>
      <trkpt lat="44.75016" lon="-0.21581">
        <ele>56.799999237061</ele>
        <time>2022-01-16T06:58:33.000Z</time>
      </trkpt>
      <trkpt lat="44.75031" lon="-0.21569">
        <ele>56.200000762939</ele>
        <time>2022-01-16T06:58:35.000Z</time>
      </trkpt>
      <trkpt lat="44.75047" lon="-0.21559">
        <ele>55.599998474121</ele>
        <time>2022-01-16T06:58:37.000Z</time>
      </trkpt>
      <trkpt lat="44.75062" lon="-0.21547">
        <ele>55</ele>
        <time>2022-01-16T06:58:39.000Z</time>
      </trkpt>
      <trkpt lat="44.75077" lon="-0.21535">
        <ele>54.400001525879</ele>
        <time>2022-01-16T06:58:41.000Z</time>
      </trkpt>
      <trkpt lat="44.75091" lon="-0.2152">
        <ele>54</ele>
        <time>2022-01-16T06:58:43.000Z</time>
      </trkpt>
      <trkpt lat="44.75102" lon="-0.21503">
        <ele>54.200000762939</ele>
        <time>2022-01-16T06:58:45.000Z</time>
      </trkpt>
      <trkpt lat="44.75112" lon="-0.21486">
        <ele>54.200000762939</ele>
        <time>2022-01-16T06:58:47.000Z</time>
      </trkpt>
      <trkpt lat="44.75122" lon="-0.2147">
        <ele>54</ele>
        <time>2022-01-16T06:58:49.000Z</time>
      </trkpt>
      <trkpt lat="44.7513" lon="-0.21454">
        <ele>54</ele>
        <time>2022-01-16T06:58:51.000Z</time>
      </trkpt>
      <trkpt lat="44.75134" lon="-0.21446">
        <ele>54</ele>
        <time>2022-01-16T06:58:52.000Z</time>
      </trkpt>
      <trkpt lat="44.75138" lon="-0.21439">
        <ele>54.200000762939</ele>
        <time>2022-01-16T06:58:53.000Z</time>
      </trkpt>
      <trkpt lat="44.75146" lon="-0.21425">
        <ele>54</ele>
        <time>2022-01-16T06:58:55.000Z</time>
      </trkpt>
      <trkpt lat="44.75154" lon="-0.21412">
        <ele>53.799999237061</ele>
        <time>2022-01-16T06:58:57.000Z</time>
      </trkpt>
      <trkpt lat="44.75163" lon="-0.21399">
        <ele>54.200000762939</ele>
        <time>2022-01-16T06:58:59.000Z</time>
      </trkpt>
      <trkpt lat="44.75171" lon="-0.21386">
        <ele>54.799999237061</ele>
        <time>2022-01-16T06:59:01.000Z</time>
      </trkpt>
      <trkpt lat="44.75178" lon="-0.21373">
        <ele>55.400001525879</ele>
        <time>2022-01-16T06:59:03.000Z</time>
      </trkpt>
      <trkpt lat="44.75186" lon="-0.2136">
        <ele>56.200000762939</ele>
        <time>2022-01-16T06:59:05.000Z</time>
      </trkpt>
      <trkpt lat="44.75193" lon="-0.21348">
        <ele>56.799999237061</ele>
        <time>2022-01-16T06:59:07.000Z</time>
      </trkpt>
      <trkpt lat="44.752" lon="-0.21336">
        <ele>57.599998474121</ele>
        <time>2022-01-16T06:59:09.000Z</time>
      </trkpt>
      <trkpt lat="44.75207" lon="-0.21325">
        <ele>58.200000762939</ele>
        <time>2022-01-16T06:59:11.000Z</time>
      </trkpt>
      <trkpt lat="44.75214" lon="-0.21314">
        <ele>58.799999237061</ele>
        <time>2022-01-16T06:59:13.000Z</time>
      </trkpt>
      <trkpt lat="44.75221" lon="-0.21304">
        <ele>59.400001525879</ele>
        <time>2022-01-16T06:59:15.000Z</time>
      </trkpt>
      <trkpt lat="44.75228" lon="-0.21294">
        <ele>60.200000762939</ele>
        <time>2022-01-16T06:59:17.000Z</time>
      </trkpt>
      <trkpt lat="44.75236" lon="-0.21284">
        <ele>60.799999237061</ele>
        <time>2022-01-16T06:59:19.000Z</time>
      </trkpt>
      <trkpt lat="44.75243" lon="-0.21273">
        <ele>61.400001525879</ele>
        <time>2022-01-16T06:59:21.000Z</time>
      </trkpt>
      <trkpt lat="44.75251" lon="-0.21263">
        <ele>62</ele>
        <time>2022-01-16T06:59:23.000Z</time>
      </trkpt>
      <trkpt lat="44.75255" lon="-0.21258">
        <ele>62.400001525879</ele>
        <time>2022-01-16T06:59:24.000Z</time>
      </trkpt>
      <trkpt lat="44.75258" lon="-0.21254">
        <ele>62.599998474121</ele>
        <time>2022-01-16T06:59:25.000Z</time>
      </trkpt>
      <trkpt lat="44.75266" lon="-0.21244">
        <ele>63</ele>
        <time>2022-01-16T06:59:27.000Z</time>
      </trkpt>
      <trkpt lat="44.75273" lon="-0.21235">
        <ele>63.599998474121</ele>
        <time>2022-01-16T06:59:29.000Z</time>
      </trkpt>
      <trkpt lat="44.75276" lon="-0.2123">
        <ele>63.799999237061</ele>
        <time>2022-01-16T06:59:30.000Z</time>
      </trkpt>
      <trkpt lat="44.7528" lon="-0.21225">
        <ele>64.199996948242</ele>
        <time>2022-01-16T06:59:31.000Z</time>
      </trkpt>
      <trkpt lat="44.75287" lon="-0.21216">
        <ele>64.800003051758</ele>
        <time>2022-01-16T06:59:33.000Z</time>
      </trkpt>
      <trkpt lat="44.75294" lon="-0.21207">
        <ele>65.199996948242</ele>
        <time>2022-01-16T06:59:35.000Z</time>
      </trkpt>
      <trkpt lat="44.753" lon="-0.21198">
        <ele>65.599998474121</ele>
        <time>2022-01-16T06:59:37.000Z</time>
      </trkpt>
      <trkpt lat="44.75307" lon="-0.21188">
        <ele>66</ele>
        <time>2022-01-16T06:59:39.000Z</time>
      </trkpt>
      <trkpt lat="44.75313" lon="-0.21179">
        <ele>66.599998474121</ele>
        <time>2022-01-16T06:59:41.000Z</time>
      </trkpt>
      <trkpt lat="44.7532" lon="-0.21169">
        <ele>67</ele>
        <time>2022-01-16T06:59:43.000Z</time>
      </trkpt>
      <trkpt lat="44.75327" lon="-0.21159">
        <ele>67.400001525879</ele>
        <time>2022-01-16T06:59:45.000Z</time>
      </trkpt>
      <trkpt lat="44.75333" lon="-0.21148">
        <ele>67.599998474121</ele>
        <time>2022-01-16T06:59:47.000Z</time>
      </trkpt>
      <trkpt lat="44.7534" lon="-0.21138">
        <ele>67.800003051758</ele>
        <time>2022-01-16T06:59:49.000Z</time>
      </trkpt>
      <trkpt lat="44.75343" lon="-0.21132">
        <ele>68</ele>
        <time>2022-01-16T06:59:50.000Z</time>
      </trkpt>
      <trkpt lat="44.75346" lon="-0.21127">
        <ele>67.800003051758</ele>
        <time>2022-01-16T06:59:51.000Z</time>
      </trkpt>
      <trkpt lat="44.75353" lon="-0.21117">
        <ele>67.599998474121</ele>
        <time>2022-01-16T06:59:53.000Z</time>
      </trkpt>
      <trkpt lat="44.75359" lon="-0.21106">
        <ele>67.599998474121</ele>
        <time>2022-01-16T06:59:55.000Z</time>
      </trkpt>
      <trkpt lat="44.75366" lon="-0.21096">
        <ele>67.199996948242</ele>
        <time>2022-01-16T06:59:57.000Z</time>
      </trkpt>
      <trkpt lat="44.75372" lon="-0.21086">
        <ele>66.800003051758</ele>
        <time>2022-01-16T06:59:59.000Z</time>
      </trkpt>
      <trkpt lat="44.7538" lon="-0.21075">
        <ele>66.599998474121</ele>
        <time>2022-01-16T07:00:01.000Z</time>
      </trkpt>
      <trkpt lat="44.75388" lon="-0.21064">
        <ele>66.199996948242</ele>
        <time>2022-01-16T07:00:03.000Z</time>
      </trkpt>
      <trkpt lat="44.75393" lon="-0.21058">
        <ele>66.199996948242</ele>
        <time>2022-01-16T07:00:04.000Z</time>
      </trkpt>
      <trkpt lat="44.75398" lon="-0.21051">
        <ele>66</ele>
        <time>2022-01-16T07:00:05.000Z</time>
      </trkpt>
      <trkpt lat="44.75409" lon="-0.21037">
        <ele>64.800003051758</ele>
        <time>2022-01-16T07:00:07.000Z</time>
      </trkpt>
      <trkpt lat="44.7542" lon="-0.21023">
        <ele>63.400001525879</ele>
        <time>2022-01-16T07:00:09.000Z</time>
      </trkpt>
      <trkpt lat="44.75425" lon="-0.21015">
        <ele>63</ele>
        <time>2022-01-16T07:00:10.000Z</time>
      </trkpt>
      <trkpt lat="44.75431" lon="-0.21008">
        <ele>62.400001525879</ele>
        <time>2022-01-16T07:00:11.000Z</time>
      </trkpt>
      <trkpt lat="44.75444" lon="-0.20993">
        <ele>61.599998474121</ele>
        <time>2022-01-16T07:00:13.000Z</time>
      </trkpt>
      <trkpt lat="44.75457" lon="-0.20976">
        <ele>61.200000762939</ele>
        <time>2022-01-16T07:00:15.000Z</time>
      </trkpt>
      <trkpt lat="44.75464" lon="-0.20967">
        <ele>61</ele>
        <time>2022-01-16T07:00:16.000Z</time>
      </trkpt>
      <trkpt lat="44.7547" lon="-0.20959">
        <ele>60.799999237061</ele>
        <time>2022-01-16T07:00:17.000Z</time>
      </trkpt>
      <trkpt lat="44.75483" lon="-0.20942">
        <ele>60.599998474121</ele>
        <time>2022-01-16T07:00:19.000Z</time>
      </trkpt>
      <trkpt lat="44.75496" lon="-0.20925">
        <ele>59.799999237061</ele>
        <time>2022-01-16T07:00:21.000Z</time>
      </trkpt>
      <trkpt lat="44.75503" lon="-0.20916">
        <ele>59.400001525879</ele>
        <time>2022-01-16T07:00:22.000Z</time>
      </trkpt>
      <trkpt lat="44.75509" lon="-0.20907">
        <ele>58.799999237061</ele>
        <time>2022-01-16T07:00:23.000Z</time>
      </trkpt>
      <trkpt lat="44.7552" lon="-0.2089">
        <ele>58</ele>
        <time>2022-01-16T07:00:25.000Z</time>
      </trkpt>
      <trkpt lat="44.75529" lon="-0.20871">
        <ele>57.799999237061</ele>
        <time>2022-01-16T07:00:27.000Z</time>
      </trkpt>
      <trkpt lat="44.75534" lon="-0.20862">
        <ele>57.799999237061</ele>
        <time>2022-01-16T07:00:28.000Z</time>
      </trkpt>
      <trkpt lat="44.75539" lon="-0.20853">
        <ele>57.799999237061</ele>
        <time>2022-01-16T07:00:29.000Z</time>
      </trkpt>
      <trkpt lat="44.75546" lon="-0.20835">
        <ele>58.200000762939</ele>
        <time>2022-01-16T07:00:31.000Z</time>
      </trkpt>
      <trkpt lat="44.75554" lon="-0.20817">
        <ele>58.599998474121</ele>
        <time>2022-01-16T07:00:33.000Z</time>
      </trkpt>
      <trkpt lat="44.75561" lon="-0.208">
        <ele>59</ele>
        <time>2022-01-16T07:00:35.000Z</time>
      </trkpt>
      <trkpt lat="44.75568" lon="-0.20782">
        <ele>59.599998474121</ele>
        <time>2022-01-16T07:00:37.000Z</time>
      </trkpt>
      <trkpt lat="44.75575" lon="-0.20765">
        <ele>60</ele>
        <time>2022-01-16T07:00:39.000Z</time>
      </trkpt>
      <trkpt lat="44.75582" lon="-0.20749">
        <ele>60</ele>
        <time>2022-01-16T07:00:41.000Z</time>
      </trkpt>
      <trkpt lat="44.75589" lon="-0.20733">
        <ele>59.599998474121</ele>
        <time>2022-01-16T07:00:43.000Z</time>
      </trkpt>
      <trkpt lat="44.75595" lon="-0.20717">
        <ele>59.200000762939</ele>
        <time>2022-01-16T07:00:45.000Z</time>
      </trkpt>
      <trkpt lat="44.75602" lon="-0.20701">
        <ele>59</ele>
        <time>2022-01-16T07:00:47.000Z</time>
      </trkpt>
      <trkpt lat="44.75605" lon="-0.20693">
        <ele>58.799999237061</ele>
        <time>2022-01-16T07:00:48.000Z</time>
      </trkpt>
      <trkpt lat="44.75608" lon="-0.20685">
        <ele>58.599998474121</ele>
        <time>2022-01-16T07:00:49.000Z</time>
      </trkpt>
      <trkpt lat="44.75611" lon="-0.20676">
        <ele>58.400001525879</ele>
        <time>2022-01-16T07:00:50.000Z</time>
      </trkpt>
      <trkpt lat="44.75614" lon="-0.20668">
        <ele>58.200000762939</ele>
        <time>2022-01-16T07:00:51.000Z</time>
      </trkpt>
      <trkpt lat="44.75621" lon="-0.20652">
        <ele>58</ele>
        <time>2022-01-16T07:00:53.000Z</time>
      </trkpt>
      <trkpt lat="44.75627" lon="-0.20636">
        <ele>58.400001525879</ele>
        <time>2022-01-16T07:00:55.000Z</time>
      </trkpt>
      <trkpt lat="44.75633" lon="-0.20622">
        <ele>58.799999237061</ele>
        <time>2022-01-16T07:00:57.000Z</time>
      </trkpt>
      <trkpt lat="44.75639" lon="-0.20606">
        <ele>59.799999237061</ele>
        <time>2022-01-16T07:00:59.000Z</time>
      </trkpt>
      <trkpt lat="44.75645" lon="-0.20591">
        <ele>60.400001525879</ele>
        <time>2022-01-16T07:01:01.000Z</time>
      </trkpt>
      <trkpt lat="44.75651" lon="-0.20576">
        <ele>60.799999237061</ele>
        <time>2022-01-16T07:01:03.000Z</time>
      </trkpt>
      <trkpt lat="44.75657" lon="-0.2056">
        <ele>60.599998474121</ele>
        <time>2022-01-16T07:01:05.000Z</time>
      </trkpt>
      <trkpt lat="44.75663" lon="-0.20544">
        <ele>60.400001525879</ele>
        <time>2022-01-16T07:01:07.000Z</time>
      </trkpt>
      <trkpt lat="44.75666" lon="-0.20536">
        <ele>60.200000762939</ele>
        <time>2022-01-16T07:01:08.000Z</time>
      </trkpt>
      <trkpt lat="44.75669" lon="-0.20527">
        <ele>60.200000762939</ele>
        <time>2022-01-16T07:01:09.000Z</time>
      </trkpt>
      <trkpt lat="44.75675" lon="-0.20511">
        <ele>60</ele>
        <time>2022-01-16T07:01:11.000Z</time>
      </trkpt>
      <trkpt lat="44.75682" lon="-0.20493">
        <ele>59.400001525879</ele>
        <time>2022-01-16T07:01:13.000Z</time>
      </trkpt>
      <trkpt lat="44.75689" lon="-0.20475">
        <ele>59</ele>
        <time>2022-01-16T07:01:15.000Z</time>
      </trkpt>
      <trkpt lat="44.75695" lon="-0.20457">
        <ele>58.200000762939</ele>
        <time>2022-01-16T07:01:17.000Z</time>
      </trkpt>
      <trkpt lat="44.75702" lon="-0.20439">
        <ele>57</ele>
        <time>2022-01-16T07:01:19.000Z</time>
      </trkpt>
      <trkpt lat="44.75709" lon="-0.2042">
        <ele>56.799999237061</ele>
        <time>2022-01-16T07:01:21.000Z</time>
      </trkpt>
      <trkpt lat="44.75712" lon="-0.20411">
        <ele>56.799999237061</ele>
        <time>2022-01-16T07:01:22.000Z</time>
      </trkpt>
      <trkpt lat="44.75716" lon="-0.20401">
        <ele>56.400001525879</ele>
        <time>2022-01-16T07:01:23.000Z</time>
      </trkpt>
      <trkpt lat="44.75722" lon="-0.20381">
        <ele>55.799999237061</ele>
        <time>2022-01-16T07:01:25.000Z</time>
      </trkpt>
      <trkpt lat="44.75727" lon="-0.2036">
        <ele>56</ele>
        <time>2022-01-16T07:01:27.000Z</time>
      </trkpt>
      <trkpt lat="44.7573" lon="-0.2035">
        <ele>55.799999237061</ele>
        <time>2022-01-16T07:01:28.000Z</time>
      </trkpt>
      <trkpt lat="44.75732" lon="-0.20339">
        <ele>55.400001525879</ele>
        <time>2022-01-16T07:01:29.000Z</time>
      </trkpt>
      <trkpt lat="44.75735" lon="-0.20318">
        <ele>54.799999237061</ele>
        <time>2022-01-16T07:01:31.000Z</time>
      </trkpt>
      <trkpt lat="44.75737" lon="-0.20297">
        <ele>55.400001525879</ele>
        <time>2022-01-16T07:01:33.000Z</time>
      </trkpt>
      <trkpt lat="44.7574" lon="-0.20277">
        <ele>55.599998474121</ele>
        <time>2022-01-16T07:01:35.000Z</time>
      </trkpt>
      <trkpt lat="44.75741" lon="-0.20257">
        <ele>55.599998474121</ele>
        <time>2022-01-16T07:01:37.000Z</time>
      </trkpt>
      <trkpt lat="44.75742" lon="-0.20237">
        <ele>55</ele>
        <time>2022-01-16T07:01:39.000Z</time>
      </trkpt>
      <trkpt lat="44.75743" lon="-0.20217">
        <ele>55.400001525879</ele>
        <time>2022-01-16T07:01:41.000Z</time>
      </trkpt>
      <trkpt lat="44.75744" lon="-0.20197">
        <ele>55.400001525879</ele>
        <time>2022-01-16T07:01:43.000Z</time>
      </trkpt>
      <trkpt lat="44.75744" lon="-0.20178">
        <ele>55.799999237061</ele>
        <time>2022-01-16T07:01:45.000Z</time>
      </trkpt>
      <trkpt lat="44.75745" lon="-0.20159">
        <ele>56.400001525879</ele>
        <time>2022-01-16T07:01:47.000Z</time>
      </trkpt>
      <trkpt lat="44.75746" lon="-0.2014">
        <ele>56.400001525879</ele>
        <time>2022-01-16T07:01:49.000Z</time>
      </trkpt>
      <trkpt lat="44.75747" lon="-0.20122">
        <ele>56.599998474121</ele>
        <time>2022-01-16T07:01:51.000Z</time>
      </trkpt>
      <trkpt lat="44.75748" lon="-0.20104">
        <ele>57.200000762939</ele>
        <time>2022-01-16T07:01:53.000Z</time>
      </trkpt>
      <trkpt lat="44.75748" lon="-0.20096">
        <ele>57.599998474121</ele>
        <time>2022-01-16T07:01:54.000Z</time>
      </trkpt>
      <trkpt lat="44.75749" lon="-0.20088">
        <ele>57.799999237061</ele>
        <time>2022-01-16T07:01:55.000Z</time>
      </trkpt>
      <trkpt lat="44.7575" lon="-0.20072">
        <ele>58.400001525879</ele>
        <time>2022-01-16T07:01:57.000Z</time>
      </trkpt>
      <trkpt lat="44.75752" lon="-0.20056">
        <ele>58.799999237061</ele>
        <time>2022-01-16T07:01:59.000Z</time>
      </trkpt>
      <trkpt lat="44.75754" lon="-0.20041">
        <ele>59.400001525879</ele>
        <time>2022-01-16T07:02:01.000Z</time>
      </trkpt>
      <trkpt lat="44.75755" lon="-0.20033">
        <ele>59.599998474121</ele>
        <time>2022-01-16T07:02:02.000Z</time>
      </trkpt>
      <trkpt lat="44.75757" lon="-0.20025">
        <ele>59.799999237061</ele>
        <time>2022-01-16T07:02:03.000Z</time>
      </trkpt>
      <trkpt lat="44.75761" lon="-0.20011">
        <ele>60.200000762939</ele>
        <time>2022-01-16T07:02:05.000Z</time>
      </trkpt>
      <trkpt lat="44.75766" lon="-0.19997">
        <ele>60.400001525879</ele>
        <time>2022-01-16T07:02:07.000Z</time>
      </trkpt>
      <trkpt lat="44.75768" lon="-0.1999">
        <ele>60.599998474121</ele>
        <time>2022-01-16T07:02:08.000Z</time>
      </trkpt>
      <trkpt lat="44.75771" lon="-0.19984">
        <ele>60.799999237061</ele>
        <time>2022-01-16T07:02:09.000Z</time>
      </trkpt>
      <trkpt lat="44.75777" lon="-0.1997">
        <ele>61</ele>
        <time>2022-01-16T07:02:11.000Z</time>
      </trkpt>
      <trkpt lat="44.75783" lon="-0.19957">
        <ele>61</ele>
        <time>2022-01-16T07:02:13.000Z</time>
      </trkpt>
      <trkpt lat="44.75789" lon="-0.19944">
        <ele>61</ele>
        <time>2022-01-16T07:02:15.000Z</time>
      </trkpt>
      <trkpt lat="44.75794" lon="-0.19931">
        <ele>61.200000762939</ele>
        <time>2022-01-16T07:02:17.000Z</time>
      </trkpt>
      <trkpt lat="44.758" lon="-0.19919">
        <ele>61.599998474121</ele>
        <time>2022-01-16T07:02:19.000Z</time>
      </trkpt>
      <trkpt lat="44.75806" lon="-0.19906">
        <ele>61.599998474121</ele>
        <time>2022-01-16T07:02:21.000Z</time>
      </trkpt>
      <trkpt lat="44.75812" lon="-0.19892">
        <ele>61.400001525879</ele>
        <time>2022-01-16T07:02:23.000Z</time>
      </trkpt>
      <trkpt lat="44.75819" lon="-0.19877">
        <ele>60.799999237061</ele>
        <time>2022-01-16T07:02:25.000Z</time>
      </trkpt>
      <trkpt lat="44.75827" lon="-0.19861">
        <ele>60.599998474121</ele>
        <time>2022-01-16T07:02:27.000Z</time>
      </trkpt>
      <trkpt lat="44.75831" lon="-0.19853">
        <ele>60.400001525879</ele>
        <time>2022-01-16T07:02:28.000Z</time>
      </trkpt>
      <trkpt lat="44.75835" lon="-0.19844">
        <ele>60</ele>
        <time>2022-01-16T07:02:29.000Z</time>
      </trkpt>
      <trkpt lat="44.75844" lon="-0.19827">
        <ele>59</ele>
        <time>2022-01-16T07:02:31.000Z</time>
      </trkpt>
      <trkpt lat="44.75855" lon="-0.19811">
        <ele>58.400001525879</ele>
        <time>2022-01-16T07:02:33.000Z</time>
      </trkpt>
      <trkpt lat="44.7586" lon="-0.19804">
        <ele>58.200000762939</ele>
        <time>2022-01-16T07:02:34.000Z</time>
      </trkpt>
      <trkpt lat="44.75866" lon="-0.19796">
        <ele>58</ele>
        <time>2022-01-16T07:02:35.000Z</time>
      </trkpt>
      <trkpt lat="44.75878" lon="-0.19781">
        <ele>57.400001525879</ele>
        <time>2022-01-16T07:02:37.000Z</time>
      </trkpt>
      <trkpt lat="44.7589" lon="-0.19768">
        <ele>57</ele>
        <time>2022-01-16T07:02:39.000Z</time>
      </trkpt>
      <trkpt lat="44.75903" lon="-0.19754">
        <ele>57</ele>
        <time>2022-01-16T07:02:41.000Z</time>
      </trkpt>
      <trkpt lat="44.75916" lon="-0.19741">
        <ele>57</ele>
        <time>2022-01-16T07:02:43.000Z</time>
      </trkpt>
      <trkpt lat="44.75928" lon="-0.19728">
        <ele>56.400001525879</ele>
        <time>2022-01-16T07:02:45.000Z</time>
      </trkpt>
      <trkpt lat="44.7594" lon="-0.19716">
        <ele>55.400001525879</ele>
        <time>2022-01-16T07:02:47.000Z</time>
      </trkpt>
      <trkpt lat="44.75952" lon="-0.19703">
        <ele>55</ele>
        <time>2022-01-16T07:02:49.000Z</time>
      </trkpt>
      <trkpt lat="44.75962" lon="-0.19691">
        <ele>54.599998474121</ele>
        <time>2022-01-16T07:02:51.000Z</time>
      </trkpt>
      <trkpt lat="44.75968" lon="-0.19681">
        <ele>54.400001525879</ele>
        <time>2022-01-16T07:02:53.000Z</time>
      </trkpt>
      <trkpt lat="44.75972" lon="-0.19676">
        <ele>54.200000762939</ele>
        <time>2022-01-16T07:02:55.000Z</time>
      </trkpt>
      <trkpt lat="44.75973" lon="-0.19675">
        <ele>54.200000762939</ele>
        <time>2022-01-16T07:02:56.000Z</time>
      </trkpt>
      <trkpt lat="44.75977" lon="-0.19677">
        <ele>54</ele>
        <time>2022-01-19T07:02:33.000Z</time>
      </trkpt>
      <trkpt lat="44.75983" lon="-0.19685">
        <ele>54</ele>
        <time>2022-01-19T07:02:35.000Z</time>
      </trkpt>
      <trkpt lat="44.7599" lon="-0.19695">
        <ele>54.400001525879</ele>
        <time>2022-01-19T07:02:37.000Z</time>
      </trkpt>
      <trkpt lat="44.75994" lon="-0.197">
        <ele>54.599998474121</ele>
        <time>2022-01-19T07:02:38.000Z</time>
      </trkpt>
      <trkpt lat="44.75998" lon="-0.19705">
        <ele>54.599998474121</ele>
        <time>2022-01-19T07:02:39.000Z</time>
      </trkpt>
      <trkpt lat="44.76008" lon="-0.19714">
        <ele>55</ele>
        <time>2022-01-19T07:02:41.000Z</time>
      </trkpt>
      <trkpt lat="44.76018" lon="-0.19723">
        <ele>55.400001525879</ele>
        <time>2022-01-19T07:02:43.000Z</time>
      </trkpt>
      <trkpt lat="44.76023" lon="-0.19726">
        <ele>55.400001525879</ele>
        <time>2022-01-19T07:02:44.000Z</time>
      </trkpt>
      <trkpt lat="44.7603" lon="-0.19728">
        <ele>55.200000762939</ele>
        <time>2022-01-19T07:02:45.000Z</time>
      </trkpt>
      <trkpt lat="44.76036" lon="-0.19731">
        <ele>55</ele>
        <time>2022-01-19T07:02:46.000Z</time>
      </trkpt>
      <trkpt lat="44.76042" lon="-0.19736">
        <ele>54.799999237061</ele>
        <time>2022-01-19T07:02:47.000Z</time>
      </trkpt>
      <trkpt lat="44.76048" lon="-0.19743">
        <ele>54</ele>
        <time>2022-01-19T07:02:48.000Z</time>
      </trkpt>
      <trkpt lat="44.76053" lon="-0.19752">
        <ele>53.799999237061</ele>
        <time>2022-01-19T07:02:49.000Z</time>
      </trkpt>
      <trkpt lat="44.7606" lon="-0.19772">
        <ele>52.400001525879</ele>
        <time>2022-01-19T07:02:51.000Z</time>
      </trkpt>
      <trkpt lat="44.76061" lon="-0.19784">
        <ele>51.799999237061</ele>
        <time>2022-01-19T07:02:52.000Z</time>
      </trkpt>
      <trkpt lat="44.76063" lon="-0.19795">
        <ele>51.200000762939</ele>
        <time>2022-01-19T07:02:53.000Z</time>
      </trkpt>
      <trkpt lat="44.76066" lon="-0.19819">
        <ele>50.599998474121</ele>
        <time>2022-01-19T07:02:55.000Z</time>
      </trkpt>
      <trkpt lat="44.7607" lon="-0.1983">
        <ele>50.400001525879</ele>
        <time>2022-01-19T07:02:56.000Z</time>
      </trkpt>
      <trkpt lat="44.76075" lon="-0.1984">
        <ele>50.400001525879</ele>
        <time>2022-01-19T07:02:57.000Z</time>
      </trkpt>
      <trkpt lat="44.76085" lon="-0.19862">
        <ele>48.200000762939</ele>
        <time>2022-01-19T07:02:59.000Z</time>
      </trkpt>
      <trkpt lat="44.76091" lon="-0.19874">
        <ele>47.599998474121</ele>
        <time>2022-01-19T07:03:00.000Z</time>
      </trkpt>
      <trkpt lat="44.76098" lon="-0.19886">
        <ele>46.200000762939</ele>
        <time>2022-01-19T07:03:01.000Z</time>
      </trkpt>
      <trkpt lat="44.76112" lon="-0.1991">
        <ele>42.400001525879</ele>
        <time>2022-01-19T07:03:03.000Z</time>
      </trkpt>
      <trkpt lat="44.76126" lon="-0.19932">
        <ele>40.400001525879</ele>
        <time>2022-01-19T07:03:05.000Z</time>
      </trkpt>
      <trkpt lat="44.76141" lon="-0.19952">
        <ele>40.400001525879</ele>
        <time>2022-01-19T07:03:07.000Z</time>
      </trkpt>
      <trkpt lat="44.76155" lon="-0.19971">
        <ele>40.599998474121</ele>
        <time>2022-01-19T07:03:09.000Z</time>
      </trkpt>
      <trkpt lat="44.76161" lon="-0.19981">
        <ele>40.799999237061</ele>
        <time>2022-01-19T07:03:10.000Z</time>
      </trkpt>
      <trkpt lat="44.76168" lon="-0.1999">
        <ele>41.400001525879</ele>
        <time>2022-01-19T07:03:11.000Z</time>
      </trkpt>
      <trkpt lat="44.7618" lon="-0.20009">
        <ele>41</ele>
        <time>2022-01-19T07:03:13.000Z</time>
      </trkpt>
      <trkpt lat="44.76193" lon="-0.20026">
        <ele>40</ele>
        <time>2022-01-19T07:03:15.000Z</time>
      </trkpt>
      <trkpt lat="44.76206" lon="-0.20042">
        <ele>38.599998474121</ele>
        <time>2022-01-19T07:03:17.000Z</time>
      </trkpt>
      <trkpt lat="44.76214" lon="-0.20049">
        <ele>38</ele>
        <time>2022-01-19T07:03:18.000Z</time>
      </trkpt>
      <trkpt lat="44.76222" lon="-0.20054">
        <ele>37.400001525879</ele>
        <time>2022-01-19T07:03:19.000Z</time>
      </trkpt>
      <trkpt lat="44.76231" lon="-0.20057">
        <ele>36.599998474121</ele>
        <time>2022-01-19T07:03:20.000Z</time>
      </trkpt>
      <trkpt lat="44.7624" lon="-0.20061">
        <ele>35.799999237061</ele>
        <time>2022-01-19T07:03:21.000Z</time>
      </trkpt>
      <trkpt lat="44.76258" lon="-0.20067">
        <ele>34.200000762939</ele>
        <time>2022-01-19T07:03:23.000Z</time>
      </trkpt>
      <trkpt lat="44.76278" lon="-0.20075">
        <ele>33.200000762939</ele>
        <time>2022-01-19T07:03:25.000Z</time>
      </trkpt>
      <trkpt lat="44.76287" lon="-0.2008">
        <ele>32.799999237061</ele>
        <time>2022-01-19T07:03:26.000Z</time>
      </trkpt>
      <trkpt lat="44.76296" lon="-0.20086">
        <ele>32.599998474121</ele>
        <time>2022-01-19T07:03:27.000Z</time>
      </trkpt>
      <trkpt lat="44.76314" lon="-0.201">
        <ele>32.200000762939</ele>
        <time>2022-01-19T07:03:29.000Z</time>
      </trkpt>
      <trkpt lat="44.76331" lon="-0.20115">
        <ele>31.200000762939</ele>
        <time>2022-01-19T07:03:31.000Z</time>
      </trkpt>
      <trkpt lat="44.76346" lon="-0.2013">
        <ele>30.200000762939</ele>
        <time>2022-01-19T07:03:33.000Z</time>
      </trkpt>
      <trkpt lat="44.76361" lon="-0.20145">
        <ele>29.799999237061</ele>
        <time>2022-01-19T07:03:35.000Z</time>
      </trkpt>
      <trkpt lat="44.76375" lon="-0.2016">
        <ele>29.39999961853</ele>
        <time>2022-01-19T07:03:37.000Z</time>
      </trkpt>
      <trkpt lat="44.76382" lon="-0.20167">
        <ele>29.799999237061</ele>
        <time>2022-01-19T07:03:38.000Z</time>
      </trkpt>
      <trkpt lat="44.76389" lon="-0.20173">
        <ele>30</ele>
        <time>2022-01-19T07:03:39.000Z</time>
      </trkpt>
      <trkpt lat="44.76402" lon="-0.20185">
        <ele>30.39999961853</ele>
        <time>2022-01-19T07:03:41.000Z</time>
      </trkpt>
      <trkpt lat="44.76414" lon="-0.20195">
        <ele>31.200000762939</ele>
        <time>2022-01-19T07:03:43.000Z</time>
      </trkpt>
      <trkpt lat="44.76427" lon="-0.20203">
        <ele>32</ele>
        <time>2022-01-19T07:03:45.000Z</time>
      </trkpt>
      <trkpt lat="44.76439" lon="-0.20209">
        <ele>32</ele>
        <time>2022-01-19T07:03:47.000Z</time>
      </trkpt>
      <trkpt lat="44.76451" lon="-0.20215">
        <ele>32</ele>
        <time>2022-01-19T07:03:49.000Z</time>
      </trkpt>
      <trkpt lat="44.76464" lon="-0.20221">
        <ele>32</ele>
        <time>2022-01-19T07:03:51.000Z</time>
      </trkpt>
      <trkpt lat="44.76477" lon="-0.20228">
        <ele>31.60000038147</ele>
        <time>2022-01-19T07:03:53.000Z</time>
      </trkpt>
      <trkpt lat="44.76491" lon="-0.20236">
        <ele>30.60000038147</ele>
        <time>2022-01-19T07:03:55.000Z</time>
      </trkpt>
      <trkpt lat="44.76498" lon="-0.2024">
        <ele>29.799999237061</ele>
        <time>2022-01-19T07:03:56.000Z</time>
      </trkpt>
      <trkpt lat="44.76505" lon="-0.20244">
        <ele>29.200000762939</ele>
        <time>2022-01-19T07:03:57.000Z</time>
      </trkpt>
      <trkpt lat="44.76521" lon="-0.20252">
        <ele>27.200000762939</ele>
        <time>2022-01-19T07:03:59.000Z</time>
      </trkpt>
      <trkpt lat="44.76528" lon="-0.20257">
        <ele>26.200000762939</ele>
        <time>2022-01-19T07:04:00.000Z</time>
      </trkpt>
      <trkpt lat="44.76534" lon="-0.20261">
        <ele>25.39999961853</ele>
        <time>2022-01-19T07:04:01.000Z</time>
      </trkpt>
      <trkpt lat="44.76545" lon="-0.2027">
        <ele>24.60000038147</ele>
        <time>2022-01-19T07:04:03.000Z</time>
      </trkpt>
      <trkpt lat="44.76549" lon="-0.20274">
        <ele>24.39999961853</ele>
        <time>2022-01-19T07:04:04.000Z</time>
      </trkpt>
      <trkpt lat="44.76553" lon="-0.20277">
        <ele>24.39999961853</ele>
        <time>2022-01-19T07:04:05.000Z</time>
      </trkpt>
      <trkpt lat="44.76563" lon="-0.20282">
        <ele>24.39999961853</ele>
        <time>2022-01-19T07:04:07.000Z</time>
      </trkpt>
      <trkpt lat="44.76574" lon="-0.20289">
        <ele>25.39999961853</ele>
        <time>2022-01-19T07:04:09.000Z</time>
      </trkpt>
      <trkpt lat="44.76586" lon="-0.20296">
        <ele>25.799999237061</ele>
        <time>2022-01-19T07:04:11.000Z</time>
      </trkpt>
      <trkpt lat="44.76598" lon="-0.20303">
        <ele>26.799999237061</ele>
        <time>2022-01-19T07:04:13.000Z</time>
      </trkpt>
      <trkpt lat="44.76609" lon="-0.2031">
        <ele>27.799999237061</ele>
        <time>2022-01-19T07:04:15.000Z</time>
      </trkpt>
      <trkpt lat="44.76615" lon="-0.20313">
        <ele>28.200000762939</ele>
        <time>2022-01-19T07:04:16.000Z</time>
      </trkpt>
      <trkpt lat="44.76622" lon="-0.20316">
        <ele>28.60000038147</ele>
        <time>2022-01-19T07:04:17.000Z</time>
      </trkpt>
      <trkpt lat="44.76634" lon="-0.20321">
        <ele>29.200000762939</ele>
        <time>2022-01-19T07:04:19.000Z</time>
      </trkpt>
      <trkpt lat="44.76646" lon="-0.20328">
        <ele>29.799999237061</ele>
        <time>2022-01-19T07:04:21.000Z</time>
      </trkpt>
      <trkpt lat="44.76651" lon="-0.20331">
        <ele>29.799999237061</ele>
        <time>2022-01-19T07:04:22.000Z</time>
      </trkpt>
      <trkpt lat="44.76657" lon="-0.20335">
        <ele>29.60000038147</ele>
        <time>2022-01-19T07:04:23.000Z</time>
      </trkpt>
      <trkpt lat="44.76668" lon="-0.20341">
        <ele>30</ele>
        <time>2022-01-19T07:04:25.000Z</time>
      </trkpt>
      <trkpt lat="44.76678" lon="-0.20347">
        <ele>30.39999961853</ele>
        <time>2022-01-19T07:04:27.000Z</time>
      </trkpt>
      <trkpt lat="44.76683" lon="-0.20349">
        <ele>30.60000038147</ele>
        <time>2022-01-19T07:04:28.000Z</time>
      </trkpt>
      <trkpt lat="44.76688" lon="-0.20352">
        <ele>31</ele>
        <time>2022-01-19T07:04:29.000Z</time>
      </trkpt>
      <trkpt lat="44.76699" lon="-0.20359">
        <ele>32</ele>
        <time>2022-01-19T07:04:31.000Z</time>
      </trkpt>
      <trkpt lat="44.76704" lon="-0.20363">
        <ele>33</ele>
        <time>2022-01-19T07:04:32.000Z</time>
      </trkpt>
      <trkpt lat="44.76707" lon="-0.20368">
        <ele>34</ele>
        <time>2022-01-19T07:04:33.000Z</time>
      </trkpt>
      <trkpt lat="44.7671" lon="-0.20375">
        <ele>34.599998474121</ele>
        <time>2022-01-19T07:04:34.000Z</time>
      </trkpt>
      <trkpt lat="44.7671" lon="-0.20381">
        <ele>35.200000762939</ele>
        <time>2022-01-19T07:04:35.000Z</time>
      </trkpt>
      <trkpt lat="44.7671" lon="-0.20387">
        <ele>35.400001525879</ele>
        <time>2022-01-19T07:04:36.000Z</time>
      </trkpt>
      <trkpt lat="44.76709" lon="-0.20393">
        <ele>35.400001525879</ele>
        <time>2022-01-19T07:04:37.000Z</time>
      </trkpt>
      <trkpt lat="44.76706" lon="-0.20405">
        <ele>35.599998474121</ele>
        <time>2022-01-19T07:04:39.000Z</time>
      </trkpt>
      <trkpt lat="44.76703" lon="-0.20416">
        <ele>35.799999237061</ele>
        <time>2022-01-19T07:04:41.000Z</time>
      </trkpt>
      <trkpt lat="44.76701" lon="-0.20425">
        <ele>36</ele>
        <time>2022-01-19T07:04:43.000Z</time>
      </trkpt>
      <trkpt lat="44.767" lon="-0.20435">
        <ele>36.599998474121</ele>
        <time>2022-01-19T07:04:45.000Z</time>
      </trkpt>
      <trkpt lat="44.767" lon="-0.20445">
        <ele>37</ele>
        <time>2022-01-19T07:04:47.000Z</time>
      </trkpt>
      <trkpt lat="44.76702" lon="-0.20455">
        <ele>37.799999237061</ele>
        <time>2022-01-19T07:04:49.000Z</time>
      </trkpt>
      <trkpt lat="44.76705" lon="-0.20465">
        <ele>38.400001525879</ele>
        <time>2022-01-19T07:04:51.000Z</time>
      </trkpt>
      <trkpt lat="44.76708" lon="-0.20474">
        <ele>38.799999237061</ele>
        <time>2022-01-19T07:04:53.000Z</time>
      </trkpt>
      <trkpt lat="44.76709" lon="-0.20478">
        <ele>39</ele>
        <time>2022-01-19T07:04:54.000Z</time>
      </trkpt>
      <trkpt lat="44.7671" lon="-0.20483">
        <ele>39.200000762939</ele>
        <time>2022-01-19T07:04:55.000Z</time>
      </trkpt>
      <trkpt lat="44.76714" lon="-0.20491">
        <ele>39.599998474121</ele>
        <time>2022-01-19T07:04:57.000Z</time>
      </trkpt>
      <trkpt lat="44.76716" lon="-0.20499">
        <ele>40.400001525879</ele>
        <time>2022-01-19T07:04:59.000Z</time>
      </trkpt>
      <trkpt lat="44.76718" lon="-0.20507">
        <ele>40.599998474121</ele>
        <time>2022-01-19T07:05:01.000Z</time>
      </trkpt>
      <trkpt lat="44.76719" lon="-0.20511">
        <ele>40.599998474121</ele>
        <time>2022-01-19T07:05:02.000Z</time>
      </trkpt>
      <trkpt lat="44.76721" lon="-0.20515">
        <ele>40.599998474121</ele>
        <time>2022-01-19T07:05:03.000Z</time>
      </trkpt>
      <trkpt lat="44.76722" lon="-0.20518">
        <ele>40.400001525879</ele>
        <time>2022-01-19T07:05:04.000Z</time>
      </trkpt>
      <trkpt lat="44.76723" lon="-0.20522">
        <ele>40.599998474121</ele>
        <time>2022-01-19T07:05:05.000Z</time>
      </trkpt>
      <trkpt lat="44.76724" lon="-0.20531">
        <ele>41.200000762939</ele>
        <time>2022-01-19T07:05:07.000Z</time>
      </trkpt>
      <trkpt lat="44.76727" lon="-0.20539">
        <ele>42.200000762939</ele>
        <time>2022-01-19T07:05:09.000Z</time>
      </trkpt>
      <trkpt lat="44.76729" lon="-0.20543">
        <ele>42.599998474121</ele>
        <time>2022-01-19T07:05:10.000Z</time>
      </trkpt>
      <trkpt lat="44.7673" lon="-0.20547">
        <ele>43</ele>
        <time>2022-01-19T07:05:11.000Z</time>
      </trkpt>
      <trkpt lat="44.76732" lon="-0.20554">
        <ele>43.200000762939</ele>
        <time>2022-01-19T07:05:13.000Z</time>
      </trkpt>
      <trkpt lat="44.76732" lon="-0.20557">
        <ele>43.400001525879</ele>
        <time>2022-01-19T07:05:14.000Z</time>
      </trkpt>
      <trkpt lat="44.76733" lon="-0.20559">
        <ele>43.599998474121</ele>
        <time>2022-01-19T07:05:15.000Z</time>
      </trkpt>
      <trkpt lat="44.76738" lon="-0.2057">
        <ele>44.200000762939</ele>
        <time>2022-01-19T07:05:17.000Z</time>
      </trkpt>
      <trkpt lat="44.7674" lon="-0.20575">
        <ele>44.799999237061</ele>
        <time>2022-01-19T07:05:18.000Z</time>
      </trkpt>
      <trkpt lat="44.76743" lon="-0.2058">
        <ele>45.200000762939</ele>
        <time>2022-01-19T07:05:19.000Z</time>
      </trkpt>
      <trkpt lat="44.76748" lon="-0.20588">
        <ele>46.200000762939</ele>
        <time>2022-01-19T07:05:21.000Z</time>
      </trkpt>
      <trkpt lat="44.76753" lon="-0.20595">
        <ele>46.599998474121</ele>
        <time>2022-01-19T07:05:23.000Z</time>
      </trkpt>
      <trkpt lat="44.76759" lon="-0.20602">
        <ele>47</ele>
        <time>2022-01-19T07:05:25.000Z</time>
      </trkpt>
      <trkpt lat="44.76765" lon="-0.20608">
        <ele>47.799999237061</ele>
        <time>2022-01-19T07:05:27.000Z</time>
      </trkpt>
      <trkpt lat="44.76771" lon="-0.20614">
        <ele>48.799999237061</ele>
        <time>2022-01-19T07:05:29.000Z</time>
      </trkpt>
      <trkpt lat="44.76778" lon="-0.20621">
        <ele>49</ele>
        <time>2022-01-19T07:05:31.000Z</time>
      </trkpt>
      <trkpt lat="44.76785" lon="-0.20627">
        <ele>49</ele>
        <time>2022-01-19T07:05:33.000Z</time>
      </trkpt>
      <trkpt lat="44.76791" lon="-0.20633">
        <ele>49.400001525879</ele>
        <time>2022-01-19T07:05:35.000Z</time>
      </trkpt>
      <trkpt lat="44.76798" lon="-0.2064">
        <ele>49.799999237061</ele>
        <time>2022-01-19T07:05:37.000Z</time>
      </trkpt>
      <trkpt lat="44.76802" lon="-0.20643">
        <ele>50</ele>
        <time>2022-01-19T07:05:38.000Z</time>
      </trkpt>
      <trkpt lat="44.76805" lon="-0.20646">
        <ele>50.200000762939</ele>
        <time>2022-01-19T07:05:39.000Z</time>
      </trkpt>
      <trkpt lat="44.76813" lon="-0.20653">
        <ele>50.799999237061</ele>
        <time>2022-01-19T07:05:41.000Z</time>
      </trkpt>
      <trkpt lat="44.7682" lon="-0.20659">
        <ele>51</ele>
        <time>2022-01-19T07:05:43.000Z</time>
      </trkpt>
      <trkpt lat="44.76827" lon="-0.20665">
        <ele>51</ele>
        <time>2022-01-19T07:05:45.000Z</time>
      </trkpt>
      <trkpt lat="44.7683" lon="-0.20668">
        <ele>51</ele>
        <time>2022-01-19T07:05:46.000Z</time>
      </trkpt>
      <trkpt lat="44.76834" lon="-0.20671">
        <ele>51.200000762939</ele>
        <time>2022-01-19T07:05:47.000Z</time>
      </trkpt>
      <trkpt lat="44.76841" lon="-0.20677">
        <ele>51.799999237061</ele>
        <time>2022-01-19T07:05:49.000Z</time>
      </trkpt>
      <trkpt lat="44.76849" lon="-0.20683">
        <ele>52.400001525879</ele>
        <time>2022-01-19T07:05:51.000Z</time>
      </trkpt>
      <trkpt lat="44.76854" lon="-0.20686">
        <ele>52.400001525879</ele>
        <time>2022-01-19T07:05:52.000Z</time>
      </trkpt>
      <trkpt lat="44.76858" lon="-0.20688">
        <ele>52.799999237061</ele>
        <time>2022-01-19T07:05:53.000Z</time>
      </trkpt>
      <trkpt lat="44.76867" lon="-0.20691">
        <ele>53.200000762939</ele>
        <time>2022-01-19T07:05:55.000Z</time>
      </trkpt>
      <trkpt lat="44.76877" lon="-0.20694">
        <ele>53.799999237061</ele>
        <time>2022-01-19T07:05:57.000Z</time>
      </trkpt>
      <trkpt lat="44.76886" lon="-0.20696">
        <ele>54.599998474121</ele>
        <time>2022-01-19T07:05:59.000Z</time>
      </trkpt>
      <trkpt lat="44.76895" lon="-0.20698">
        <ele>55.400001525879</ele>
        <time>2022-01-19T07:06:01.000Z</time>
      </trkpt>
      <trkpt lat="44.76905" lon="-0.207">
        <ele>55.799999237061</ele>
        <time>2022-01-19T07:06:03.000Z</time>
      </trkpt>
      <trkpt lat="44.76914" lon="-0.20702">
        <ele>56.200000762939</ele>
        <time>2022-01-19T07:06:05.000Z</time>
      </trkpt>
      <trkpt lat="44.76924" lon="-0.20704">
        <ele>56.599998474121</ele>
        <time>2022-01-19T07:06:07.000Z</time>
      </trkpt>
      <trkpt lat="44.76933" lon="-0.20707">
        <ele>56.799999237061</ele>
        <time>2022-01-19T07:06:09.000Z</time>
      </trkpt>
      <trkpt lat="44.76943" lon="-0.20709">
        <ele>56.799999237061</ele>
        <time>2022-01-19T07:06:11.000Z</time>
      </trkpt>
      <trkpt lat="44.76952" lon="-0.20711">
        <ele>56.799999237061</ele>
        <time>2022-01-19T07:06:13.000Z</time>
      </trkpt>
      <trkpt lat="44.76956" lon="-0.20711">
        <ele>56.799999237061</ele>
        <time>2022-01-19T07:06:14.000Z</time>
      </trkpt>
      <trkpt lat="44.76961" lon="-0.20713">
        <ele>57</ele>
        <time>2022-01-19T07:06:15.000Z</time>
      </trkpt>
      <trkpt lat="44.76972" lon="-0.20715">
        <ele>57</ele>
        <time>2022-01-19T07:06:17.000Z</time>
      </trkpt>
      <trkpt lat="44.76978" lon="-0.20717">
        <ele>57</ele>
        <time>2022-01-19T07:06:18.000Z</time>
      </trkpt>
      <trkpt lat="44.76984" lon="-0.20718">
        <ele>56.599998474121</ele>
        <time>2022-01-19T07:06:19.000Z</time>
      </trkpt>
      <trkpt lat="44.76996" lon="-0.2072">
        <ele>55.799999237061</ele>
        <time>2022-01-19T07:06:21.000Z</time>
      </trkpt>
      <trkpt lat="44.7701" lon="-0.20722">
        <ele>54.799999237061</ele>
        <time>2022-01-19T07:06:23.000Z</time>
      </trkpt>
      <trkpt lat="44.77017" lon="-0.20723">
        <ele>54.400001525879</ele>
        <time>2022-01-19T07:06:24.000Z</time>
      </trkpt>
      <trkpt lat="44.77024" lon="-0.20724">
        <ele>53.799999237061</ele>
        <time>2022-01-19T07:06:25.000Z</time>
      </trkpt>
      <trkpt lat="44.77039" lon="-0.20726">
        <ele>53.400001525879</ele>
        <time>2022-01-19T07:06:27.000Z</time>
      </trkpt>
      <trkpt lat="44.77054" lon="-0.20728">
        <ele>52.599998474121</ele>
        <time>2022-01-19T07:06:29.000Z</time>
      </trkpt>
      <trkpt lat="44.77069" lon="-0.20729">
        <ele>52</ele>
        <time>2022-01-19T07:06:31.000Z</time>
      </trkpt>
      <trkpt lat="44.77077" lon="-0.20731">
        <ele>52</ele>
        <time>2022-01-19T07:06:32.000Z</time>
      </trkpt>
      <trkpt lat="44.77085" lon="-0.20731">
        <ele>52.400001525879</ele>
        <time>2022-01-19T07:06:33.000Z</time>
      </trkpt>
      <trkpt lat="44.771" lon="-0.20733">
        <ele>52.400001525879</ele>
        <time>2022-01-19T07:06:35.000Z</time>
      </trkpt>
      <trkpt lat="44.77116" lon="-0.20734">
        <ele>52.400001525879</ele>
        <time>2022-01-19T07:06:37.000Z</time>
      </trkpt>
      <trkpt lat="44.77132" lon="-0.20733">
        <ele>52.200000762939</ele>
        <time>2022-01-19T07:06:39.000Z</time>
      </trkpt>
      <trkpt lat="44.77147" lon="-0.20732">
        <ele>51.599998474121</ele>
        <time>2022-01-19T07:06:41.000Z</time>
      </trkpt>
      <trkpt lat="44.77162" lon="-0.2073">
        <ele>51.599998474121</ele>
        <time>2022-01-19T07:06:43.000Z</time>
      </trkpt>
      <trkpt lat="44.77177" lon="-0.20727">
        <ele>51.599998474121</ele>
        <time>2022-01-19T07:06:45.000Z</time>
      </trkpt>
      <trkpt lat="44.77184" lon="-0.20726">
        <ele>51.799999237061</ele>
        <time>2022-01-19T07:06:46.000Z</time>
      </trkpt>
      <trkpt lat="44.77192" lon="-0.20724">
        <ele>52</ele>
        <time>2022-01-19T07:06:47.000Z</time>
      </trkpt>
      <trkpt lat="44.77205" lon="-0.20719">
        <ele>52.200000762939</ele>
        <time>2022-01-19T07:06:49.000Z</time>
      </trkpt>
      <trkpt lat="44.77217" lon="-0.20714">
        <ele>52.599998474121</ele>
        <time>2022-01-19T07:06:51.000Z</time>
      </trkpt>
      <trkpt lat="44.77228" lon="-0.2071">
        <ele>53</ele>
        <time>2022-01-19T07:06:53.000Z</time>
      </trkpt>
      <trkpt lat="44.77239" lon="-0.20707">
        <ele>54</ele>
        <time>2022-01-19T07:06:55.000Z</time>
      </trkpt>
      <trkpt lat="44.77249" lon="-0.20702">
        <ele>54.799999237061</ele>
        <time>2022-01-19T07:06:57.000Z</time>
      </trkpt>
      <trkpt lat="44.77259" lon="-0.20699">
        <ele>55.599998474121</ele>
        <time>2022-01-19T07:06:59.000Z</time>
      </trkpt>
      <trkpt lat="44.77268" lon="-0.20696">
        <ele>56.400001525879</ele>
        <time>2022-01-19T07:07:01.000Z</time>
      </trkpt>
      <trkpt lat="44.77278" lon="-0.20692">
        <ele>57.200000762939</ele>
        <time>2022-01-19T07:07:03.000Z</time>
      </trkpt>
      <trkpt lat="44.77283" lon="-0.2069">
        <ele>57.599998474121</ele>
        <time>2022-01-19T07:07:04.000Z</time>
      </trkpt>
      <trkpt lat="44.77325" lon="-0.20891">
        <ele>61.4</ele>
      </trkpt>
      <trkpt lat="44.77466" lon="-0.21016">
        <ele>67.5</ele>
      </trkpt>
      <trkpt lat="44.77609" lon="-0.21097">
        <ele>72.9</ele>
      </trkpt>
      <trkpt lat="44.77679" lon="-0.2132">
        <ele>78</ele>
      </trkpt>
      <trkpt lat="44.77689" lon="-0.21353">
        <ele>72</ele>
      </trkpt>
      <trkpt lat="44.77701" lon="-0.21348">
        <ele>72</ele>
      </trkpt>
      <trkpt lat="44.77786" lon="-0.21326">
        <ele>63</ele>
      </trkpt>
      <trkpt lat="44.7779" lon="-0.21314">
        <ele>61</ele>
      </trkpt>
      <trkpt lat="44.7781" lon="-0.21289">
        <ele>60</ele>
      </trkpt>
      <trkpt lat="44.77829" lon="-0.21273">
        <ele>52</ele>
      </trkpt>
      <trkpt lat="44.77856" lon="-0.21169">
        <ele>41</ele>
      </trkpt>
      <trkpt lat="44.77883" lon="-0.21146">
        <ele>29</ele>
      </trkpt>
      <trkpt lat="44.77913" lon="-0.21147">
        <ele>20</ele>
      </trkpt>
      <trkpt lat="44.7793" lon="-0.2116">
        <ele>28</ele>
      </trkpt>
      <trkpt lat="44.77949" lon="-0.21182">
        <ele>34</ele>
      </trkpt>
      <trkpt lat="44.77975" lon="-0.21204">
        <ele>40</ele>
      </trkpt>
      <trkpt lat="44.78001" lon="-0.2122">
        <ele>40</ele>
      </trkpt>
      <trkpt lat="44.78011" lon="-0.21224">
        <ele>39</ele>
      </trkpt>
      <trkpt lat="44.78044" lon="-0.21245">
        <ele>34</ele>
      </trkpt>
      <trkpt lat="44.78049" lon="-0.2125">
        <ele>34</ele>
      </trkpt>
      <trkpt lat="44.78065" lon="-0.2125">
        <ele>38</ele>
      </trkpt>
      <trkpt lat="44.78078" lon="-0.21253">
        <ele>40</ele>
      </trkpt>
      <trkpt lat="44.78098" lon="-0.21246">
        <ele>40</ele>
      </trkpt>
      <trkpt lat="44.7821" lon="-0.21247">
        <ele>49</ele>
      </trkpt>
      <trkpt lat="44.78244" lon="-0.21254">
        <ele>57</ele>
      </trkpt>
      <trkpt lat="44.78284" lon="-0.21279">
        <ele>59</ele>
      </trkpt>
      <trkpt lat="44.78295" lon="-0.2128">
        <ele>58</ele>
      </trkpt>
      <trkpt lat="44.78299" lon="-0.21275">
        <ele>57</ele>
      </trkpt>
      <trkpt lat="44.78311" lon="-0.21227">
        <ele>53</ele>
      </trkpt>
      <trkpt lat="44.78318" lon="-0.21212">
        <ele>50</ele>
      </trkpt>
      <trkpt lat="44.78327" lon="-0.21167">
        <ele>49</ele>
      </trkpt>
      <trkpt lat="44.78328" lon="-0.21128">
        <ele>58</ele>
      </trkpt>
      <trkpt lat="44.78325" lon="-0.21115">
        <ele>62</ele>
      </trkpt>
      <trkpt lat="44.78322" lon="-0.21074">
        <ele>63</ele>
      </trkpt>
      <trkpt lat="44.78321" lon="-0.21044">
        <ele>62</ele>
      </trkpt>
      <trkpt lat="44.78319" lon="-0.21039">
        <ele>63</ele>
      </trkpt>
      <trkpt lat="44.78318" lon="-0.21026">
        <ele>60</ele>
      </trkpt>
      <trkpt lat="44.78314" lon="-0.21018">
        <ele>59</ele>
      </trkpt>
      <trkpt lat="44.783" lon="-0.20928">
        <ele>51</ele>
      </trkpt>
      <trkpt lat="44.78293" lon="-0.20899">
        <ele>54</ele>
      </trkpt>
      <trkpt lat="44.78285" lon="-0.20881">
        <ele>53</ele>
      </trkpt>
      <trkpt lat="44.78282" lon="-0.20859">
        <ele>50</ele>
      </trkpt>
      <trkpt lat="44.7828" lon="-0.20857">
        <ele>59.200000762939</ele>
        <time>2022-01-19T07:10:09.000Z</time>
      </trkpt>
      <trkpt lat="44.78286" lon="-0.20843">
        <ele>58.599998474121</ele>
        <time>2022-01-19T07:10:11.000Z</time>
      </trkpt>
      <trkpt lat="44.7829" lon="-0.20828">
        <ele>58.200000762939</ele>
        <time>2022-01-19T07:10:13.000Z</time>
      </trkpt>
      <trkpt lat="44.78293" lon="-0.20813">
        <ele>57.599998474121</ele>
        <time>2022-01-19T07:10:15.000Z</time>
      </trkpt>
      <trkpt lat="44.78295" lon="-0.20806">
        <ele>57.400001525879</ele>
        <time>2022-01-19T07:10:16.000Z</time>
      </trkpt>
      <trkpt lat="44.78296" lon="-0.20799">
        <ele>57</ele>
        <time>2022-01-19T07:10:17.000Z</time>
      </trkpt>
      <trkpt lat="44.78299" lon="-0.20786">
        <ele>57</ele>
        <time>2022-01-19T07:10:19.000Z</time>
      </trkpt>
      <trkpt lat="44.78301" lon="-0.20781">
        <ele>57</ele>
        <time>2022-01-19T07:10:20.000Z</time>
      </trkpt>
      <trkpt lat="44.78304" lon="-0.20779">
        <ele>57</ele>
        <time>2022-01-19T07:10:21.000Z</time>
      </trkpt>
      <trkpt lat="44.78312" lon="-0.20781">
        <ele>57</ele>
        <time>2022-01-19T07:10:23.000Z</time>
      </trkpt>
      <trkpt lat="44.78322" lon="-0.20784">
        <ele>57.200000762939</ele>
        <time>2022-01-19T07:10:25.000Z</time>
      </trkpt>
      <trkpt lat="44.78331" lon="-0.20787">
        <ele>57.599998474121</ele>
        <time>2022-01-19T07:10:27.000Z</time>
      </trkpt>
      <trkpt lat="44.78336" lon="-0.20788">
        <ele>57.799999237061</ele>
        <time>2022-01-19T07:10:28.000Z</time>
      </trkpt>
      <trkpt lat="44.78341" lon="-0.20789">
        <ele>58</ele>
        <time>2022-01-19T07:10:29.000Z</time>
      </trkpt>
      <trkpt lat="44.78352" lon="-0.20792">
        <ele>58.599998474121</ele>
        <time>2022-01-19T07:10:31.000Z</time>
      </trkpt>
      <trkpt lat="44.78363" lon="-0.20794">
        <ele>59.400001525879</ele>
        <time>2022-01-19T07:10:33.000Z</time>
      </trkpt>
      <trkpt lat="44.78374" lon="-0.20796">
        <ele>60</ele>
        <time>2022-01-19T07:10:35.000Z</time>
      </trkpt>
      <trkpt lat="44.7838" lon="-0.20798">
        <ele>60</ele>
        <time>2022-01-19T07:10:36.000Z</time>
      </trkpt>
      <trkpt lat="44.78385" lon="-0.20799">
        <ele>60</ele>
        <time>2022-01-19T07:10:37.000Z</time>
      </trkpt>
      <trkpt lat="44.78397" lon="-0.20802">
        <ele>60</ele>
        <time>2022-01-19T07:10:39.000Z</time>
      </trkpt>
      <trkpt lat="44.78408" lon="-0.20804">
        <ele>59.599998474121</ele>
        <time>2022-01-19T07:10:41.000Z</time>
      </trkpt>
      <trkpt lat="44.78419" lon="-0.20806">
        <ele>59.200000762939</ele>
        <time>2022-01-19T07:10:43.000Z</time>
      </trkpt>
      <trkpt lat="44.78424" lon="-0.20808">
        <ele>59</ele>
        <time>2022-01-19T07:10:44.000Z</time>
      </trkpt>
      <trkpt lat="44.7843" lon="-0.20809">
        <ele>59</ele>
        <time>2022-01-19T07:10:45.000Z</time>
      </trkpt>
      <trkpt lat="44.78441" lon="-0.20811">
        <ele>59</ele>
        <time>2022-01-19T07:10:47.000Z</time>
      </trkpt>
      <trkpt lat="44.78452" lon="-0.20813">
        <ele>59</ele>
        <time>2022-01-19T07:10:49.000Z</time>
      </trkpt>
      <trkpt lat="44.78464" lon="-0.20816">
        <ele>59</ele>
        <time>2022-01-19T07:10:51.000Z</time>
      </trkpt>
      <trkpt lat="44.78475" lon="-0.20819">
        <ele>59</ele>
        <time>2022-01-19T07:10:53.000Z</time>
      </trkpt>
      <trkpt lat="44.78486" lon="-0.20823">
        <ele>59.400001525879</ele>
        <time>2022-01-19T07:10:55.000Z</time>
      </trkpt>
      <trkpt lat="44.78498" lon="-0.20827">
        <ele>59.599998474121</ele>
        <time>2022-01-19T07:10:57.000Z</time>
      </trkpt>
      <trkpt lat="44.78508" lon="-0.20831">
        <ele>60</ele>
        <time>2022-01-19T07:10:59.000Z</time>
      </trkpt>
      <trkpt lat="44.78514" lon="-0.20834">
        <ele>60.599998474121</ele>
        <time>2022-01-19T07:11:00.000Z</time>
      </trkpt>
      <trkpt lat="44.7852" lon="-0.20836">
        <ele>61.200000762939</ele>
        <time>2022-01-19T07:11:01.000Z</time>
      </trkpt>
      <trkpt lat="44.78525" lon="-0.20839">
        <ele>61.799999237061</ele>
        <time>2022-01-19T07:11:02.000Z</time>
      </trkpt>
      <trkpt lat="44.78531" lon="-0.20843">
        <ele>62.400001525879</ele>
        <time>2022-01-19T07:11:03.000Z</time>
      </trkpt>
      <trkpt lat="44.78541" lon="-0.20849">
        <ele>63.799999237061</ele>
        <time>2022-01-19T07:11:05.000Z</time>
      </trkpt>
      <trkpt lat="44.78551" lon="-0.20856">
        <ele>64.599998474121</ele>
        <time>2022-01-19T07:11:07.000Z</time>
      </trkpt>
      <trkpt lat="44.78561" lon="-0.20863">
        <ele>65</ele>
        <time>2022-01-19T07:11:09.000Z</time>
      </trkpt>
      <trkpt lat="44.78566" lon="-0.20867">
        <ele>65.199996948242</ele>
        <time>2022-01-19T07:11:10.000Z</time>
      </trkpt>
      <trkpt lat="44.78571" lon="-0.2087">
        <ele>65.599998474121</ele>
        <time>2022-01-19T07:11:11.000Z</time>
      </trkpt>
      <trkpt lat="44.78576" lon="-0.20874">
        <ele>65.599998474121</ele>
        <time>2022-01-19T07:11:12.000Z</time>
      </trkpt>
      <trkpt lat="44.78581" lon="-0.20879">
        <ele>65.599998474121</ele>
        <time>2022-01-19T07:11:13.000Z</time>
      </trkpt>
      <trkpt lat="44.78586" lon="-0.20883">
        <ele>65.599998474121</ele>
        <time>2022-01-19T07:11:14.000Z</time>
      </trkpt>
      <trkpt lat="44.78591" lon="-0.20887">
        <ele>65.599998474121</ele>
        <time>2022-01-19T07:11:15.000Z</time>
      </trkpt>
      <trkpt lat="44.78601" lon="-0.20895">
        <ele>65.800003051758</ele>
        <time>2022-01-19T07:11:17.000Z</time>
      </trkpt>
      <trkpt lat="44.78611" lon="-0.20904">
        <ele>66.400001525879</ele>
        <time>2022-01-19T07:11:19.000Z</time>
      </trkpt>
      <trkpt lat="44.78616" lon="-0.20908">
        <ele>66.599998474121</ele>
        <time>2022-01-19T07:11:20.000Z</time>
      </trkpt>
      <trkpt lat="44.78621" lon="-0.20913">
        <ele>66.800003051758</ele>
        <time>2022-01-19T07:11:21.000Z</time>
      </trkpt>
      <trkpt lat="44.7863" lon="-0.20924">
        <ele>66.800003051758</ele>
        <time>2022-01-19T07:11:23.000Z</time>
      </trkpt>
      <trkpt lat="44.78635" lon="-0.20928">
        <ele>67.199996948242</ele>
        <time>2022-01-19T07:11:24.000Z</time>
      </trkpt>
      <trkpt lat="44.7864" lon="-0.20933">
        <ele>68</ele>
        <time>2022-01-19T07:11:25.000Z</time>
      </trkpt>
      <trkpt lat="44.78648" lon="-0.20943">
        <ele>68.400001525879</ele>
        <time>2022-01-19T07:11:27.000Z</time>
      </trkpt>
      <trkpt lat="44.78652" lon="-0.20949">
        <ele>68</ele>
        <time>2022-01-19T07:11:28.000Z</time>
      </trkpt>
      <trkpt lat="44.78657" lon="-0.20955">
        <ele>67.800003051758</ele>
        <time>2022-01-19T07:11:29.000Z</time>
      </trkpt>
      <trkpt lat="44.78665" lon="-0.20967">
        <ele>68.400001525879</ele>
        <time>2022-01-19T07:11:31.000Z</time>
      </trkpt>
      <trkpt lat="44.78673" lon="-0.2098">
        <ele>68.199996948242</ele>
        <time>2022-01-19T07:11:33.000Z</time>
      </trkpt>
      <trkpt lat="44.78676" lon="-0.20986">
        <ele>67.800003051758</ele>
        <time>2022-01-19T07:11:34.000Z</time>
      </trkpt>
      <trkpt lat="44.7868" lon="-0.20993">
        <ele>67.599998474121</ele>
        <time>2022-01-19T07:11:35.000Z</time>
      </trkpt>
      <trkpt lat="44.78688" lon="-0.21006">
        <ele>67.400001525879</ele>
        <time>2022-01-19T07:11:37.000Z</time>
      </trkpt>
      <trkpt lat="44.78695" lon="-0.2102">
        <ele>67.199996948242</ele>
        <time>2022-01-19T07:11:39.000Z</time>
      </trkpt>
      <trkpt lat="44.78698" lon="-0.21026">
        <ele>67.400001525879</ele>
        <time>2022-01-19T07:11:40.000Z</time>
      </trkpt>
      <trkpt lat="44.78701" lon="-0.21033">
        <ele>67.400001525879</ele>
        <time>2022-01-19T07:11:41.000Z</time>
      </trkpt>
      <trkpt lat="44.78707" lon="-0.21047">
        <ele>67.400001525879</ele>
        <time>2022-01-19T07:11:43.000Z</time>
      </trkpt>
      <trkpt lat="44.78713" lon="-0.21062">
        <ele>68.199996948242</ele>
        <time>2022-01-19T07:11:45.000Z</time>
      </trkpt>
      <trkpt lat="44.78718" lon="-0.21077">
        <ele>69.199996948242</ele>
        <time>2022-01-19T07:11:47.000Z</time>
      </trkpt>
      <trkpt lat="44.78721" lon="-0.21084">
        <ele>69.400001525879</ele>
        <time>2022-01-19T07:11:48.000Z</time>
      </trkpt>
      <trkpt lat="44.78724" lon="-0.21091">
        <ele>69.599998474121</ele>
        <time>2022-01-19T07:11:49.000Z</time>
      </trkpt>
      <trkpt lat="44.78726" lon="-0.21098">
        <ele>69.800003051758</ele>
        <time>2022-01-19T07:11:50.000Z</time>
      </trkpt>
      <trkpt lat="44.78729" lon="-0.21105">
        <ele>69.800003051758</ele>
        <time>2022-01-19T07:11:51.000Z</time>
      </trkpt>
      <trkpt lat="44.78731" lon="-0.21113">
        <ele>69.599998474121</ele>
        <time>2022-01-19T07:11:52.000Z</time>
      </trkpt>
      <trkpt lat="44.78733" lon="-0.2112">
        <ele>69.400001525879</ele>
        <time>2022-01-19T07:11:53.000Z</time>
      </trkpt>
      <trkpt lat="44.78737" lon="-0.21135">
        <ele>69</ele>
        <time>2022-01-19T07:11:55.000Z</time>
      </trkpt>
      <trkpt lat="44.78741" lon="-0.2115">
        <ele>68</ele>
        <time>2022-01-19T07:11:57.000Z</time>
      </trkpt>
      <trkpt lat="44.78743" lon="-0.21158">
        <ele>67.599998474121</ele>
        <time>2022-01-19T07:11:58.000Z</time>
      </trkpt>
      <trkpt lat="44.78746" lon="-0.21166">
        <ele>67</ele>
        <time>2022-01-19T07:11:59.000Z</time>
      </trkpt>
      <trkpt lat="44.78748" lon="-0.21175">
        <ele>66.400001525879</ele>
        <time>2022-01-19T07:12:00.000Z</time>
      </trkpt>
      <trkpt lat="44.7875" lon="-0.21182">
        <ele>66</ele>
        <time>2022-01-19T07:12:01.000Z</time>
      </trkpt>
      <trkpt lat="44.78754" lon="-0.21198">
        <ele>65.599998474121</ele>
        <time>2022-01-19T07:12:03.000Z</time>
      </trkpt>
      <trkpt lat="44.78759" lon="-0.21213">
        <ele>65</ele>
        <time>2022-01-19T07:12:05.000Z</time>
      </trkpt>
      <trkpt lat="44.78763" lon="-0.21229">
        <ele>64.400001525879</ele>
        <time>2022-01-19T07:12:07.000Z</time>
      </trkpt>
      <trkpt lat="44.78767" lon="-0.21245">
        <ele>64</ele>
        <time>2022-01-19T07:12:09.000Z</time>
      </trkpt>
      <trkpt lat="44.78772" lon="-0.21261">
        <ele>64.199996948242</ele>
        <time>2022-01-19T07:12:11.000Z</time>
      </trkpt>
      <trkpt lat="44.78776" lon="-0.21276">
        <ele>64.800003051758</ele>
        <time>2022-01-19T07:12:13.000Z</time>
      </trkpt>
      <trkpt lat="44.78781" lon="-0.21292">
        <ele>65.599998474121</ele>
        <time>2022-01-19T07:12:15.000Z</time>
      </trkpt>
      <trkpt lat="44.78783" lon="-0.21299">
        <ele>66</ele>
        <time>2022-01-19T07:12:16.000Z</time>
      </trkpt>
      <trkpt lat="44.78786" lon="-0.21307">
        <ele>66.400001525879</ele>
        <time>2022-01-19T07:12:17.000Z</time>
      </trkpt>
      <trkpt lat="44.7879" lon="-0.21322">
        <ele>66.800003051758</ele>
        <time>2022-01-19T07:12:19.000Z</time>
      </trkpt>
      <trkpt lat="44.78794" lon="-0.21337">
        <ele>67</ele>
        <time>2022-01-19T07:12:21.000Z</time>
      </trkpt>
      <trkpt lat="44.78796" lon="-0.21345">
        <ele>67</ele>
        <time>2022-01-19T07:12:22.000Z</time>
      </trkpt>
      <trkpt lat="44.78798" lon="-0.21353">
        <ele>67.400001525879</ele>
        <time>2022-01-19T07:12:23.000Z</time>
      </trkpt>
      <trkpt lat="44.78802" lon="-0.21369">
        <ele>67.599998474121</ele>
        <time>2022-01-19T07:12:25.000Z</time>
      </trkpt>
      <trkpt lat="44.78805" lon="-0.21384">
        <ele>67.800003051758</ele>
        <time>2022-01-19T07:12:27.000Z</time>
      </trkpt>
      <trkpt lat="44.78809" lon="-0.21399">
        <ele>68.400001525879</ele>
        <time>2022-01-19T07:12:29.000Z</time>
      </trkpt>
      <trkpt lat="44.78814" lon="-0.21414">
        <ele>69</ele>
        <time>2022-01-19T07:12:31.000Z</time>
      </trkpt>
      <trkpt lat="44.78818" lon="-0.21429">
        <ele>69.199996948242</ele>
        <time>2022-01-19T07:12:33.000Z</time>
      </trkpt>
      <trkpt lat="44.78821" lon="-0.21444">
        <ele>69.199996948242</ele>
        <time>2022-01-19T07:12:35.000Z</time>
      </trkpt>
      <trkpt lat="44.78826" lon="-0.21458">
        <ele>69.400001525879</ele>
        <time>2022-01-19T07:12:37.000Z</time>
      </trkpt>
      <trkpt lat="44.7883" lon="-0.21472">
        <ele>69.599998474121</ele>
        <time>2022-01-19T07:12:39.000Z</time>
      </trkpt>
      <trkpt lat="44.78835" lon="-0.21487">
        <ele>69.800003051758</ele>
        <time>2022-01-19T07:12:41.000Z</time>
      </trkpt>
      <trkpt lat="44.78839" lon="-0.21501">
        <ele>70</ele>
        <time>2022-01-19T07:12:43.000Z</time>
      </trkpt>
      <trkpt lat="44.78844" lon="-0.21515">
        <ele>70.199996948242</ele>
        <time>2022-01-19T07:12:45.000Z</time>
      </trkpt>
      <trkpt lat="44.78847" lon="-0.21522">
        <ele>70.199996948242</ele>
        <time>2022-01-19T07:12:46.000Z</time>
      </trkpt>
      <trkpt lat="44.7885" lon="-0.21529">
        <ele>70.199996948242</ele>
        <time>2022-01-19T07:12:47.000Z</time>
      </trkpt>
      <trkpt lat="44.78855" lon="-0.21543">
        <ele>70.400001525879</ele>
        <time>2022-01-19T07:12:49.000Z</time>
      </trkpt>
      <trkpt lat="44.78861" lon="-0.21557">
        <ele>71</ele>
        <time>2022-01-19T07:12:51.000Z</time>
      </trkpt>
      <trkpt lat="44.78867" lon="-0.21571">
        <ele>71</ele>
        <time>2022-01-19T07:12:53.000Z</time>
      </trkpt>
      <trkpt lat="44.78873" lon="-0.21584">
        <ele>71.400001525879</ele>
        <time>2022-01-19T07:12:55.000Z</time>
      </trkpt>
      <trkpt lat="44.78879" lon="-0.21596">
        <ele>72</ele>
        <time>2022-01-19T07:12:57.000Z</time>
      </trkpt>
      <trkpt lat="44.78884" lon="-0.21605">
        <ele>72</ele>
        <time>2022-01-19T07:12:59.000Z</time>
      </trkpt>
      <trkpt lat="44.78885" lon="-0.21608">
        <ele>72</ele>
        <time>2022-01-19T07:13:00.000Z</time>
      </trkpt>
      <trkpt lat="44.78888" lon="-0.21611">
        <ele>72</ele>
        <time>2022-01-19T07:13:01.000Z</time>
      </trkpt>
      <trkpt lat="44.7889" lon="-0.21611">
        <ele>72</ele>
        <time>2022-01-19T07:13:02.000Z</time>
      </trkpt>
      <trkpt lat="44.78894" lon="-0.21611">
        <ele>72.199996948242</ele>
        <time>2022-01-19T07:13:03.000Z</time>
      </trkpt>
      <trkpt lat="44.78903" lon="-0.21607">
        <ele>72.599998474121</ele>
        <time>2022-01-19T07:13:05.000Z</time>
      </trkpt>
      <trkpt lat="44.78913" lon="-0.21603">
        <ele>73.199996948242</ele>
        <time>2022-01-19T07:13:07.000Z</time>
      </trkpt>
      <trkpt lat="44.78918" lon="-0.21602">
        <ele>73.599998474121</ele>
        <time>2022-01-19T07:13:08.000Z</time>
      </trkpt>
      <trkpt lat="44.78924" lon="-0.21601">
        <ele>74</ele>
        <time>2022-01-19T07:13:09.000Z</time>
      </trkpt>
      <trkpt lat="44.78935" lon="-0.21601">
        <ele>74.599998474121</ele>
        <time>2022-01-19T07:13:11.000Z</time>
      </trkpt>
      <trkpt lat="44.78948" lon="-0.21601">
        <ele>75.599998474121</ele>
        <time>2022-01-19T07:13:13.000Z</time>
      </trkpt>
      <trkpt lat="44.78954" lon="-0.21601">
        <ele>76</ele>
        <time>2022-01-19T07:13:14.000Z</time>
      </trkpt>
      <trkpt lat="44.7896" lon="-0.21601">
        <ele>76.199996948242</ele>
        <time>2022-01-19T07:13:15.000Z</time>
      </trkpt>
      <trkpt lat="44.78972" lon="-0.21601">
        <ele>76.800003051758</ele>
        <time>2022-01-19T07:13:17.000Z</time>
      </trkpt>
      <trkpt lat="44.78985" lon="-0.21602">
        <ele>77</ele>
        <time>2022-01-19T07:13:19.000Z</time>
      </trkpt>
      <trkpt lat="44.78997" lon="-0.21603">
        <ele>77</ele>
        <time>2022-01-19T07:13:21.000Z</time>
      </trkpt>
      <trkpt lat="44.79003" lon="-0.21603">
        <ele>77</ele>
        <time>2022-01-19T07:13:22.000Z</time>
      </trkpt>
      <trkpt lat="44.79009" lon="-0.21602">
        <ele>77</ele>
        <time>2022-01-19T07:13:23.000Z</time>
      </trkpt>
      <trkpt lat="44.79022" lon="-0.21602">
        <ele>77.599998474121</ele>
        <time>2022-01-19T07:13:25.000Z</time>
      </trkpt>
      <trkpt lat="44.79034" lon="-0.21601">
        <ele>78</ele>
        <time>2022-01-19T07:13:27.000Z</time>
      </trkpt>
      <trkpt lat="44.7904" lon="-0.216">
        <ele>78.199996948242</ele>
        <time>2022-01-19T07:13:28.000Z</time>
      </trkpt>
      <trkpt lat="44.79046" lon="-0.21599">
        <ele>78.199996948242</ele>
        <time>2022-01-19T07:13:29.000Z</time>
      </trkpt>
      <trkpt lat="44.79058" lon="-0.21597">
        <ele>78.199996948242</ele>
        <time>2022-01-19T07:13:31.000Z</time>
      </trkpt>
      <trkpt lat="44.7907" lon="-0.21595">
        <ele>78.400001525879</ele>
        <time>2022-01-19T07:13:33.000Z</time>
      </trkpt>
      <trkpt lat="44.79082" lon="-0.21591">
        <ele>78.400001525879</ele>
        <time>2022-01-19T07:13:35.000Z</time>
      </trkpt>
      <trkpt lat="44.79088" lon="-0.21589">
        <ele>78.599998474121</ele>
        <time>2022-01-19T07:13:36.000Z</time>
      </trkpt>
      <trkpt lat="44.79093" lon="-0.21586">
        <ele>78.599998474121</ele>
        <time>2022-01-19T07:13:37.000Z</time>
      </trkpt>
      <trkpt lat="44.79105" lon="-0.21582">
        <ele>78.199996948242</ele>
        <time>2022-01-19T07:13:39.000Z</time>
      </trkpt>
      <trkpt lat="44.79117" lon="-0.21578">
        <ele>78</ele>
        <time>2022-01-19T07:13:41.000Z</time>
      </trkpt>
      <trkpt lat="44.79123" lon="-0.21575">
        <ele>78</ele>
        <time>2022-01-19T07:13:42.000Z</time>
      </trkpt>
      <trkpt lat="44.79129" lon="-0.21573">
        <ele>78.199996948242</ele>
        <time>2022-01-19T07:13:43.000Z</time>
      </trkpt>
      <trkpt lat="44.79141" lon="-0.21568">
        <ele>78.599998474121</ele>
        <time>2022-01-19T07:13:45.000Z</time>
      </trkpt>
      <trkpt lat="44.79153" lon="-0.21563">
        <ele>78.800003051758</ele>
        <time>2022-01-19T07:13:47.000Z</time>
      </trkpt>
      <trkpt lat="44.79164" lon="-0.21559">
        <ele>79.199996948242</ele>
        <time>2022-01-19T07:13:49.000Z</time>
      </trkpt>
      <trkpt lat="44.79176" lon="-0.21556">
        <ele>79.400001525879</ele>
        <time>2022-01-19T07:13:51.000Z</time>
      </trkpt>
      <trkpt lat="44.79188" lon="-0.21553">
        <ele>79.599998474121</ele>
        <time>2022-01-19T07:13:53.000Z</time>
      </trkpt>
      <trkpt lat="44.79194" lon="-0.2155">
        <ele>79.800003051758</ele>
        <time>2022-01-19T07:13:54.000Z</time>
      </trkpt>
      <trkpt lat="44.792" lon="-0.21548">
        <ele>80</ele>
        <time>2022-01-19T07:13:55.000Z</time>
      </trkpt>
      <trkpt lat="44.79213" lon="-0.21545">
        <ele>80.400001525879</ele>
        <time>2022-01-19T07:13:57.000Z</time>
      </trkpt>
      <trkpt lat="44.79225" lon="-0.21541">
        <ele>81</ele>
        <time>2022-01-19T07:13:59.000Z</time>
      </trkpt>
      <trkpt lat="44.79237" lon="-0.21538">
        <ele>81.400001525879</ele>
        <time>2022-01-19T07:14:01.000Z</time>
      </trkpt>
      <trkpt lat="44.7925" lon="-0.21534">
        <ele>81.400001525879</ele>
        <time>2022-01-19T07:14:03.000Z</time>
      </trkpt>
      <trkpt lat="44.79262" lon="-0.21531">
        <ele>81.599998474121</ele>
        <time>2022-01-19T07:14:05.000Z</time>
      </trkpt>
      <trkpt lat="44.79275" lon="-0.21528">
        <ele>81.800003051758</ele>
        <time>2022-01-19T07:14:07.000Z</time>
      </trkpt>
      <trkpt lat="44.79281" lon="-0.21526">
        <ele>81.800003051758</ele>
        <time>2022-01-19T07:14:08.000Z</time>
      </trkpt>
      <trkpt lat="44.79287" lon="-0.21525">
        <ele>81.800003051758</ele>
        <time>2022-01-19T07:14:09.000Z</time>
      </trkpt>
      <trkpt lat="44.793" lon="-0.21522">
        <ele>81.400001525879</ele>
        <time>2022-01-19T07:14:11.000Z</time>
      </trkpt>
      <trkpt lat="44.79312" lon="-0.2152">
        <ele>81</ele>
        <time>2022-01-19T07:14:13.000Z</time>
      </trkpt>
      <trkpt lat="44.79324" lon="-0.21518">
        <ele>81.400001525879</ele>
        <time>2022-01-19T07:14:15.000Z</time>
      </trkpt>
      <trkpt lat="44.79337" lon="-0.21518">
        <ele>82</ele>
        <time>2022-01-19T07:14:17.000Z</time>
      </trkpt>
      <trkpt lat="44.79349" lon="-0.21518">
        <ele>82.400001525879</ele>
        <time>2022-01-19T07:14:19.000Z</time>
      </trkpt>
      <trkpt lat="44.79362" lon="-0.21518">
        <ele>82.800003051758</ele>
        <time>2022-01-19T07:14:21.000Z</time>
      </trkpt>
      <trkpt lat="44.79375" lon="-0.21519">
        <ele>83</ele>
        <time>2022-01-19T07:14:23.000Z</time>
      </trkpt>
      <trkpt lat="44.79381" lon="-0.2152">
        <ele>83</ele>
        <time>2022-01-19T07:14:24.000Z</time>
      </trkpt>
      <trkpt lat="44.79387" lon="-0.21521">
        <ele>83</ele>
        <time>2022-01-19T07:14:25.000Z</time>
      </trkpt>
      <trkpt lat="44.79399" lon="-0.21522">
        <ele>83</ele>
        <time>2022-01-19T07:14:27.000Z</time>
      </trkpt>
      <trkpt lat="44.79412" lon="-0.21524">
        <ele>83</ele>
        <time>2022-01-19T07:14:29.000Z</time>
      </trkpt>
      <trkpt lat="44.79424" lon="-0.21525">
        <ele>82.800003051758</ele>
        <time>2022-01-19T07:14:31.000Z</time>
      </trkpt>
      <trkpt lat="44.7943" lon="-0.21526">
        <ele>82.599998474121</ele>
        <time>2022-01-19T07:14:32.000Z</time>
      </trkpt>
      <trkpt lat="44.79437" lon="-0.21527">
        <ele>82.400001525879</ele>
        <time>2022-01-19T07:14:33.000Z</time>
      </trkpt>
      <trkpt lat="44.79449" lon="-0.21527">
        <ele>82.199996948242</ele>
        <time>2022-01-19T07:14:35.000Z</time>
      </trkpt>
      <trkpt lat="44.79462" lon="-0.21527">
        <ele>82.199996948242</ele>
        <time>2022-01-19T07:14:37.000Z</time>
      </trkpt>
      <trkpt lat="44.79475" lon="-0.21526">
        <ele>82.199996948242</ele>
        <time>2022-01-19T07:14:39.000Z</time>
      </trkpt>
      <trkpt lat="44.79488" lon="-0.21524">
        <ele>82.400001525879</ele>
        <time>2022-01-19T07:14:41.000Z</time>
      </trkpt>
      <trkpt lat="44.79501" lon="-0.21521">
        <ele>82.800003051758</ele>
        <time>2022-01-19T07:14:43.000Z</time>
      </trkpt>
      <trkpt lat="44.79514" lon="-0.21518">
        <ele>83.199996948242</ele>
        <time>2022-01-19T07:14:45.000Z</time>
      </trkpt>
      <trkpt lat="44.7952" lon="-0.21517">
        <ele>83.599998474121</ele>
        <time>2022-01-19T07:14:46.000Z</time>
      </trkpt>
      <trkpt lat="44.79527" lon="-0.21515">
        <ele>83.800003051758</ele>
        <time>2022-01-19T07:14:47.000Z</time>
      </trkpt>
      <trkpt lat="44.7954" lon="-0.21512">
        <ele>84.400001525879</ele>
        <time>2022-01-19T07:14:49.000Z</time>
      </trkpt>
      <trkpt lat="44.79554" lon="-0.21508">
        <ele>84.400001525879</ele>
        <time>2022-01-19T07:14:51.000Z</time>
      </trkpt>
      <trkpt lat="44.79567" lon="-0.21505">
        <ele>84.400001525879</ele>
        <time>2022-01-19T07:14:53.000Z</time>
      </trkpt>
      <trkpt lat="44.79574" lon="-0.21503">
        <ele>84.199996948242</ele>
        <time>2022-01-19T07:14:54.000Z</time>
      </trkpt>
      <trkpt lat="44.79581" lon="-0.21501">
        <ele>84</ele>
        <time>2022-01-19T07:14:55.000Z</time>
      </trkpt>
      <trkpt lat="44.79595" lon="-0.21497">
        <ele>83.800003051758</ele>
        <time>2022-01-19T07:14:57.000Z</time>
      </trkpt>
      <trkpt lat="44.79609" lon="-0.21493">
        <ele>83.400001525879</ele>
        <time>2022-01-19T07:14:59.000Z</time>
      </trkpt>
      <trkpt lat="44.79625" lon="-0.21489">
        <ele>82.800003051758</ele>
        <time>2022-01-19T07:15:01.000Z</time>
      </trkpt>
      <trkpt lat="44.79641" lon="-0.21485">
        <ele>82.199996948242</ele>
        <time>2022-01-19T07:15:03.000Z</time>
      </trkpt>
      <trkpt lat="44.79657" lon="-0.21481">
        <ele>82</ele>
        <time>2022-01-19T07:15:05.000Z</time>
      </trkpt>
      <trkpt lat="44.79675" lon="-0.21477">
        <ele>82.400001525879</ele>
        <time>2022-01-19T07:15:07.000Z</time>
      </trkpt>
      <trkpt lat="44.79683" lon="-0.21475">
        <ele>82</ele>
        <time>2022-01-19T07:15:08.000Z</time>
      </trkpt>
      <trkpt lat="44.79692" lon="-0.21472">
        <ele>81.599998474121</ele>
        <time>2022-01-19T07:15:09.000Z</time>
      </trkpt>
      <trkpt lat="44.79709" lon="-0.21468">
        <ele>81</ele>
        <time>2022-01-19T07:15:11.000Z</time>
      </trkpt>
      <trkpt lat="44.79727" lon="-0.21463">
        <ele>80</ele>
        <time>2022-01-19T07:15:13.000Z</time>
      </trkpt>
      <trkpt lat="44.79745" lon="-0.21457">
        <ele>79.400001525879</ele>
        <time>2022-01-19T07:15:15.000Z</time>
      </trkpt>
      <trkpt lat="44.79762" lon="-0.21451">
        <ele>79</ele>
        <time>2022-01-19T07:15:17.000Z</time>
      </trkpt>
      <trkpt lat="44.7978" lon="-0.21443">
        <ele>78.400001525879</ele>
        <time>2022-01-19T07:15:19.000Z</time>
      </trkpt>
      <trkpt lat="44.79797" lon="-0.21434">
        <ele>78</ele>
        <time>2022-01-19T07:15:21.000Z</time>
      </trkpt>
      <trkpt lat="44.79813" lon="-0.21425">
        <ele>77.599998474121</ele>
        <time>2022-01-19T07:15:23.000Z</time>
      </trkpt>
      <trkpt lat="44.79821" lon="-0.21421">
        <ele>77.199996948242</ele>
        <time>2022-01-19T07:15:24.000Z</time>
      </trkpt>
      <trkpt lat="44.79829" lon="-0.21416">
        <ele>76.800003051758</ele>
        <time>2022-01-19T07:15:25.000Z</time>
      </trkpt>
      <trkpt lat="44.79845" lon="-0.21406">
        <ele>75.800003051758</ele>
        <time>2022-01-19T07:15:27.000Z</time>
      </trkpt>
      <trkpt lat="44.7986" lon="-0.21396">
        <ele>75.599998474121</ele>
        <time>2022-01-19T07:15:29.000Z</time>
      </trkpt>
      <trkpt lat="44.79876" lon="-0.21386">
        <ele>75.199996948242</ele>
        <time>2022-01-19T07:15:31.000Z</time>
      </trkpt>
      <trkpt lat="44.79892" lon="-0.21377">
        <ele>75</ele>
        <time>2022-01-19T07:15:33.000Z</time>
      </trkpt>
      <trkpt lat="44.799" lon="-0.21373">
        <ele>75.199996948242</ele>
        <time>2022-01-19T07:15:34.000Z</time>
      </trkpt>
      <trkpt lat="44.79908" lon="-0.21369">
        <ele>75.400001525879</ele>
        <time>2022-01-19T07:15:35.000Z</time>
      </trkpt>
      <trkpt lat="44.79925" lon="-0.21362">
        <ele>76.199996948242</ele>
        <time>2022-01-19T07:15:37.000Z</time>
      </trkpt>
      <trkpt lat="44.79941" lon="-0.21355">
        <ele>76</ele>
        <time>2022-01-19T07:15:39.000Z</time>
      </trkpt>
      <trkpt lat="44.79958" lon="-0.21348">
        <ele>75.800003051758</ele>
        <time>2022-01-19T07:15:41.000Z</time>
      </trkpt>
      <trkpt lat="44.79966" lon="-0.21345">
        <ele>75.599998474121</ele>
        <time>2022-01-19T07:15:42.000Z</time>
      </trkpt>
      <trkpt lat="44.79974" lon="-0.21342">
        <ele>75.199996948242</ele>
        <time>2022-01-19T07:15:43.000Z</time>
      </trkpt>
      <trkpt lat="44.79991" lon="-0.21335">
        <ele>74.599998474121</ele>
        <time>2022-01-19T07:15:45.000Z</time>
      </trkpt>
      <trkpt lat="44.80007" lon="-0.21328">
        <ele>74</ele>
        <time>2022-01-19T07:15:47.000Z</time>
      </trkpt>
      <trkpt lat="44.80023" lon="-0.21321">
        <ele>74.199996948242</ele>
        <time>2022-01-19T07:15:49.000Z</time>
      </trkpt>
      <trkpt lat="44.80031" lon="-0.21318">
        <ele>74.199996948242</ele>
        <time>2022-01-19T07:15:50.000Z</time>
      </trkpt>
      <trkpt lat="44.80038" lon="-0.21315">
        <ele>74.400001525879</ele>
        <time>2022-01-19T07:15:51.000Z</time>
      </trkpt>
      <trkpt lat="44.80053" lon="-0.21311">
        <ele>74</ele>
        <time>2022-01-19T07:15:53.000Z</time>
      </trkpt>
      <trkpt lat="44.80069" lon="-0.2131">
        <ele>73.400001525879</ele>
        <time>2022-01-19T07:15:55.000Z</time>
      </trkpt>
      <trkpt lat="44.80076" lon="-0.21311">
        <ele>73</ele>
        <time>2022-01-19T07:15:56.000Z</time>
      </trkpt>
      <trkpt lat="44.80082" lon="-0.21312">
        <ele>72.599998474121</ele>
        <time>2022-01-19T07:15:57.000Z</time>
      </trkpt>
      <trkpt lat="44.80093" lon="-0.21315">
        <ele>71.800003051758</ele>
        <time>2022-01-19T07:15:59.000Z</time>
      </trkpt>
      <trkpt lat="44.80101" lon="-0.21317">
        <ele>71.599998474121</ele>
        <time>2022-01-19T07:16:01.000Z</time>
      </trkpt>
      <trkpt lat="44.80104" lon="-0.21317">
        <ele>71.599998474121</ele>
        <time>2022-01-19T07:16:03.000Z</time>
      </trkpt>
      <trkpt lat="44.80107" lon="-0.21319">
        <ele>71.400001525879</ele>
        <time>2022-01-19T07:16:05.000Z</time>
      </trkpt>
      <trkpt lat="44.80111" lon="-0.21321">
        <ele>71.400001525879</ele>
        <time>2022-01-19T07:16:07.000Z</time>
      </trkpt>
      <trkpt lat="44.80114" lon="-0.21322">
        <ele>71.199996948242</ele>
        <time>2022-01-19T07:16:08.000Z</time>
      </trkpt>
      <trkpt lat="44.80117" lon="-0.21323">
        <ele>71.199996948242</ele>
        <time>2022-01-19T07:16:09.000Z</time>
      </trkpt>
      <trkpt lat="44.80123" lon="-0.21323">
        <ele>71</ele>
        <time>2022-01-19T07:16:11.000Z</time>
      </trkpt>
      <trkpt lat="44.8013" lon="-0.21322">
        <ele>70.800003051758</ele>
        <time>2022-01-19T07:16:13.000Z</time>
      </trkpt>
      <trkpt lat="44.80139" lon="-0.21319">
        <ele>70.599998474121</ele>
        <time>2022-01-19T07:16:15.000Z</time>
      </trkpt>
      <trkpt lat="44.80146" lon="-0.21315">
        <ele>70.400001525879</ele>
        <time>2022-01-19T07:16:17.000Z</time>
      </trkpt>
      <trkpt lat="44.80154" lon="-0.2131">
        <ele>69.599998474121</ele>
        <time>2022-01-19T07:16:19.000Z</time>
      </trkpt>
      <trkpt lat="44.80159" lon="-0.21308">
        <ele>69</ele>
        <time>2022-01-19T07:16:20.000Z</time>
      </trkpt>
      <trkpt lat="44.80164" lon="-0.21306">
        <ele>68.400001525879</ele>
        <time>2022-01-19T07:16:21.000Z</time>
      </trkpt>
      <trkpt lat="44.80176" lon="-0.21301">
        <ele>66.800003051758</ele>
        <time>2022-01-19T07:16:23.000Z</time>
      </trkpt>
      <trkpt lat="44.8019" lon="-0.21293">
        <ele>65.599998474121</ele>
        <time>2022-01-19T07:16:25.000Z</time>
      </trkpt>
      <trkpt lat="44.80206" lon="-0.21285">
        <ele>64.199996948242</ele>
        <time>2022-01-19T07:16:27.000Z</time>
      </trkpt>
      <trkpt lat="44.80214" lon="-0.21281">
        <ele>63.400001525879</ele>
        <time>2022-01-19T07:16:28.000Z</time>
      </trkpt>
      <trkpt lat="44.80223" lon="-0.21276">
        <ele>62.599998474121</ele>
        <time>2022-01-19T07:16:29.000Z</time>
      </trkpt>
      <trkpt lat="44.8024" lon="-0.21268">
        <ele>61.599998474121</ele>
        <time>2022-01-19T07:16:31.000Z</time>
      </trkpt>
      <trkpt lat="44.80258" lon="-0.21258">
        <ele>60.599998474121</ele>
        <time>2022-01-19T07:16:33.000Z</time>
      </trkpt>
      <trkpt lat="44.80277" lon="-0.21249">
        <ele>59</ele>
        <time>2022-01-19T07:16:35.000Z</time>
      </trkpt>
      <trkpt lat="44.80296" lon="-0.2124">
        <ele>58</ele>
        <time>2022-01-19T07:16:37.000Z</time>
      </trkpt>
      <trkpt lat="44.80316" lon="-0.21231">
        <ele>57.599998474121</ele>
        <time>2022-01-19T07:16:39.000Z</time>
      </trkpt>
      <trkpt lat="44.80335" lon="-0.21221">
        <ele>57.200000762939</ele>
        <time>2022-01-19T07:16:41.000Z</time>
      </trkpt>
      <trkpt lat="44.80355" lon="-0.21212">
        <ele>56.599998474121</ele>
        <time>2022-01-19T07:16:43.000Z</time>
      </trkpt>
      <trkpt lat="44.80373" lon="-0.212">
        <ele>56</ele>
        <time>2022-01-19T07:16:45.000Z</time>
      </trkpt>
      <trkpt lat="44.80389" lon="-0.21184">
        <ele>56</ele>
        <time>2022-01-19T07:16:47.000Z</time>
      </trkpt>
      <trkpt lat="44.80403" lon="-0.21162">
        <ele>55.799999237061</ele>
        <time>2022-01-19T07:16:49.000Z</time>
      </trkpt>
      <trkpt lat="44.80416" lon="-0.21137">
        <ele>55.400001525879</ele>
        <time>2022-01-19T07:16:51.000Z</time>
      </trkpt>
      <trkpt lat="44.80428" lon="-0.21113">
        <ele>56.200000762939</ele>
        <time>2022-01-19T07:16:53.000Z</time>
      </trkpt>
      <trkpt lat="44.80439" lon="-0.21091">
        <ele>57</ele>
        <time>2022-01-19T07:16:55.000Z</time>
      </trkpt>
      <trkpt lat="44.80445" lon="-0.21082">
        <ele>57</ele>
        <time>2022-01-19T07:16:56.000Z</time>
      </trkpt>
      <trkpt lat="44.80452" lon="-0.21076">
        <ele>57</ele>
        <time>2022-01-19T07:16:57.000Z</time>
      </trkpt>
      <trkpt lat="44.8046" lon="-0.21073">
        <ele>57.200000762939</ele>
        <time>2022-01-19T07:16:58.000Z</time>
      </trkpt>
      <trkpt lat="44.80467" lon="-0.21073">
        <ele>57.599998474121</ele>
        <time>2022-01-19T07:16:59.000Z</time>
      </trkpt>
      <trkpt lat="44.8048" lon="-0.21079">
        <ele>57.799999237061</ele>
        <time>2022-01-19T07:17:01.000Z</time>
      </trkpt>
      <trkpt lat="44.80492" lon="-0.21086">
        <ele>58</ele>
        <time>2022-01-19T07:17:03.000Z</time>
      </trkpt>
      <trkpt lat="44.80504" lon="-0.21094">
        <ele>57.599998474121</ele>
        <time>2022-01-19T07:17:05.000Z</time>
      </trkpt>
      <trkpt lat="44.80515" lon="-0.21101">
        <ele>57.400001525879</ele>
        <time>2022-01-19T07:17:07.000Z</time>
      </trkpt>
      <trkpt lat="44.80522" lon="-0.21104">
        <ele>57.400001525879</ele>
        <time>2022-01-19T07:17:08.000Z</time>
      </trkpt>
      <trkpt lat="44.80528" lon="-0.21106">
        <ele>57.599998474121</ele>
        <time>2022-01-19T07:17:09.000Z</time>
      </trkpt>
      <trkpt lat="44.80541" lon="-0.21112">
        <ele>57.400001525879</ele>
        <time>2022-01-19T07:17:11.000Z</time>
      </trkpt>
      <trkpt lat="44.80555" lon="-0.21117">
        <ele>57</ele>
        <time>2022-01-19T07:17:13.000Z</time>
      </trkpt>
      <trkpt lat="44.80562" lon="-0.2112">
        <ele>56.799999237061</ele>
        <time>2022-01-19T07:17:14.000Z</time>
      </trkpt>
      <trkpt lat="44.80569" lon="-0.21123">
        <ele>56.799999237061</ele>
        <time>2022-01-19T07:17:15.000Z</time>
      </trkpt>
      <trkpt lat="44.80583" lon="-0.21127">
        <ele>57</ele>
        <time>2022-01-19T07:17:17.000Z</time>
      </trkpt>
      <trkpt lat="44.80598" lon="-0.21129">
        <ele>57</ele>
        <time>2022-01-19T07:17:19.000Z</time>
      </trkpt>
      <trkpt lat="44.80612" lon="-0.2113">
        <ele>56.400001525879</ele>
        <time>2022-01-19T07:17:21.000Z</time>
      </trkpt>
      <trkpt lat="44.80626" lon="-0.21131">
        <ele>56</ele>
        <time>2022-01-19T07:17:23.000Z</time>
      </trkpt>
      <trkpt lat="44.8064" lon="-0.21132">
        <ele>56</ele>
        <time>2022-01-19T07:17:25.000Z</time>
      </trkpt>
      <trkpt lat="44.80648" lon="-0.21133">
        <ele>55.799999237061</ele>
        <time>2022-01-19T07:17:26.000Z</time>
      </trkpt>
      <trkpt lat="44.80656" lon="-0.21133">
        <ele>56.200000762939</ele>
        <time>2022-01-19T07:17:27.000Z</time>
      </trkpt>
      <trkpt lat="44.80671" lon="-0.21137">
        <ele>56.400001525879</ele>
        <time>2022-01-19T07:17:29.000Z</time>
      </trkpt>
      <trkpt lat="44.80686" lon="-0.21143">
        <ele>55.799999237061</ele>
        <time>2022-01-19T07:17:31.000Z</time>
      </trkpt>
      <trkpt lat="44.807" lon="-0.2115">
        <ele>55</ele>
        <time>2022-01-19T07:17:33.000Z</time>
      </trkpt>
      <trkpt lat="44.80714" lon="-0.2115">
        <ele>53.799999237061</ele>
        <time>2022-01-19T07:17:35.000Z</time>
      </trkpt>
      <trkpt lat="44.80729" lon="-0.21143">
        <ele>53.200000762939</ele>
        <time>2022-01-19T07:17:37.000Z</time>
      </trkpt>
      <trkpt lat="44.80736" lon="-0.21138">
        <ele>53.200000762939</ele>
        <time>2022-01-19T07:17:38.000Z</time>
      </trkpt>
      <trkpt lat="44.80743" lon="-0.21133">
        <ele>53.400001525879</ele>
        <time>2022-01-19T07:17:39.000Z</time>
      </trkpt>
      <trkpt lat="44.80755" lon="-0.2112">
        <ele>54</ele>
        <time>2022-01-19T07:17:41.000Z</time>
      </trkpt>
      <trkpt lat="44.80767" lon="-0.21105">
        <ele>54.799999237061</ele>
        <time>2022-01-19T07:17:43.000Z</time>
      </trkpt>
      <trkpt lat="44.80776" lon="-0.21088">
        <ele>56</ele>
        <time>2022-01-19T07:17:45.000Z</time>
      </trkpt>
      <trkpt lat="44.80783" lon="-0.21071">
        <ele>57</ele>
        <time>2022-01-19T07:17:47.000Z</time>
      </trkpt>
      <trkpt lat="44.80787" lon="-0.21054">
        <ele>57.799999237061</ele>
        <time>2022-01-19T07:17:49.000Z</time>
      </trkpt>
      <trkpt lat="44.8079" lon="-0.21037">
        <ele>58.799999237061</ele>
        <time>2022-01-19T07:17:51.000Z</time>
      </trkpt>
      <trkpt lat="44.80792" lon="-0.2103">
        <ele>59.400001525879</ele>
        <time>2022-01-19T07:17:52.000Z</time>
      </trkpt>
      <trkpt lat="44.80794" lon="-0.21022">
        <ele>60.200000762939</ele>
        <time>2022-01-19T07:17:53.000Z</time>
      </trkpt>
      <trkpt lat="44.80799" lon="-0.21007">
        <ele>60.799999237061</ele>
        <time>2022-01-19T07:17:55.000Z</time>
      </trkpt>
      <trkpt lat="44.80805" lon="-0.20993">
        <ele>61.599998474121</ele>
        <time>2022-01-19T07:17:57.000Z</time>
      </trkpt>
      <trkpt lat="44.80808" lon="-0.20987">
        <ele>61.799999237061</ele>
        <time>2022-01-19T07:17:58.000Z</time>
      </trkpt>
      <trkpt lat="44.80812" lon="-0.2098">
        <ele>62</ele>
        <time>2022-01-19T07:17:59.000Z</time>
      </trkpt>
      <trkpt lat="44.80818" lon="-0.20968">
        <ele>62</ele>
        <time>2022-01-19T07:18:01.000Z</time>
      </trkpt>
      <trkpt lat="44.80825" lon="-0.20956">
        <ele>62</ele>
        <time>2022-01-19T07:18:03.000Z</time>
      </trkpt>
      <trkpt lat="44.80832" lon="-0.20944">
        <ele>62</ele>
        <time>2022-01-19T07:18:05.000Z</time>
      </trkpt>
      <trkpt lat="44.80839" lon="-0.20932">
        <ele>61.799999237061</ele>
        <time>2022-01-19T07:18:07.000Z</time>
      </trkpt>
      <trkpt lat="44.80847" lon="-0.20921">
        <ele>61.400001525879</ele>
        <time>2022-01-19T07:18:09.000Z</time>
      </trkpt>
      <trkpt lat="44.80856" lon="-0.20909">
        <ele>61</ele>
        <time>2022-01-19T07:18:11.000Z</time>
      </trkpt>
      <trkpt lat="44.80867" lon="-0.20896">
        <ele>60.599998474121</ele>
        <time>2022-01-19T07:18:13.000Z</time>
      </trkpt>
      <trkpt lat="44.80878" lon="-0.20883">
        <ele>59.799999237061</ele>
        <time>2022-01-19T07:18:15.000Z</time>
      </trkpt>
      <trkpt lat="44.80885" lon="-0.20876">
        <ele>59.200000762939</ele>
        <time>2022-01-19T07:18:16.000Z</time>
      </trkpt>
      <trkpt lat="44.80891" lon="-0.20869">
        <ele>58.400001525879</ele>
        <time>2022-01-19T07:18:17.000Z</time>
      </trkpt>
      <trkpt lat="44.80903" lon="-0.20852">
        <ele>56.799999237061</ele>
        <time>2022-01-19T07:18:19.000Z</time>
      </trkpt>
      <trkpt lat="44.80915" lon="-0.20833">
        <ele>56.400001525879</ele>
        <time>2022-01-19T07:18:21.000Z</time>
      </trkpt>
      <trkpt lat="44.80919" lon="-0.20823">
        <ele>56.200000762939</ele>
        <time>2022-01-19T07:18:22.000Z</time>
      </trkpt>
      <trkpt lat="44.80923" lon="-0.20813">
        <ele>56</ele>
        <time>2022-01-19T07:18:23.000Z</time>
      </trkpt>
      <trkpt lat="44.80931" lon="-0.20792">
        <ele>56</ele>
        <time>2022-01-19T07:18:25.000Z</time>
      </trkpt>
      <trkpt lat="44.80939" lon="-0.20772">
        <ele>56</ele>
        <time>2022-01-19T07:18:27.000Z</time>
      </trkpt>
      <trkpt lat="44.80943" lon="-0.20763">
        <ele>56.200000762939</ele>
        <time>2022-01-19T07:18:28.000Z</time>
      </trkpt>
      <trkpt lat="44.80948" lon="-0.20754">
        <ele>56.599998474121</ele>
        <time>2022-01-19T07:18:29.000Z</time>
      </trkpt>
      <trkpt lat="44.80953" lon="-0.20745">
        <ele>56.799999237061</ele>
        <time>2022-01-19T07:18:30.000Z</time>
      </trkpt>
      <trkpt lat="44.80959" lon="-0.20737">
        <ele>57.200000762939</ele>
        <time>2022-01-19T07:18:31.000Z</time>
      </trkpt>
      <trkpt lat="44.80971" lon="-0.20721">
        <ele>57.599998474121</ele>
        <time>2022-01-19T07:18:33.000Z</time>
      </trkpt>
      <trkpt lat="44.80982" lon="-0.20705">
        <ele>58</ele>
        <time>2022-01-19T07:18:35.000Z</time>
      </trkpt>
      <trkpt lat="44.80992" lon="-0.20689">
        <ele>58</ele>
        <time>2022-01-19T07:18:37.000Z</time>
      </trkpt>
      <trkpt lat="44.81002" lon="-0.20674">
        <ele>58</ele>
        <time>2022-01-19T07:18:39.000Z</time>
      </trkpt>
      <trkpt lat="44.81013" lon="-0.20661">
        <ele>57.799999237061</ele>
        <time>2022-01-19T07:18:41.000Z</time>
      </trkpt>
      <trkpt lat="44.81025" lon="-0.20649">
        <ele>57.400001525879</ele>
        <time>2022-01-19T07:18:43.000Z</time>
      </trkpt>
      <trkpt lat="44.81038" lon="-0.20638">
        <ele>57</ele>
        <time>2022-01-19T07:18:45.000Z</time>
      </trkpt>
      <trkpt lat="44.81051" lon="-0.20629">
        <ele>56.400001525879</ele>
        <time>2022-01-19T07:18:47.000Z</time>
      </trkpt>
      <trkpt lat="44.81064" lon="-0.2062">
        <ele>56</ele>
        <time>2022-01-19T07:18:49.000Z</time>
      </trkpt>
      <trkpt lat="44.81077" lon="-0.20611">
        <ele>56</ele>
        <time>2022-01-19T07:18:51.000Z</time>
      </trkpt>
      <trkpt lat="44.81091" lon="-0.20604">
        <ele>56</ele>
        <time>2022-01-19T07:18:53.000Z</time>
      </trkpt>
      <trkpt lat="44.81105" lon="-0.20597">
        <ele>56.400001525879</ele>
        <time>2022-01-19T07:18:55.000Z</time>
      </trkpt>
      <trkpt lat="44.81112" lon="-0.20593">
        <ele>56.799999237061</ele>
        <time>2022-01-19T07:18:56.000Z</time>
      </trkpt>
      <trkpt lat="44.81118" lon="-0.20587">
        <ele>57.200000762939</ele>
        <time>2022-01-19T07:18:57.000Z</time>
      </trkpt>
      <trkpt lat="44.81124" lon="-0.20581">
        <ele>57.400001525879</ele>
        <time>2022-01-19T07:18:58.000Z</time>
      </trkpt>
      <trkpt lat="44.8113" lon="-0.20573">
        <ele>57.799999237061</ele>
        <time>2022-01-19T07:18:59.000Z</time>
      </trkpt>
      <trkpt lat="44.81135" lon="-0.20565">
        <ele>57.799999237061</ele>
        <time>2022-01-19T07:19:00.000Z</time>
      </trkpt>
      <trkpt lat="44.81139" lon="-0.20556">
        <ele>58</ele>
        <time>2022-01-19T07:19:01.000Z</time>
      </trkpt>
      <trkpt lat="44.81144" lon="-0.20547">
        <ele>58.200000762939</ele>
        <time>2022-01-19T07:19:02.000Z</time>
      </trkpt>
      <trkpt lat="44.81149" lon="-0.20539">
        <ele>58.200000762939</ele>
        <time>2022-01-19T07:19:03.000Z</time>
      </trkpt>
      <trkpt lat="44.8116" lon="-0.20525">
        <ele>58.400001525879</ele>
        <time>2022-01-19T07:19:05.000Z</time>
      </trkpt>
      <trkpt lat="44.81172" lon="-0.20513">
        <ele>58.400001525879</ele>
        <time>2022-01-19T07:19:07.000Z</time>
      </trkpt>
      <trkpt lat="44.81184" lon="-0.20501">
        <ele>58</ele>
        <time>2022-01-19T07:19:09.000Z</time>
      </trkpt>
      <trkpt lat="44.81195" lon="-0.20489">
        <ele>57.599998474121</ele>
        <time>2022-01-19T07:19:11.000Z</time>
      </trkpt>
      <trkpt lat="44.81204" lon="-0.20475">
        <ele>57.599998474121</ele>
        <time>2022-01-19T07:19:13.000Z</time>
      </trkpt>
      <trkpt lat="44.81213" lon="-0.20461">
        <ele>58.200000762939</ele>
        <time>2022-01-19T07:19:15.000Z</time>
      </trkpt>
      <trkpt lat="44.81223" lon="-0.20447">
        <ele>58.599998474121</ele>
        <time>2022-01-19T07:19:17.000Z</time>
      </trkpt>
      <trkpt lat="44.81232" lon="-0.20433">
        <ele>59.200000762939</ele>
        <time>2022-01-19T07:19:19.000Z</time>
      </trkpt>
      <trkpt lat="44.81242" lon="-0.2042">
        <ele>59.400001525879</ele>
        <time>2022-01-19T07:19:21.000Z</time>
      </trkpt>
      <trkpt lat="44.81252" lon="-0.20406">
        <ele>59.599998474121</ele>
        <time>2022-01-19T07:19:23.000Z</time>
      </trkpt>
      <trkpt lat="44.81261" lon="-0.20393">
        <ele>59.599998474121</ele>
        <time>2022-01-19T07:19:25.000Z</time>
      </trkpt>
      <trkpt lat="44.8127" lon="-0.20379">
        <ele>60</ele>
        <time>2022-01-19T07:19:27.000Z</time>
      </trkpt>
      <trkpt lat="44.81276" lon="-0.20364">
        <ele>60</ele>
        <time>2022-01-19T07:19:29.000Z</time>
      </trkpt>
      <trkpt lat="44.8128" lon="-0.20347">
        <ele>60.200000762939</ele>
        <time>2022-01-19T07:19:31.000Z</time>
      </trkpt>
      <trkpt lat="44.81282" lon="-0.20329">
        <ele>60.200000762939</ele>
        <time>2022-01-19T07:19:33.000Z</time>
      </trkpt>
      <trkpt lat="44.81281" lon="-0.2031">
        <ele>60.200000762939</ele>
        <time>2022-01-19T07:19:35.000Z</time>
      </trkpt>
      <trkpt lat="44.81279" lon="-0.20291">
        <ele>60.200000762939</ele>
        <time>2022-01-19T07:19:37.000Z</time>
      </trkpt>
      <trkpt lat="44.81276" lon="-0.20272">
        <ele>60.400001525879</ele>
        <time>2022-01-19T07:19:39.000Z</time>
      </trkpt>
      <trkpt lat="44.81274" lon="-0.20252">
        <ele>60.400001525879</ele>
        <time>2022-01-19T07:19:41.000Z</time>
      </trkpt>
      <trkpt lat="44.81275" lon="-0.20231">
        <ele>60.400001525879</ele>
        <time>2022-01-19T07:19:43.000Z</time>
      </trkpt>
      <trkpt lat="44.81276" lon="-0.20221">
        <ele>60.400001525879</ele>
        <time>2022-01-19T07:19:44.000Z</time>
      </trkpt>
      <trkpt lat="44.81277" lon="-0.20211">
        <ele>60.200000762939</ele>
        <time>2022-01-19T07:19:45.000Z</time>
      </trkpt>
      <trkpt lat="44.81282" lon="-0.20191">
        <ele>59.400001525879</ele>
        <time>2022-01-19T07:19:47.000Z</time>
      </trkpt>
      <trkpt lat="44.81288" lon="-0.20171">
        <ele>59</ele>
        <time>2022-01-19T07:19:49.000Z</time>
      </trkpt>
      <trkpt lat="44.81295" lon="-0.20152">
        <ele>58.599998474121</ele>
        <time>2022-01-19T07:19:51.000Z</time>
      </trkpt>
      <trkpt lat="44.81302" lon="-0.20132">
        <ele>58.400001525879</ele>
        <time>2022-01-19T07:19:53.000Z</time>
      </trkpt>
      <trkpt lat="44.81309" lon="-0.20113">
        <ele>58.200000762939</ele>
        <time>2022-01-19T07:19:55.000Z</time>
      </trkpt>
      <trkpt lat="44.81313" lon="-0.20104">
        <ele>58</ele>
        <time>2022-01-19T07:19:56.000Z</time>
      </trkpt>
      <trkpt lat="44.81317" lon="-0.20094">
        <ele>57.799999237061</ele>
        <time>2022-01-19T07:19:57.000Z</time>
      </trkpt>
      <trkpt lat="44.81325" lon="-0.20075">
        <ele>57.599998474121</ele>
        <time>2022-01-19T07:19:59.000Z</time>
      </trkpt>
      <trkpt lat="44.81334" lon="-0.20056">
        <ele>57.200000762939</ele>
        <time>2022-01-19T07:20:01.000Z</time>
      </trkpt>
      <trkpt lat="44.81342" lon="-0.20036">
        <ele>57</ele>
        <time>2022-01-19T07:20:03.000Z</time>
      </trkpt>
      <trkpt lat="44.81346" lon="-0.20027">
        <ele>57</ele>
        <time>2022-01-19T07:20:04.000Z</time>
      </trkpt>
      <trkpt lat="44.8135" lon="-0.20017">
        <ele>57</ele>
        <time>2022-01-19T07:20:05.000Z</time>
      </trkpt>
      <trkpt lat="44.81359" lon="-0.19999">
        <ele>57</ele>
        <time>2022-01-19T07:20:07.000Z</time>
      </trkpt>
      <trkpt lat="44.81367" lon="-0.1998">
        <ele>57</ele>
        <time>2022-01-19T07:20:09.000Z</time>
      </trkpt>
      <trkpt lat="44.81376" lon="-0.19961">
        <ele>57.200000762939</ele>
        <time>2022-01-19T07:20:11.000Z</time>
      </trkpt>
      <trkpt lat="44.81387" lon="-0.19945">
        <ele>58.200000762939</ele>
        <time>2022-01-19T07:20:13.000Z</time>
      </trkpt>
      <trkpt lat="44.81399" lon="-0.19929">
        <ele>59</ele>
        <time>2022-01-19T07:20:15.000Z</time>
      </trkpt>
      <trkpt lat="44.81412" lon="-0.19915">
        <ele>58.400001525879</ele>
        <time>2022-01-19T07:20:17.000Z</time>
      </trkpt>
      <trkpt lat="44.81419" lon="-0.19908">
        <ele>58.200000762939</ele>
        <time>2022-01-19T07:20:18.000Z</time>
      </trkpt>
      <trkpt lat="44.81426" lon="-0.19901">
        <ele>57.599998474121</ele>
        <time>2022-01-19T07:20:19.000Z</time>
      </trkpt>
      <trkpt lat="44.81442" lon="-0.19886">
        <ele>56.599998474121</ele>
        <time>2022-01-19T07:20:21.000Z</time>
      </trkpt>
      <trkpt lat="44.81457" lon="-0.19871">
        <ele>55.599998474121</ele>
        <time>2022-01-19T07:20:23.000Z</time>
      </trkpt>
      <trkpt lat="44.81474" lon="-0.19856">
        <ele>55.200000762939</ele>
        <time>2022-01-19T07:20:25.000Z</time>
      </trkpt>
      <trkpt lat="44.8149" lon="-0.19842">
        <ele>55</ele>
        <time>2022-01-19T07:20:27.000Z</time>
      </trkpt>
      <trkpt lat="44.81506" lon="-0.19828">
        <ele>55</ele>
        <time>2022-01-19T07:20:29.000Z</time>
      </trkpt>
      <trkpt lat="44.81523" lon="-0.19816">
        <ele>53.799999237061</ele>
        <time>2022-01-19T07:20:31.000Z</time>
      </trkpt>
      <trkpt lat="44.81533" lon="-0.19811">
        <ele>53.200000762939</ele>
        <time>2022-01-19T07:20:32.000Z</time>
      </trkpt>
      <trkpt lat="44.81542" lon="-0.19805">
        <ele>52.400001525879</ele>
        <time>2022-01-19T07:20:33.000Z</time>
      </trkpt>
      <trkpt lat="44.81562" lon="-0.19795">
        <ele>51</ele>
        <time>2022-01-19T07:20:35.000Z</time>
      </trkpt>
      <trkpt lat="44.81582" lon="-0.19783">
        <ele>49.400001525879</ele>
        <time>2022-01-19T07:20:37.000Z</time>
      </trkpt>
      <trkpt lat="44.81593" lon="-0.19777">
        <ele>48.599998474121</ele>
        <time>2022-01-19T07:20:38.000Z</time>
      </trkpt>
      <trkpt lat="44.81603" lon="-0.19773">
        <ele>48.200000762939</ele>
        <time>2022-01-19T07:20:39.000Z</time>
      </trkpt>
      <trkpt lat="44.81626" lon="-0.19767">
        <ele>48</ele>
        <time>2022-01-19T07:20:41.000Z</time>
      </trkpt>
      <trkpt lat="44.8165" lon="-0.19762">
        <ele>48</ele>
        <time>2022-01-19T07:20:43.000Z</time>
      </trkpt>
      <trkpt lat="44.81675" lon="-0.19758">
        <ele>47.799999237061</ele>
        <time>2022-01-19T07:20:45.000Z</time>
      </trkpt>
      <trkpt lat="44.81688" lon="-0.19755">
        <ele>47</ele>
        <time>2022-01-19T07:20:46.000Z</time>
      </trkpt>
      <trkpt lat="44.817" lon="-0.19752">
        <ele>46.200000762939</ele>
        <time>2022-01-19T07:20:47.000Z</time>
      </trkpt>
      <trkpt lat="44.81726" lon="-0.19747">
        <ele>42.200000762939</ele>
        <time>2022-01-19T07:20:49.000Z</time>
      </trkpt>
      <trkpt lat="44.81753" lon="-0.1974">
        <ele>37.799999237061</ele>
        <time>2022-01-19T07:20:51.000Z</time>
      </trkpt>
      <trkpt lat="44.81766" lon="-0.19736">
        <ele>36.200000762939</ele>
        <time>2022-01-19T07:20:52.000Z</time>
      </trkpt>
      <trkpt lat="44.81779" lon="-0.19733">
        <ele>35.200000762939</ele>
        <time>2022-01-19T07:20:53.000Z</time>
      </trkpt>
      <trkpt lat="44.81805" lon="-0.19727">
        <ele>33.799999237061</ele>
        <time>2022-01-19T07:20:55.000Z</time>
      </trkpt>
      <trkpt lat="44.8183" lon="-0.1972">
        <ele>33.200000762939</ele>
        <time>2022-01-19T07:20:57.000Z</time>
      </trkpt>
      <trkpt lat="44.81842" lon="-0.19716">
        <ele>33</ele>
        <time>2022-01-19T07:20:58.000Z</time>
      </trkpt>
      <trkpt lat="44.81853" lon="-0.19712">
        <ele>33</ele>
        <time>2022-01-19T07:20:59.000Z</time>
      </trkpt>
      <trkpt lat="44.81875" lon="-0.19704">
        <ele>33.200000762939</ele>
        <time>2022-01-19T07:21:01.000Z</time>
      </trkpt>
      <trkpt lat="44.81885" lon="-0.19701">
        <ele>33.599998474121</ele>
        <time>2022-01-19T07:21:02.000Z</time>
      </trkpt>
      <trkpt lat="44.81895" lon="-0.19699">
        <ele>33.799999237061</ele>
        <time>2022-01-19T07:21:03.000Z</time>
      </trkpt>
      <trkpt lat="44.81913" lon="-0.19694">
        <ele>34</ele>
        <time>2022-01-19T07:21:05.000Z</time>
      </trkpt>
      <trkpt lat="44.81932" lon="-0.19691">
        <ele>34.400001525879</ele>
        <time>2022-01-19T07:21:07.000Z</time>
      </trkpt>
      <trkpt lat="44.8195" lon="-0.19688">
        <ele>35</ele>
        <time>2022-01-19T07:21:09.000Z</time>
      </trkpt>
      <trkpt lat="44.81968" lon="-0.19685">
        <ele>35</ele>
        <time>2022-01-19T07:21:11.000Z</time>
      </trkpt>
      <trkpt lat="44.81977" lon="-0.19683">
        <ele>35</ele>
        <time>2022-01-19T07:21:12.000Z</time>
      </trkpt>
      <trkpt lat="44.81986" lon="-0.19681">
        <ele>34.599998474121</ele>
        <time>2022-01-19T07:21:13.000Z</time>
      </trkpt>
      <trkpt lat="44.82004" lon="-0.19677">
        <ele>33.400001525879</ele>
        <time>2022-01-19T07:21:15.000Z</time>
      </trkpt>
      <trkpt lat="44.82023" lon="-0.19673">
        <ele>32.400001525879</ele>
        <time>2022-01-19T07:21:17.000Z</time>
      </trkpt>
      <trkpt lat="44.82042" lon="-0.19669">
        <ele>31.39999961853</ele>
        <time>2022-01-19T07:21:19.000Z</time>
      </trkpt>
      <trkpt lat="44.82052" lon="-0.19667">
        <ele>31.200000762939</ele>
        <time>2022-01-19T07:21:20.000Z</time>
      </trkpt>
      <trkpt lat="44.82062" lon="-0.19665">
        <ele>30.799999237061</ele>
        <time>2022-01-19T07:21:21.000Z</time>
      </trkpt>
      <trkpt lat="44.82082" lon="-0.19661">
        <ele>30.200000762939</ele>
        <time>2022-01-19T07:21:23.000Z</time>
      </trkpt>
      <trkpt lat="44.82103" lon="-0.19655">
        <ele>29.799999237061</ele>
        <time>2022-01-19T07:21:25.000Z</time>
      </trkpt>
      <trkpt lat="44.82123" lon="-0.19649">
        <ele>29</ele>
        <time>2022-01-19T07:21:27.000Z</time>
      </trkpt>
      <trkpt lat="44.82143" lon="-0.19641">
        <ele>27.200000762939</ele>
        <time>2022-01-19T07:21:29.000Z</time>
      </trkpt>
      <trkpt lat="44.82163" lon="-0.19629">
        <ele>25.39999961853</ele>
        <time>2022-01-19T07:21:31.000Z</time>
      </trkpt>
      <trkpt lat="44.82184" lon="-0.19615">
        <ele>23.39999961853</ele>
        <time>2022-01-19T07:21:33.000Z</time>
      </trkpt>
      <trkpt lat="44.82204" lon="-0.19599">
        <ele>21.799999237061</ele>
        <time>2022-01-19T07:21:35.000Z</time>
      </trkpt>
      <trkpt lat="44.82224" lon="-0.19583">
        <ele>19.799999237061</ele>
        <time>2022-01-19T07:21:37.000Z</time>
      </trkpt>
      <trkpt lat="44.82244" lon="-0.19566">
        <ele>18.200000762939</ele>
        <time>2022-01-19T07:21:39.000Z</time>
      </trkpt>
      <trkpt lat="44.82263" lon="-0.19549">
        <ele>17</ele>
        <time>2022-01-19T07:21:41.000Z</time>
      </trkpt>
      <trkpt lat="44.82282" lon="-0.19531">
        <ele>16.39999961853</ele>
        <time>2022-01-19T07:21:43.000Z</time>
      </trkpt>
      <trkpt lat="44.823" lon="-0.19512">
        <ele>16</ele>
        <time>2022-01-19T07:21:45.000Z</time>
      </trkpt>
      <trkpt lat="44.82319" lon="-0.19496">
        <ele>15.800000190735</ele>
        <time>2022-01-19T07:21:47.000Z</time>
      </trkpt>
      <trkpt lat="44.82338" lon="-0.19481">
        <ele>15.60000038147</ele>
        <time>2022-01-19T07:21:49.000Z</time>
      </trkpt>
      <trkpt lat="44.82347" lon="-0.19475">
        <ele>15.199999809265</ele>
        <time>2022-01-19T07:21:50.000Z</time>
      </trkpt>
      <trkpt lat="44.82357" lon="-0.19469">
        <ele>14.800000190735</ele>
        <time>2022-01-19T07:21:51.000Z</time>
      </trkpt>
      <trkpt lat="44.82375" lon="-0.19456">
        <ele>14</ele>
        <time>2022-01-19T07:21:53.000Z</time>
      </trkpt>
      <trkpt lat="44.82392" lon="-0.19442">
        <ele>13.199999809265</ele>
        <time>2022-01-19T07:21:55.000Z</time>
      </trkpt>
      <trkpt lat="44.82409" lon="-0.19428">
        <ele>12.60000038147</ele>
        <time>2022-01-19T07:21:57.000Z</time>
      </trkpt>
      <trkpt lat="44.82425" lon="-0.19415">
        <ele>12</ele>
        <time>2022-01-19T07:21:59.000Z</time>
      </trkpt>
      <trkpt lat="44.82441" lon="-0.19401">
        <ele>12.39999961853</ele>
        <time>2022-01-19T07:22:01.000Z</time>
      </trkpt>
      <trkpt lat="44.82457" lon="-0.19387">
        <ele>12.39999961853</ele>
        <time>2022-01-19T07:22:03.000Z</time>
      </trkpt>
      <trkpt lat="44.82464" lon="-0.1938">
        <ele>12.39999961853</ele>
        <time>2022-01-19T07:22:04.000Z</time>
      </trkpt>
      <trkpt lat="44.82472" lon="-0.19373">
        <ele>12.39999961853</ele>
        <time>2022-01-19T07:22:05.000Z</time>
      </trkpt>
      <trkpt lat="44.82487" lon="-0.1936">
        <ele>12.39999961853</ele>
        <time>2022-01-19T07:22:07.000Z</time>
      </trkpt>
      <trkpt lat="44.82502" lon="-0.19346">
        <ele>13</ele>
        <time>2022-01-19T07:22:09.000Z</time>
      </trkpt>
      <trkpt lat="44.82509" lon="-0.19338">
        <ele>13.60000038147</ele>
        <time>2022-01-19T07:22:10.000Z</time>
      </trkpt>
      <trkpt lat="44.82516" lon="-0.1933">
        <ele>14</ele>
        <time>2022-01-19T07:22:11.000Z</time>
      </trkpt>
      <trkpt lat="44.82528" lon="-0.19313">
        <ele>14.60000038147</ele>
        <time>2022-01-19T07:22:13.000Z</time>
      </trkpt>
      <trkpt lat="44.82541" lon="-0.19297">
        <ele>15</ele>
        <time>2022-01-19T07:22:15.000Z</time>
      </trkpt>
      <trkpt lat="44.82547" lon="-0.19289">
        <ele>14.39999961853</ele>
        <time>2022-01-19T07:22:16.000Z</time>
      </trkpt>
      <trkpt lat="44.82554" lon="-0.1928">
        <ele>13.800000190735</ele>
        <time>2022-01-19T07:22:17.000Z</time>
      </trkpt>
      <trkpt lat="44.82566" lon="-0.19264">
        <ele>12.60000038147</ele>
        <time>2022-01-19T07:22:19.000Z</time>
      </trkpt>
      <trkpt lat="44.82578" lon="-0.19247">
        <ele>11.800000190735</ele>
        <time>2022-01-19T07:22:21.000Z</time>
      </trkpt>
      <trkpt lat="44.8259" lon="-0.19231">
        <ele>12</ele>
        <time>2022-01-19T07:22:23.000Z</time>
      </trkpt>
      <trkpt lat="44.82601" lon="-0.19214">
        <ele>13</ele>
        <time>2022-01-19T07:22:25.000Z</time>
      </trkpt>
      <trkpt lat="44.82606" lon="-0.19204">
        <ele>13</ele>
        <time>2022-01-19T07:22:26.000Z</time>
      </trkpt>
      <trkpt lat="44.8261" lon="-0.19194">
        <ele>13.199999809265</ele>
        <time>2022-01-19T07:22:27.000Z</time>
      </trkpt>
      <trkpt lat="44.82616" lon="-0.19173">
        <ele>13</ele>
        <time>2022-01-19T07:22:29.000Z</time>
      </trkpt>
      <trkpt lat="44.82623" lon="-0.19152">
        <ele>12.60000038147</ele>
        <time>2022-01-19T07:22:31.000Z</time>
      </trkpt>
      <trkpt lat="44.82629" lon="-0.19131">
        <ele>11.60000038147</ele>
        <time>2022-01-19T07:22:33.000Z</time>
      </trkpt>
      <trkpt lat="44.82637" lon="-0.19112">
        <ele>10.800000190735</ele>
        <time>2022-01-19T07:22:35.000Z</time>
      </trkpt>
      <trkpt lat="44.82646" lon="-0.19094">
        <ele>10.39999961853</ele>
        <time>2022-01-19T07:22:37.000Z</time>
      </trkpt>
      <trkpt lat="44.82651" lon="-0.19086">
        <ele>10.39999961853</ele>
        <time>2022-01-19T07:22:38.000Z</time>
      </trkpt>
      <trkpt lat="44.82656" lon="-0.19078">
        <ele>10.199999809265</ele>
        <time>2022-01-19T07:22:39.000Z</time>
      </trkpt>
      <trkpt lat="44.82667" lon="-0.19062">
        <ele>9.6000003814697</ele>
        <time>2022-01-19T07:22:41.000Z</time>
      </trkpt>
      <trkpt lat="44.82676" lon="-0.19046">
        <ele>9</ele>
        <time>2022-01-19T07:22:43.000Z</time>
      </trkpt>
      <trkpt lat="44.82686" lon="-0.1903">
        <ele>9.1999998092651</ele>
        <time>2022-01-19T07:22:45.000Z</time>
      </trkpt>
      <trkpt lat="44.82691" lon="-0.19022">
        <ele>9.3999996185303</ele>
        <time>2022-01-19T07:22:46.000Z</time>
      </trkpt>
      <trkpt lat="44.82696" lon="-0.19015">
        <ele>9.6000003814697</ele>
        <time>2022-01-19T07:22:47.000Z</time>
      </trkpt>
      <trkpt lat="44.82707" lon="-0.19001">
        <ele>10.199999809265</ele>
        <time>2022-01-19T07:22:49.000Z</time>
      </trkpt>
      <trkpt lat="44.82719" lon="-0.18987">
        <ele>10.60000038147</ele>
        <time>2022-01-19T07:22:51.000Z</time>
      </trkpt>
      <trkpt lat="44.82724" lon="-0.1898">
        <ele>10.60000038147</ele>
        <time>2022-01-19T07:22:52.000Z</time>
      </trkpt>
      <trkpt lat="44.82729" lon="-0.18972">
        <ele>10.800000190735</ele>
        <time>2022-01-19T07:22:53.000Z</time>
      </trkpt>
      <trkpt lat="44.82733" lon="-0.18965">
        <ele>11</ele>
        <time>2022-01-19T07:22:54.000Z</time>
      </trkpt>
      <trkpt lat="44.82738" lon="-0.18957">
        <ele>11.199999809265</ele>
        <time>2022-01-19T07:22:55.000Z</time>
      </trkpt>
      <trkpt lat="44.82742" lon="-0.18949">
        <ele>11.60000038147</ele>
        <time>2022-01-19T07:22:56.000Z</time>
      </trkpt>
      <trkpt lat="44.82747" lon="-0.18941">
        <ele>11.800000190735</ele>
        <time>2022-01-19T07:22:57.000Z</time>
      </trkpt>
      <trkpt lat="44.82757" lon="-0.18926">
        <ele>12</ele>
        <time>2022-01-19T07:22:59.000Z</time>
      </trkpt>
      <trkpt lat="44.82768" lon="-0.18913">
        <ele>12</ele>
        <time>2022-01-19T07:23:01.000Z</time>
      </trkpt>
      <trkpt lat="44.82779" lon="-0.189">
        <ele>12</ele>
        <time>2022-01-19T07:23:03.000Z</time>
      </trkpt>
      <trkpt lat="44.8279" lon="-0.18887">
        <ele>12</ele>
        <time>2022-01-19T07:23:05.000Z</time>
      </trkpt>
      <trkpt lat="44.82801" lon="-0.18874">
        <ele>12.199999809265</ele>
        <time>2022-01-19T07:23:07.000Z</time>
      </trkpt>
      <trkpt lat="44.82814" lon="-0.18862">
        <ele>12.60000038147</ele>
        <time>2022-01-19T07:23:09.000Z</time>
      </trkpt>
      <trkpt lat="44.82828" lon="-0.18853">
        <ele>12.60000038147</ele>
        <time>2022-01-19T07:23:11.000Z</time>
      </trkpt>
      <trkpt lat="44.82842" lon="-0.18845">
        <ele>12.199999809265</ele>
        <time>2022-01-19T07:23:13.000Z</time>
      </trkpt>
      <trkpt lat="44.82856" lon="-0.18837">
        <ele>11.60000038147</ele>
        <time>2022-01-19T07:23:15.000Z</time>
      </trkpt>
      <trkpt lat="44.82863" lon="-0.18834">
        <ele>11.199999809265</ele>
        <time>2022-01-19T07:23:16.000Z</time>
      </trkpt>
      <trkpt lat="44.82869" lon="-0.1883">
        <ele>10.800000190735</ele>
        <time>2022-01-19T07:23:17.000Z</time>
      </trkpt>
      <trkpt lat="44.82882" lon="-0.18824">
        <ele>11</ele>
        <time>2022-01-19T07:23:19.000Z</time>
      </trkpt>
      <trkpt lat="44.82892" lon="-0.18819">
        <ele>11.199999809265</ele>
        <time>2022-01-19T07:23:21.000Z</time>
      </trkpt>
      <trkpt lat="44.82896" lon="-0.18816">
        <ele>11.39999961853</ele>
        <time>2022-01-19T07:23:22.000Z</time>
      </trkpt>
      <trkpt lat="44.829" lon="-0.18812">
        <ele>11.39999961853</ele>
        <time>2022-01-19T07:23:23.000Z</time>
      </trkpt>
      <trkpt lat="44.82904" lon="-0.18809">
        <ele>11.39999961853</ele>
        <time>2022-01-19T07:23:24.000Z</time>
      </trkpt>
      <trkpt lat="44.82906" lon="-0.18807">
        <ele>11.39999961853</ele>
        <time>2022-01-19T07:23:25.000Z</time>
      </trkpt>
      <trkpt lat="44.82909" lon="-0.18806">
        <ele>11.199999809265</ele>
        <time>2022-01-19T07:23:27.000Z</time>
      </trkpt>
      <trkpt lat="44.82911" lon="-0.18804">
        <ele>11.199999809265</ele>
        <time>2022-01-19T07:23:29.000Z</time>
      </trkpt>
      <trkpt lat="44.82916" lon="-0.18802">
        <ele>11.199999809265</ele>
        <time>2022-01-19T07:23:31.000Z</time>
      </trkpt>
      <trkpt lat="44.82923" lon="-0.18801">
        <ele>11</ele>
        <time>2022-01-19T07:23:33.000Z</time>
      </trkpt>
      <trkpt lat="44.82927" lon="-0.188">
        <ele>10.800000190735</ele>
        <time>2022-01-19T07:23:34.000Z</time>
      </trkpt>
      <trkpt lat="44.82932" lon="-0.18799">
        <ele>11</ele>
        <time>2022-01-19T07:23:35.000Z</time>
      </trkpt>
      <trkpt lat="44.82942" lon="-0.18795">
        <ele>11</ele>
        <time>2022-01-19T07:23:37.000Z</time>
      </trkpt>
      <trkpt lat="44.82952" lon="-0.1879">
        <ele>11.199999809265</ele>
        <time>2022-01-19T07:23:39.000Z</time>
      </trkpt>
      <trkpt lat="44.82958" lon="-0.18789">
        <ele>11.39999961853</ele>
        <time>2022-01-19T07:23:40.000Z</time>
      </trkpt>
      <trkpt lat="44.82963" lon="-0.18787">
        <ele>11.39999961853</ele>
        <time>2022-01-19T07:23:41.000Z</time>
      </trkpt>
      <trkpt lat="44.82974" lon="-0.18783">
        <ele>11.800000190735</ele>
        <time>2022-01-19T07:23:43.000Z</time>
      </trkpt>
      <trkpt lat="44.82985" lon="-0.18779">
        <ele>11.800000190735</ele>
        <time>2022-01-19T07:23:45.000Z</time>
      </trkpt>
      <trkpt lat="44.82989" lon="-0.18777">
        <ele>11.800000190735</ele>
        <time>2022-01-19T07:23:46.000Z</time>
      </trkpt>
      <trkpt lat="44.82992" lon="-0.18775">
        <ele>11.60000038147</ele>
        <time>2022-01-19T07:23:47.000Z</time>
      </trkpt>
      <trkpt lat="44.82995" lon="-0.1877">
        <ele>11.60000038147</ele>
        <time>2022-01-19T07:23:49.000Z</time>
      </trkpt>
      <trkpt lat="44.82994" lon="-0.18758">
        <ele>11.60000038147</ele>
        <time>2022-01-19T07:23:51.000Z</time>
      </trkpt>
      <trkpt lat="44.82992" lon="-0.18746">
        <ele>11.60000038147</ele>
        <time>2022-01-19T07:23:53.000Z</time>
      </trkpt>
      <trkpt lat="44.8299" lon="-0.18733">
        <ele>11.60000038147</ele>
        <time>2022-01-19T07:23:55.000Z</time>
      </trkpt>
      <trkpt lat="44.82989" lon="-0.18726">
        <ele>11.800000190735</ele>
        <time>2022-01-19T07:23:56.000Z</time>
      </trkpt>
      <trkpt lat="44.82987" lon="-0.1872">
        <ele>11.800000190735</ele>
        <time>2022-01-19T07:23:57.000Z</time>
      </trkpt>
      <trkpt lat="44.82985" lon="-0.18707">
        <ele>11.800000190735</ele>
        <time>2022-01-19T07:23:59.000Z</time>
      </trkpt>
      <trkpt lat="44.82984" lon="-0.187">
        <ele>12</ele>
        <time>2022-01-19T07:24:00.000Z</time>
      </trkpt>
      <trkpt lat="44.82984" lon="-0.18695">
        <ele>12</ele>
        <time>2022-01-19T07:24:01.000Z</time>
      </trkpt>
      <trkpt lat="44.8299" lon="-0.18686">
        <ele>11.800000190735</ele>
        <time>2022-01-19T07:24:03.000Z</time>
      </trkpt>
      <trkpt lat="44.83" lon="-0.18681">
        <ele>11.60000038147</ele>
        <time>2022-01-19T07:24:05.000Z</time>
      </trkpt>
      <trkpt lat="44.8301" lon="-0.18679">
        <ele>11.39999961853</ele>
        <time>2022-01-19T07:24:07.000Z</time>
      </trkpt>
      <trkpt lat="44.83021" lon="-0.18678">
        <ele>12</ele>
        <time>2022-01-19T07:24:09.000Z</time>
      </trkpt>
      <trkpt lat="44.83032" lon="-0.18676">
        <ele>12.39999961853</ele>
        <time>2022-01-19T07:24:11.000Z</time>
      </trkpt>
      <trkpt lat="44.83042" lon="-0.18675">
        <ele>13</ele>
        <time>2022-01-19T07:24:13.000Z</time>
      </trkpt>
      <trkpt lat="44.83048" lon="-0.18673">
        <ele>13.39999961853</ele>
        <time>2022-01-19T07:24:15.000Z</time>
      </trkpt>
      <trkpt lat="44.83048" lon="-0.1867">
        <ele>13.60000038147</ele>
        <time>2022-01-19T07:24:16.000Z</time>
      </trkpt>
      <trkpt lat="44.83048" lon="-0.18665">
        <ele>14</ele>
        <time>2022-01-19T07:24:17.000Z</time>
      </trkpt>
      <trkpt lat="44.83047" lon="-0.18654">
        <ele>14.39999961853</ele>
        <time>2022-01-19T07:24:19.000Z</time>
      </trkpt>
      <trkpt lat="44.83045" lon="-0.18648">
        <ele>14.39999961853</ele>
        <time>2022-01-19T07:24:20.000Z</time>
      </trkpt>
      <trkpt lat="44.83044" lon="-0.18643">
        <ele>14.60000038147</ele>
        <time>2022-01-19T07:24:21.000Z</time>
      </trkpt>
      <trkpt lat="44.8304" lon="-0.18631">
        <ele>15</ele>
        <time>2022-01-19T07:24:23.000Z</time>
      </trkpt>
      <trkpt lat="44.83035" lon="-0.1862">
        <ele>15.199999809265</ele>
        <time>2022-01-19T07:24:25.000Z</time>
      </trkpt>
      <trkpt lat="44.83032" lon="-0.18615">
        <ele>15.39999961853</ele>
        <time>2022-01-19T07:24:26.000Z</time>
      </trkpt>
      <trkpt lat="44.83031" lon="-0.1861">
        <ele>15.60000038147</ele>
        <time>2022-01-19T07:24:27.000Z</time>
      </trkpt>
      <trkpt lat="44.83032" lon="-0.18602">
        <ele>16</ele>
        <time>2022-01-19T07:24:29.000Z</time>
      </trkpt>
      <trkpt lat="44.83035" lon="-0.18597">
        <ele>16</ele>
        <time>2022-01-19T07:24:31.000Z</time>
      </trkpt>
      <trkpt lat="44.83036" lon="-0.18595">
        <ele>16</ele>
        <time>2022-01-19T07:24:35.000Z</time>
      </trkpt>
      <trkpt lat="44.83038" lon="-0.18595">
        <ele>16</ele>
        <time>2022-01-19T07:24:37.000Z</time>
      </trkpt>
      <trkpt lat="44.83046" lon="-0.18595">
        <ele>15.39999961853</ele>
        <time>2022-01-19T07:24:39.000Z</time>
      </trkpt>
      <trkpt lat="44.83056" lon="-0.18597">
        <ele>15.199999809265</ele>
        <time>2022-01-19T07:24:41.000Z</time>
      </trkpt>
      <trkpt lat="44.83061" lon="-0.18598">
        <ele>15</ele>
        <time>2022-01-19T07:24:42.000Z</time>
      </trkpt>
      <trkpt lat="44.83066" lon="-0.186">
        <ele>14.800000190735</ele>
        <time>2022-01-19T07:24:43.000Z</time>
      </trkpt>
      <trkpt lat="44.83072" lon="-0.18601">
        <ele>14.39999961853</ele>
        <time>2022-01-19T07:24:44.000Z</time>
      </trkpt>
      <trkpt lat="44.83078" lon="-0.18603">
        <ele>14</ele>
        <time>2022-01-19T07:24:45.000Z</time>
      </trkpt>
      <trkpt lat="44.83084" lon="-0.18604">
        <ele>13.60000038147</ele>
        <time>2022-01-19T07:24:46.000Z</time>
      </trkpt>
      <trkpt lat="44.8309" lon="-0.18604">
        <ele>13.199999809265</ele>
        <time>2022-01-19T07:24:47.000Z</time>
      </trkpt>
      <trkpt lat="44.83097" lon="-0.18606">
        <ele>12.800000190735</ele>
        <time>2022-01-19T07:24:48.000Z</time>
      </trkpt>
      <trkpt lat="44.83104" lon="-0.18607">
        <ele>12.199999809265</ele>
        <time>2022-01-19T07:24:49.000Z</time>
      </trkpt>
      <trkpt lat="44.83118" lon="-0.18607">
        <ele>11.199999809265</ele>
        <time>2022-01-19T07:24:51.000Z</time>
      </trkpt>
      <trkpt lat="44.83125" lon="-0.18607">
        <ele>11</ele>
        <time>2022-01-19T07:24:52.000Z</time>
      </trkpt>
      <trkpt lat="44.83132" lon="-0.18607">
        <ele>10.800000190735</ele>
        <time>2022-01-19T07:24:53.000Z</time>
      </trkpt>
      <trkpt lat="44.8314" lon="-0.18608">
        <ele>10.39999961853</ele>
        <time>2022-01-19T07:24:54.000Z</time>
      </trkpt>
      <trkpt lat="44.83148" lon="-0.1861">
        <ele>10.199999809265</ele>
        <time>2022-01-19T07:24:55.000Z</time>
      </trkpt>
      <trkpt lat="44.83164" lon="-0.18614">
        <ele>10.39999961853</ele>
        <time>2022-01-19T07:24:57.000Z</time>
      </trkpt>
      <trkpt lat="44.83172" lon="-0.18615">
        <ele>10.199999809265</ele>
        <time>2022-01-19T07:24:58.000Z</time>
      </trkpt>
      <trkpt lat="44.83179" lon="-0.18615">
        <ele>9.8000001907349</ele>
        <time>2022-01-19T07:24:59.000Z</time>
      </trkpt>
      <trkpt lat="44.83185" lon="-0.18614">
        <ele>9.3999996185303</ele>
        <time>2022-01-19T07:25:00.000Z</time>
      </trkpt>
      <trkpt lat="44.83192" lon="-0.18614">
        <ele>8.8000001907349</ele>
        <time>2022-01-19T07:25:01.000Z</time>
      </trkpt>
      <trkpt lat="44.83205" lon="-0.18613">
        <ele>8</ele>
        <time>2022-01-19T07:25:03.000Z</time>
      </trkpt>
      <trkpt lat="44.8322" lon="-0.18613">
        <ele>3.7999999523163</ele>
        <time>2022-01-19T07:25:05.000Z</time>
      </trkpt>
      <trkpt lat="44.83226" lon="-0.18613">
        <ele>1.6000000238419</ele>
        <time>2022-01-19T07:25:06.000Z</time>
      </trkpt>
      <trkpt lat="44.83233" lon="-0.18612">
        <ele>1</ele>
        <time>2022-01-19T07:25:07.000Z</time>
      </trkpt>
      <trkpt lat="44.83247" lon="-0.18612">
        <ele>1</ele>
        <time>2022-01-19T07:25:09.000Z</time>
      </trkpt>
      <trkpt lat="44.83261" lon="-0.18611">
        <ele>1</ele>
        <time>2022-01-19T07:25:11.000Z</time>
      </trkpt>
      <trkpt lat="44.83276" lon="-0.18611">
        <ele>1</ele>
        <time>2022-01-19T07:25:13.000Z</time>
      </trkpt>
      <trkpt lat="44.83291" lon="-0.18611">
        <ele>0.60000002384186</ele>
        <time>2022-01-19T07:25:15.000Z</time>
      </trkpt>
      <trkpt lat="44.83306" lon="-0.18611">
        <ele>3.4000000953674</ele>
        <time>2022-01-19T07:25:17.000Z</time>
      </trkpt>
      <trkpt lat="44.8332" lon="-0.18611">
        <ele>5.8000001907349</ele>
        <time>2022-01-19T07:25:19.000Z</time>
      </trkpt>
      <trkpt lat="44.83335" lon="-0.18609">
        <ele>6.1999998092651</ele>
        <time>2022-01-19T07:25:21.000Z</time>
      </trkpt>
      <trkpt lat="44.83342" lon="-0.18606">
        <ele>6</ele>
        <time>2022-01-19T07:25:22.000Z</time>
      </trkpt>
      <trkpt lat="44.8335" lon="-0.18601">
        <ele>6</ele>
        <time>2022-01-19T07:25:23.000Z</time>
      </trkpt>
      <trkpt lat="44.83366" lon="-0.18589">
        <ele>6</ele>
        <time>2022-01-19T07:25:25.000Z</time>
      </trkpt>
      <trkpt lat="44.83373" lon="-0.18582">
        <ele>6</ele>
        <time>2022-01-19T07:25:26.000Z</time>
      </trkpt>
      <trkpt lat="44.83381" lon="-0.18575">
        <ele>6</ele>
        <time>2022-01-19T07:25:27.000Z</time>
      </trkpt>
      <trkpt lat="44.83398" lon="-0.1856">
        <ele>5.4000000953674</ele>
        <time>2022-01-19T07:25:29.000Z</time>
      </trkpt>
      <trkpt lat="44.83414" lon="-0.18545">
        <ele>5</ele>
        <time>2022-01-19T07:25:31.000Z</time>
      </trkpt>
      <trkpt lat="44.83422" lon="-0.18537">
        <ele>5</ele>
        <time>2022-01-19T07:25:32.000Z</time>
      </trkpt>
      <trkpt lat="44.83431" lon="-0.18529">
        <ele>5</ele>
        <time>2022-01-19T07:25:33.000Z</time>
      </trkpt>
      <trkpt lat="44.83447" lon="-0.18513">
        <ele>5</ele>
        <time>2022-01-19T07:25:35.000Z</time>
      </trkpt>
      <trkpt lat="44.83463" lon="-0.18497">
        <ele>5.4000000953674</ele>
        <time>2022-01-19T07:25:37.000Z</time>
      </trkpt>
      <trkpt lat="44.83471" lon="-0.1849">
        <ele>5.5999999046326</ele>
        <time>2022-01-19T07:25:38.000Z</time>
      </trkpt>
      <trkpt lat="44.83479" lon="-0.18482">
        <ele>5.5999999046326</ele>
        <time>2022-01-19T07:25:39.000Z</time>
      </trkpt>
      <trkpt lat="44.83495" lon="-0.18469">
        <ele>5.1999998092651</ele>
        <time>2022-01-19T07:25:41.000Z</time>
      </trkpt>
      <trkpt lat="44.8351" lon="-0.18456">
        <ele>4.8000001907349</ele>
        <time>2022-01-19T07:25:43.000Z</time>
      </trkpt>
      <trkpt lat="44.83524" lon="-0.18444">
        <ele>3.7999999523163</ele>
        <time>2022-01-19T07:25:45.000Z</time>
      </trkpt>
      <trkpt lat="44.83506" lon="-0.18454">
        <ele>5.1</ele>
      </trkpt>
      <trkpt lat="44.83497" lon="-0.18457">
        <ele>5</ele>
      </trkpt>
      <trkpt lat="44.83487" lon="-0.18461">
        <ele>5</ele>
      </trkpt>
      <trkpt lat="44.8348" lon="-0.18465">
        <ele>5</ele>
      </trkpt>
      <trkpt lat="44.83447" lon="-0.18486">
        <ele>5</ele>
      </trkpt>
      <trkpt lat="44.83435" lon="-0.18493">
        <ele>5.3</ele>
      </trkpt>
      <trkpt lat="44.83416" lon="-0.185">
        <ele>6</ele>
      </trkpt>
      <trkpt lat="44.8337" lon="-0.18521">
        <ele>5.7</ele>
      </trkpt>
      <trkpt lat="44.83343" lon="-0.18534">
        <ele>5.9</ele>
      </trkpt>
      <trkpt lat="44.83326" lon="-0.18542">
        <ele>5</ele>
      </trkpt>
      <trkpt lat="44.83321" lon="-0.18547">
        <ele>4.6</ele>
      </trkpt>
      <trkpt lat="44.83317" lon="-0.18553">
        <ele>4.4</ele>
      </trkpt>
      <trkpt lat="44.83316" lon="-0.18562">
        <ele>4.3</ele>
      </trkpt>
      <trkpt lat="44.83315" lon="-0.18572">
        <ele>4.2</ele>
      </trkpt>
      <trkpt lat="44.83316" lon="-0.18612">
        <ele>5.2</ele>
      </trkpt>
      <trkpt lat="44.83316" lon="-0.18621">
        <ele>4.9</ele>
      </trkpt>
      <trkpt lat="44.83318" lon="-0.18636">
        <ele>4.5</ele>
      </trkpt>
      <trkpt lat="44.83323" lon="-0.18662">
        <ele>4.6</ele>
      </trkpt>
      <trkpt lat="44.83335" lon="-0.18715">
        <ele>5</ele>
      </trkpt>
      <trkpt lat="44.83353" lon="-0.18796">
        <ele>4.5</ele>
      </trkpt>
      <trkpt lat="44.83367" lon="-0.1886">
        <ele>5.2</ele>
      </trkpt>
      <trkpt lat="44.83378" lon="-0.18904">
        <ele>4.6</ele>
      </trkpt>
      <trkpt lat="44.8339" lon="-0.1894">
        <ele>5.2</ele>
      </trkpt>
      <trkpt lat="44.83396" lon="-0.18962">
        <ele>5.3</ele>
      </trkpt>
      <trkpt lat="44.83423" lon="-0.19042">
        <ele>4.7</ele>
      </trkpt>
      <trkpt lat="44.83467" lon="-0.19146">
        <ele>5</ele>
      </trkpt>
      <trkpt lat="44.83518" lon="-0.19244">
        <ele>4.4</ele>
      </trkpt>
      <trkpt lat="44.8354" lon="-0.19283">
        <ele>5</ele>
      </trkpt>
      <trkpt lat="44.83564" lon="-0.1932">
        <ele>4.2</ele>
      </trkpt>
      <trkpt lat="44.83587" lon="-0.19352">
        <ele>4.4</ele>
      </trkpt>
      <trkpt lat="44.83603" lon="-0.19373">
        <ele>4.8</ele>
      </trkpt>
      <trkpt lat="44.83616" lon="-0.19386">
        <ele>5</ele>
      </trkpt>
      <trkpt lat="44.83631" lon="-0.19398">
        <ele>4.6</ele>
      </trkpt>
      <trkpt lat="44.83649" lon="-0.19413">
        <ele>5</ele>
      </trkpt>
      <trkpt lat="44.83661" lon="-0.19425">
        <ele>4.8</ele>
      </trkpt>
      <trkpt lat="44.83681" lon="-0.19451">
        <ele>5.2</ele>
      </trkpt>
      <trkpt lat="44.83722" lon="-0.19513">
        <ele>5.5</ele>
      </trkpt>
      <trkpt lat="44.83749" lon="-0.19549">
        <ele>6</ele>
      </trkpt>
      <trkpt lat="44.83775" lon="-0.1958">
        <ele>5</ele>
      </trkpt>
      <trkpt lat="44.83841" lon="-0.19666">
        <ele>5</ele>
      </trkpt>
      <trkpt lat="44.83923" lon="-0.19769">
        <ele>5</ele>
      </trkpt>
      <trkpt lat="44.84058" lon="-0.19935">
        <ele>5</ele>
      </trkpt>
      <trkpt lat="44.84081" lon="-0.19962">
        <ele>4.8</ele>
      </trkpt>
      <trkpt lat="44.84101" lon="-0.19985">
        <ele>4.7</ele>
      </trkpt>
      <trkpt lat="44.84195" lon="-0.20079">
        <ele>5</ele>
      </trkpt>
      <trkpt lat="44.84239" lon="-0.20124">
        <ele>4.3</ele>
      </trkpt>
      <trkpt lat="44.8426" lon="-0.20143">
        <ele>4.6</ele>
      </trkpt>
      <trkpt lat="44.8431" lon="-0.20184">
        <ele>4.5</ele>
      </trkpt>
      <trkpt lat="44.84324" lon="-0.20193">
        <ele>4.7</ele>
      </trkpt>
      <trkpt lat="44.84339" lon="-0.20203">
        <ele>5</ele>
      </trkpt>
      <trkpt lat="44.8435" lon="-0.20211">
        <ele>5.4</ele>
      </trkpt>
      <trkpt lat="44.84368" lon="-0.20231">
        <ele>5.5</ele>
      </trkpt>
      <trkpt lat="44.84388" lon="-0.2025">
        <ele>5.9</ele>
      </trkpt>
      <trkpt lat="44.84421" lon="-0.20281">
        <ele>5.4</ele>
      </trkpt>
      <trkpt lat="44.84446" lon="-0.20302">
        <ele>5.8</ele>
      </trkpt>
      <trkpt lat="44.84494" lon="-0.20338">
        <ele>4.5</ele>
      </trkpt>
      <trkpt lat="44.84536" lon="-0.20371">
        <ele>4</ele>
      </trkpt>
      <trkpt lat="44.8459" lon="-0.20412">
        <ele>4.4</ele>
      </trkpt>
      <trkpt lat="44.8461" lon="-0.20426">
        <ele>4</ele>
      </trkpt>
      <trkpt lat="44.84656" lon="-0.20462">
        <ele>4</ele>
      </trkpt>
      <trkpt lat="44.84692" lon="-0.20497">
        <ele>4.7</ele>
      </trkpt>
      <trkpt lat="44.84732" lon="-0.20538">
        <ele>4</ele>
      </trkpt>
      <trkpt lat="44.84766" lon="-0.20576">
        <ele>3.8</ele>
      </trkpt>
      <trkpt lat="44.84796" lon="-0.20608">
        <ele>3.8</ele>
      </trkpt>
      <trkpt lat="44.84811" lon="-0.2062">
        <ele>4</ele>
      </trkpt>
      <trkpt lat="44.8482" lon="-0.20628">
        <ele>3.8</ele>
      </trkpt>
      <trkpt lat="44.84838" lon="-0.20652">
        <ele>3.3</ele>
      </trkpt>
      <trkpt lat="44.84855" lon="-0.20676">
        <ele>3.9</ele>
      </trkpt>
      <trkpt lat="44.84884" lon="-0.20716">
        <ele>4.4</ele>
      </trkpt>
      <trkpt lat="44.84905" lon="-0.20752">
        <ele>3.3</ele>
      </trkpt>
      <trkpt lat="44.84927" lon="-0.20788">
        <ele>3.7</ele>
      </trkpt>
      <trkpt lat="44.84946" lon="-0.20821">
        <ele>4.5</ele>
      </trkpt>
      <trkpt lat="44.84953" lon="-0.20833">
        <ele>4.3</ele>
      </trkpt>
      <trkpt lat="44.84974" lon="-0.20875">
        <ele>4.1</ele>
      </trkpt>
      <trkpt lat="44.84998" lon="-0.20922">
        <ele>4.2</ele>
      </trkpt>
      <trkpt lat="44.85024" lon="-0.20978">
        <ele>4.1</ele>
      </trkpt>
      <trkpt lat="44.85037" lon="-0.21008">
        <ele>3.3</ele>
      </trkpt>
      <trkpt lat="44.85052" lon="-0.21046">
        <ele>4.5</ele>
      </trkpt>
      <trkpt lat="44.85065" lon="-0.21081">
        <ele>3.2</ele>
      </trkpt>
      <trkpt lat="44.85074" lon="-0.21105">
        <ele>3.7</ele>
      </trkpt>
      <trkpt lat="44.85084" lon="-0.21144">
        <ele>4.6</ele>
      </trkpt>
      <trkpt lat="44.85101" lon="-0.21207">
        <ele>3.5</ele>
      </trkpt>
      <trkpt lat="44.85121" lon="-0.21284">
        <ele>3.5</ele>
      </trkpt>
      <trkpt lat="44.85151" lon="-0.21387">
        <ele>4.9</ele>
      </trkpt>
      <trkpt lat="44.85162" lon="-0.21422">
        <ele>4.8</ele>
      </trkpt>
      <trkpt lat="44.85177" lon="-0.21464">
        <ele>3</ele>
      </trkpt>
      <trkpt lat="44.85197" lon="-0.21517">
        <ele>4.5</ele>
      </trkpt>
      <trkpt lat="44.85216" lon="-0.21567">
        <ele>4.9</ele>
      </trkpt>
      <trkpt lat="44.85272" lon="-0.21666">
        <ele>4.4</ele>
      </trkpt>
      <trkpt lat="44.85308" lon="-0.21715">
        <ele>5</ele>
      </trkpt>
      <trkpt lat="44.85357" lon="-0.21769">
        <ele>4.8</ele>
      </trkpt>
      <trkpt lat="44.85362" lon="-0.21764">
        <ele>5</ele>
      </trkpt>
      <trkpt lat="44.8537" lon="-0.21744">
        <ele>5.3</ele>
      </trkpt>
      <trkpt lat="44.85375" lon="-0.21729">
        <ele>5.1</ele>
      </trkpt>
      <trkpt lat="44.85377" lon="-0.21715">
        <ele>5</ele>
      </trkpt>
      <trkpt lat="44.85378" lon="-0.21697">
        <ele>5</ele>
      </trkpt>
      <trkpt lat="44.85379" lon="-0.21678">
        <ele>5</ele>
      </trkpt>
      <trkpt lat="44.8538" lon="-0.2165">
        <ele>5</ele>
      </trkpt>
      <trkpt lat="44.85383" lon="-0.21623">
        <ele>5</ele>
      </trkpt>
      <trkpt lat="44.85387" lon="-0.21601">
        <ele>5</ele>
      </trkpt>
      <trkpt lat="44.85395" lon="-0.21577">
        <ele>4.8</ele>
      </trkpt>
      <trkpt lat="44.85414" lon="-0.21528">
        <ele>4.1</ele>
      </trkpt>
      <trkpt lat="44.85423" lon="-0.21505">
        <ele>4.9</ele>
      </trkpt>
      <trkpt lat="44.85445" lon="-0.21465">
        <ele>4</ele>
      </trkpt>
      <trkpt lat="44.85486" lon="-0.21391">
        <ele>4</ele>
      </trkpt>
      <trkpt lat="44.85525" lon="-0.21322">
        <ele>4</ele>
      </trkpt>
      <trkpt lat="44.85528" lon="-0.21316">
        <ele>4</ele>
      </trkpt>
      <trkpt lat="44.85547" lon="-0.21276">
        <ele>4</ele>
      </trkpt>
      <trkpt lat="44.85552" lon="-0.21267">
        <ele>4</ele>
      </trkpt>
      <trkpt lat="44.85556" lon="-0.21263">
        <ele>4</ele>
      </trkpt>
      <trkpt lat="44.8561" lon="-0.21223">
        <ele>4</ele>
      </trkpt>
      <trkpt lat="44.85631" lon="-0.21208">
        <ele>4</ele>
      </trkpt>
      <trkpt lat="44.85648" lon="-0.21191">
        <ele>4</ele>
      </trkpt>
      <trkpt lat="44.85663" lon="-0.21176">
        <ele>4</ele>
      </trkpt>
      <trkpt lat="44.85671" lon="-0.21169">
        <ele>4</ele>
      </trkpt>
      <trkpt lat="44.85677" lon="-0.21166">
        <ele>4</ele>
      </trkpt>
      <trkpt lat="44.85705" lon="-0.2116">
        <ele>4</ele>
      </trkpt>
      <trkpt lat="44.85736" lon="-0.21155">
        <ele>4</ele>
      </trkpt>
      <trkpt lat="44.85741" lon="-0.21153">
        <ele>4</ele>
      </trkpt>
      <trkpt lat="44.85745" lon="-0.21151">
        <ele>4</ele>
      </trkpt>
      <trkpt lat="44.85748" lon="-0.21149">
        <ele>4</ele>
      </trkpt>
      <trkpt lat="44.8575" lon="-0.21147">
        <ele>4</ele>
      </trkpt>
      <trkpt lat="44.85752" lon="-0.21145">
        <ele>4</ele>
      </trkpt>
      <trkpt lat="44.85754" lon="-0.21142">
        <ele>4</ele>
      </trkpt>
      <trkpt lat="44.85757" lon="-0.21136">
        <ele>4</ele>
      </trkpt>
      <trkpt lat="44.8576" lon="-0.21128">
        <ele>4</ele>
      </trkpt>
      <trkpt lat="44.85766" lon="-0.21101">
        <ele>4</ele>
      </trkpt>
      <trkpt lat="44.85771" lon="-0.2107">
        <ele>4</ele>
      </trkpt>
      <trkpt lat="44.8578" lon="-0.21028">
        <ele>4</ele>
      </trkpt>
      <trkpt lat="44.85784" lon="-0.21011">
        <ele>4</ele>
      </trkpt>
      <trkpt lat="44.85786" lon="-0.20998">
        <ele>3.9</ele>
      </trkpt>
      <trkpt lat="44.85788" lon="-0.20991">
        <ele>3.8</ele>
      </trkpt>
      <trkpt lat="44.8579" lon="-0.20974">
        <ele>3.5</ele>
      </trkpt>
      <trkpt lat="44.8578" lon="-0.20973">
        <ele>3.1</ele>
      </trkpt>
      <trkpt lat="44.8579" lon="-0.20974">
        <ele>3.5</ele>
      </trkpt>
      <trkpt lat="44.85801" lon="-0.20975">
        <ele>3.9</ele>
      </trkpt>
      <trkpt lat="44.85806" lon="-0.20975">
        <ele>4</ele>
      </trkpt>
      <trkpt lat="44.85815" lon="-0.20973">
        <ele>4</ele>
      </trkpt>
      <trkpt lat="44.85826" lon="-0.2097">
        <ele>4</ele>
      </trkpt>
      <trkpt lat="44.85847" lon="-0.20963">
        <ele>4</ele>
      </trkpt>
      <trkpt lat="44.85873" lon="-0.20952">
        <ele>4</ele>
      </trkpt>
      <trkpt lat="44.8591" lon="-0.20935">
        <ele>3.7</ele>
      </trkpt>
      <trkpt lat="44.8596" lon="-0.20908">
        <ele>4</ele>
      </trkpt>
      <trkpt lat="44.85985" lon="-0.20892">
        <ele>4</ele>
      </trkpt>
      <trkpt lat="44.86008" lon="-0.20877">
        <ele>4</ele>
      </trkpt>
      <trkpt lat="44.86015" lon="-0.20873">
        <ele>4</ele>
      </trkpt>
      <trkpt lat="44.86029" lon="-0.20864">
        <ele>4</ele>
      </trkpt>
      <trkpt lat="44.86074" lon="-0.20834">
        <ele>4</ele>
      </trkpt>
      <trkpt lat="44.86128" lon="-0.20795">
        <ele>4</ele>
      </trkpt>
      <trkpt lat="44.86192" lon="-0.20744">
        <ele>4</ele>
      </trkpt>
      <trkpt lat="44.86242" lon="-0.20704">
        <ele>3.9</ele>
      </trkpt>
      <trkpt lat="44.86268" lon="-0.2068">
        <ele>4</ele>
      </trkpt>
      <trkpt lat="44.86273" lon="-0.20674">
        <ele>4</ele>
      </trkpt>
      <trkpt lat="44.86276" lon="-0.2067">
        <ele>4</ele>
      </trkpt>
      <trkpt lat="44.86281" lon="-0.20659">
        <ele>4</ele>
      </trkpt>
      <trkpt lat="44.86301" lon="-0.20591">
        <ele>3.3</ele>
      </trkpt>
      <trkpt lat="44.86313" lon="-0.2055">
        <ele>4</ele>
      </trkpt>
      <trkpt lat="44.86341" lon="-0.20462">
        <ele>3.5</ele>
      </trkpt>
      <trkpt lat="44.86361" lon="-0.20396">
        <ele>3.7</ele>
      </trkpt>
      <trkpt lat="44.86371" lon="-0.20367">
        <ele>4.1</ele>
      </trkpt>
      <trkpt lat="44.86374" lon="-0.20357">
        <ele>3.9</ele>
      </trkpt>
      <trkpt lat="44.86376" lon="-0.20352">
        <ele>3.8</ele>
      </trkpt>
      <trkpt lat="44.86378" lon="-0.20348">
        <ele>3.8</ele>
      </trkpt>
      <trkpt lat="44.8638" lon="-0.20346">
        <ele>3.8</ele>
      </trkpt>
      <trkpt lat="44.86383" lon="-0.20344">
        <ele>3.9</ele>
      </trkpt>
      <trkpt lat="44.86386" lon="-0.20343">
        <ele>3.9</ele>
      </trkpt>
      <trkpt lat="44.86391" lon="-0.20343">
        <ele>4</ele>
      </trkpt>
      <trkpt lat="44.86397" lon="-0.20344">
        <ele>4</ele>
      </trkpt>
      <trkpt lat="44.86402" lon="-0.20344">
        <ele>4</ele>
      </trkpt>
      <trkpt lat="44.86407" lon="-0.20344">
        <ele>4</ele>
      </trkpt>
      <trkpt lat="44.86412" lon="-0.20344">
        <ele>4</ele>
      </trkpt>
      <trkpt lat="44.86418" lon="-0.20343">
        <ele>4</ele>
      </trkpt>
      <trkpt lat="44.86424" lon="-0.20341">
        <ele>4</ele>
      </trkpt>
      <trkpt lat="44.86429" lon="-0.20339">
        <ele>4</ele>
      </trkpt>
      <trkpt lat="44.86434" lon="-0.20336">
        <ele>4</ele>
      </trkpt>
      <trkpt lat="44.86439" lon="-0.20334">
        <ele>4</ele>
      </trkpt>
      <trkpt lat="44.86446" lon="-0.20331">
        <ele>3.9</ele>
      </trkpt>
      <trkpt lat="44.86451" lon="-0.20328">
        <ele>3.8</ele>
      </trkpt>
      <trkpt lat="44.86458" lon="-0.20327">
        <ele>3.6</ele>
      </trkpt>
      <trkpt lat="44.86465" lon="-0.20326">
        <ele>3.5</ele>
      </trkpt>
      <trkpt lat="44.86471" lon="-0.20326">
        <ele>3.3</ele>
      </trkpt>
      <trkpt lat="44.86477" lon="-0.20326">
        <ele>3.3</ele>
      </trkpt>
      <trkpt lat="44.86484" lon="-0.20326">
        <ele>3.3</ele>
      </trkpt>
      <trkpt lat="44.86491" lon="-0.20326">
        <ele>3.3</ele>
      </trkpt>
      <trkpt lat="44.86496" lon="-0.20326">
        <ele>3.3</ele>
      </trkpt>
      <trkpt lat="44.86502" lon="-0.20326">
        <ele>3.3</ele>
      </trkpt>
      <trkpt lat="44.86507" lon="-0.20325">
        <ele>3.5</ele>
      </trkpt>
      <trkpt lat="44.86513" lon="-0.20323">
        <ele>3.7</ele>
      </trkpt>
      <trkpt lat="44.86518" lon="-0.20321">
        <ele>3.8</ele>
      </trkpt>
      <trkpt lat="44.86522" lon="-0.20317">
        <ele>3.9</ele>
      </trkpt>
      <trkpt lat="44.86525" lon="-0.20315">
        <ele>4</ele>
      </trkpt>
      <trkpt lat="44.86529" lon="-0.20312">
        <ele>4</ele>
      </trkpt>
      <trkpt lat="44.86532" lon="-0.20303">
        <ele>4</ele>
      </trkpt>
      <trkpt lat="44.86534" lon="-0.20294">
        <ele>4</ele>
      </trkpt>
      <trkpt lat="44.86534" lon="-0.20286">
        <ele>4</ele>
      </trkpt>
      <trkpt lat="44.86534" lon="-0.20276">
        <ele>4</ele>
      </trkpt>
      <trkpt lat="44.86534" lon="-0.20266">
        <ele>4</ele>
      </trkpt>
      <trkpt lat="44.86533" lon="-0.20254">
        <ele>4</ele>
      </trkpt>
      <trkpt lat="44.86531" lon="-0.20244">
        <ele>4</ele>
      </trkpt>
      <trkpt lat="44.8653" lon="-0.20238">
        <ele>4</ele>
      </trkpt>
      <trkpt lat="44.8653" lon="-0.20236">
        <ele>4</ele>
      </trkpt>
      <trkpt lat="44.8653" lon="-0.20233">
        <ele>4</ele>
      </trkpt>
      <trkpt lat="44.8653" lon="-0.2023">
        <ele>4</ele>
      </trkpt>
      <trkpt lat="44.86531" lon="-0.20227">
        <ele>4</ele>
      </trkpt>
      <trkpt lat="44.86529" lon="-0.20225">
        <ele>4</ele>
      </trkpt>
      <trkpt lat="44.86529" lon="-0.20224">
        <ele>4</ele>
      </trkpt>
      <trkpt lat="44.86521" lon="-0.20217">
        <ele>4</ele>
      </trkpt>
      <trkpt lat="44.86517" lon="-0.20213">
        <ele>4.1</ele>
      </trkpt>
      <trkpt lat="44.86512" lon="-0.20208">
        <ele>4.3</ele>
      </trkpt>
      <trkpt lat="44.86503" lon="-0.20197">
        <ele>4.8</ele>
      </trkpt>
      <trkpt lat="44.86485" lon="-0.20176">
        <ele>4.5</ele>
      </trkpt>
      <trkpt lat="44.86477" lon="-0.20166">
        <ele>4.8</ele>
      </trkpt>
      <trkpt lat="44.8647" lon="-0.20155">
        <ele>4.9</ele>
      </trkpt>
      <trkpt lat="44.86466" lon="-0.2015">
        <ele>4.8</ele>
      </trkpt>
      <trkpt lat="44.86463" lon="-0.20144">
        <ele>4.7</ele>
      </trkpt>
      <trkpt lat="44.86457" lon="-0.20131">
        <ele>4.6</ele>
      </trkpt>
      <trkpt lat="44.86451" lon="-0.20111">
        <ele>5</ele>
      </trkpt>
      <trkpt lat="44.86447" lon="-0.20095">
        <ele>5</ele>
      </trkpt>
      <trkpt lat="44.86442" lon="-0.20077">
        <ele>5</ele>
      </trkpt>
      <trkpt lat="44.86438" lon="-0.20056">
        <ele>5</ele>
      </trkpt>
      <trkpt lat="44.86433" lon="-0.20035">
        <ele>5</ele>
      </trkpt>
      <trkpt lat="44.86428" lon="-0.20017">
        <ele>5</ele>
      </trkpt>
      <trkpt lat="44.86423" lon="-0.20002">
        <ele>5</ele>
      </trkpt>
      <trkpt lat="44.86417" lon="-0.19989">
        <ele>5</ele>
      </trkpt>
      <trkpt lat="44.86397" lon="-0.19956">
        <ele>5</ele>
      </trkpt>
      <trkpt lat="44.86377" lon="-0.19924">
        <ele>5</ele>
      </trkpt>
      <trkpt lat="44.86368" lon="-0.1991">
        <ele>5.1</ele>
      </trkpt>
      <trkpt lat="44.86365" lon="-0.19903">
        <ele>5.1</ele>
      </trkpt>
      <trkpt lat="44.86364" lon="-0.199">
        <ele>5.1</ele>
      </trkpt>
      <trkpt lat="44.86364" lon="-0.19895">
        <ele>5.1</ele>
      </trkpt>
      <trkpt lat="44.86361" lon="-0.19896">
        <ele>5</ele>
      </trkpt>
      <trkpt lat="44.86359" lon="-0.19896">
        <ele>5</ele>
      </trkpt>
      <trkpt lat="44.86358" lon="-0.19897">
        <ele>5</ele>
      </trkpt>
      <trkpt lat="44.86356" lon="-0.19898">
        <ele>4.9</ele>
      </trkpt>
      <trkpt lat="44.86358" lon="-0.19897">
        <ele>5</ele>
      </trkpt>
      <trkpt lat="44.86359" lon="-0.19896">
        <ele>5</ele>
      </trkpt>
      <trkpt lat="44.86361" lon="-0.19896">
        <ele>5</ele>
      </trkpt>
      <trkpt lat="44.86364" lon="-0.19895">
        <ele>5.1</ele>
      </trkpt>
      <trkpt lat="44.86364" lon="-0.19892">
        <ele>5.1</ele>
      </trkpt>
      <trkpt lat="44.86365" lon="-0.1989">
        <ele>5.1</ele>
      </trkpt>
      <trkpt lat="44.86366" lon="-0.19887">
        <ele>5.2</ele>
      </trkpt>
      <trkpt lat="44.86368" lon="-0.19885">
        <ele>5.2</ele>
      </trkpt>
      <trkpt lat="44.86375" lon="-0.19877">
        <ele>5.3</ele>
      </trkpt>
      <trkpt lat="44.86389" lon="-0.19861">
        <ele>5</ele>
      </trkpt>
      <trkpt lat="44.86413" lon="-0.19836">
        <ele>5</ele>
      </trkpt>
      <trkpt lat="44.8644" lon="-0.19804">
        <ele>5</ele>
      </trkpt>
      <trkpt lat="44.86472" lon="-0.19767">
        <ele>5</ele>
      </trkpt>
      <trkpt lat="44.86496" lon="-0.19732">
        <ele>5</ele>
      </trkpt>
      <trkpt lat="44.86523" lon="-0.19696">
        <ele>5</ele>
      </trkpt>
      <trkpt lat="44.86544" lon="-0.19664">
        <ele>5</ele>
      </trkpt>
      <trkpt lat="44.8655" lon="-0.19656">
        <ele>5</ele>
      </trkpt>
      <trkpt lat="44.86561" lon="-0.19638">
        <ele>5</ele>
      </trkpt>
      <trkpt lat="44.86564" lon="-0.19634">
        <ele>5</ele>
      </trkpt>
      <trkpt lat="44.86597" lon="-0.19587">
        <ele>5</ele>
      </trkpt>
      <trkpt lat="44.86618" lon="-0.19553">
        <ele>5.3</ele>
      </trkpt>
      <trkpt lat="44.8664" lon="-0.19517">
        <ele>5</ele>
      </trkpt>
      <trkpt lat="44.86645" lon="-0.1951">
        <ele>5.1</ele>
      </trkpt>
      <trkpt lat="44.8666" lon="-0.19482">
        <ele>5.8</ele>
      </trkpt>
      <trkpt lat="44.86675" lon="-0.19454">
        <ele>5.2</ele>
      </trkpt>
      <trkpt lat="44.86689" lon="-0.19432">
        <ele>5</ele>
      </trkpt>
      <trkpt lat="44.86699" lon="-0.19421">
        <ele>5</ele>
      </trkpt>
      <trkpt lat="44.86706" lon="-0.19415">
        <ele>5</ele>
      </trkpt>
      <trkpt lat="44.86723" lon="-0.19402">
        <ele>5</ele>
      </trkpt>
      <trkpt lat="44.86739" lon="-0.19388">
        <ele>5</ele>
      </trkpt>
      <trkpt lat="44.86744" lon="-0.19379">
        <ele>5</ele>
      </trkpt>
      <trkpt lat="44.86749" lon="-0.19368">
        <ele>5</ele>
      </trkpt>
      <trkpt lat="44.86753" lon="-0.19357">
        <ele>5.1</ele>
      </trkpt>
      <trkpt lat="44.86757" lon="-0.19344">
        <ele>5.3</ele>
      </trkpt>
      <trkpt lat="44.86761" lon="-0.19328">
        <ele>5.4</ele>
      </trkpt>
      <trkpt lat="44.86763" lon="-0.19312">
        <ele>5.5</ele>
      </trkpt>
      <trkpt lat="44.86766" lon="-0.19294">
        <ele>5.3</ele>
      </trkpt>
      <trkpt lat="44.86768" lon="-0.19279">
        <ele>5</ele>
      </trkpt>
      <trkpt lat="44.86769" lon="-0.19264">
        <ele>5</ele>
      </trkpt>
      <trkpt lat="44.86772" lon="-0.19245">
        <ele>5</ele>
      </trkpt>
      <trkpt lat="44.86776" lon="-0.19223">
        <ele>5.1</ele>
      </trkpt>
      <trkpt lat="44.86781" lon="-0.19192">
        <ele>5.9</ele>
      </trkpt>
      <trkpt lat="44.86782" lon="-0.19185">
        <ele>5.7</ele>
      </trkpt>
      <trkpt lat="44.86785" lon="-0.19173">
        <ele>5.4</ele>
      </trkpt>
      <trkpt lat="44.86786" lon="-0.1917">
        <ele>5.4</ele>
      </trkpt>
      <trkpt lat="44.86786" lon="-0.19168">
        <ele>5.3</ele>
      </trkpt>
      <trkpt lat="44.86795" lon="-0.19142">
        <ele>5.6</ele>
      </trkpt>
      <trkpt lat="44.86807" lon="-0.1911">
        <ele>5.1</ele>
      </trkpt>
      <trkpt lat="44.8682" lon="-0.19079">
        <ele>6</ele>
      </trkpt>
      <trkpt lat="44.86834" lon="-0.19044">
        <ele>6</ele>
      </trkpt>
      <trkpt lat="44.86836" lon="-0.19039">
        <ele>6</ele>
      </trkpt>
      <trkpt lat="44.86849" lon="-0.19012">
        <ele>6</ele>
      </trkpt>
      <trkpt lat="44.86853" lon="-0.19003">
        <ele>6</ele>
      </trkpt>
      <trkpt lat="44.86863" lon="-0.18982">
        <ele>6</ele>
      </trkpt>
      <trkpt lat="44.8687" lon="-0.18967">
        <ele>6</ele>
      </trkpt>
      <trkpt lat="44.86897" lon="-0.18907">
        <ele>6.3</ele>
      </trkpt>
      <trkpt lat="44.86921" lon="-0.18854">
        <ele>7</ele>
      </trkpt>
      <trkpt lat="44.8694" lon="-0.18814">
        <ele>7</ele>
      </trkpt>
      <trkpt lat="44.86949" lon="-0.18794">
        <ele>7</ele>
      </trkpt>
      <trkpt lat="44.86954" lon="-0.18776">
        <ele>7</ele>
      </trkpt>
      <trkpt lat="44.86955" lon="-0.18773">
        <ele>7</ele>
      </trkpt>
      <trkpt lat="44.86957" lon="-0.18763">
        <ele>7</ele>
      </trkpt>
      <trkpt lat="44.86961" lon="-0.18767">
        <ele>7</ele>
        <time>2022-01-30T09:13:22.000Z</time>
      </trkpt>
      <trkpt lat="44.86967" lon="-0.18768">
        <ele>7</ele>
        <time>2022-01-30T09:13:23.000Z</time>
      </trkpt>
      <trkpt lat="44.86971" lon="-0.1877">
        <ele>7</ele>
        <time>2022-01-30T09:13:25.000Z</time>
      </trkpt>
      <trkpt lat="44.8698" lon="-0.18776">
        <ele>7</ele>
        <time>2022-01-30T09:13:27.000Z</time>
      </trkpt>
      <trkpt lat="44.86995" lon="-0.18787">
        <ele>7.4000000953674</ele>
        <time>2022-01-30T09:13:29.000Z</time>
      </trkpt>
      <trkpt lat="44.87006" lon="-0.18795">
        <ele>7.5999999046326</ele>
        <time>2022-01-30T09:13:31.000Z</time>
      </trkpt>
      <trkpt lat="44.87011" lon="-0.18799">
        <ele>7.8000001907349</ele>
        <time>2022-01-30T09:13:33.000Z</time>
      </trkpt>
      <trkpt lat="44.87029" lon="-0.18811">
        <ele>8</ele>
        <time>2022-01-30T09:13:35.000Z</time>
      </trkpt>
      <trkpt lat="44.87034" lon="-0.18815">
        <ele>8</ele>
        <time>2022-01-30T09:13:37.000Z</time>
      </trkpt>
      <trkpt lat="44.87052" lon="-0.18828">
        <ele>7.8000001907349</ele>
        <time>2022-01-30T09:13:39.000Z</time>
      </trkpt>
      <trkpt lat="44.87058" lon="-0.18832">
        <ele>7.8000001907349</ele>
        <time>2022-01-30T09:13:41.000Z</time>
      </trkpt>
      <trkpt lat="44.87076" lon="-0.18844">
        <ele>7.5999999046326</ele>
        <time>2022-01-30T09:13:43.000Z</time>
      </trkpt>
      <trkpt lat="44.87088" lon="-0.18852">
        <ele>7.1999998092651</ele>
        <time>2022-01-30T09:13:45.000Z</time>
      </trkpt>
      <trkpt lat="44.87094" lon="-0.18857">
        <ele>7</ele>
        <time>2022-01-30T09:13:46.000Z</time>
      </trkpt>
      <trkpt lat="44.871" lon="-0.18861">
        <ele>6.8000001907349</ele>
        <time>2022-01-30T09:13:47.000Z</time>
      </trkpt>
      <trkpt lat="44.87111" lon="-0.1887">
        <ele>6.4000000953674</ele>
        <time>2022-01-30T09:13:49.000Z</time>
      </trkpt>
      <trkpt lat="44.87123" lon="-0.18879">
        <ele>6</ele>
        <time>2022-01-30T09:13:51.000Z</time>
      </trkpt>
      <trkpt lat="44.87135" lon="-0.18887">
        <ele>6</ele>
        <time>2022-01-30T09:13:53.000Z</time>
      </trkpt>
      <trkpt lat="44.87148" lon="-0.18895">
        <ele>5.8000001907349</ele>
        <time>2022-01-30T09:13:55.000Z</time>
      </trkpt>
      <trkpt lat="44.8716" lon="-0.18902">
        <ele>5.8000001907349</ele>
        <time>2022-01-30T09:13:57.000Z</time>
      </trkpt>
      <trkpt lat="44.87166" lon="-0.18906">
        <ele>5.8000001907349</ele>
        <time>2022-01-30T09:13:59.000Z</time>
      </trkpt>
      <trkpt lat="44.87185" lon="-0.18918">
        <ele>6.1999998092651</ele>
        <time>2022-01-30T09:14:01.000Z</time>
      </trkpt>
      <trkpt lat="44.87197" lon="-0.18927">
        <ele>6.5999999046326</ele>
        <time>2022-01-30T09:14:03.000Z</time>
      </trkpt>
      <trkpt lat="44.87203" lon="-0.18931">
        <ele>6.8000001907349</ele>
        <time>2022-01-30T09:14:04.000Z</time>
      </trkpt>
      <trkpt lat="44.87209" lon="-0.18936">
        <ele>7</ele>
        <time>2022-01-30T09:14:05.000Z</time>
      </trkpt>
      <trkpt lat="44.87215" lon="-0.1894">
        <ele>7.1999998092651</ele>
        <time>2022-01-30T09:14:07.000Z</time>
      </trkpt>
      <trkpt lat="44.87234" lon="-0.18953">
        <ele>7.4000000953674</ele>
        <time>2022-01-30T09:14:09.000Z</time>
      </trkpt>
      <trkpt lat="44.87247" lon="-0.18962">
        <ele>7.4000000953674</ele>
        <time>2022-01-30T09:14:11.000Z</time>
      </trkpt>
      <trkpt lat="44.87253" lon="-0.18966">
        <ele>7.5999999046326</ele>
        <time>2022-01-30T09:14:12.000Z</time>
      </trkpt>
      <trkpt lat="44.8726" lon="-0.18969">
        <ele>7.5999999046326</ele>
        <time>2022-01-30T09:14:13.000Z</time>
      </trkpt>
      <trkpt lat="44.87274" lon="-0.18975">
        <ele>7.5999999046326</ele>
        <time>2022-01-30T09:14:15.000Z</time>
      </trkpt>
      <trkpt lat="44.87287" lon="-0.18983">
        <ele>8</ele>
        <time>2022-01-30T09:14:17.000Z</time>
      </trkpt>
      <trkpt lat="44.87294" lon="-0.18987">
        <ele>8</ele>
        <time>2022-01-30T09:14:18.000Z</time>
      </trkpt>
      <trkpt lat="44.87301" lon="-0.1899">
        <ele>8.1999998092651</ele>
        <time>2022-01-30T09:14:19.000Z</time>
      </trkpt>
      <trkpt lat="44.87315" lon="-0.18997">
        <ele>8.3999996185303</ele>
        <time>2022-01-30T09:14:21.000Z</time>
      </trkpt>
      <trkpt lat="44.87322" lon="-0.19">
        <ele>8.3999996185303</ele>
        <time>2022-01-30T09:14:23.000Z</time>
      </trkpt>
      <trkpt lat="44.87342" lon="-0.19009">
        <ele>8.6000003814697</ele>
        <time>2022-01-30T09:14:25.000Z</time>
      </trkpt>
      <trkpt lat="44.87349" lon="-0.19012">
        <ele>8.8000001907349</ele>
        <time>2022-01-30T09:14:26.000Z</time>
      </trkpt>
      <trkpt lat="44.87356" lon="-0.19016">
        <ele>8.8000001907349</ele>
        <time>2022-01-30T09:14:27.000Z</time>
      </trkpt>
      <trkpt lat="44.87369" lon="-0.19022">
        <ele>9</ele>
        <time>2022-01-30T09:14:29.000Z</time>
      </trkpt>
      <trkpt lat="44.87383" lon="-0.19029">
        <ele>9.1999998092651</ele>
        <time>2022-01-30T09:14:31.000Z</time>
      </trkpt>
      <trkpt lat="44.8739" lon="-0.19034">
        <ele>9.1999998092651</ele>
        <time>2022-01-30T09:14:32.000Z</time>
      </trkpt>
      <trkpt lat="44.87397" lon="-0.19037">
        <ele>9.1999998092651</ele>
        <time>2022-01-30T09:14:33.000Z</time>
      </trkpt>
      <trkpt lat="44.87411" lon="-0.19043">
        <ele>9.3999996185303</ele>
        <time>2022-01-30T09:14:35.000Z</time>
      </trkpt>
      <trkpt lat="44.87419" lon="-0.19045">
        <ele>9.6000003814697</ele>
        <time>2022-01-30T09:14:36.000Z</time>
      </trkpt>
      <trkpt lat="44.87426" lon="-0.19047">
        <ele>9.6000003814697</ele>
        <time>2022-01-30T09:14:37.000Z</time>
      </trkpt>
      <trkpt lat="44.87442" lon="-0.19051">
        <ele>9.6000003814697</ele>
        <time>2022-01-30T09:14:39.000Z</time>
      </trkpt>
      <trkpt lat="44.87457" lon="-0.19054">
        <ele>9.6000003814697</ele>
        <time>2022-01-30T09:14:41.000Z</time>
      </trkpt>
      <trkpt lat="44.87465" lon="-0.19054">
        <ele>9.6000003814697</ele>
        <time>2022-01-30T09:14:42.000Z</time>
      </trkpt>
      <trkpt lat="44.87473" lon="-0.19053">
        <ele>9.6000003814697</ele>
        <time>2022-01-30T09:14:43.000Z</time>
      </trkpt>
      <trkpt lat="44.87488" lon="-0.19049">
        <ele>9.3999996185303</ele>
        <time>2022-01-30T09:14:45.000Z</time>
      </trkpt>
      <trkpt lat="44.87495" lon="-0.19046">
        <ele>9.3999996185303</ele>
        <time>2022-01-30T09:14:46.000Z</time>
      </trkpt>
      <trkpt lat="44.87502" lon="-0.19043">
        <ele>9.3999996185303</ele>
        <time>2022-01-30T09:14:47.000Z</time>
      </trkpt>
      <trkpt lat="44.87515" lon="-0.19038">
        <ele>9.3999996185303</ele>
        <time>2022-01-30T09:14:49.000Z</time>
      </trkpt>
      <trkpt lat="44.87528" lon="-0.19034">
        <ele>9.3999996185303</ele>
        <time>2022-01-30T09:14:51.000Z</time>
      </trkpt>
      <trkpt lat="44.87535" lon="-0.19032">
        <ele>9.3999996185303</ele>
        <time>2022-01-30T09:14:52.000Z</time>
      </trkpt>
      <trkpt lat="44.87541" lon="-0.19031">
        <ele>9.3999996185303</ele>
        <time>2022-01-30T09:14:53.000Z</time>
      </trkpt>
      <trkpt lat="44.87553" lon="-0.1903">
        <ele>9.6000003814697</ele>
        <time>2022-01-30T09:14:55.000Z</time>
      </trkpt>
      <trkpt lat="44.87564" lon="-0.1903">
        <ele>9.6000003814697</ele>
        <time>2022-01-30T09:14:57.000Z</time>
      </trkpt>
      <trkpt lat="44.87574" lon="-0.19029">
        <ele>9.8000001907349</ele>
        <time>2022-01-30T09:14:59.000Z</time>
      </trkpt>
      <trkpt lat="44.8758" lon="-0.19021">
        <ele>10</ele>
        <time>2022-01-30T09:15:01.000Z</time>
      </trkpt>
      <trkpt lat="44.87585" lon="-0.19008">
        <ele>10.39999961853</ele>
        <time>2022-01-30T09:15:03.000Z</time>
      </trkpt>
      <trkpt lat="44.87588" lon="-0.18995">
        <ele>10.800000190735</ele>
        <time>2022-01-30T09:15:05.000Z</time>
      </trkpt>
      <trkpt lat="44.87592" lon="-0.18982">
        <ele>11.199999809265</ele>
        <time>2022-01-30T09:15:07.000Z</time>
      </trkpt>
      <trkpt lat="44.87595" lon="-0.18969">
        <ele>11.39999961853</ele>
        <time>2022-01-30T09:15:09.000Z</time>
      </trkpt>
      <trkpt lat="44.87599" lon="-0.18956">
        <ele>11.800000190735</ele>
        <time>2022-01-30T09:15:11.000Z</time>
      </trkpt>
      <trkpt lat="44.87601" lon="-0.18949">
        <ele>12</ele>
        <time>2022-01-30T09:15:12.000Z</time>
      </trkpt>
      <trkpt lat="44.87604" lon="-0.18942">
        <ele>12.199999809265</ele>
        <time>2022-01-30T09:15:13.000Z</time>
      </trkpt>
      <trkpt lat="44.87609" lon="-0.18929">
        <ele>12.60000038147</ele>
        <time>2022-01-30T09:15:15.000Z</time>
      </trkpt>
      <trkpt lat="44.87611" lon="-0.18922">
        <ele>12.800000190735</ele>
        <time>2022-01-30T09:15:16.000Z</time>
      </trkpt>
      <trkpt lat="44.87613" lon="-0.18915">
        <ele>13</ele>
        <time>2022-01-30T09:15:17.000Z</time>
      </trkpt>
      <trkpt lat="44.87615" lon="-0.189">
        <ele>13.39999961853</ele>
        <time>2022-01-30T09:15:19.000Z</time>
      </trkpt>
      <trkpt lat="44.87617" lon="-0.18885">
        <ele>13.800000190735</ele>
        <time>2022-01-30T09:15:21.000Z</time>
      </trkpt>
      <trkpt lat="44.87618" lon="-0.18869">
        <ele>13.60000038147</ele>
        <time>2022-01-30T09:15:23.000Z</time>
      </trkpt>
      <trkpt lat="44.87618" lon="-0.1886">
        <ele>13.60000038147</ele>
        <time>2022-01-30T09:15:24.000Z</time>
      </trkpt>
      <trkpt lat="44.87619" lon="-0.18852">
        <ele>13.60000038147</ele>
        <time>2022-01-30T09:15:25.000Z</time>
      </trkpt>
      <trkpt lat="44.87619" lon="-0.18836">
        <ele>13.39999961853</ele>
        <time>2022-01-30T09:15:27.000Z</time>
      </trkpt>
      <trkpt lat="44.87619" lon="-0.18819">
        <ele>13.199999809265</ele>
        <time>2022-01-30T09:15:29.000Z</time>
      </trkpt>
      <trkpt lat="44.87619" lon="-0.1881">
        <ele>13</ele>
        <time>2022-01-30T09:15:30.000Z</time>
      </trkpt>
      <trkpt lat="44.87619" lon="-0.18802">
        <ele>13</ele>
        <time>2022-01-30T09:15:31.000Z</time>
      </trkpt>
      <trkpt lat="44.87619" lon="-0.18785">
        <ele>12.800000190735</ele>
        <time>2022-01-30T09:15:33.000Z</time>
      </trkpt>
      <trkpt lat="44.87619" lon="-0.18768">
        <ele>12.60000038147</ele>
        <time>2022-01-30T09:15:35.000Z</time>
      </trkpt>
      <trkpt lat="44.8762" lon="-0.18759">
        <ele>12.60000038147</ele>
        <time>2022-01-30T09:15:36.000Z</time>
      </trkpt>
      <trkpt lat="44.87621" lon="-0.1875">
        <ele>12.39999961853</ele>
        <time>2022-01-30T09:15:37.000Z</time>
      </trkpt>
      <trkpt lat="44.87624" lon="-0.18732">
        <ele>12.199999809265</ele>
        <time>2022-01-30T09:15:39.000Z</time>
      </trkpt>
      <trkpt lat="44.87629" lon="-0.18715">
        <ele>12.199999809265</ele>
        <time>2022-01-30T09:15:41.000Z</time>
      </trkpt>
      <trkpt lat="44.87635" lon="-0.18699">
        <ele>12.39999961853</ele>
        <time>2022-01-30T09:15:43.000Z</time>
      </trkpt>
      <trkpt lat="44.87641" lon="-0.18684">
        <ele>12.60000038147</ele>
        <time>2022-01-30T09:15:45.000Z</time>
      </trkpt>
      <trkpt lat="44.87649" lon="-0.1867">
        <ele>13</ele>
        <time>2022-01-30T09:15:47.000Z</time>
      </trkpt>
      <trkpt lat="44.87658" lon="-0.18657">
        <ele>13.199999809265</ele>
        <time>2022-01-30T09:15:49.000Z</time>
      </trkpt>
      <trkpt lat="44.87667" lon="-0.18644">
        <ele>13.60000038147</ele>
        <time>2022-01-30T09:15:51.000Z</time>
      </trkpt>
      <trkpt lat="44.87676" lon="-0.18632">
        <ele>14</ele>
        <time>2022-01-30T09:15:53.000Z</time>
      </trkpt>
      <trkpt lat="44.87681" lon="-0.18626">
        <ele>14</ele>
        <time>2022-01-30T09:15:54.000Z</time>
      </trkpt>
      <trkpt lat="44.87686" lon="-0.1862">
        <ele>14</ele>
        <time>2022-01-30T09:15:55.000Z</time>
      </trkpt>
      <trkpt lat="44.87695" lon="-0.18608">
        <ele>14.199999809265</ele>
        <time>2022-01-30T09:15:57.000Z</time>
      </trkpt>
      <trkpt lat="44.87704" lon="-0.18595">
        <ele>14.199999809265</ele>
        <time>2022-01-30T09:15:59.000Z</time>
      </trkpt>
      <trkpt lat="44.87713" lon="-0.18581">
        <ele>13.800000190735</ele>
        <time>2022-01-30T09:16:01.000Z</time>
      </trkpt>
      <trkpt lat="44.87717" lon="-0.18574">
        <ele>13.60000038147</ele>
        <time>2022-01-30T09:16:02.000Z</time>
      </trkpt>
      <trkpt lat="44.87721" lon="-0.18566">
        <ele>13.60000038147</ele>
        <time>2022-01-30T09:16:03.000Z</time>
      </trkpt>
      <trkpt lat="44.87729" lon="-0.18552">
        <ele>13.199999809265</ele>
        <time>2022-01-30T09:16:05.000Z</time>
      </trkpt>
      <trkpt lat="44.87737" lon="-0.18538">
        <ele>13</ele>
        <time>2022-01-30T09:16:07.000Z</time>
      </trkpt>
      <trkpt lat="44.87746" lon="-0.18524">
        <ele>12.800000190735</ele>
        <time>2022-01-30T09:16:09.000Z</time>
      </trkpt>
      <trkpt lat="44.87755" lon="-0.1851">
        <ele>12.60000038147</ele>
        <time>2022-01-30T09:16:11.000Z</time>
      </trkpt>
      <trkpt lat="44.87764" lon="-0.18496">
        <ele>12.39999961853</ele>
        <time>2022-01-30T09:16:13.000Z</time>
      </trkpt>
      <trkpt lat="44.87772" lon="-0.18482">
        <ele>12.199999809265</ele>
        <time>2022-01-30T09:16:15.000Z</time>
      </trkpt>
      <trkpt lat="44.87781" lon="-0.18468">
        <ele>12</ele>
        <time>2022-01-30T09:16:17.000Z</time>
      </trkpt>
      <trkpt lat="44.87786" lon="-0.18461">
        <ele>12</ele>
        <time>2022-01-30T09:16:18.000Z</time>
      </trkpt>
      <trkpt lat="44.8779" lon="-0.18453">
        <ele>12</ele>
        <time>2022-01-30T09:16:19.000Z</time>
      </trkpt>
      <trkpt lat="44.87799" lon="-0.18439">
        <ele>12</ele>
        <time>2022-01-30T09:16:21.000Z</time>
      </trkpt>
      <trkpt lat="44.87809" lon="-0.18425">
        <ele>12</ele>
        <time>2022-01-30T09:16:23.000Z</time>
      </trkpt>
      <trkpt lat="44.87813" lon="-0.18418">
        <ele>12</ele>
        <time>2022-01-30T09:16:25.000Z</time>
      </trkpt>
      <trkpt lat="44.87828" lon="-0.18398">
        <ele>12</ele>
        <time>2022-01-30T09:16:27.000Z</time>
      </trkpt>
      <trkpt lat="44.87832" lon="-0.18391">
        <ele>12</ele>
        <time>2022-01-30T09:16:28.000Z</time>
      </trkpt>
      <trkpt lat="44.87837" lon="-0.18383">
        <ele>12</ele>
        <time>2022-01-30T09:16:29.000Z</time>
      </trkpt>
      <trkpt lat="44.87846" lon="-0.18369">
        <ele>12.199999809265</ele>
        <time>2022-01-30T09:16:31.000Z</time>
      </trkpt>
      <trkpt lat="44.87856" lon="-0.18355">
        <ele>12.199999809265</ele>
        <time>2022-01-30T09:16:33.000Z</time>
      </trkpt>
      <trkpt lat="44.87865" lon="-0.18341">
        <ele>12.39999961853</ele>
        <time>2022-01-30T09:16:35.000Z</time>
      </trkpt>
      <trkpt lat="44.87874" lon="-0.18326">
        <ele>12.60000038147</ele>
        <time>2022-01-30T09:16:37.000Z</time>
      </trkpt>
      <trkpt lat="44.87882" lon="-0.1831">
        <ele>12.800000190735</ele>
        <time>2022-01-30T09:16:39.000Z</time>
      </trkpt>
      <trkpt lat="44.87891" lon="-0.18294">
        <ele>12.800000190735</ele>
        <time>2022-01-30T09:16:41.000Z</time>
      </trkpt>
      <trkpt lat="44.87899" lon="-0.18279">
        <ele>12.60000038147</ele>
        <time>2022-01-30T09:16:43.000Z</time>
      </trkpt>
      <trkpt lat="44.87907" lon="-0.18262">
        <ele>12.60000038147</ele>
        <time>2022-01-30T09:16:45.000Z</time>
      </trkpt>
      <trkpt lat="44.87915" lon="-0.18246">
        <ele>12.60000038147</ele>
        <time>2022-01-30T09:16:47.000Z</time>
      </trkpt>
      <trkpt lat="44.87924" lon="-0.18229">
        <ele>12.60000038147</ele>
        <time>2022-01-30T09:16:49.000Z</time>
      </trkpt>
      <trkpt lat="44.87932" lon="-0.18213">
        <ele>12.60000038147</ele>
        <time>2022-01-30T09:16:51.000Z</time>
      </trkpt>
      <trkpt lat="44.8794" lon="-0.18196">
        <ele>12.800000190735</ele>
        <time>2022-01-30T09:16:53.000Z</time>
      </trkpt>
      <trkpt lat="44.87947" lon="-0.18179">
        <ele>13</ele>
        <time>2022-01-30T09:16:55.000Z</time>
      </trkpt>
      <trkpt lat="44.87955" lon="-0.18163">
        <ele>13.199999809265</ele>
        <time>2022-01-30T09:16:57.000Z</time>
      </trkpt>
      <trkpt lat="44.87959" lon="-0.18154">
        <ele>13.39999961853</ele>
        <time>2022-01-30T09:16:58.000Z</time>
      </trkpt>
      <trkpt lat="44.87963" lon="-0.18146">
        <ele>13.39999961853</ele>
        <time>2022-01-30T09:16:59.000Z</time>
      </trkpt>
      <trkpt lat="44.8797" lon="-0.18129">
        <ele>13.800000190735</ele>
        <time>2022-01-30T09:17:01.000Z</time>
      </trkpt>
      <trkpt lat="44.87978" lon="-0.18112">
        <ele>13.800000190735</ele>
        <time>2022-01-30T09:17:03.000Z</time>
      </trkpt>
      <trkpt lat="44.87985" lon="-0.18095">
        <ele>13.60000038147</ele>
        <time>2022-01-30T09:17:05.000Z</time>
      </trkpt>
      <trkpt lat="44.87994" lon="-0.18079">
        <ele>13.60000038147</ele>
        <time>2022-01-30T09:17:07.000Z</time>
      </trkpt>
      <trkpt lat="44.88002" lon="-0.18063">
        <ele>13.60000038147</ele>
        <time>2022-01-30T09:17:09.000Z</time>
      </trkpt>
      <trkpt lat="44.88011" lon="-0.18048">
        <ele>13.60000038147</ele>
        <time>2022-01-30T09:17:11.000Z</time>
      </trkpt>
      <trkpt lat="44.8802" lon="-0.18032">
        <ele>13.39999961853</ele>
        <time>2022-01-30T09:17:13.000Z</time>
      </trkpt>
      <trkpt lat="44.88029" lon="-0.18018">
        <ele>13.199999809265</ele>
        <time>2022-01-30T09:17:15.000Z</time>
      </trkpt>
      <trkpt lat="44.88033" lon="-0.1801">
        <ele>13.199999809265</ele>
        <time>2022-01-30T09:17:17.000Z</time>
      </trkpt>
      <trkpt lat="44.88047" lon="-0.17988">
        <ele>13</ele>
        <time>2022-01-30T09:17:19.000Z</time>
      </trkpt>
      <trkpt lat="44.88051" lon="-0.1798">
        <ele>13</ele>
        <time>2022-01-30T09:17:20.000Z</time>
      </trkpt>
      <trkpt lat="44.88056" lon="-0.17973">
        <ele>13</ele>
        <time>2022-01-30T09:17:21.000Z</time>
      </trkpt>
      <trkpt lat="44.88065" lon="-0.17958">
        <ele>13</ele>
        <time>2022-01-30T09:17:23.000Z</time>
      </trkpt>
      <trkpt lat="44.88074" lon="-0.17944">
        <ele>13</ele>
        <time>2022-01-30T09:17:25.000Z</time>
      </trkpt>
      <trkpt lat="44.88083" lon="-0.1793">
        <ele>13</ele>
        <time>2022-01-30T09:17:27.000Z</time>
      </trkpt>
      <trkpt lat="44.88088" lon="-0.17923">
        <ele>13</ele>
        <time>2022-01-30T09:17:28.000Z</time>
      </trkpt>
      <trkpt lat="44.88092" lon="-0.17917">
        <ele>13</ele>
        <time>2022-01-30T09:17:29.000Z</time>
      </trkpt>
      <trkpt lat="44.88101" lon="-0.17903">
        <ele>13</ele>
        <time>2022-01-30T09:17:31.000Z</time>
      </trkpt>
      <trkpt lat="44.8811" lon="-0.17889">
        <ele>13</ele>
        <time>2022-01-30T09:17:33.000Z</time>
      </trkpt>
      <trkpt lat="44.8812" lon="-0.17876">
        <ele>13</ele>
        <time>2022-01-30T09:17:35.000Z</time>
      </trkpt>
      <trkpt lat="44.88124" lon="-0.1787">
        <ele>13</ele>
        <time>2022-01-30T09:17:36.000Z</time>
      </trkpt>
      <trkpt lat="44.88129" lon="-0.17863">
        <ele>13.199999809265</ele>
        <time>2022-01-30T09:17:37.000Z</time>
      </trkpt>
      <trkpt lat="44.88137" lon="-0.1785">
        <ele>13.199999809265</ele>
        <time>2022-01-30T09:17:39.000Z</time>
      </trkpt>
      <trkpt lat="44.88146" lon="-0.17837">
        <ele>13.199999809265</ele>
        <time>2022-01-30T09:17:41.000Z</time>
      </trkpt>
      <trkpt lat="44.88155" lon="-0.17825">
        <ele>13.199999809265</ele>
        <time>2022-01-30T09:17:43.000Z</time>
      </trkpt>
      <trkpt lat="44.88164" lon="-0.17812">
        <ele>13.39999961853</ele>
        <time>2022-01-30T09:17:45.000Z</time>
      </trkpt>
      <trkpt lat="44.88168" lon="-0.17806">
        <ele>13.39999961853</ele>
        <time>2022-01-30T09:17:46.000Z</time>
      </trkpt>
      <trkpt lat="44.88172" lon="-0.17799">
        <ele>13.39999961853</ele>
        <time>2022-01-30T09:17:47.000Z</time>
      </trkpt>
      <trkpt lat="44.88181" lon="-0.17787">
        <ele>13.39999961853</ele>
        <time>2022-01-30T09:17:49.000Z</time>
      </trkpt>
      <trkpt lat="44.8819" lon="-0.17774">
        <ele>13.199999809265</ele>
        <time>2022-01-30T09:17:51.000Z</time>
      </trkpt>
      <trkpt lat="44.88194" lon="-0.17767">
        <ele>13.199999809265</ele>
        <time>2022-01-30T09:17:52.000Z</time>
      </trkpt>
      <trkpt lat="44.88199" lon="-0.17761">
        <ele>13</ele>
        <time>2022-01-30T09:17:53.000Z</time>
      </trkpt>
      <trkpt lat="44.88207" lon="-0.17748">
        <ele>13</ele>
        <time>2022-01-30T09:17:55.000Z</time>
      </trkpt>
      <trkpt lat="44.88216" lon="-0.17735">
        <ele>13.199999809265</ele>
        <time>2022-01-30T09:17:57.000Z</time>
      </trkpt>
      <trkpt lat="44.88225" lon="-0.17723">
        <ele>13.199999809265</ele>
        <time>2022-01-30T09:17:59.000Z</time>
      </trkpt>
      <trkpt lat="44.8823" lon="-0.17717">
        <ele>13.199999809265</ele>
        <time>2022-01-30T09:18:00.000Z</time>
      </trkpt>
      <trkpt lat="44.88234" lon="-0.17711">
        <ele>13.39999961853</ele>
        <time>2022-01-30T09:18:01.000Z</time>
      </trkpt>
      <trkpt lat="44.88243" lon="-0.17699">
        <ele>13.60000038147</ele>
        <time>2022-01-30T09:18:03.000Z</time>
      </trkpt>
      <trkpt lat="44.88252" lon="-0.17687">
        <ele>13.800000190735</ele>
        <time>2022-01-30T09:18:05.000Z</time>
      </trkpt>
      <trkpt lat="44.88261" lon="-0.17676">
        <ele>14</ele>
        <time>2022-01-30T09:18:07.000Z</time>
      </trkpt>
      <trkpt lat="44.88269" lon="-0.17664">
        <ele>14.39999961853</ele>
        <time>2022-01-30T09:18:09.000Z</time>
      </trkpt>
      <trkpt lat="44.88274" lon="-0.17658">
        <ele>14.39999961853</ele>
        <time>2022-01-30T09:18:10.000Z</time>
      </trkpt>
      <trkpt lat="44.88278" lon="-0.17652">
        <ele>14.60000038147</ele>
        <time>2022-01-30T09:18:11.000Z</time>
      </trkpt>
      <trkpt lat="44.88287" lon="-0.17641">
        <ele>14.800000190735</ele>
        <time>2022-01-30T09:18:13.000Z</time>
      </trkpt>
      <trkpt lat="44.88296" lon="-0.1763">
        <ele>15.199999809265</ele>
        <time>2022-01-30T09:18:15.000Z</time>
      </trkpt>
      <trkpt lat="44.883" lon="-0.17625">
        <ele>15.39999961853</ele>
        <time>2022-01-30T09:18:16.000Z</time>
      </trkpt>
      <trkpt lat="44.88304" lon="-0.1762">
        <ele>15.60000038147</ele>
        <time>2022-01-30T09:18:17.000Z</time>
      </trkpt>
      <trkpt lat="44.88312" lon="-0.1761">
        <ele>16</ele>
        <time>2022-01-30T09:18:19.000Z</time>
      </trkpt>
      <trkpt lat="44.8832" lon="-0.17601">
        <ele>16.39999961853</ele>
        <time>2022-01-30T09:18:21.000Z</time>
      </trkpt>
      <trkpt lat="44.88328" lon="-0.17593">
        <ele>16.799999237061</ele>
        <time>2022-01-30T09:18:23.000Z</time>
      </trkpt>
      <trkpt lat="44.88335" lon="-0.17585">
        <ele>17.200000762939</ele>
        <time>2022-01-30T09:18:25.000Z</time>
      </trkpt>
      <trkpt lat="44.88341" lon="-0.17578">
        <ele>17.39999961853</ele>
        <time>2022-01-30T09:18:27.000Z</time>
      </trkpt>
      <trkpt lat="44.88345" lon="-0.17573">
        <ele>17.60000038147</ele>
        <time>2022-01-30T09:18:29.000Z</time>
      </trkpt>
      <trkpt lat="44.88345" lon="-0.17572">
        <ele>17.60000038147</ele>
        <time>2022-01-30T09:18:31.000Z</time>
      </trkpt>
      <trkpt lat="44.88347" lon="-0.17567">
        <ele>17.799999237061</ele>
        <time>2022-01-30T09:18:33.000Z</time>
      </trkpt>
      <trkpt lat="44.88348" lon="-0.17564">
        <ele>17.799999237061</ele>
        <time>2022-01-30T09:18:34.000Z</time>
      </trkpt>
      <trkpt lat="44.88351" lon="-0.17561">
        <ele>18</ele>
        <time>2022-01-30T09:18:35.000Z</time>
      </trkpt>
      <trkpt lat="44.88355" lon="-0.17558">
        <ele>18.200000762939</ele>
        <time>2022-01-30T09:18:36.000Z</time>
      </trkpt>
      <trkpt lat="44.88359" lon="-0.17556">
        <ele>18.39999961853</ele>
        <time>2022-01-30T09:18:37.000Z</time>
      </trkpt>
      <trkpt lat="44.88367" lon="-0.17551">
        <ele>18.799999237061</ele>
        <time>2022-01-30T09:18:39.000Z</time>
      </trkpt>
      <trkpt lat="44.88375" lon="-0.17546">
        <ele>19</ele>
        <time>2022-01-30T09:18:41.000Z</time>
      </trkpt>
      <trkpt lat="44.88384" lon="-0.17541">
        <ele>19.799999237061</ele>
        <time>2022-01-30T09:18:43.000Z</time>
      </trkpt>
      <trkpt lat="44.88388" lon="-0.17539">
        <ele>20.200000762939</ele>
        <time>2022-01-30T09:18:44.000Z</time>
      </trkpt>
      <trkpt lat="44.88392" lon="-0.17536">
        <ele>20.39999961853</ele>
        <time>2022-01-30T09:18:45.000Z</time>
      </trkpt>
      <trkpt lat="44.884" lon="-0.17532">
        <ele>21.200000762939</ele>
        <time>2022-01-30T09:18:47.000Z</time>
      </trkpt>
      <trkpt lat="44.88408" lon="-0.17527">
        <ele>22</ele>
        <time>2022-01-30T09:18:49.000Z</time>
      </trkpt>
      <trkpt lat="44.88412" lon="-0.17525">
        <ele>22.200000762939</ele>
        <time>2022-01-30T09:18:50.000Z</time>
      </trkpt>
      <trkpt lat="44.88415" lon="-0.17523">
        <ele>22.60000038147</ele>
        <time>2022-01-30T09:18:51.000Z</time>
      </trkpt>
      <trkpt lat="44.88423" lon="-0.17519">
        <ele>23.200000762939</ele>
        <time>2022-01-30T09:18:53.000Z</time>
      </trkpt>
      <trkpt lat="44.8843" lon="-0.17515">
        <ele>23.799999237061</ele>
        <time>2022-01-30T09:18:55.000Z</time>
      </trkpt>
      <trkpt lat="44.88437" lon="-0.17511">
        <ele>24.39999961853</ele>
        <time>2022-01-30T09:18:57.000Z</time>
      </trkpt>
      <trkpt lat="44.88443" lon="-0.17506">
        <ele>25</ele>
        <time>2022-01-30T09:18:59.000Z</time>
      </trkpt>
      <trkpt lat="44.88449" lon="-0.17503">
        <ele>25.60000038147</ele>
        <time>2022-01-30T09:19:01.000Z</time>
      </trkpt>
      <trkpt lat="44.88455" lon="-0.175">
        <ele>26</ele>
        <time>2022-01-30T09:19:03.000Z</time>
      </trkpt>
      <trkpt lat="44.88462" lon="-0.17496">
        <ele>26.799999237061</ele>
        <time>2022-01-30T09:19:05.000Z</time>
      </trkpt>
      <trkpt lat="44.88469" lon="-0.17493">
        <ele>27.39999961853</ele>
        <time>2022-01-30T09:19:07.000Z</time>
      </trkpt>
      <trkpt lat="44.88475" lon="-0.1749">
        <ele>28</ele>
        <time>2022-01-30T09:19:09.000Z</time>
      </trkpt>
      <trkpt lat="44.88481" lon="-0.17486">
        <ele>28.60000038147</ele>
        <time>2022-01-30T09:19:11.000Z</time>
      </trkpt>
      <trkpt lat="44.88487" lon="-0.17483">
        <ele>29.200000762939</ele>
        <time>2022-01-30T09:19:13.000Z</time>
      </trkpt>
      <trkpt lat="44.88494" lon="-0.17479">
        <ele>29.799999237061</ele>
        <time>2022-01-30T09:19:15.000Z</time>
      </trkpt>
      <trkpt lat="44.88497" lon="-0.17478">
        <ele>30.200000762939</ele>
        <time>2022-01-30T09:19:16.000Z</time>
      </trkpt>
      <trkpt lat="44.885" lon="-0.17476">
        <ele>30.39999961853</ele>
        <time>2022-01-30T09:19:17.000Z</time>
      </trkpt>
      <trkpt lat="44.88506" lon="-0.17473">
        <ele>31</ele>
        <time>2022-01-30T09:19:19.000Z</time>
      </trkpt>
      <trkpt lat="44.88513" lon="-0.17469">
        <ele>31.60000038147</ele>
        <time>2022-01-30T09:19:21.000Z</time>
      </trkpt>
      <trkpt lat="44.88516" lon="-0.17467">
        <ele>32</ele>
        <time>2022-01-30T09:19:22.000Z</time>
      </trkpt>
      <trkpt lat="44.88519" lon="-0.17465">
        <ele>32.400001525879</ele>
        <time>2022-01-30T09:19:23.000Z</time>
      </trkpt>
      <trkpt lat="44.88526" lon="-0.1746">
        <ele>33</ele>
        <time>2022-01-30T09:19:25.000Z</time>
      </trkpt>
      <trkpt lat="44.88532" lon="-0.17456">
        <ele>33.599998474121</ele>
        <time>2022-01-30T09:19:27.000Z</time>
      </trkpt>
      <trkpt lat="44.88538" lon="-0.17451">
        <ele>34.400001525879</ele>
        <time>2022-01-30T09:19:29.000Z</time>
      </trkpt>
      <trkpt lat="44.88545" lon="-0.17446">
        <ele>34.799999237061</ele>
        <time>2022-01-30T09:19:31.000Z</time>
      </trkpt>
      <trkpt lat="44.88551" lon="-0.17441">
        <ele>35</ele>
        <time>2022-01-30T09:19:33.000Z</time>
      </trkpt>
      <trkpt lat="44.88556" lon="-0.17435">
        <ele>35.200000762939</ele>
        <time>2022-01-30T09:19:35.000Z</time>
      </trkpt>
      <trkpt lat="44.88562" lon="-0.1743">
        <ele>35.599998474121</ele>
        <time>2022-01-30T09:19:37.000Z</time>
      </trkpt>
      <trkpt lat="44.88567" lon="-0.17424">
        <ele>35.799999237061</ele>
        <time>2022-01-30T09:19:39.000Z</time>
      </trkpt>
      <trkpt lat="44.88572" lon="-0.17418">
        <ele>36</ele>
        <time>2022-01-30T09:19:41.000Z</time>
      </trkpt>
      <trkpt lat="44.88578" lon="-0.17413">
        <ele>36.400001525879</ele>
        <time>2022-01-30T09:19:43.000Z</time>
      </trkpt>
      <trkpt lat="44.88582" lon="-0.17407">
        <ele>36.599998474121</ele>
        <time>2022-01-30T09:19:45.000Z</time>
      </trkpt>
      <trkpt lat="44.88587" lon="-0.17401">
        <ele>36.799999237061</ele>
        <time>2022-01-30T09:19:47.000Z</time>
      </trkpt>
      <trkpt lat="44.88592" lon="-0.17393">
        <ele>37.200000762939</ele>
        <time>2022-01-30T09:19:49.000Z</time>
      </trkpt>
      <trkpt lat="44.88598" lon="-0.17385">
        <ele>37.599998474121</ele>
        <time>2022-01-30T09:19:51.000Z</time>
      </trkpt>
      <trkpt lat="44.88603" lon="-0.17377">
        <ele>38</ele>
        <time>2022-01-30T09:19:53.000Z</time>
      </trkpt>
      <trkpt lat="44.88609" lon="-0.17368">
        <ele>38.799999237061</ele>
        <time>2022-01-30T09:19:55.000Z</time>
      </trkpt>
      <trkpt lat="44.88614" lon="-0.1736">
        <ele>39.599998474121</ele>
        <time>2022-01-30T09:19:57.000Z</time>
      </trkpt>
      <trkpt lat="44.8862" lon="-0.17351">
        <ele>40.200000762939</ele>
        <time>2022-01-30T09:19:59.000Z</time>
      </trkpt>
      <trkpt lat="44.88626" lon="-0.17341">
        <ele>40.799999237061</ele>
        <time>2022-01-30T09:20:01.000Z</time>
      </trkpt>
      <trkpt lat="44.88632" lon="-0.17331">
        <ele>41.200000762939</ele>
        <time>2022-01-30T09:20:03.000Z</time>
      </trkpt>
      <trkpt lat="44.88635" lon="-0.17325">
        <ele>41.400001525879</ele>
        <time>2022-01-30T09:20:04.000Z</time>
      </trkpt>
      <trkpt lat="44.88637" lon="-0.1732">
        <ele>41.799999237061</ele>
        <time>2022-01-30T09:20:05.000Z</time>
      </trkpt>
      <trkpt lat="44.88643" lon="-0.17308">
        <ele>42.200000762939</ele>
        <time>2022-01-30T09:20:07.000Z</time>
      </trkpt>
      <trkpt lat="44.88648" lon="-0.17297">
        <ele>42.799999237061</ele>
        <time>2022-01-30T09:20:09.000Z</time>
      </trkpt>
      <trkpt lat="44.88652" lon="-0.17285">
        <ele>42.799999237061</ele>
        <time>2022-01-30T09:20:11.000Z</time>
      </trkpt>
      <trkpt lat="44.88657" lon="-0.17273">
        <ele>43</ele>
        <time>2022-01-30T09:20:13.000Z</time>
      </trkpt>
      <trkpt lat="44.8866" lon="-0.17261">
        <ele>43</ele>
        <time>2022-01-30T09:20:15.000Z</time>
      </trkpt>
      <trkpt lat="44.88664" lon="-0.17248">
        <ele>43.200000762939</ele>
        <time>2022-01-30T09:20:17.000Z</time>
      </trkpt>
      <trkpt lat="44.88667" lon="-0.17235">
        <ele>43.400001525879</ele>
        <time>2022-01-30T09:20:19.000Z</time>
      </trkpt>
      <trkpt lat="44.88669" lon="-0.17222">
        <ele>43.799999237061</ele>
        <time>2022-01-30T09:20:21.000Z</time>
      </trkpt>
      <trkpt lat="44.8867" lon="-0.17216">
        <ele>44</ele>
        <time>2022-01-30T09:20:22.000Z</time>
      </trkpt>
      <trkpt lat="44.88671" lon="-0.17209">
        <ele>44</ele>
        <time>2022-01-30T09:20:23.000Z</time>
      </trkpt>
      <trkpt lat="44.88673" lon="-0.17196">
        <ele>44.400001525879</ele>
        <time>2022-01-30T09:20:25.000Z</time>
      </trkpt>
      <trkpt lat="44.88675" lon="-0.17182">
        <ele>44.599998474121</ele>
        <time>2022-01-30T09:20:27.000Z</time>
      </trkpt>
      <trkpt lat="44.88677" lon="-0.17169">
        <ele>45</ele>
        <time>2022-01-30T09:20:29.000Z</time>
      </trkpt>
      <trkpt lat="44.88679" lon="-0.17155">
        <ele>45.400001525879</ele>
        <time>2022-01-30T09:20:31.000Z</time>
      </trkpt>
      <trkpt lat="44.88681" lon="-0.17141">
        <ele>45.599998474121</ele>
        <time>2022-01-30T09:20:33.000Z</time>
      </trkpt>
      <trkpt lat="44.88684" lon="-0.17128">
        <ele>45.599998474121</ele>
        <time>2022-01-30T09:20:35.000Z</time>
      </trkpt>
      <trkpt lat="44.88686" lon="-0.17114">
        <ele>45.599998474121</ele>
        <time>2022-01-30T09:20:37.000Z</time>
      </trkpt>
      <trkpt lat="44.88689" lon="-0.171">
        <ele>45.599998474121</ele>
        <time>2022-01-30T09:20:39.000Z</time>
      </trkpt>
      <trkpt lat="44.8869" lon="-0.17093">
        <ele>45.599998474121</ele>
        <time>2022-01-30T09:20:40.000Z</time>
      </trkpt>
      <trkpt lat="44.88691" lon="-0.17086">
        <ele>45.599998474121</ele>
        <time>2022-01-30T09:20:41.000Z</time>
      </trkpt>
      <trkpt lat="44.88693" lon="-0.17072">
        <ele>45.599998474121</ele>
        <time>2022-01-30T09:20:43.000Z</time>
      </trkpt>
      <trkpt lat="44.88696" lon="-0.17058">
        <ele>45.599998474121</ele>
        <time>2022-01-30T09:20:45.000Z</time>
      </trkpt>
      <trkpt lat="44.88698" lon="-0.17044">
        <ele>45.400001525879</ele>
        <time>2022-01-30T09:20:47.000Z</time>
      </trkpt>
      <trkpt lat="44.887" lon="-0.1703">
        <ele>45.599998474121</ele>
        <time>2022-01-30T09:20:49.000Z</time>
      </trkpt>
      <trkpt lat="44.88702" lon="-0.17024">
        <ele>45.599998474121</ele>
        <time>2022-01-30T09:20:50.000Z</time>
      </trkpt>
      <trkpt lat="44.88704" lon="-0.17018">
        <ele>45.799999237061</ele>
        <time>2022-01-30T09:20:51.000Z</time>
      </trkpt>
      <trkpt lat="44.88706" lon="-0.17013">
        <ele>45.799999237061</ele>
        <time>2022-01-30T09:20:52.000Z</time>
      </trkpt>
      <trkpt lat="44.8871" lon="-0.17008">
        <ele>45.799999237061</ele>
        <time>2022-01-30T09:20:53.000Z</time>
      </trkpt>
      <trkpt lat="44.88695" lon="-0.17003">
        <ele>46.9</ele>
      </trkpt>
      <trkpt lat="44.88698" lon="-0.16917">
        <ele>50</ele>
      </trkpt>
      <trkpt lat="44.88695" lon="-0.16726">
        <ele>64.6</ele>
      </trkpt>
      <trkpt lat="44.88679" lon="-0.16703">
        <ele>66.2</ele>
      </trkpt>
      <trkpt lat="44.88641" lon="-0.16716">
        <ele>66</ele>
      </trkpt>
      <trkpt lat="44.88599" lon="-0.16752">
        <ele>65</ele>
      </trkpt>
      <trkpt lat="44.8858" lon="-0.16782">
        <ele>64.8</ele>
      </trkpt>
      <trkpt lat="44.88555" lon="-0.16846">
        <ele>64</ele>
      </trkpt>
      <trkpt lat="44.88482" lon="-0.16795">
        <ele>50.8</ele>
      </trkpt>
      <trkpt lat="44.88496" lon="-0.16758">
        <ele>51</ele>
      </trkpt>
      <trkpt lat="44.88543" lon="-0.16746">
        <ele>58.9</ele>
      </trkpt>
      <trkpt lat="44.88551" lon="-0.16731">
        <ele>59.8</ele>
      </trkpt>
      <trkpt lat="44.88568" lon="-0.16665">
        <ele>56.4</ele>
      </trkpt>
      <trkpt lat="44.88636" lon="-0.16604">
        <ele>60.2</ele>
      </trkpt>
      <trkpt lat="44.88676" lon="-0.16584">
        <ele>62.3</ele>
      </trkpt>
      <trkpt lat="44.887" lon="-0.16558">
        <ele>62.6</ele>
      </trkpt>
      <trkpt lat="44.88711" lon="-0.16548">
        <ele>63.3</ele>
      </trkpt>
      <trkpt lat="44.88724" lon="-0.16544">
        <ele>64.7</ele>
      </trkpt>
      <trkpt lat="44.88728" lon="-0.16532">
        <ele>62.7</ele>
      </trkpt>
      <trkpt lat="44.88723" lon="-0.16498">
        <ele>59.1</ele>
      </trkpt>
      <trkpt lat="44.88699" lon="-0.16442">
        <ele>56.9</ele>
      </trkpt>
      <trkpt lat="44.88688" lon="-0.16389">
        <ele>62.2</ele>
      </trkpt>
      <trkpt lat="44.88621" lon="-0.16404">
        <ele>56.3</ele>
      </trkpt>
      <trkpt lat="44.88607" lon="-0.16421">
        <ele>52.2</ele>
      </trkpt>
      <trkpt lat="44.88594" lon="-0.16434">
        <ele>48.8</ele>
      </trkpt>
      <trkpt lat="44.88562" lon="-0.16434">
        <ele>45.7</ele>
      </trkpt>
      <trkpt lat="44.88547" lon="-0.16422">
        <ele>45.3</ele>
      </trkpt>
      <trkpt lat="44.8855" lon="-0.16378">
        <ele>49.9</ele>
      </trkpt>
      <trkpt lat="44.88582" lon="-0.16303">
        <ele>56.3</ele>
      </trkpt>
      <trkpt lat="44.8861" lon="-0.16239">
        <ele>57.7</ele>
      </trkpt>
      <trkpt lat="44.88685" lon="-0.16228">
        <ele>61.9</ele>
      </trkpt>
      <trkpt lat="44.88737" lon="-0.16225">
        <ele>64.5</ele>
      </trkpt>
      <trkpt lat="44.88781" lon="-0.1623">
        <ele>68.2</ele>
      </trkpt>
      <trkpt lat="44.88821" lon="-0.16208">
        <ele>69.9</ele>
      </trkpt>
      <trkpt lat="44.88837" lon="-0.16191">
        <ele>71.6</ele>
      </trkpt>
      <trkpt lat="44.88867" lon="-0.16188">
        <ele>74</ele>
      </trkpt>
      <trkpt lat="44.88889" lon="-0.16181">
        <ele>74.5</ele>
      </trkpt>
      <trkpt lat="44.88886" lon="-0.1617">
        <ele>74.8</ele>
      </trkpt>
      <trkpt lat="44.88886" lon="-0.16166">
        <ele>74.9</ele>
      </trkpt>
      <trkpt lat="44.88887" lon="-0.16162">
        <ele>75.1</ele>
      </trkpt>
      <trkpt lat="44.88888" lon="-0.16158">
        <ele>75.3</ele>
      </trkpt>
      <trkpt lat="44.88889" lon="-0.16156">
        <ele>75.4</ele>
      </trkpt>
      <trkpt lat="44.88885" lon="-0.16149">
        <ele>75.5</ele>
      </trkpt>
      <trkpt lat="44.88884" lon="-0.16148">
        <ele>75.5</ele>
      </trkpt>
      <trkpt lat="44.88883" lon="-0.16146">
        <ele>75.5</ele>
      </trkpt>
      <trkpt lat="44.88881" lon="-0.16142">
        <ele>75.6</ele>
      </trkpt>
      <trkpt lat="44.8888" lon="-0.16135">
        <ele>75.8</ele>
      </trkpt>
      <trkpt lat="44.88878" lon="-0.16123">
        <ele>76.2</ele>
      </trkpt>
      <trkpt lat="44.88875" lon="-0.16111">
        <ele>76.5</ele>
      </trkpt>
      <trkpt lat="44.88873" lon="-0.16103">
        <ele>76.6</ele>
      </trkpt>
      <trkpt lat="44.88868" lon="-0.16095">
        <ele>76.7</ele>
      </trkpt>
      <trkpt lat="44.88834" lon="-0.16052">
        <ele>77.9</ele>
      </trkpt>
      <trkpt lat="44.8883" lon="-0.16045">
        <ele>77.4</ele>
      </trkpt>
      <trkpt lat="44.88828" lon="-0.16038">
        <ele>77.1</ele>
      </trkpt>
      <trkpt lat="44.88826" lon="-0.16026">
        <ele>76.7</ele>
      </trkpt>
      <trkpt lat="44.88825" lon="-0.16014">
        <ele>76.7</ele>
      </trkpt>
      <trkpt lat="44.88826" lon="-0.16001">
        <ele>76.7</ele>
      </trkpt>
      <trkpt lat="44.88827" lon="-0.15986">
        <ele>77.6</ele>
      </trkpt>
      <trkpt lat="44.8883" lon="-0.15975">
        <ele>78.5</ele>
      </trkpt>
      <trkpt lat="44.88835" lon="-0.15962">
        <ele>79.9</ele>
      </trkpt>
      <trkpt lat="44.88848" lon="-0.15933">
        <ele>81.8</ele>
      </trkpt>
      <trkpt lat="44.88853" lon="-0.15924">
        <ele>81.9</ele>
      </trkpt>
      <trkpt lat="44.88864" lon="-0.15916">
        <ele>82.1</ele>
      </trkpt>
      <trkpt lat="44.88874" lon="-0.15904">
        <ele>82</ele>
      </trkpt>
      <trkpt lat="44.88884" lon="-0.15885">
        <ele>82.6</ele>
      </trkpt>
      <trkpt lat="44.88892" lon="-0.15867">
        <ele>83.8</ele>
      </trkpt>
      <trkpt lat="44.88906" lon="-0.15828">
        <ele>82.4</ele>
      </trkpt>
      <trkpt lat="44.88917" lon="-0.15802">
        <ele>82.6</ele>
      </trkpt>
      <trkpt lat="44.88943" lon="-0.15757">
        <ele>82.1</ele>
      </trkpt>
      <trkpt lat="44.88945" lon="-0.1575">
        <ele>82</ele>
      </trkpt>
      <trkpt lat="44.88947" lon="-0.15744">
        <ele>81.9</ele>
      </trkpt>
      <trkpt lat="44.88947" lon="-0.15737">
        <ele>81.6</ele>
      </trkpt>
      <trkpt lat="44.88947" lon="-0.15729">
        <ele>81.3</ele>
      </trkpt>
      <trkpt lat="44.88945" lon="-0.15692">
        <ele>79.9</ele>
      </trkpt>
      <trkpt lat="44.88943" lon="-0.15667">
        <ele>78.8</ele>
      </trkpt>
      <trkpt lat="44.88944" lon="-0.1565">
        <ele>77.1</ele>
      </trkpt>
      <trkpt lat="44.88945" lon="-0.15635">
        <ele>75.5</ele>
      </trkpt>
      <trkpt lat="44.88945" lon="-0.15628">
        <ele>74.8</ele>
      </trkpt>
      <trkpt lat="44.88948" lon="-0.1562">
        <ele>73.9</ele>
      </trkpt>
      <trkpt lat="44.88951" lon="-0.15621">
        <ele>73.9</ele>
      </trkpt>
      <trkpt lat="44.88958" lon="-0.15622">
        <ele>73.9</ele>
      </trkpt>
      <trkpt lat="44.88965" lon="-0.15619">
        <ele>73.3</ele>
      </trkpt>
      <trkpt lat="44.88972" lon="-0.15616">
        <ele>72.7</ele>
      </trkpt>
      <trkpt lat="44.88978" lon="-0.15612">
        <ele>70.9</ele>
      </trkpt>
      <trkpt lat="44.88984" lon="-0.15611">
        <ele>69.4</ele>
      </trkpt>
      <trkpt lat="44.8899" lon="-0.15612">
        <ele>68.3</ele>
      </trkpt>
      <trkpt lat="44.88995" lon="-0.15614">
        <ele>67.7</ele>
      </trkpt>
      <trkpt lat="44.89001" lon="-0.15618">
        <ele>67.4</ele>
      </trkpt>
      <trkpt lat="44.89018" lon="-0.15629">
        <ele>66.7</ele>
      </trkpt>
      <trkpt lat="44.89018" lon="-0.15632">
        <ele>67.1</ele>
      </trkpt>
      <trkpt lat="44.89019" lon="-0.15636">
        <ele>67.5</ele>
      </trkpt>
      <trkpt lat="44.89023" lon="-0.15642">
        <ele>68</ele>
      </trkpt>
      <trkpt lat="44.89033" lon="-0.1566">
        <ele>73.2</ele>
      </trkpt>
      <trkpt lat="44.89039" lon="-0.15669">
        <ele>75.2</ele>
      </trkpt>
      <trkpt lat="44.8904" lon="-0.15665">
        <ele>74.6</ele>
      </trkpt>
      <trkpt lat="44.89043" lon="-0.15662">
        <ele>74.1</ele>
      </trkpt>
      <trkpt lat="44.89049" lon="-0.1566">
        <ele>74.1</ele>
      </trkpt>
      <trkpt lat="44.8908" lon="-0.15649">
        <ele>75.5</ele>
      </trkpt>
      <trkpt lat="44.89098" lon="-0.15657">
        <ele>75.6</ele>
      </trkpt>
      <trkpt lat="44.89137" lon="-0.15673">
        <ele>76.7</ele>
      </trkpt>
      <trkpt lat="44.89169" lon="-0.15685">
        <ele>75.4</ele>
      </trkpt>
      <trkpt lat="44.89173" lon="-0.15689">
        <ele>74.9</ele>
      </trkpt>
      <trkpt lat="44.89176" lon="-0.15694">
        <ele>74.9</ele>
      </trkpt>
      <trkpt lat="44.89179" lon="-0.15702">
        <ele>75.5</ele>
      </trkpt>
      <trkpt lat="44.89185" lon="-0.15716">
        <ele>76.9</ele>
      </trkpt>
      <trkpt lat="44.89189" lon="-0.15724">
        <ele>77.8</ele>
      </trkpt>
      <trkpt lat="44.89193" lon="-0.15728">
        <ele>77.8</ele>
      </trkpt>
      <trkpt lat="44.89198" lon="-0.15733">
        <ele>77.8</ele>
      </trkpt>
      <trkpt lat="44.89214" lon="-0.15746">
        <ele>78.6</ele>
      </trkpt>
      <trkpt lat="44.89244" lon="-0.15774">
        <ele>78.3</ele>
      </trkpt>
      <trkpt lat="44.89261" lon="-0.15796">
        <ele>78.5</ele>
      </trkpt>
      <trkpt lat="44.89264" lon="-0.15806">
        <ele>79</ele>
      </trkpt>
      <trkpt lat="44.89281" lon="-0.15794">
        <ele>78.1</ele>
      </trkpt>
      <trkpt lat="44.89285" lon="-0.1579">
        <ele>77.6</ele>
      </trkpt>
      <trkpt lat="44.8929" lon="-0.15785">
        <ele>77.1</ele>
      </trkpt>
      <trkpt lat="44.89293" lon="-0.15782">
        <ele>76.8</ele>
      </trkpt>
      <trkpt lat="44.89296" lon="-0.15778">
        <ele>76.4</ele>
      </trkpt>
      <trkpt lat="44.89299" lon="-0.15775">
        <ele>76.3</ele>
      </trkpt>
      <trkpt lat="44.89302" lon="-0.1577">
        <ele>76.5</ele>
      </trkpt>
      <trkpt lat="44.89305" lon="-0.15765">
        <ele>76.9</ele>
      </trkpt>
      <trkpt lat="44.89308" lon="-0.1576">
        <ele>77.2</ele>
      </trkpt>
      <trkpt lat="44.89311" lon="-0.15753">
        <ele>77.6</ele>
      </trkpt>
      <trkpt lat="44.89314" lon="-0.15747">
        <ele>77.6</ele>
      </trkpt>
      <trkpt lat="44.89339" lon="-0.1571">
        <ele>79.5</ele>
      </trkpt>
      <trkpt lat="44.89344" lon="-0.15703">
        <ele>79.6</ele>
      </trkpt>
      <trkpt lat="44.89348" lon="-0.15698">
        <ele>79.9</ele>
      </trkpt>
      <trkpt lat="44.89353" lon="-0.15693">
        <ele>80.3</ele>
      </trkpt>
      <trkpt lat="44.89354" lon="-0.15692">
        <ele>80.3</ele>
      </trkpt>
      <trkpt lat="44.89356" lon="-0.15691">
        <ele>80.4</ele>
      </trkpt>
      <trkpt lat="44.89357" lon="-0.1569">
        <ele>80.5</ele>
      </trkpt>
      <trkpt lat="44.89359" lon="-0.15689">
        <ele>80.6</ele>
      </trkpt>
      <trkpt lat="44.89361" lon="-0.15689">
        <ele>80.8</ele>
      </trkpt>
      <trkpt lat="44.89362" lon="-0.15688">
        <ele>80.8</ele>
      </trkpt>
      <trkpt lat="44.89363" lon="-0.15689">
        <ele>80.9</ele>
      </trkpt>
      <trkpt lat="44.89364" lon="-0.15689">
        <ele>80.9</ele>
      </trkpt>
      <trkpt lat="44.89365" lon="-0.1569">
        <ele>81</ele>
      </trkpt>
      <trkpt lat="44.89382" lon="-0.15705">
        <ele>80.6</ele>
      </trkpt>
      <trkpt lat="44.89387" lon="-0.1571">
        <ele>80.3</ele>
      </trkpt>
      <trkpt lat="44.89388" lon="-0.1571">
        <ele>80.3</ele>
      </trkpt>
      <trkpt lat="44.89392" lon="-0.15716">
        <ele>79.8</ele>
      </trkpt>
      <trkpt lat="44.89396" lon="-0.15725">
        <ele>79.7</ele>
      </trkpt>
      <trkpt lat="44.89402" lon="-0.1574">
        <ele>80.9</ele>
      </trkpt>
      <trkpt lat="44.89429" lon="-0.15719">
        <ele>80.9</ele>
      </trkpt>
      <trkpt lat="44.89452" lon="-0.15702">
        <ele>80.1</ele>
      </trkpt>
      <trkpt lat="44.89479" lon="-0.15679">
        <ele>77.8</ele>
      </trkpt>
      <trkpt lat="44.89499" lon="-0.1566">
        <ele>77</ele>
      </trkpt>
      <trkpt lat="44.89541" lon="-0.15622">
        <ele>75.4</ele>
      </trkpt>
      <trkpt lat="44.89565" lon="-0.15597">
        <ele>76.2</ele>
      </trkpt>
      <trkpt lat="44.89577" lon="-0.15582">
        <ele>76.2</ele>
      </trkpt>
      <trkpt lat="44.89583" lon="-0.15575">
        <ele>76</ele>
      </trkpt>
      <trkpt lat="44.89587" lon="-0.15566">
        <ele>76</ele>
      </trkpt>
      <trkpt lat="44.89589" lon="-0.15562">
        <ele>76</ele>
      </trkpt>
      <trkpt lat="44.89591" lon="-0.15564">
        <ele>75.9</ele>
      </trkpt>
      <trkpt lat="44.89593" lon="-0.15565">
        <ele>75.9</ele>
      </trkpt>
      <trkpt lat="44.89595" lon="-0.15565">
        <ele>75.9</ele>
      </trkpt>
      <trkpt lat="44.89598" lon="-0.15564">
        <ele>75.8</ele>
      </trkpt>
      <trkpt lat="44.89601" lon="-0.15563">
        <ele>75.8</ele>
      </trkpt>
      <trkpt lat="44.89603" lon="-0.15559">
        <ele>75.9</ele>
      </trkpt>
      <trkpt lat="44.89604" lon="-0.15554">
        <ele>76</ele>
      </trkpt>
      <trkpt lat="44.89604" lon="-0.15551">
        <ele>75.9</ele>
      </trkpt>
      <trkpt lat="44.89604" lon="-0.15548">
        <ele>75.9</ele>
      </trkpt>
      <trkpt lat="44.89603" lon="-0.15545">
        <ele>75.8</ele>
      </trkpt>
      <trkpt lat="44.89602" lon="-0.15543">
        <ele>75.8</ele>
      </trkpt>
      <trkpt lat="44.8961" lon="-0.1554">
        <ele>75.5</ele>
      </trkpt>
      <trkpt lat="44.89687" lon="-0.15533">
        <ele>72.3</ele>
      </trkpt>
      <trkpt lat="44.89716" lon="-0.15531">
        <ele>70.4</ele>
      </trkpt>
      <trkpt lat="44.89755" lon="-0.1553">
        <ele>68.8</ele>
      </trkpt>
      <trkpt lat="44.89774" lon="-0.1553">
        <ele>68.1</ele>
      </trkpt>
      <trkpt lat="44.89792" lon="-0.15528">
        <ele>68</ele>
      </trkpt>
      <trkpt lat="44.89813" lon="-0.15523">
        <ele>67.7</ele>
      </trkpt>
      <trkpt lat="44.89835" lon="-0.15515">
        <ele>67</ele>
      </trkpt>
      <trkpt lat="44.89862" lon="-0.15503">
        <ele>67</ele>
      </trkpt>
      <trkpt lat="44.8994" lon="-0.15463">
        <ele>65.1</ele>
      </trkpt>
      <trkpt lat="44.90087" lon="-0.15385">
        <ele>68.4</ele>
      </trkpt>
      <trkpt lat="44.9011" lon="-0.15398">
        <ele>70.2</ele>
      </trkpt>
      <trkpt lat="44.90134" lon="-0.15412">
        <ele>70.8</ele>
      </trkpt>
      <trkpt lat="44.90157" lon="-0.1543">
        <ele>72.1</ele>
      </trkpt>
      <trkpt lat="44.90173" lon="-0.15444">
        <ele>73.7</ele>
      </trkpt>
      <trkpt lat="44.9021" lon="-0.15485">
        <ele>73.4</ele>
      </trkpt>
      <trkpt lat="44.90263" lon="-0.15543">
        <ele>71.6</ele>
      </trkpt>
      <trkpt lat="44.90269" lon="-0.15546">
        <ele>71.5</ele>
      </trkpt>
      <trkpt lat="44.90275" lon="-0.15548">
        <ele>71.5</ele>
      </trkpt>
      <trkpt lat="44.90283" lon="-0.15548">
        <ele>71.3</ele>
      </trkpt>
      <trkpt lat="44.903" lon="-0.15549">
        <ele>70.9</ele>
      </trkpt>
      <trkpt lat="44.9031" lon="-0.15548">
        <ele>70.6</ele>
      </trkpt>
      <trkpt lat="44.9032" lon="-0.15546">
        <ele>70.1</ele>
      </trkpt>
      <trkpt lat="44.90349" lon="-0.15537">
        <ele>68.8</ele>
      </trkpt>
      <trkpt lat="44.90412" lon="-0.15516">
        <ele>67.2</ele>
      </trkpt>
      <trkpt lat="44.90446" lon="-0.15512">
        <ele>65.3</ele>
      </trkpt>
      <trkpt lat="44.90473" lon="-0.15512">
        <ele>63.4</ele>
      </trkpt>
      <trkpt lat="44.90531" lon="-0.15522">
        <ele>59.1</ele>
      </trkpt>
      <trkpt lat="44.90572" lon="-0.15527">
        <ele>56.8</ele>
      </trkpt>
      <trkpt lat="44.90622" lon="-0.15536">
        <ele>54.8</ele>
      </trkpt>
      <trkpt lat="44.90631" lon="-0.15537">
        <ele>54.4</ele>
      </trkpt>
      <trkpt lat="44.90638" lon="-0.15537">
        <ele>54</ele>
      </trkpt>
      <trkpt lat="44.90644" lon="-0.15537">
        <ele>53.8</ele>
      </trkpt>
      <trkpt lat="44.90651" lon="-0.15535">
        <ele>53.6</ele>
      </trkpt>
      <trkpt lat="44.90773" lon="-0.15484">
        <ele>49.5</ele>
      </trkpt>
      <trkpt lat="44.90839" lon="-0.15457">
        <ele>48</ele>
      </trkpt>
      <trkpt lat="44.9086" lon="-0.15449">
        <ele>48</ele>
      </trkpt>
      <trkpt lat="44.90887" lon="-0.15437">
        <ele>47</ele>
      </trkpt>
      <trkpt lat="44.90919" lon="-0.15426">
        <ele>46.3</ele>
      </trkpt>
      <trkpt lat="44.90949" lon="-0.15418">
        <ele>46</ele>
      </trkpt>
      <trkpt lat="44.90971" lon="-0.15411">
        <ele>45.8</ele>
      </trkpt>
      <trkpt lat="44.90978" lon="-0.1541">
        <ele>45.6</ele>
      </trkpt>
      <trkpt lat="44.90977" lon="-0.15402">
        <ele>45.4</ele>
      </trkpt>
      <trkpt lat="44.90966" lon="-0.15299">
        <ele>45.2</ele>
      </trkpt>
      <trkpt lat="44.90963" lon="-0.1528">
        <ele>45.3</ele>
      </trkpt>
      <trkpt lat="44.9096" lon="-0.15266">
        <ele>45.4</ele>
      </trkpt>
      <trkpt lat="44.90955" lon="-0.15253">
        <ele>45.6</ele>
      </trkpt>
      <trkpt lat="44.90947" lon="-0.15241">
        <ele>45.9</ele>
      </trkpt>
      <trkpt lat="44.90917" lon="-0.15202">
        <ele>46</ele>
      </trkpt>
      <trkpt lat="44.90911" lon="-0.15193">
        <ele>46</ele>
      </trkpt>
      <trkpt lat="44.90906" lon="-0.15183">
        <ele>46</ele>
      </trkpt>
      <trkpt lat="44.90903" lon="-0.15173">
        <ele>46</ele>
      </trkpt>
      <trkpt lat="44.90907" lon="-0.15171">
        <ele>46</ele>
      </trkpt>
      <trkpt lat="44.90913" lon="-0.15168">
        <ele>46</ele>
      </trkpt>
      <trkpt lat="44.90907" lon="-0.15171">
        <ele>46</ele>
      </trkpt>
      <trkpt lat="44.90903" lon="-0.15173">
        <ele>46</ele>
      </trkpt>
      <trkpt lat="44.90902" lon="-0.15169">
        <ele>46</ele>
      </trkpt>
      <trkpt lat="44.90893" lon="-0.15141">
        <ele>46</ele>
      </trkpt>
      <trkpt lat="44.90886" lon="-0.15112">
        <ele>46.1</ele>
      </trkpt>
      <trkpt lat="44.90882" lon="-0.15089">
        <ele>46.2</ele>
      </trkpt>
      <trkpt lat="44.90881" lon="-0.15078">
        <ele>46.3</ele>
      </trkpt>
      <trkpt lat="44.9088" lon="-0.1506">
        <ele>46.3</ele>
      </trkpt>
      <trkpt lat="44.90878" lon="-0.15034">
        <ele>46.1</ele>
      </trkpt>
      <trkpt lat="44.90878" lon="-0.15013">
        <ele>45.7</ele>
      </trkpt>
      <trkpt lat="44.90876" lon="-0.15001">
        <ele>45.5</ele>
      </trkpt>
      <trkpt lat="44.90875" lon="-0.14989">
        <ele>45.5</ele>
      </trkpt>
      <trkpt lat="44.90872" lon="-0.14977">
        <ele>45.6</ele>
      </trkpt>
      <trkpt lat="44.90869" lon="-0.14965">
        <ele>45.7</ele>
      </trkpt>
      <trkpt lat="44.90865" lon="-0.14951">
        <ele>45.9</ele>
      </trkpt>
      <trkpt lat="44.90857" lon="-0.14926">
        <ele>46.1</ele>
      </trkpt>
      <trkpt lat="44.90828" lon="-0.14839">
        <ele>46.2</ele>
      </trkpt>
      <trkpt lat="44.90802" lon="-0.14764">
        <ele>46.6</ele>
      </trkpt>
      <trkpt lat="44.90796" lon="-0.14748">
        <ele>46.4</ele>
      </trkpt>
      <trkpt lat="44.90802" lon="-0.14764">
        <ele>46.6</ele>
      </trkpt>
      <trkpt lat="44.90842" lon="-0.14727">
        <ele>46</ele>
      </trkpt>
      <trkpt lat="44.90897" lon="-0.14673">
        <ele>44.7</ele>
      </trkpt>
      <trkpt lat="44.90929" lon="-0.14641">
        <ele>44</ele>
      </trkpt>
      <trkpt lat="44.90966" lon="-0.14604">
        <ele>42.8</ele>
      </trkpt>
      <trkpt lat="44.90997" lon="-0.14572">
        <ele>41.6</ele>
      </trkpt>
      <trkpt lat="44.91021" lon="-0.14545">
        <ele>40.7</ele>
      </trkpt>
      <trkpt lat="44.91028" lon="-0.14539">
        <ele>40.4</ele>
      </trkpt>
      <trkpt lat="44.91044" lon="-0.14523">
        <ele>40</ele>
      </trkpt>
      <trkpt lat="44.91062" lon="-0.1451">
        <ele>39.9</ele>
      </trkpt>
      <trkpt lat="44.91082" lon="-0.14493">
        <ele>38.8</ele>
      </trkpt>
      <trkpt lat="44.91088" lon="-0.14488">
        <ele>38.5</ele>
      </trkpt>
      <trkpt lat="44.91106" lon="-0.14474">
        <ele>38</ele>
      </trkpt>
      <trkpt lat="44.91135" lon="-0.14452">
        <ele>37</ele>
      </trkpt>
      <trkpt lat="44.91177" lon="-0.14422">
        <ele>35.7</ele>
      </trkpt>
      <trkpt lat="44.91187" lon="-0.14415">
        <ele>35.3</ele>
      </trkpt>
      <trkpt lat="44.91197" lon="-0.14406">
        <ele>35</ele>
      </trkpt>
      <trkpt lat="44.91199" lon="-0.14405">
        <ele>35</ele>
      </trkpt>
      <trkpt lat="44.91206" lon="-0.14399">
        <ele>35</ele>
      </trkpt>
      <trkpt lat="44.91217" lon="-0.14391">
        <ele>35</ele>
      </trkpt>
      <trkpt lat="44.91229" lon="-0.14383">
        <ele>35</ele>
      </trkpt>
      <trkpt lat="44.91246" lon="-0.14374">
        <ele>35</ele>
      </trkpt>
      <trkpt lat="44.91251" lon="-0.14372">
        <ele>35</ele>
      </trkpt>
      <trkpt lat="44.91287" lon="-0.14355">
        <ele>33.9</ele>
      </trkpt>
      <trkpt lat="44.91304" lon="-0.14346">
        <ele>33.5</ele>
      </trkpt>
      <trkpt lat="44.91317" lon="-0.14337">
        <ele>33.1</ele>
      </trkpt>
      <trkpt lat="44.91339" lon="-0.14323">
        <ele>33</ele>
      </trkpt>
      <trkpt lat="44.91355" lon="-0.14309">
        <ele>33</ele>
      </trkpt>
      <trkpt lat="44.91361" lon="-0.14301">
        <ele>32.8</ele>
      </trkpt>
      <trkpt lat="44.91375" lon="-0.14278">
        <ele>32</ele>
      </trkpt>
      <trkpt lat="44.91386" lon="-0.14254">
        <ele>31.2</ele>
      </trkpt>
      <trkpt lat="44.9139" lon="-0.14246">
        <ele>31</ele>
      </trkpt>
      <trkpt lat="44.91392" lon="-0.14242">
        <ele>31</ele>
      </trkpt>
      <trkpt lat="44.91395" lon="-0.14239">
        <ele>31</ele>
      </trkpt>
      <trkpt lat="44.91395" lon="-0.14234">
        <ele>31</ele>
      </trkpt>
      <trkpt lat="44.91397" lon="-0.14229">
        <ele>31</ele>
      </trkpt>
      <trkpt lat="44.91402" lon="-0.14211">
        <ele>30.8</ele>
      </trkpt>
      <trkpt lat="44.91413" lon="-0.14178">
        <ele>30.1</ele>
      </trkpt>
      <trkpt lat="44.91419" lon="-0.14155">
        <ele>29.9</ele>
      </trkpt>
      <trkpt lat="44.9142" lon="-0.14147">
        <ele>29.9</ele>
      </trkpt>
      <trkpt lat="44.91421" lon="-0.14141">
        <ele>29.8</ele>
      </trkpt>
      <trkpt lat="44.91421" lon="-0.14115">
        <ele>29</ele>
      </trkpt>
      <trkpt lat="44.91421" lon="-0.14049">
        <ele>29.2</ele>
      </trkpt>
      <trkpt lat="44.91423" lon="-0.14034">
        <ele>29.8</ele>
      </trkpt>
      <trkpt lat="44.91426" lon="-0.14023">
        <ele>30.1</ele>
      </trkpt>
      <trkpt lat="44.91436" lon="-0.13995">
        <ele>30.5</ele>
      </trkpt>
      <trkpt lat="44.91438" lon="-0.13989">
        <ele>30.6</ele>
      </trkpt>
      <trkpt lat="44.91438" lon="-0.13982">
        <ele>30.9</ele>
      </trkpt>
      <trkpt lat="44.91437" lon="-0.13977">
        <ele>31.1</ele>
      </trkpt>
      <trkpt lat="44.91435" lon="-0.13973">
        <ele>31.3</ele>
      </trkpt>
      <trkpt lat="44.91432" lon="-0.13969">
        <ele>31.5</ele>
      </trkpt>
      <trkpt lat="44.91427" lon="-0.13964">
        <ele>31.7</ele>
      </trkpt>
      <trkpt lat="44.9142" lon="-0.13959">
        <ele>31.9</ele>
      </trkpt>
      <trkpt lat="44.91397" lon="-0.13942">
        <ele>32</ele>
      </trkpt>
      <trkpt lat="44.91388" lon="-0.13933">
        <ele>32</ele>
      </trkpt>
      <trkpt lat="44.91384" lon="-0.13927">
        <ele>32.2</ele>
      </trkpt>
      <trkpt lat="44.91379" lon="-0.13915">
        <ele>32.4</ele>
      </trkpt>
      <trkpt lat="44.91373" lon="-0.13889">
        <ele>32.6</ele>
      </trkpt>
      <trkpt lat="44.91371" lon="-0.13882">
        <ele>32.6</ele>
      </trkpt>
      <trkpt lat="44.91372" lon="-0.13874">
        <ele>32.6</ele>
      </trkpt>
      <trkpt lat="44.91373" lon="-0.13869">
        <ele>32.6</ele>
      </trkpt>
      <trkpt lat="44.91379" lon="-0.13858">
        <ele>32.2</ele>
      </trkpt>
      <trkpt lat="44.91381" lon="-0.13853">
        <ele>32</ele>
      </trkpt>
      <trkpt lat="44.91383" lon="-0.13847">
        <ele>31.7</ele>
      </trkpt>
      <trkpt lat="44.91382" lon="-0.13842">
        <ele>31.6</ele>
      </trkpt>
      <trkpt lat="44.91381" lon="-0.13837">
        <ele>31.4</ele>
      </trkpt>
      <trkpt lat="44.91379" lon="-0.13833">
        <ele>31.3</ele>
      </trkpt>
      <trkpt lat="44.91373" lon="-0.13827">
        <ele>31.3</ele>
      </trkpt>
      <trkpt lat="44.91358" lon="-0.13811">
        <ele>31.3</ele>
      </trkpt>
      <trkpt lat="44.91347" lon="-0.13796">
        <ele>31.2</ele>
      </trkpt>
      <trkpt lat="44.91332" lon="-0.13769">
        <ele>30.7</ele>
      </trkpt>
      <trkpt lat="44.91326" lon="-0.13761">
        <ele>30.8</ele>
      </trkpt>
      <trkpt lat="44.91324" lon="-0.13758">
        <ele>30.9</ele>
      </trkpt>
      <trkpt lat="44.91321" lon="-0.13757">
        <ele>31</ele>
      </trkpt>
      <trkpt lat="44.91318" lon="-0.13757">
        <ele>31.2</ele>
      </trkpt>
      <trkpt lat="44.91316" lon="-0.13758">
        <ele>31.4</ele>
      </trkpt>
      <trkpt lat="44.91313" lon="-0.13761">
        <ele>31.6</ele>
      </trkpt>
      <trkpt lat="44.91309" lon="-0.13765">
        <ele>31.8</ele>
      </trkpt>
      <trkpt lat="44.91291" lon="-0.13793">
        <ele>33.3</ele>
      </trkpt>
      <trkpt lat="44.91286" lon="-0.13799">
        <ele>33.6</ele>
      </trkpt>
      <trkpt lat="44.91269" lon="-0.13814">
        <ele>34.5</ele>
      </trkpt>
      <trkpt lat="44.91247" lon="-0.13832">
        <ele>35</ele>
      </trkpt>
      <trkpt lat="44.91241" lon="-0.13836">
        <ele>35</ele>
      </trkpt>
      <trkpt lat="44.91238" lon="-0.13837">
        <ele>35</ele>
      </trkpt>
      <trkpt lat="44.91234" lon="-0.13837">
        <ele>35</ele>
      </trkpt>
      <trkpt lat="44.91232" lon="-0.13836">
        <ele>35</ele>
      </trkpt>
      <trkpt lat="44.91229" lon="-0.13833">
        <ele>35</ele>
      </trkpt>
      <trkpt lat="44.91226" lon="-0.13828">
        <ele>35</ele>
      </trkpt>
      <trkpt lat="44.91219" lon="-0.13808">
        <ele>35.1</ele>
      </trkpt>
      <trkpt lat="44.91208" lon="-0.13779">
        <ele>35.5</ele>
      </trkpt>
      <trkpt lat="44.91188" lon="-0.13736">
        <ele>36</ele>
      </trkpt>
      <trkpt lat="44.91159" lon="-0.13675">
        <ele>36.2</ele>
      </trkpt>
      <trkpt lat="44.91146" lon="-0.13649">
        <ele>36.3</ele>
      </trkpt>
      <trkpt lat="44.91138" lon="-0.13635">
        <ele>36</ele>
      </trkpt>
      <trkpt lat="44.91131" lon="-0.13623">
        <ele>36.3</ele>
      </trkpt>
      <trkpt lat="44.91126" lon="-0.13616">
        <ele>36.5</ele>
      </trkpt>
      <trkpt lat="44.91122" lon="-0.1361">
        <ele>36.6</ele>
      </trkpt>
      <trkpt lat="44.91116" lon="-0.13603">
        <ele>36.6</ele>
      </trkpt>
      <trkpt lat="44.91101" lon="-0.13585">
        <ele>36.4</ele>
      </trkpt>
      <trkpt lat="44.91082" lon="-0.13563">
        <ele>37</ele>
      </trkpt>
      <trkpt lat="44.91082" lon="-0.13562">
        <ele>37</ele>
      </trkpt>
      <trkpt lat="44.91076" lon="-0.13555">
        <ele>37.3</ele>
      </trkpt>
      <trkpt lat="44.91088" lon="-0.13538">
        <ele>36.8</ele>
      </trkpt>
      <trkpt lat="44.911" lon="-0.13518">
        <ele>36.2</ele>
      </trkpt>
      <trkpt lat="44.91118" lon="-0.13484">
        <ele>34.9</ele>
      </trkpt>
      <trkpt lat="44.91126" lon="-0.13466">
        <ele>34.2</ele>
      </trkpt>
      <trkpt lat="44.91131" lon="-0.13457">
        <ele>33.5</ele>
      </trkpt>
      <trkpt lat="44.91141" lon="-0.13437">
        <ele>32.2</ele>
      </trkpt>
      <trkpt lat="44.91154" lon="-0.13408">
        <ele>32.1</ele>
      </trkpt>
      <trkpt lat="44.91175" lon="-0.13355">
        <ele>29.6</ele>
      </trkpt>
      <trkpt lat="44.91182" lon="-0.13335">
        <ele>28.9</ele>
      </trkpt>
      <trkpt lat="44.91197" lon="-0.13294">
        <ele>27</ele>
      </trkpt>
      <trkpt lat="44.91206" lon="-0.13271">
        <ele>27</ele>
      </trkpt>
      <trkpt lat="44.91215" lon="-0.13246">
        <ele>26.5</ele>
      </trkpt>
      <trkpt lat="44.91222" lon="-0.13227">
        <ele>26</ele>
      </trkpt>
      <trkpt lat="44.91225" lon="-0.13218">
        <ele>26.1</ele>
      </trkpt>
      <trkpt lat="44.91228" lon="-0.13212">
        <ele>26.3</ele>
      </trkpt>
      <trkpt lat="44.91225" lon="-0.13218">
        <ele>26.1</ele>
      </trkpt>
      <trkpt lat="44.91224" lon="-0.13212">
        <ele>26.3</ele>
      </trkpt>
      <trkpt lat="44.91223" lon="-0.13208">
        <ele>26.5</ele>
      </trkpt>
      <trkpt lat="44.91221" lon="-0.132">
        <ele>26.8</ele>
      </trkpt>
      <trkpt lat="44.91212" lon="-0.13204">
        <ele>26.8</ele>
      </trkpt>
      <trkpt lat="44.91192" lon="-0.13212">
        <ele>27.1</ele>
      </trkpt>
      <trkpt lat="44.91149" lon="-0.13229">
        <ele>29.4</ele>
      </trkpt>
      <trkpt lat="44.91118" lon="-0.13238">
        <ele>31.5</ele>
      </trkpt>
      <trkpt lat="44.9106" lon="-0.13251">
        <ele>34.7</ele>
      </trkpt>
      <trkpt lat="44.9103" lon="-0.13257">
        <ele>36.2</ele>
      </trkpt>
      <trkpt lat="44.91003" lon="-0.13262">
        <ele>37.3</ele>
      </trkpt>
      <trkpt lat="44.90974" lon="-0.13264">
        <ele>38</ele>
      </trkpt>
      <trkpt lat="44.90966" lon="-0.13264">
        <ele>38.2</ele>
      </trkpt>
      <trkpt lat="44.90936" lon="-0.13263">
        <ele>39.3</ele>
      </trkpt>
      <trkpt lat="44.90912" lon="-0.13261">
        <ele>40</ele>
      </trkpt>
      <trkpt lat="44.90893" lon="-0.13257">
        <ele>40</ele>
      </trkpt>
      <trkpt lat="44.90876" lon="-0.13254">
        <ele>40.5</ele>
      </trkpt>
      <trkpt lat="44.90849" lon="-0.13248">
        <ele>41.5</ele>
      </trkpt>
      <trkpt lat="44.9083" lon="-0.13243">
        <ele>42</ele>
      </trkpt>
      <trkpt lat="44.90792" lon="-0.13233">
        <ele>42.8</ele>
      </trkpt>
      <trkpt lat="44.9079" lon="-0.13233">
        <ele>42.8</ele>
      </trkpt>
      <trkpt lat="44.90748" lon="-0.13222">
        <ele>43.1</ele>
      </trkpt>
      <trkpt lat="44.90729" lon="-0.13215">
        <ele>43.8</ele>
      </trkpt>
      <trkpt lat="44.9072" lon="-0.13211">
        <ele>44</ele>
      </trkpt>
      <trkpt lat="44.90701" lon="-0.13202">
        <ele>44.2</ele>
      </trkpt>
      <trkpt lat="44.90687" lon="-0.13195">
        <ele>44.3</ele>
      </trkpt>
      <trkpt lat="44.9067" lon="-0.13184">
        <ele>44.9</ele>
      </trkpt>
      <trkpt lat="44.9063" lon="-0.1316">
        <ele>45</ele>
      </trkpt>
      <trkpt lat="44.90603" lon="-0.13144">
        <ele>45.2</ele>
      </trkpt>
      <trkpt lat="44.9057" lon="-0.13125">
        <ele>46</ele>
      </trkpt>
      <trkpt lat="44.90545" lon="-0.1311">
        <ele>46.4</ele>
      </trkpt>
      <trkpt lat="44.90527" lon="-0.13101">
        <ele>47</ele>
      </trkpt>
      <trkpt lat="44.90524" lon="-0.13097">
        <ele>47.1</ele>
      </trkpt>
      <trkpt lat="44.90524" lon="-0.13094">
        <ele>47.1</ele>
      </trkpt>
      <trkpt lat="44.90524" lon="-0.13093">
        <ele>47.1</ele>
      </trkpt>
      <trkpt lat="44.90524" lon="-0.13092">
        <ele>47.1</ele>
      </trkpt>
      <trkpt lat="44.90524" lon="-0.1309">
        <ele>47.1</ele>
      </trkpt>
      <trkpt lat="44.90524" lon="-0.13085">
        <ele>47.1</ele>
      </trkpt>
      <trkpt lat="44.90553" lon="-0.13061">
        <ele>47</ele>
      </trkpt>
      <trkpt lat="44.90593" lon="-0.13025">
        <ele>46</ele>
      </trkpt>
      <trkpt lat="44.90606" lon="-0.13013">
        <ele>45.6</ele>
      </trkpt>
      <trkpt lat="44.90628" lon="-0.12994">
        <ele>45.1</ele>
      </trkpt>
      <trkpt lat="44.90652" lon="-0.12972">
        <ele>44.5</ele>
      </trkpt>
      <trkpt lat="44.9067" lon="-0.12956">
        <ele>43.9</ele>
      </trkpt>
      <trkpt lat="44.90678" lon="-0.12948">
        <ele>43.6</ele>
      </trkpt>
      <trkpt lat="44.90682" lon="-0.12943">
        <ele>43.5</ele>
      </trkpt>
      <trkpt lat="44.90685" lon="-0.12938">
        <ele>43.5</ele>
      </trkpt>
      <trkpt lat="44.90686" lon="-0.12935">
        <ele>43.5</ele>
      </trkpt>
      <trkpt lat="44.90688" lon="-0.12931">
        <ele>43.6</ele>
      </trkpt>
      <trkpt lat="44.90689" lon="-0.12927">
        <ele>43.7</ele>
      </trkpt>
      <trkpt lat="44.90691" lon="-0.12921">
        <ele>43.9</ele>
      </trkpt>
      <trkpt lat="44.90691" lon="-0.12914">
        <ele>44</ele>
      </trkpt>
      <trkpt lat="44.90691" lon="-0.12893">
        <ele>44.1</ele>
      </trkpt>
      <trkpt lat="44.90691" lon="-0.12876">
        <ele>44.1</ele>
      </trkpt>
      <trkpt lat="44.90691" lon="-0.12858">
        <ele>44.2</ele>
      </trkpt>
      <trkpt lat="44.90692" lon="-0.12838">
        <ele>44.9</ele>
      </trkpt>
      <trkpt lat="44.90696" lon="-0.12819">
        <ele>44.9</ele>
      </trkpt>
      <trkpt lat="44.90704" lon="-0.12797">
        <ele>44.9</ele>
      </trkpt>
      <trkpt lat="44.90716" lon="-0.12768">
        <ele>44.4</ele>
      </trkpt>
      <trkpt lat="44.90729" lon="-0.12741">
        <ele>44.2</ele>
      </trkpt>
      <trkpt lat="44.90731" lon="-0.12737">
        <ele>44.3</ele>
      </trkpt>
      <trkpt lat="44.90733" lon="-0.12728">
        <ele>44.5</ele>
      </trkpt>
      <trkpt lat="44.90737" lon="-0.12717">
        <ele>44.4</ele>
      </trkpt>
      <trkpt lat="44.90742" lon="-0.12702">
        <ele>43.8</ele>
      </trkpt>
      <trkpt lat="44.90744" lon="-0.12687">
        <ele>43.4</ele>
      </trkpt>
      <trkpt lat="44.90745" lon="-0.12685">
        <ele>43.3</ele>
      </trkpt>
      <trkpt lat="44.90747" lon="-0.12674">
        <ele>43.1</ele>
      </trkpt>
      <trkpt lat="44.9075" lon="-0.12651">
        <ele>43</ele>
      </trkpt>
      <trkpt lat="44.90756" lon="-0.12608">
        <ele>42.6</ele>
      </trkpt>
      <trkpt lat="44.90764" lon="-0.12553">
        <ele>41</ele>
      </trkpt>
      <trkpt lat="44.9077" lon="-0.12511">
        <ele>40.6</ele>
      </trkpt>
      <trkpt lat="44.90778" lon="-0.12456">
        <ele>40</ele>
      </trkpt>
      <trkpt lat="44.90783" lon="-0.12421">
        <ele>39.1</ele>
      </trkpt>
      <trkpt lat="44.90784" lon="-0.12413">
        <ele>39</ele>
      </trkpt>
      <trkpt lat="44.90785" lon="-0.12404">
        <ele>39</ele>
      </trkpt>
      <trkpt lat="44.90791" lon="-0.12365">
        <ele>38.6</ele>
      </trkpt>
      <trkpt lat="44.90796" lon="-0.12328">
        <ele>38.2</ele>
      </trkpt>
      <trkpt lat="44.90801" lon="-0.12296">
        <ele>37</ele>
      </trkpt>
      <trkpt lat="44.90809" lon="-0.12241">
        <ele>35.7</ele>
      </trkpt>
      <trkpt lat="44.90812" lon="-0.12222">
        <ele>35</ele>
      </trkpt>
      <trkpt lat="44.90815" lon="-0.12202">
        <ele>34.8</ele>
      </trkpt>
      <trkpt lat="44.90821" lon="-0.12172">
        <ele>33.6</ele>
      </trkpt>
      <trkpt lat="44.90827" lon="-0.12138">
        <ele>32.4</ele>
      </trkpt>
      <trkpt lat="44.90833" lon="-0.1211">
        <ele>32</ele>
      </trkpt>
      <trkpt lat="44.90839" lon="-0.1208">
        <ele>31.6</ele>
      </trkpt>
      <trkpt lat="44.90841" lon="-0.12069">
        <ele>31.6</ele>
      </trkpt>
      <trkpt lat="44.90844" lon="-0.12052">
        <ele>31.6</ele>
      </trkpt>
      <trkpt lat="44.90848" lon="-0.1202">
        <ele>31.8</ele>
      </trkpt>
      <trkpt lat="44.9085" lon="-0.11991">
        <ele>32.4</ele>
      </trkpt>
      <trkpt lat="44.9085" lon="-0.11969">
        <ele>32.3</ele>
      </trkpt>
      <trkpt lat="44.9085" lon="-0.11953">
        <ele>32</ele>
      </trkpt>
      <trkpt lat="44.90848" lon="-0.11934">
        <ele>31.9</ele>
      </trkpt>
      <trkpt lat="44.90845" lon="-0.11896">
        <ele>31.7</ele>
      </trkpt>
      <trkpt lat="44.90841" lon="-0.11867">
        <ele>30.9</ele>
      </trkpt>
      <trkpt lat="44.9084" lon="-0.1186">
        <ele>30.8</ele>
      </trkpt>
      <trkpt lat="44.9084" lon="-0.11858">
        <ele>30.8</ele>
      </trkpt>
      <trkpt lat="44.9084" lon="-0.1186">
        <ele>30.8</ele>
      </trkpt>
      <trkpt lat="44.90836" lon="-0.11862">
        <ele>30.9</ele>
      </trkpt>
      <trkpt lat="44.90816" lon="-0.11872">
        <ele>32.9</ele>
      </trkpt>
      <trkpt lat="44.90769" lon="-0.11896">
        <ele>36.6</ele>
      </trkpt>
      <trkpt lat="44.90725" lon="-0.11921">
        <ele>40</ele>
      </trkpt>
      <trkpt lat="44.90716" lon="-0.11925">
        <ele>40.7</ele>
      </trkpt>
      <trkpt lat="44.90705" lon="-0.11927">
        <ele>41.4</ele>
      </trkpt>
      <trkpt lat="44.90695" lon="-0.11929">
        <ele>42</ele>
      </trkpt>
      <trkpt lat="44.90678" lon="-0.1193">
        <ele>42.6</ele>
      </trkpt>
      <trkpt lat="44.90632" lon="-0.11932">
        <ele>45.2</ele>
      </trkpt>
      <trkpt lat="44.90581" lon="-0.11933">
        <ele>47.1</ele>
      </trkpt>
      <trkpt lat="44.90559" lon="-0.11934">
        <ele>47.9</ele>
      </trkpt>
      <trkpt lat="44.90547" lon="-0.11935">
        <ele>48.3</ele>
      </trkpt>
      <trkpt lat="44.90513" lon="-0.11937">
        <ele>49.1</ele>
      </trkpt>
      <trkpt lat="44.90489" lon="-0.11939">
        <ele>49.5</ele>
      </trkpt>
      <trkpt lat="44.90471" lon="-0.11941">
        <ele>50</ele>
      </trkpt>
      <trkpt lat="44.90467" lon="-0.11943">
        <ele>50.2</ele>
      </trkpt>
      <trkpt lat="44.90466" lon="-0.11934">
        <ele>50.1</ele>
      </trkpt>
      <trkpt lat="44.90465" lon="-0.11926">
        <ele>50.1</ele>
      </trkpt>
      <trkpt lat="44.90462" lon="-0.11915">
        <ele>50</ele>
      </trkpt>
      <trkpt lat="44.90456" lon="-0.11896">
        <ele>49.7</ele>
      </trkpt>
      <trkpt lat="44.90447" lon="-0.11873">
        <ele>49.3</ele>
      </trkpt>
      <trkpt lat="44.90436" lon="-0.11846">
        <ele>49.3</ele>
      </trkpt>
      <trkpt lat="44.90422" lon="-0.11809">
        <ele>49.8</ele>
      </trkpt>
      <trkpt lat="44.90418" lon="-0.11802">
        <ele>49.8</ele>
      </trkpt>
      <trkpt lat="44.90412" lon="-0.11791">
        <ele>49.6</ele>
      </trkpt>
      <trkpt lat="44.90387" lon="-0.11746">
        <ele>49.9</ele>
      </trkpt>
      <trkpt lat="44.90353" lon="-0.11687">
        <ele>50.2</ele>
      </trkpt>
      <trkpt lat="44.90337" lon="-0.11658">
        <ele>49.7</ele>
      </trkpt>
      <trkpt lat="44.90336" lon="-0.11656">
        <ele>49.6</ele>
      </trkpt>
      <trkpt lat="44.90331" lon="-0.11645">
        <ele>49.4</ele>
      </trkpt>
      <trkpt lat="44.90328" lon="-0.11648">
        <ele>49.8</ele>
      </trkpt>
      <trkpt lat="44.9032" lon="-0.11658">
        <ele>50.5</ele>
      </trkpt>
      <trkpt lat="44.90307" lon="-0.11671">
        <ele>51.1</ele>
      </trkpt>
      <trkpt lat="44.90286" lon="-0.11689">
        <ele>51.9</ele>
      </trkpt>
      <trkpt lat="44.90249" lon="-0.1172">
        <ele>53</ele>
      </trkpt>
      <trkpt lat="44.90225" lon="-0.11737">
        <ele>54</ele>
      </trkpt>
      <trkpt lat="44.902" lon="-0.11752">
        <ele>54.8</ele>
      </trkpt>
      <trkpt lat="44.90194" lon="-0.11755">
        <ele>55</ele>
      </trkpt>
      <trkpt lat="44.9017" lon="-0.11766">
        <ele>55.5</ele>
      </trkpt>
      <trkpt lat="44.90165" lon="-0.11769">
        <ele>55.7</ele>
      </trkpt>
      <trkpt lat="44.90141" lon="-0.11779">
        <ele>56</ele>
      </trkpt>
      <trkpt lat="44.90107" lon="-0.11798">
        <ele>57.8</ele>
      </trkpt>
      <trkpt lat="44.90086" lon="-0.11809">
        <ele>58.2</ele>
      </trkpt>
      <trkpt lat="44.90072" lon="-0.1182">
        <ele>59.4</ele>
      </trkpt>
      <trkpt lat="44.90062" lon="-0.1183">
        <ele>59.9</ele>
      </trkpt>
      <trkpt lat="44.90058" lon="-0.11834">
        <ele>60</ele>
      </trkpt>
      <trkpt lat="44.90042" lon="-0.11853">
        <ele>61.6</ele>
      </trkpt>
      <trkpt lat="44.90025" lon="-0.11885">
        <ele>63</ele>
      </trkpt>
      <trkpt lat="44.90004" lon="-0.11931">
        <ele>65.4</ele>
      </trkpt>
      <trkpt lat="44.89983" lon="-0.11984">
        <ele>68.6</ele>
      </trkpt>
      <trkpt lat="44.89972" lon="-0.12004">
        <ele>69.1</ele>
      </trkpt>
      <trkpt lat="44.8997" lon="-0.12007">
        <ele>69.3</ele>
      </trkpt>
      <trkpt lat="44.89963" lon="-0.12018">
        <ele>69.6</ele>
      </trkpt>
      <trkpt lat="44.89949" lon="-0.12032">
        <ele>70.2</ele>
      </trkpt>
      <trkpt lat="44.89933" lon="-0.12045">
        <ele>70.2</ele>
      </trkpt>
      <trkpt lat="44.89908" lon="-0.12056">
        <ele>69.7</ele>
      </trkpt>
      <trkpt lat="44.89891" lon="-0.12064">
        <ele>69.7</ele>
      </trkpt>
      <trkpt lat="44.89863" lon="-0.12075">
        <ele>70.1</ele>
      </trkpt>
      <trkpt lat="44.89829" lon="-0.1209">
        <ele>71.9</ele>
      </trkpt>
      <trkpt lat="44.89789" lon="-0.12108">
        <ele>75.3</ele>
      </trkpt>
      <trkpt lat="44.8978" lon="-0.12111">
        <ele>75.9</ele>
      </trkpt>
      <trkpt lat="44.89755" lon="-0.12121">
        <ele>78.1</ele>
      </trkpt>
      <trkpt lat="44.89717" lon="-0.12138">
        <ele>80.2</ele>
      </trkpt>
      <trkpt lat="44.89692" lon="-0.12149">
        <ele>81.4</ele>
      </trkpt>
      <trkpt lat="44.89678" lon="-0.12155">
        <ele>81.8</ele>
      </trkpt>
      <trkpt lat="44.89617" lon="-0.12179">
        <ele>83</ele>
      </trkpt>
      <trkpt lat="44.89617" lon="-0.1219">
        <ele>84</ele>
        <time>2020-06-26T09:09:38Z</time>
      </trkpt>
      <trkpt lat="44.89614" lon="-0.12127">
        <ele>82</ele>
        <time>2020-06-26T09:10:37Z</time>
      </trkpt>
      <trkpt lat="44.89605" lon="-0.12065">
        <ele>80</ele>
        <time>2020-06-26T09:11:37Z</time>
      </trkpt>
      <trkpt lat="44.89585" lon="-0.12008">
        <ele>80</ele>
        <time>2020-06-26T09:12:37Z</time>
      </trkpt>
      <trkpt lat="44.89579" lon="-0.11943">
        <ele>78</ele>
        <time>2020-06-26T09:13:39Z</time>
      </trkpt>
      <trkpt lat="44.89576" lon="-0.11879">
        <ele>77</ele>
        <time>2020-06-26T09:14:40Z</time>
      </trkpt>
      <trkpt lat="44.89581" lon="-0.11816">
        <ele>77</ele>
        <time>2020-06-26T09:15:40Z</time>
      </trkpt>
      <trkpt lat="44.89588" lon="-0.11751">
        <ele>76</ele>
        <time>2020-06-26T09:16:42Z</time>
      </trkpt>
      <trkpt lat="44.89583" lon="-0.11688">
        <ele>74</ele>
        <time>2020-06-26T09:17:42Z</time>
      </trkpt>
      <trkpt lat="44.89571" lon="-0.11627">
        <ele>73</ele>
        <time>2020-06-26T09:18:42Z</time>
      </trkpt>
      <trkpt lat="44.89556" lon="-0.11567">
        <ele>73</ele>
        <time>2020-06-26T09:19:42Z</time>
      </trkpt>
      <trkpt lat="44.89541" lon="-0.1153">
        <ele>74</ele>
        <time>2020-06-26T09:20:22Z</time>
      </trkpt>
      <trkpt lat="44.89544" lon="-0.11461">
        <ele>72.2</ele>
      </trkpt>
      <trkpt lat="44.8956" lon="-0.11387">
        <ele>73.1</ele>
      </trkpt>
      <trkpt lat="44.89588" lon="-0.11298">
        <ele>71.6</ele>
      </trkpt>
      <trkpt lat="44.89599" lon="-0.11247">
        <ele>69.8</ele>
      </trkpt>
      <trkpt lat="44.89595" lon="-0.11166">
        <ele>66.6</ele>
      </trkpt>
      <trkpt lat="44.89586" lon="-0.11118">
        <ele>68.5</ele>
      </trkpt>
      <trkpt lat="44.89581" lon="-0.11079">
        <ele>69.2</ele>
      </trkpt>
      <trkpt lat="44.89583" lon="-0.11053">
        <ele>70.2</ele>
      </trkpt>
      <trkpt lat="44.89563" lon="-0.11045">
        <ele>70.5</ele>
      </trkpt>
      <trkpt lat="44.89478" lon="-0.1108">
        <ele>72.9</ele>
      </trkpt>
      <trkpt lat="44.89386" lon="-0.11118">
        <ele>78.4</ele>
      </trkpt>
      <trkpt lat="44.89384" lon="-0.11127">
        <ele>73</ele>
        <time>2020-10-29T09:28:50Z</time>
      </trkpt>
      <trkpt lat="44.89378" lon="-0.11115">
        <ele>69</ele>
        <time>2020-10-29T09:28:59Z</time>
      </trkpt>
      <trkpt lat="44.89378" lon="-0.11113">
        <ele>75</ele>
        <time>2020-10-29T09:29:00Z</time>
      </trkpt>
      <trkpt lat="44.89377" lon="-0.11112">
        <ele>75</ele>
        <time>2020-10-29T09:29:01Z</time>
      </trkpt>
      <trkpt lat="44.89377" lon="-0.11109">
        <ele>73</ele>
        <time>2020-10-29T09:29:03Z</time>
      </trkpt>
      <trkpt lat="44.8937" lon="-0.1108">
        <ele>73</ele>
        <time>2020-10-29T09:29:23Z</time>
      </trkpt>
      <trkpt lat="44.89366" lon="-0.11058">
        <ele>74</ele>
        <time>2020-10-29T09:29:41Z</time>
      </trkpt>
      <trkpt lat="44.89361" lon="-0.1104">
        <ele>75</ele>
        <time>2020-10-29T09:29:56Z</time>
      </trkpt>
      <trkpt lat="44.89357" lon="-0.11026">
        <ele>75</ele>
        <time>2020-10-29T09:30:08Z</time>
      </trkpt>
      <trkpt lat="44.89352" lon="-0.11003">
        <ele>77</ele>
        <time>2020-10-29T09:30:25Z</time>
      </trkpt>
      <trkpt lat="44.89348" lon="-0.10982">
        <ele>77</ele>
        <time>2020-10-29T09:30:40Z</time>
      </trkpt>
      <trkpt lat="44.89343" lon="-0.10963">
        <ele>78</ele>
        <time>2020-10-29T09:30:55Z</time>
      </trkpt>
      <trkpt lat="44.89343" lon="-0.10962">
        <ele>78</ele>
        <time>2020-10-29T09:30:56Z</time>
      </trkpt>
      <trkpt lat="44.8934" lon="-0.10953">
        <ele>78</ele>
        <time>2020-10-29T09:31:04Z</time>
      </trkpt>
      <trkpt lat="44.89336" lon="-0.10933">
        <ele>78</ele>
        <time>2020-10-29T09:31:21Z</time>
      </trkpt>
      <trkpt lat="44.89332" lon="-0.10919">
        <ele>78</ele>
        <time>2020-10-29T09:31:36Z</time>
      </trkpt>
      <trkpt lat="44.89331" lon="-0.10913">
        <ele>78</ele>
        <time>2020-10-29T09:31:54Z</time>
      </trkpt>
      <trkpt lat="44.89314" lon="-0.10929">
        <ele>84</ele>
      </trkpt>
      <trkpt lat="44.89299" lon="-0.10942">
        <ele>84</ele>
      </trkpt>
      <trkpt lat="44.89283" lon="-0.10956">
        <ele>83.9</ele>
      </trkpt>
      <trkpt lat="44.8927" lon="-0.10922">
        <ele>84.9</ele>
      </trkpt>
      <trkpt lat="44.89262" lon="-0.10882">
        <ele>85</ele>
      </trkpt>
      <trkpt lat="44.89244" lon="-0.10813">
        <ele>85.1</ele>
      </trkpt>
      <trkpt lat="44.89231" lon="-0.10772">
        <ele>83.4</ele>
      </trkpt>
      <trkpt lat="44.89228" lon="-0.10742">
        <ele>82.2</ele>
      </trkpt>
      <trkpt lat="44.89235" lon="-0.10704">
        <ele>80.3</ele>
      </trkpt>
      <trkpt lat="44.89246" lon="-0.1066">
        <ele>79.5</ele>
      </trkpt>
      <trkpt lat="44.89252" lon="-0.10637">
        <ele>78.6</ele>
      </trkpt>
      <trkpt lat="44.89256" lon="-0.10593">
        <ele>78.6</ele>
      </trkpt>
      <trkpt lat="44.89271" lon="-0.10549">
        <ele>78.3</ele>
      </trkpt>
      <trkpt lat="44.89276" lon="-0.10518">
        <ele>78.6</ele>
      </trkpt>
      <trkpt lat="44.8928" lon="-0.10471">
        <ele>79.4</ele>
      </trkpt>
      <trkpt lat="44.89271" lon="-0.10434">
        <ele>79.3</ele>
      </trkpt>
      <trkpt lat="44.8927" lon="-0.10405">
        <ele>78.8</ele>
      </trkpt>
      <trkpt lat="44.89274" lon="-0.10364">
        <ele>79.1</ele>
      </trkpt>
      <trkpt lat="44.89289" lon="-0.10332">
        <ele>77</ele>
      </trkpt>
      <trkpt lat="44.89298" lon="-0.10303">
        <ele>75</ele>
      </trkpt>
      <trkpt lat="44.89295" lon="-0.1029">
        <ele>74.6</ele>
      </trkpt>
      <trkpt lat="44.89304" lon="-0.10277">
        <ele>73.1</ele>
      </trkpt>
      <trkpt lat="44.89312" lon="-0.10236">
        <ele>71.4</ele>
      </trkpt>
      <trkpt lat="44.89324" lon="-0.10188">
        <ele>69.7</ele>
      </trkpt>
      <trkpt lat="44.89326" lon="-0.10165">
        <ele>69.5</ele>
      </trkpt>
      <trkpt lat="44.89373" lon="-0.10136">
        <ele>66.2</ele>
      </trkpt>
      <trkpt lat="44.89402" lon="-0.10095">
        <ele>63.5</ele>
      </trkpt>
      <trkpt lat="44.89422" lon="-0.10082">
        <ele>61.6</ele>
      </trkpt>
      <trkpt lat="44.89431" lon="-0.10082">
        <ele>56</ele>
        <time>2020-10-29T09:55:59Z</time>
      </trkpt>
      <trkpt lat="44.89428" lon="-0.10075">
        <ele>59</ele>
        <time>2020-10-29T09:56:10Z</time>
      </trkpt>
      <trkpt lat="44.89428" lon="-0.10074">
        <ele>56</ele>
        <time>2020-10-29T09:56:12Z</time>
      </trkpt>
      <trkpt lat="44.89433" lon="-0.10073">
        <ele>56</ele>
        <time>2020-10-29T09:56:32Z</time>
      </trkpt>
      <trkpt lat="44.89435" lon="-0.1007">
        <ele>56</ele>
        <time>2020-10-29T09:56:36Z</time>
      </trkpt>
      <trkpt lat="44.89449" lon="-0.1006">
        <ele>55</ele>
        <time>2020-10-29T09:56:52Z</time>
      </trkpt>
      <trkpt lat="44.89464" lon="-0.10052">
        <ele>54</ele>
        <time>2020-10-29T09:57:09Z</time>
      </trkpt>
      <trkpt lat="44.89484" lon="-0.10039">
        <ele>53</ele>
        <time>2020-10-29T09:57:28Z</time>
      </trkpt>
      <trkpt lat="44.89504" lon="-0.10027">
        <ele>53</ele>
        <time>2020-10-29T09:57:46Z</time>
      </trkpt>
      <trkpt lat="44.89511" lon="-0.10023">
        <ele>49</ele>
        <time>2020-10-29T09:57:52Z</time>
      </trkpt>
      <trkpt lat="44.89513" lon="-0.10023">
        <ele>55</ele>
        <time>2020-10-29T09:57:53Z</time>
      </trkpt>
      <trkpt lat="44.89515" lon="-0.10021">
        <ele>52</ele>
        <time>2020-10-29T09:57:55Z</time>
      </trkpt>
      <trkpt lat="44.89517" lon="-0.10021">
        <ele>52</ele>
        <time>2020-10-29T09:57:56Z</time>
      </trkpt>
      <trkpt lat="44.89523" lon="-0.10019">
        <ele>52</ele>
        <time>2020-10-29T09:58:01Z</time>
      </trkpt>
      <trkpt lat="44.89527" lon="-0.10016">
        <ele>51</ele>
        <time>2020-10-29T09:58:05Z</time>
      </trkpt>
      <trkpt lat="44.89531" lon="-0.10014">
        <ele>54</ele>
        <time>2020-10-29T09:58:09Z</time>
      </trkpt>
      <trkpt lat="44.89533" lon="-0.10014">
        <ele>52</ele>
        <time>2020-10-29T09:58:11Z</time>
      </trkpt>
      <trkpt lat="44.89556" lon="-0.10009">
        <ele>51</ele>
        <time>2020-10-29T09:58:30Z</time>
      </trkpt>
      <trkpt lat="44.89583" lon="-0.10004">
        <ele>50</ele>
        <time>2020-10-29T09:58:52Z</time>
      </trkpt>
      <trkpt lat="44.8961" lon="-0.09998">
        <ele>49</ele>
        <time>2020-10-29T09:59:14Z</time>
      </trkpt>
      <trkpt lat="44.89633" lon="-0.09993">
        <ele>49</ele>
        <time>2020-10-29T09:59:32Z</time>
      </trkpt>
      <trkpt lat="44.8966" lon="-0.09986">
        <ele>48</ele>
        <time>2020-10-29T09:59:55Z</time>
      </trkpt>
      <trkpt lat="44.89687" lon="-0.09981">
        <ele>47</ele>
        <time>2020-10-29T10:00:15Z</time>
      </trkpt>
      <trkpt lat="44.89716" lon="-0.09974">
        <ele>46</ele>
        <time>2020-10-29T10:00:37Z</time>
      </trkpt>
      <trkpt lat="44.89734" lon="-0.0997">
        <ele>45</ele>
        <time>2020-10-29T10:00:54Z</time>
      </trkpt>
      <trkpt lat="44.8976" lon="-0.09965">
        <ele>45</ele>
        <time>2020-10-29T10:01:15Z</time>
      </trkpt>
      <trkpt lat="44.89791" lon="-0.09957">
        <ele>43</ele>
        <time>2020-10-29T10:01:40Z</time>
      </trkpt>
      <trkpt lat="44.89817" lon="-0.0995">
        <ele>43</ele>
        <time>2020-10-29T10:02:01Z</time>
      </trkpt>
      <trkpt lat="44.89844" lon="-0.09945">
        <ele>42</ele>
        <time>2020-10-29T10:02:23Z</time>
      </trkpt>
      <trkpt lat="44.89873" lon="-0.09939">
        <ele>42</ele>
        <time>2020-10-29T10:02:45Z</time>
      </trkpt>
      <trkpt lat="44.89903" lon="-0.09931">
        <ele>41</ele>
        <time>2020-10-29T10:03:09Z</time>
      </trkpt>
      <trkpt lat="44.89929" lon="-0.09924">
        <ele>41</ele>
        <time>2020-10-29T10:03:29Z</time>
      </trkpt>
      <trkpt lat="44.89957" lon="-0.09916">
        <ele>40</ele>
        <time>2020-10-29T10:03:51Z</time>
      </trkpt>
      <trkpt lat="44.89987" lon="-0.09906">
        <ele>38</ele>
        <time>2020-10-29T10:04:15Z</time>
      </trkpt>
      <trkpt lat="44.90011" lon="-0.09898">
        <ele>37</ele>
        <time>2020-10-29T10:04:35Z</time>
      </trkpt>
      <trkpt lat="44.90034" lon="-0.0989">
        <ele>36</ele>
        <time>2020-10-29T10:04:53Z</time>
      </trkpt>
      <trkpt lat="44.90059" lon="-0.09878">
        <ele>33</ele>
        <time>2020-10-29T10:05:13Z</time>
      </trkpt>
      <trkpt lat="44.90078" lon="-0.09865">
        <ele>31</ele>
        <time>2020-10-29T10:05:31Z</time>
      </trkpt>
      <trkpt lat="44.90097" lon="-0.09852">
        <ele>29</ele>
        <time>2020-10-29T10:05:49Z</time>
      </trkpt>
      <trkpt lat="44.90101" lon="-0.09851">
        <ele>29</ele>
        <time>2020-10-29T10:05:53Z</time>
      </trkpt>
      <trkpt lat="44.90104" lon="-0.09852">
        <ele>25</ele>
        <time>2020-10-29T10:05:56Z</time>
      </trkpt>
      <trkpt lat="44.90106" lon="-0.09852">
        <ele>31</ele>
        <time>2020-10-29T10:05:57Z</time>
      </trkpt>
      <trkpt lat="44.90109" lon="-0.09854">
        <ele>29</ele>
        <time>2020-10-29T10:06:00Z</time>
      </trkpt>
      <trkpt lat="44.90115" lon="-0.0986">
        <ele>29</ele>
        <time>2020-10-29T10:06:05Z</time>
      </trkpt>
      <trkpt lat="44.90139" lon="-0.09877">
        <ele>28</ele>
        <time>2020-10-29T10:06:29Z</time>
      </trkpt>
      <trkpt lat="44.90143" lon="-0.09876">
        <ele>27</ele>
        <time>2020-10-29T10:06:46Z</time>
      </trkpt>
      <trkpt lat="44.90145" lon="-0.09882">
        <ele>27</ele>
        <time>2020-10-29T10:07:02Z</time>
      </trkpt>
      <trkpt lat="44.90163" lon="-0.09898">
        <ele>27</ele>
        <time>2020-10-29T10:07:23Z</time>
      </trkpt>
      <trkpt lat="44.90174" lon="-0.09905">
        <ele>27</ele>
        <time>2020-10-29T10:07:40Z</time>
      </trkpt>
      <trkpt lat="44.90175" lon="-0.09907">
        <ele>26</ele>
        <time>2020-10-29T10:07:47Z</time>
      </trkpt>
      <trkpt lat="44.90178" lon="-0.09911">
        <ele>26</ele>
        <time>2020-10-29T10:07:51Z</time>
      </trkpt>
      <trkpt lat="44.90199" lon="-0.09927">
        <ele>26</ele>
        <time>2020-10-29T10:08:12Z</time>
      </trkpt>
      <trkpt lat="44.90203" lon="-0.09929">
        <ele>28</ele>
        <time>2020-10-29T10:08:16Z</time>
      </trkpt>
      <trkpt lat="44.90209" lon="-0.09922">
        <ele>24</ele>
        <time>2020-10-29T10:08:28Z</time>
      </trkpt>
      <trkpt lat="44.9021" lon="-0.09922">
        <ele>30</ele>
        <time>2020-10-29T10:08:29Z</time>
      </trkpt>
      <trkpt lat="44.90211" lon="-0.09923">
        <ele>26</ele>
        <time>2020-10-29T10:08:32Z</time>
      </trkpt>
      <trkpt lat="44.9021" lon="-0.0992">
        <ele>26</ele>
        <time>2020-10-29T10:08:52Z</time>
      </trkpt>
      <trkpt lat="44.9021" lon="-0.09913">
        <ele>26</ele>
        <time>2020-10-29T10:08:57Z</time>
      </trkpt>
      <trkpt lat="44.90212" lon="-0.09887">
        <ele>23</ele>
        <time>2020-10-29T10:09:11Z</time>
      </trkpt>
      <trkpt lat="44.90212" lon="-0.09885">
        <ele>29</ele>
        <time>2020-10-29T10:09:12Z</time>
      </trkpt>
      <trkpt lat="44.90213" lon="-0.09869">
        <ele>26</ele>
        <time>2020-10-29T10:09:24Z</time>
      </trkpt>
      <trkpt lat="44.90214" lon="-0.09866">
        <ele>26</ele>
        <time>2020-10-29T10:09:27Z</time>
      </trkpt>
      <trkpt lat="44.90214" lon="-0.09835">
        <ele>25</ele>
        <time>2020-10-29T10:09:43Z</time>
      </trkpt>
      <trkpt lat="44.90217" lon="-0.09801">
        <ele>25</ele>
        <time>2020-10-29T10:10:02Z</time>
      </trkpt>
      <trkpt lat="44.9022" lon="-0.09773">
        <ele>25</ele>
        <time>2020-10-29T10:10:18Z</time>
      </trkpt>
      <trkpt lat="44.90227" lon="-0.09741">
        <ele>27</ele>
        <time>2020-10-29T10:10:33Z</time>
      </trkpt>
      <trkpt lat="44.90228" lon="-0.09735">
        <ele>27</ele>
        <time>2020-10-29T10:10:45Z</time>
      </trkpt>
      <trkpt lat="44.90232" lon="-0.09729">
        <ele>27</ele>
        <time>2020-10-29T10:10:53Z</time>
      </trkpt>
      <trkpt lat="44.90236" lon="-0.09728">
        <ele>27</ele>
        <time>2020-10-29T10:11:10Z</time>
      </trkpt>
      <trkpt lat="44.90237" lon="-0.09727">
        <ele>23</ele>
        <time>2020-10-29T10:11:33Z</time>
      </trkpt>
      <trkpt lat="44.90237" lon="-0.09728">
        <ele>29</ele>
        <time>2020-10-29T10:11:34Z</time>
      </trkpt>
      <trkpt lat="44.90237" lon="-0.09729">
        <ele>29</ele>
        <time>2020-10-29T10:11:35Z</time>
      </trkpt>
      <trkpt lat="44.90238" lon="-0.09731">
        <ele>27</ele>
        <time>2020-10-29T10:11:37Z</time>
      </trkpt>
      <trkpt lat="44.90239" lon="-0.09727">
        <ele>27</ele>
        <time>2020-10-29T10:12:01Z</time>
      </trkpt>
      <trkpt lat="44.90239" lon="-0.09721">
        <ele>27</ele>
        <time>2020-10-29T10:12:16Z</time>
      </trkpt>
      <trkpt lat="44.90247" lon="-0.09714">
        <ele>27</ele>
        <time>2020-10-29T10:12:31Z</time>
      </trkpt>
      <trkpt lat="44.90249" lon="-0.09712">
        <ele>30</ele>
        <time>2020-10-29T10:12:34Z</time>
      </trkpt>
      <trkpt lat="44.90252" lon="-0.09711">
        <ele>28</ele>
        <time>2020-10-29T10:12:37Z</time>
      </trkpt>
      <trkpt lat="44.90256" lon="-0.09707">
        <ele>25</ele>
        <time>2020-10-29T10:12:42Z</time>
      </trkpt>
      <trkpt lat="44.90257" lon="-0.09706">
        <ele>26</ele>
        <time>2020-10-29T10:12:44Z</time>
      </trkpt>
      <trkpt lat="44.90258" lon="-0.09705">
        <ele>30</ele>
        <time>2020-10-29T10:12:45Z</time>
      </trkpt>
      <trkpt lat="44.90259" lon="-0.09705">
        <ele>28</ele>
        <time>2020-10-29T10:12:48Z</time>
      </trkpt>
      <trkpt lat="44.90263" lon="-0.09703">
        <ele>28</ele>
        <time>2020-10-29T10:13:04Z</time>
      </trkpt>
      <trkpt lat="44.90276" lon="-0.09694">
        <ele>28</ele>
        <time>2020-10-29T10:13:20Z</time>
      </trkpt>
      <trkpt lat="44.90291" lon="-0.09686">
        <ele>28</ele>
        <time>2020-10-29T10:13:35Z</time>
      </trkpt>
      <trkpt lat="44.90309" lon="-0.09677">
        <ele>29</ele>
        <time>2020-10-29T10:13:52Z</time>
      </trkpt>
      <trkpt lat="44.90323" lon="-0.09668">
        <ele>29</ele>
        <time>2020-10-29T10:14:09Z</time>
      </trkpt>
      <trkpt lat="44.90341" lon="-0.09659">
        <ele>31</ele>
        <time>2020-10-29T10:14:29Z</time>
      </trkpt>
      <trkpt lat="44.90343" lon="-0.09658">
        <ele>32</ele>
        <time>2020-10-29T10:14:32Z</time>
      </trkpt>
      <trkpt lat="44.90345" lon="-0.09658">
        <ele>34</ele>
        <time>2020-10-29T10:14:34Z</time>
      </trkpt>
      <trkpt lat="44.90346" lon="-0.09657">
        <ele>34</ele>
        <time>2020-10-29T10:14:35Z</time>
      </trkpt>
      <trkpt lat="44.90347" lon="-0.09656">
        <ele>32</ele>
        <time>2020-10-29T10:14:37Z</time>
      </trkpt>
      <trkpt lat="44.9035" lon="-0.09641">
        <ele>32</ele>
        <time>2020-10-29T10:39:34Z</time>
      </trkpt>
      <trkpt lat="44.90347" lon="-0.09636">
        <ele>32</ele>
        <time>2020-10-29T10:39:38Z</time>
      </trkpt>
      <trkpt lat="44.90343" lon="-0.09624">
        <ele>32</ele>
        <time>2020-10-29T10:39:43Z</time>
      </trkpt>
      <trkpt lat="44.90338" lon="-0.09594">
        <ele>31</ele>
        <time>2020-10-29T10:39:57Z</time>
      </trkpt>
      <trkpt lat="44.90336" lon="-0.09591">
        <ele>31</ele>
        <time>2020-10-29T10:40:01Z</time>
      </trkpt>
      <trkpt lat="44.90328" lon="-0.09568">
        <ele>30</ele>
        <time>2020-10-29T10:40:16Z</time>
      </trkpt>
      <trkpt lat="44.90324" lon="-0.09548">
        <ele>30</ele>
        <time>2020-10-29T10:40:24Z</time>
      </trkpt>
      <trkpt lat="44.90315" lon="-0.09534">
        <ele>29</ele>
        <time>2020-10-29T10:40:40Z</time>
      </trkpt>
      <trkpt lat="44.90306" lon="-0.09531">
        <ele>29</ele>
        <time>2020-10-29T10:40:48Z</time>
      </trkpt>
      <trkpt lat="44.90276" lon="-0.09533">
        <ele>29</ele>
        <time>2020-10-29T10:41:05Z</time>
      </trkpt>
      <trkpt lat="44.90265" lon="-0.09533">
        <ele>29</ele>
        <time>2020-10-29T10:41:18Z</time>
      </trkpt>
      <trkpt lat="44.9026" lon="-0.09534">
        <ele>29</ele>
        <time>2020-10-29T10:41:31Z</time>
      </trkpt>
      <trkpt lat="44.9026" lon="-0.09533">
        <ele>29</ele>
        <time>2020-10-29T10:41:33Z</time>
      </trkpt>
      <trkpt lat="44.90239" lon="-0.09533">
        <ele>29</ele>
        <time>2020-10-29T10:41:46Z</time>
      </trkpt>
      <trkpt lat="44.90225" lon="-0.09536">
        <ele>29</ele>
        <time>2020-10-29T10:42:01Z</time>
      </trkpt>
      <trkpt lat="44.90211" lon="-0.09536">
        <ele>29</ele>
        <time>2020-10-29T10:42:11Z</time>
      </trkpt>
      <trkpt lat="44.90195" lon="-0.09537">
        <ele>29</ele>
        <time>2020-10-29T10:42:26Z</time>
      </trkpt>
      <trkpt lat="44.90172" lon="-0.09541">
        <ele>29</ele>
        <time>2020-10-29T10:42:42Z</time>
      </trkpt>
      <trkpt lat="44.90153" lon="-0.09539">
        <ele>29</ele>
        <time>2020-10-29T10:42:58Z</time>
      </trkpt>
      <trkpt lat="44.90147" lon="-0.09541">
        <ele>29</ele>
        <time>2020-10-29T10:43:05Z</time>
      </trkpt>
      <trkpt lat="44.90141" lon="-0.09543">
        <ele>29</ele>
        <time>2020-10-29T10:43:09Z</time>
      </trkpt>
      <trkpt lat="44.90116" lon="-0.09543">
        <ele>29</ele>
        <time>2020-10-29T10:43:25Z</time>
      </trkpt>
      <trkpt lat="44.90114" lon="-0.09543">
        <ele>28</ele>
        <time>2020-10-29T10:43:27Z</time>
      </trkpt>
      <trkpt lat="44.90097" lon="-0.09547">
        <ele>29</ele>
        <time>2020-10-29T10:43:41Z</time>
      </trkpt>
      <trkpt lat="44.90075" lon="-0.09547">
        <ele>29</ele>
        <time>2020-10-29T10:44:00Z</time>
      </trkpt>
      <trkpt lat="44.90068" lon="-0.09547">
        <ele>24</ele>
        <time>2020-10-29T10:44:05Z</time>
      </trkpt>
      <trkpt lat="44.90067" lon="-0.09548">
        <ele>26</ele>
        <time>2020-10-29T10:44:06Z</time>
      </trkpt>
      <trkpt lat="44.90066" lon="-0.09548">
        <ele>31</ele>
        <time>2020-10-29T10:44:07Z</time>
      </trkpt>
      <trkpt lat="44.90065" lon="-0.09548">
        <ele>26</ele>
        <time>2020-10-29T10:44:08Z</time>
      </trkpt>
      <trkpt lat="44.90062" lon="-0.09546">
        <ele>30</ele>
        <time>2020-10-29T10:44:11Z</time>
      </trkpt>
      <trkpt lat="44.90043" lon="-0.09545">
        <ele>28</ele>
        <time>2020-10-29T10:44:25Z</time>
      </trkpt>
      <trkpt lat="44.90025" lon="-0.09537">
        <ele>28</ele>
        <time>2020-10-29T10:44:41Z</time>
      </trkpt>
      <trkpt lat="44.90013" lon="-0.09532">
        <ele>28</ele>
        <time>2020-10-29T10:44:57Z</time>
      </trkpt>
      <trkpt lat="44.90009" lon="-0.0953">
        <ele>28</ele>
        <time>2020-10-29T10:45:18Z</time>
      </trkpt>
      <trkpt lat="44.90001" lon="-0.09529">
        <ele>28</ele>
        <time>2020-10-29T10:45:26Z</time>
      </trkpt>
      <trkpt lat="44.89976" lon="-0.09522">
        <ele>29</ele>
        <time>2020-10-29T10:45:48Z</time>
      </trkpt>
      <trkpt lat="44.8996" lon="-0.09513">
        <ele>30</ele>
        <time>2020-10-29T10:46:01Z</time>
      </trkpt>
      <trkpt lat="44.89949" lon="-0.09511">
        <ele>30</ele>
        <time>2020-10-29T10:46:14Z</time>
      </trkpt>
      <trkpt lat="44.89938" lon="-0.09507">
        <ele>31</ele>
        <time>2020-10-29T10:46:25Z</time>
      </trkpt>
      <trkpt lat="44.89935" lon="-0.09505">
        <ele>32</ele>
        <time>2020-10-29T10:46:29Z</time>
      </trkpt>
      <trkpt lat="44.89918" lon="-0.095">
        <ele>32</ele>
        <time>2020-10-29T10:46:42Z</time>
      </trkpt>
      <trkpt lat="44.89908" lon="-0.09495">
        <ele>32</ele>
        <time>2020-10-29T10:46:52Z</time>
      </trkpt>
      <trkpt lat="44.89906" lon="-0.09494">
        <ele>32</ele>
        <time>2020-10-29T10:46:53Z</time>
      </trkpt>
      <trkpt lat="44.89905" lon="-0.09494">
        <ele>32</ele>
        <time>2020-10-29T10:46:54Z</time>
      </trkpt>
      <trkpt lat="44.89903" lon="-0.09494">
        <ele>33</ele>
        <time>2020-10-29T10:46:55Z</time>
      </trkpt>
      <trkpt lat="44.89902" lon="-0.09493">
        <ele>33</ele>
        <time>2020-10-29T10:46:56Z</time>
      </trkpt>
      <trkpt lat="44.89901" lon="-0.09493">
        <ele>33</ele>
        <time>2020-10-29T10:46:57Z</time>
      </trkpt>
      <trkpt lat="44.899" lon="-0.09493">
        <ele>33</ele>
        <time>2020-10-29T10:46:58Z</time>
      </trkpt>
      <trkpt lat="44.89887" lon="-0.09489">
        <ele>34</ele>
        <time>2020-10-29T10:47:13Z</time>
      </trkpt>
      <trkpt lat="44.89873" lon="-0.09483">
        <ele>35</ele>
        <time>2020-10-29T10:47:28Z</time>
      </trkpt>
      <trkpt lat="44.89854" lon="-0.09476">
        <ele>36</ele>
        <time>2020-10-29T10:47:43Z</time>
      </trkpt>
      <trkpt lat="44.89825" lon="-0.0946">
        <ele>36</ele>
        <time>2020-10-29T10:48:01Z</time>
      </trkpt>
      <trkpt lat="44.89807" lon="-0.09453">
        <ele>37</ele>
        <time>2020-10-29T10:48:13Z</time>
      </trkpt>
      <trkpt lat="44.89792" lon="-0.09443">
        <ele>38</ele>
        <time>2020-10-29T10:48:28Z</time>
      </trkpt>
      <trkpt lat="44.89782" lon="-0.09431">
        <ele>38</ele>
        <time>2020-10-29T10:48:46Z</time>
      </trkpt>
      <trkpt lat="44.89767" lon="-0.09421">
        <ele>38</ele>
        <time>2020-10-29T10:48:56Z</time>
      </trkpt>
      <trkpt lat="44.89748" lon="-0.09397">
        <ele>38</ele>
        <time>2020-10-29T10:49:11Z</time>
      </trkpt>
      <trkpt lat="44.8974" lon="-0.09385">
        <ele>39</ele>
        <time>2020-10-29T10:49:23Z</time>
      </trkpt>
      <trkpt lat="44.89728" lon="-0.09364">
        <ele>39</ele>
        <time>2020-10-29T10:49:37Z</time>
      </trkpt>
      <trkpt lat="44.8972" lon="-0.09353">
        <ele>39</ele>
        <time>2020-10-29T10:49:48Z</time>
      </trkpt>
      <trkpt lat="44.89706" lon="-0.09332">
        <ele>39</ele>
        <time>2020-10-29T10:50:02Z</time>
      </trkpt>
      <trkpt lat="44.89694" lon="-0.09312">
        <ele>40</ele>
        <time>2020-10-29T10:50:17Z</time>
      </trkpt>
      <trkpt lat="44.89688" lon="-0.09305">
        <ele>40</ele>
        <time>2020-10-29T10:50:26Z</time>
      </trkpt>
      <trkpt lat="44.89686" lon="-0.09304">
        <ele>40</ele>
        <time>2020-10-29T10:50:27Z</time>
      </trkpt>
      <trkpt lat="44.89682" lon="-0.09301">
        <ele>40</ele>
        <time>2020-10-29T10:50:30Z</time>
      </trkpt>
      <trkpt lat="44.89679" lon="-0.09298">
        <ele>40</ele>
        <time>2020-10-29T10:50:35Z</time>
      </trkpt>
      <trkpt lat="44.89678" lon="-0.09297">
        <ele>40</ele>
        <time>2020-10-29T10:50:36Z</time>
      </trkpt>
      <trkpt lat="44.89677" lon="-0.09296">
        <ele>40</ele>
        <time>2020-10-29T10:50:37Z</time>
      </trkpt>
      <trkpt lat="44.89676" lon="-0.09295">
        <ele>40</ele>
        <time>2020-10-29T10:50:38Z</time>
      </trkpt>
      <trkpt lat="44.89674" lon="-0.09294">
        <ele>40</ele>
        <time>2020-10-29T10:50:39Z</time>
      </trkpt>
      <trkpt lat="44.89653" lon="-0.09272">
        <ele>40</ele>
        <time>2020-10-29T10:50:53Z</time>
      </trkpt>
      <trkpt lat="44.89647" lon="-0.09266">
        <ele>40</ele>
        <time>2020-10-29T10:51:07Z</time>
      </trkpt>
      <trkpt lat="44.8964" lon="-0.0926">
        <ele>41</ele>
        <time>2020-10-29T10:51:17Z</time>
      </trkpt>
      <trkpt lat="44.89638" lon="-0.09259">
        <ele>41</ele>
        <time>2020-10-29T10:51:18Z</time>
      </trkpt>
      <trkpt lat="44.89618" lon="-0.09241">
        <ele>41</ele>
        <time>2020-10-29T10:51:30Z</time>
      </trkpt>
      <trkpt lat="44.896" lon="-0.09227">
        <ele>41</ele>
        <time>2020-10-29T10:51:44Z</time>
      </trkpt>
      <trkpt lat="44.89578" lon="-0.09209">
        <ele>42</ele>
        <time>2020-10-29T10:52:01Z</time>
      </trkpt>
      <trkpt lat="44.89568" lon="-0.09204">
        <ele>42</ele>
        <time>2020-10-29T10:52:15Z</time>
      </trkpt>
      <trkpt lat="44.89552" lon="-0.09195">
        <ele>43</ele>
        <time>2020-10-29T10:52:28Z</time>
      </trkpt>
      <trkpt lat="44.89529" lon="-0.09177">
        <ele>43</ele>
        <time>2020-10-29T10:52:43Z</time>
      </trkpt>
      <trkpt lat="44.89513" lon="-0.09167">
        <ele>43</ele>
        <time>2020-10-29T10:53:00Z</time>
      </trkpt>
      <trkpt lat="44.89495" lon="-0.09154">
        <ele>44</ele>
        <time>2020-10-29T10:53:15Z</time>
      </trkpt>
      <trkpt lat="44.89493" lon="-0.09152">
        <ele>44</ele>
        <time>2020-10-29T10:53:17Z</time>
      </trkpt>
      <trkpt lat="44.89492" lon="-0.09151">
        <ele>44</ele>
        <time>2020-10-29T10:53:18Z</time>
      </trkpt>
      <trkpt lat="44.8949" lon="-0.0915">
        <ele>44</ele>
        <time>2020-10-29T10:53:19Z</time>
      </trkpt>
      <trkpt lat="44.89489" lon="-0.0915">
        <ele>44</ele>
        <time>2020-10-29T10:53:20Z</time>
      </trkpt>
      <trkpt lat="44.89488" lon="-0.09149">
        <ele>44</ele>
        <time>2020-10-29T10:53:21Z</time>
      </trkpt>
      <trkpt lat="44.89486" lon="-0.09149">
        <ele>44</ele>
        <time>2020-10-29T10:53:22Z</time>
      </trkpt>
      <trkpt lat="44.89471" lon="-0.09152">
        <ele>41</ele>
        <time>2020-10-29T10:53:33Z</time>
      </trkpt>
      <trkpt lat="44.8947" lon="-0.09153">
        <ele>41</ele>
        <time>2020-10-29T10:53:34Z</time>
      </trkpt>
      <trkpt lat="44.89469" lon="-0.09154">
        <ele>48</ele>
        <time>2020-10-29T10:53:35Z</time>
      </trkpt>
      <trkpt lat="44.89468" lon="-0.09154">
        <ele>48</ele>
        <time>2020-10-29T10:53:36Z</time>
      </trkpt>
      <trkpt lat="44.89467" lon="-0.09156">
        <ele>45</ele>
        <time>2020-10-29T10:53:38Z</time>
      </trkpt>
      <trkpt lat="44.89466" lon="-0.09158">
        <ele>44</ele>
        <time>2020-10-29T10:53:39Z</time>
      </trkpt>
      <trkpt lat="44.89453" lon="-0.09183">
        <ele>44</ele>
        <time>2020-10-29T10:53:55Z</time>
      </trkpt>
      <trkpt lat="44.89444" lon="-0.09198">
        <ele>44</ele>
        <time>2020-10-29T10:54:11Z</time>
      </trkpt>
      <trkpt lat="44.89443" lon="-0.09199">
        <ele>44</ele>
        <time>2020-10-29T10:54:13Z</time>
      </trkpt>
      <trkpt lat="44.8942" lon="-0.09224">
        <ele>44</ele>
        <time>2020-10-29T10:54:35Z</time>
      </trkpt>
      <trkpt lat="44.89415" lon="-0.0923">
        <ele>45</ele>
        <time>2020-10-29T10:54:40Z</time>
      </trkpt>
      <trkpt lat="44.89391" lon="-0.0925">
        <ele>47</ele>
        <time>2020-10-29T10:55:01Z</time>
      </trkpt>
      <trkpt lat="44.89364" lon="-0.09273">
        <ele>48</ele>
        <time>2020-10-29T10:55:25Z</time>
      </trkpt>
      <trkpt lat="44.8934" lon="-0.09293">
        <ele>51</ele>
        <time>2020-10-29T10:55:47Z</time>
      </trkpt>
      <trkpt lat="44.89333" lon="-0.0931">
        <ele>52</ele>
        <time>2020-10-29T10:56:01Z</time>
      </trkpt>
      <trkpt lat="44.89338" lon="-0.09341">
        <ele>53</ele>
        <time>2020-10-29T10:56:18Z</time>
      </trkpt>
      <trkpt lat="44.89342" lon="-0.09367">
        <ele>55</ele>
        <time>2020-10-29T10:56:34Z</time>
      </trkpt>
      <trkpt lat="44.89342" lon="-0.09369">
        <ele>55</ele>
        <time>2020-10-29T10:56:35Z</time>
      </trkpt>
      <trkpt lat="44.89339" lon="-0.09375">
        <ele>55</ele>
        <time>2020-10-29T10:56:39Z</time>
      </trkpt>
      <trkpt lat="44.8933" lon="-0.09404">
        <ele>56</ele>
        <time>2020-10-29T10:56:57Z</time>
      </trkpt>
      <trkpt lat="44.89323" lon="-0.09417">
        <ele>54</ele>
        <time>2020-10-29T10:57:10Z</time>
      </trkpt>
      <trkpt lat="44.89301" lon="-0.09427">
        <ele>53</ele>
        <time>2020-10-29T10:57:23Z</time>
      </trkpt>
      <trkpt lat="44.89283" lon="-0.0944">
        <ele>53</ele>
        <time>2020-10-29T10:57:40Z</time>
      </trkpt>
      <trkpt lat="44.89259" lon="-0.0946">
        <ele>53</ele>
        <time>2020-10-29T10:57:56Z</time>
      </trkpt>
      <trkpt lat="44.89251" lon="-0.0947">
        <ele>53</ele>
        <time>2020-10-29T10:58:10Z</time>
      </trkpt>
      <trkpt lat="44.89232" lon="-0.09491">
        <ele>53</ele>
        <time>2020-10-29T10:58:25Z</time>
      </trkpt>
      <trkpt lat="44.8922" lon="-0.09504">
        <ele>53</ele>
        <time>2020-10-29T10:58:39Z</time>
      </trkpt>
      <trkpt lat="44.89199" lon="-0.09522">
        <ele>53</ele>
        <time>2020-10-29T10:58:53Z</time>
      </trkpt>
      <trkpt lat="44.89187" lon="-0.09533">
        <ele>51</ele>
        <time>2020-10-29T10:59:07Z</time>
      </trkpt>
      <trkpt lat="44.89168" lon="-0.09551">
        <ele>50</ele>
        <time>2020-10-29T10:59:24Z</time>
      </trkpt>
      <trkpt lat="44.89151" lon="-0.09562">
        <ele>48</ele>
        <time>2020-10-29T10:59:40Z</time>
      </trkpt>
      <trkpt lat="44.89133" lon="-0.09576">
        <ele>48</ele>
        <time>2020-10-29T10:59:53Z</time>
      </trkpt>
      <trkpt lat="44.89139" lon="-0.09573">
        <ele>48</ele>
        <time>2020-10-29T10:59:59Z</time>
      </trkpt>
      <trkpt lat="44.89146" lon="-0.09563">
        <ele>48</ele>
        <time>2020-10-29T11:00:09Z</time>
      </trkpt>
      <trkpt lat="44.89141" lon="-0.09543">
        <ele>50</ele>
        <time>2020-10-29T11:00:22Z</time>
      </trkpt>
      <trkpt lat="44.8914" lon="-0.09541">
        <ele>50</ele>
        <time>2020-10-29T11:00:23Z</time>
      </trkpt>
      <trkpt lat="44.89134" lon="-0.09521">
        <ele>51</ele>
        <time>2020-10-29T11:00:36Z</time>
      </trkpt>
      <trkpt lat="44.89133" lon="-0.09518">
        <ele>51</ele>
        <time>2020-10-29T11:00:40Z</time>
      </trkpt>
      <trkpt lat="44.89127" lon="-0.09499">
        <ele>52</ele>
        <time>2020-10-29T11:00:54Z</time>
      </trkpt>
      <trkpt lat="44.89126" lon="-0.09498">
        <ele>52</ele>
        <time>2020-10-29T11:00:55Z</time>
      </trkpt>
      <trkpt lat="44.89122" lon="-0.09482">
        <ele>53</ele>
        <time>2020-10-29T11:01:06Z</time>
      </trkpt>
      <trkpt lat="44.89118" lon="-0.09469">
        <ele>53</ele>
        <time>2020-10-29T11:01:17Z</time>
      </trkpt>
      <trkpt lat="44.89117" lon="-0.09465">
        <ele>54</ele>
        <time>2020-10-29T11:01:20Z</time>
      </trkpt>
      <trkpt lat="44.89114" lon="-0.09453">
        <ele>55</ele>
        <time>2020-10-29T11:01:31Z</time>
      </trkpt>
      <trkpt lat="44.89108" lon="-0.09435">
        <ele>58</ele>
        <time>2020-10-29T11:01:49Z</time>
      </trkpt>
      <trkpt lat="44.89111" lon="-0.09422">
        <ele>59</ele>
        <time>2020-10-29T11:02:03Z</time>
      </trkpt>
      <trkpt lat="44.89117" lon="-0.09404">
        <ele>62</ele>
        <time>2020-10-29T11:02:21Z</time>
      </trkpt>
      <trkpt lat="44.89116" lon="-0.09385">
        <ele>63</ele>
        <time>2020-10-29T11:02:37Z</time>
      </trkpt>
      <trkpt lat="44.89119" lon="-0.09353">
        <ele>64</ele>
        <time>2020-10-29T11:02:56Z</time>
      </trkpt>
      <trkpt lat="44.8912" lon="-0.09336">
        <ele>62</ele>
        <time>2020-10-29T11:03:11Z</time>
      </trkpt>
      <trkpt lat="44.89125" lon="-0.09303">
        <ele>62</ele>
        <time>2020-10-29T11:03:25Z</time>
      </trkpt>
      <trkpt lat="44.89124" lon="-0.09285">
        <ele>60</ele>
        <time>2020-10-29T11:03:40Z</time>
      </trkpt>
      <trkpt lat="44.89127" lon="-0.09261">
        <ele>60</ele>
        <time>2020-10-29T11:03:53Z</time>
      </trkpt>
      <trkpt lat="44.89126" lon="-0.09255">
        <ele>60</ele>
        <time>2020-10-29T11:04:05Z</time>
      </trkpt>
      <trkpt lat="44.89126" lon="-0.09229">
        <ele>59</ele>
        <time>2020-10-29T11:04:20Z</time>
      </trkpt>
      <trkpt lat="44.89126" lon="-0.09208">
        <ele>59</ele>
        <time>2020-10-29T11:04:33Z</time>
      </trkpt>
      <trkpt lat="44.89128" lon="-0.09185">
        <ele>59</ele>
        <time>2020-10-29T11:04:48Z</time>
      </trkpt>
      <trkpt lat="44.89134" lon="-0.09157">
        <ele>59</ele>
        <time>2020-10-29T11:05:03Z</time>
      </trkpt>
      <trkpt lat="44.89142" lon="-0.09134">
        <ele>59</ele>
        <time>2020-10-29T11:05:20Z</time>
      </trkpt>
      <trkpt lat="44.8916" lon="-0.09109">
        <ele>59</ele>
        <time>2020-10-29T11:05:38Z</time>
      </trkpt>
      <trkpt lat="44.89171" lon="-0.09099">
        <ele>59</ele>
        <time>2020-10-29T11:05:53Z</time>
      </trkpt>
      <trkpt lat="44.89193" lon="-0.09077">
        <ele>59</ele>
        <time>2020-10-29T11:06:12Z</time>
      </trkpt>
      <trkpt lat="44.89204" lon="-0.09054">
        <ele>60</ele>
        <time>2020-10-29T11:06:27Z</time>
      </trkpt>
      <trkpt lat="44.89207" lon="-0.0903">
        <ele>60</ele>
        <time>2020-10-29T11:06:43Z</time>
      </trkpt>
      <trkpt lat="44.89211" lon="-0.09013">
        <ele>60</ele>
        <time>2020-10-29T11:06:55Z</time>
      </trkpt>
      <trkpt lat="44.89211" lon="-0.08994">
        <ele>60</ele>
        <time>2020-10-29T11:07:09Z</time>
      </trkpt>
      <trkpt lat="44.89212" lon="-0.08989">
        <ele>60</ele>
        <time>2020-10-29T11:07:13Z</time>
      </trkpt>
      <trkpt lat="44.89212" lon="-0.0898">
        <ele>60</ele>
        <time>2020-10-29T11:07:17Z</time>
      </trkpt>
      <trkpt lat="44.89218" lon="-0.08952">
        <ele>60</ele>
        <time>2020-10-29T11:07:31Z</time>
      </trkpt>
      <trkpt lat="44.89222" lon="-0.08942">
        <ele>60</ele>
        <time>2020-10-29T11:07:37Z</time>
      </trkpt>
      <trkpt lat="44.89223" lon="-0.08943">
        <ele>58</ele>
        <time>2020-10-29T11:07:38Z</time>
      </trkpt>
      <trkpt lat="44.89227" lon="-0.08929">
        <ele>57</ele>
        <time>2020-10-29T11:07:49Z</time>
      </trkpt>
      <trkpt lat="44.89224" lon="-0.08909">
        <ele>57</ele>
        <time>2020-10-29T11:08:02Z</time>
      </trkpt>
      <trkpt lat="44.89224" lon="-0.08892">
        <ele>57</ele>
        <time>2020-10-29T11:08:17Z</time>
      </trkpt>
      <trkpt lat="44.89229" lon="-0.08867">
        <ele>57</ele>
        <time>2020-10-29T11:08:33Z</time>
      </trkpt>
      <trkpt lat="44.89235" lon="-0.08831">
        <ele>57</ele>
        <time>2020-10-29T11:08:48Z</time>
      </trkpt>
      <trkpt lat="44.89242" lon="-0.088">
        <ele>57</ele>
        <time>2020-10-29T11:09:05Z</time>
      </trkpt>
      <trkpt lat="44.89243" lon="-0.08778">
        <ele>57</ele>
        <time>2020-10-29T11:09:20Z</time>
      </trkpt>
      <trkpt lat="44.89245" lon="-0.08758">
        <ele>58</ele>
        <time>2020-10-29T11:09:34Z</time>
      </trkpt>
      <trkpt lat="44.89248" lon="-0.08732">
        <ele>58</ele>
        <time>2020-10-29T11:09:53Z</time>
      </trkpt>
      <trkpt lat="44.89254" lon="-0.08701">
        <ele>58</ele>
        <time>2020-10-29T11:10:06Z</time>
      </trkpt>
      <trkpt lat="44.89257" lon="-0.08674">
        <ele>59</ele>
        <time>2020-10-29T11:10:21Z</time>
      </trkpt>
      <trkpt lat="44.89255" lon="-0.08663">
        <ele>59</ele>
        <time>2020-10-29T11:10:34Z</time>
      </trkpt>
      <trkpt lat="44.89255" lon="-0.08654">
        <ele>59</ele>
        <time>2020-10-29T11:10:40Z</time>
      </trkpt>
      <trkpt lat="44.89256" lon="-0.08638">
        <ele>59</ele>
        <time>2020-10-29T11:10:47Z</time>
      </trkpt>
      <trkpt lat="44.89255" lon="-0.08613">
        <ele>59</ele>
        <time>2020-10-29T11:11:02Z</time>
      </trkpt>
      <trkpt lat="44.89253" lon="-0.08597">
        <ele>59</ele>
        <time>2020-10-29T11:11:17Z</time>
      </trkpt>
      <trkpt lat="44.89252" lon="-0.08594">
        <ele>59</ele>
        <time>2020-10-29T11:11:19Z</time>
      </trkpt>
      <trkpt lat="44.89252" lon="-0.0859">
        <ele>58</ele>
        <time>2020-10-29T11:11:21Z</time>
      </trkpt>
      <trkpt lat="44.89251" lon="-0.08574">
        <ele>57</ele>
        <time>2020-10-29T11:11:31Z</time>
      </trkpt>
      <trkpt lat="44.89254" lon="-0.08544">
        <ele>55</ele>
        <time>2020-10-29T11:11:44Z</time>
      </trkpt>
      <trkpt lat="44.89251" lon="-0.08514">
        <ele>53</ele>
        <time>2020-10-29T11:11:57Z</time>
      </trkpt>
      <trkpt lat="44.89246" lon="-0.08497">
        <ele>51</ele>
        <time>2020-10-29T11:12:11Z</time>
      </trkpt>
      <trkpt lat="44.89242" lon="-0.08482">
        <ele>49</ele>
        <time>2020-10-29T11:12:25Z</time>
      </trkpt>
      <trkpt lat="44.89236" lon="-0.08454">
        <ele>47</ele>
        <time>2020-10-29T11:12:43Z</time>
      </trkpt>
      <trkpt lat="44.89232" lon="-0.08432">
        <ele>46</ele>
        <time>2020-10-29T11:13:00Z</time>
      </trkpt>
      <trkpt lat="44.89228" lon="-0.08404">
        <ele>45</ele>
        <time>2020-10-29T11:13:13Z</time>
      </trkpt>
      <trkpt lat="44.89228" lon="-0.08395">
        <ele>45</ele>
        <time>2020-10-29T11:13:19Z</time>
      </trkpt>
      <trkpt lat="44.89225" lon="-0.08386">
        <ele>45</ele>
        <time>2020-10-29T11:13:24Z</time>
      </trkpt>
      <trkpt lat="44.89221" lon="-0.08361">
        <ele>45</ele>
        <time>2020-10-29T11:13:37Z</time>
      </trkpt>
      <trkpt lat="44.89218" lon="-0.0833">
        <ele>45</ele>
        <time>2020-10-29T11:13:52Z</time>
      </trkpt>
      <trkpt lat="44.89216" lon="-0.08308">
        <ele>46</ele>
        <time>2020-10-29T11:14:03Z</time>
      </trkpt>
      <trkpt lat="44.89213" lon="-0.08299">
        <ele>46</ele>
        <time>2020-10-29T11:14:16Z</time>
      </trkpt>
      <trkpt lat="44.89215" lon="-0.083">
        <ele>46</ele>
        <time>2020-10-29T11:14:40Z</time>
      </trkpt>
      <trkpt lat="44.89218" lon="-0.0831">
        <ele>46</ele>
        <time>2020-10-29T11:15:00Z</time>
      </trkpt>
      <trkpt lat="44.89217" lon="-0.08308">
        <ele>46</ele>
        <time>2020-10-29T11:15:20Z</time>
      </trkpt>
      <trkpt lat="44.89218" lon="-0.0831">
        <ele>46</ele>
        <time>2020-10-29T11:15:40Z</time>
      </trkpt>
      <trkpt lat="44.89218" lon="-0.08309">
        <ele>47</ele>
        <time>2020-10-29T11:15:43Z</time>
      </trkpt>
      <trkpt lat="44.89217" lon="-0.0831">
        <ele>46</ele>
        <time>2020-10-29T11:16:26Z</time>
      </trkpt>
      <trkpt lat="44.89218" lon="-0.08307">
        <ele>47</ele>
        <time>2020-10-29T11:16:46Z</time>
      </trkpt>
      <trkpt lat="44.89217" lon="-0.08307">
        <ele>46</ele>
        <time>2020-10-29T11:16:48Z</time>
      </trkpt>
      <trkpt lat="44.89216" lon="-0.08307">
        <ele>46</ele>
        <time>2020-10-29T11:17:09Z</time>
      </trkpt>
      <trkpt lat="44.89215" lon="-0.08307">
        <ele>46</ele>
        <time>2020-10-29T11:17:31Z</time>
      </trkpt>
      <trkpt lat="44.89214" lon="-0.08304">
        <ele>46</ele>
        <time>2020-10-29T11:17:48Z</time>
      </trkpt>
      <trkpt lat="44.89214" lon="-0.08307">
        <ele>46</ele>
        <time>2020-10-29T11:18:31Z</time>
      </trkpt>
      <trkpt lat="44.89213" lon="-0.08308">
        <ele>46</ele>
        <time>2020-10-29T11:19:04Z</time>
      </trkpt>
      <trkpt lat="44.89213" lon="-0.0831">
        <ele>46</ele>
        <time>2020-10-29T11:19:36Z</time>
      </trkpt>
      <trkpt lat="44.89213" lon="-0.08309">
        <ele>46</ele>
        <time>2020-10-29T11:20:10Z</time>
      </trkpt>
      <trkpt lat="44.89212" lon="-0.08306">
        <ele>47</ele>
        <time>2020-10-29T11:20:55Z</time>
      </trkpt>
      <trkpt lat="44.89218" lon="-0.08307">
        <ele>47</ele>
        <time>2020-10-29T11:21:40Z</time>
      </trkpt>
      <trkpt lat="44.89218" lon="-0.08309">
        <ele>47</ele>
        <time>2020-10-29T11:22:19Z</time>
      </trkpt>
      <trkpt lat="44.89218" lon="-0.08308">
        <ele>47</ele>
        <time>2020-10-29T11:22:59Z</time>
      </trkpt>
      <trkpt lat="44.89215" lon="-0.08308">
        <ele>48</ele>
        <time>2020-10-29T11:23:39Z</time>
      </trkpt>
      <trkpt lat="44.89214" lon="-0.08312">
        <ele>48</ele>
        <time>2020-10-29T11:24:21Z</time>
      </trkpt>
      <trkpt lat="44.89213" lon="-0.08308">
        <ele>48</ele>
        <time>2020-10-29T11:25:06Z</time>
      </trkpt>
      <trkpt lat="44.89215" lon="-0.08307">
        <ele>48</ele>
        <time>2020-10-29T11:25:35Z</time>
      </trkpt>
      <trkpt lat="44.89216" lon="-0.08312">
        <ele>49</ele>
        <time>2020-10-29T11:26:17Z</time>
      </trkpt>
      <trkpt lat="44.89215" lon="-0.08312">
        <ele>49</ele>
        <time>2020-10-29T11:27:05Z</time>
      </trkpt>
      <trkpt lat="44.89214" lon="-0.08309">
        <ele>50</ele>
        <time>2020-10-29T11:27:45Z</time>
      </trkpt>
      <trkpt lat="44.89216" lon="-0.08311">
        <ele>50</ele>
        <time>2020-10-29T11:28:10Z</time>
      </trkpt>
      <trkpt lat="44.89222" lon="-0.08306">
        <ele>49</ele>
        <time>2020-10-29T11:28:42Z</time>
      </trkpt>
      <trkpt lat="44.89222" lon="-0.08307">
        <ele>49</ele>
        <time>2020-10-29T11:28:43Z</time>
      </trkpt>
      <trkpt lat="44.89221" lon="-0.08306">
        <ele>52</ele>
        <time>2020-10-29T11:28:48Z</time>
      </trkpt>
      <trkpt lat="44.89219" lon="-0.08308">
        <ele>50</ele>
        <time>2020-10-29T11:29:20Z</time>
      </trkpt>
      <trkpt lat="44.8922" lon="-0.08309">
        <ele>49</ele>
        <time>2020-10-29T11:29:33Z</time>
      </trkpt>
      <trkpt lat="44.8922" lon="-0.08308">
        <ele>50</ele>
        <time>2020-10-29T11:29:35Z</time>
      </trkpt>
      <trkpt lat="44.89219" lon="-0.08308">
        <ele>49</ele>
        <time>2020-10-29T11:29:57Z</time>
      </trkpt>
      <trkpt lat="44.8922" lon="-0.08309">
        <ele>52</ele>
        <time>2020-10-29T11:30:08Z</time>
      </trkpt>
      <trkpt lat="44.89219" lon="-0.08309">
        <ele>50</ele>
        <time>2020-10-29T11:30:10Z</time>
      </trkpt>
      <trkpt lat="44.89211" lon="-0.08309">
        <ele>51</ele>
        <time>2020-10-29T11:30:43Z</time>
      </trkpt>
      <trkpt lat="44.89212" lon="-0.08314">
        <ele>50</ele>
        <time>2020-10-29T11:31:17Z</time>
      </trkpt>
      <trkpt lat="44.89215" lon="-0.08311">
        <ele>51</ele>
        <time>2020-10-29T11:31:28Z</time>
      </trkpt>
      <trkpt lat="44.89213" lon="-0.08318">
        <ele>51</ele>
        <time>2020-10-29T11:31:55Z</time>
      </trkpt>
      <trkpt lat="44.89214" lon="-0.0832">
        <ele>51</ele>
        <time>2020-10-29T11:32:20Z</time>
      </trkpt>
      <trkpt lat="44.89233" lon="-0.08293">
        <ele>52</ele>
        <time>2020-10-29T11:32:50Z</time>
      </trkpt>
      <trkpt lat="44.89223" lon="-0.08301">
        <ele>52</ele>
        <time>2020-10-29T11:33:14Z</time>
      </trkpt>
      <trkpt lat="44.89215" lon="-0.08307">
        <ele>52</ele>
        <time>2020-10-29T11:33:54Z</time>
      </trkpt>
      <trkpt lat="44.89218" lon="-0.08304">
        <ele>52</ele>
        <time>2020-10-29T11:34:37Z</time>
      </trkpt>
      <trkpt lat="44.8922" lon="-0.08307">
        <ele>52</ele>
        <time>2020-10-29T11:35:15Z</time>
      </trkpt>
      <trkpt lat="44.89216" lon="-0.08308">
        <ele>52</ele>
        <time>2020-10-29T11:35:40Z</time>
      </trkpt>
      <trkpt lat="44.89218" lon="-0.0831">
        <ele>53</ele>
        <time>2020-10-29T11:36:05Z</time>
      </trkpt>
      <trkpt lat="44.8922" lon="-0.08316">
        <ele>53</ele>
        <time>2020-10-29T11:36:28Z</time>
      </trkpt>
      <trkpt lat="44.89221" lon="-0.08315">
        <ele>50</ele>
        <time>2020-10-29T11:36:33Z</time>
      </trkpt>
      <trkpt lat="44.8922" lon="-0.08314">
        <ele>53</ele>
        <time>2020-10-29T11:36:42Z</time>
      </trkpt>
      <trkpt lat="44.89219" lon="-0.08307">
        <ele>53</ele>
        <time>2020-10-29T11:37:11Z</time>
      </trkpt>
      <trkpt lat="44.89219" lon="-0.08308">
        <ele>53</ele>
        <time>2020-10-29T11:37:49Z</time>
      </trkpt>
      <trkpt lat="44.89216" lon="-0.08317">
        <ele>53</ele>
        <time>2020-10-29T11:38:20Z</time>
      </trkpt>
      <trkpt lat="44.89217" lon="-0.0831">
        <ele>53</ele>
        <time>2020-10-29T11:39:02Z</time>
      </trkpt>
      <trkpt lat="44.89217" lon="-0.08306">
        <ele>53</ele>
        <time>2020-10-29T11:39:36Z</time>
      </trkpt>
      <trkpt lat="44.89219" lon="-0.08302">
        <ele>54</ele>
        <time>2020-10-29T11:39:58Z</time>
      </trkpt>
      <trkpt lat="44.89217" lon="-0.083">
        <ele>54</ele>
        <time>2020-10-29T11:40:17Z</time>
      </trkpt>
      <trkpt lat="44.89218" lon="-0.08302">
        <ele>53</ele>
        <time>2020-10-29T11:40:24Z</time>
      </trkpt>
      <trkpt lat="44.89215" lon="-0.08292">
        <ele>55</ele>
        <time>2020-10-29T11:40:51Z</time>
      </trkpt>
      <trkpt lat="44.89215" lon="-0.08299">
        <ele>54</ele>
        <time>2020-10-29T11:41:31Z</time>
      </trkpt>
      <trkpt lat="44.89214" lon="-0.08296">
        <ele>54</ele>
        <time>2020-10-29T11:42:11Z</time>
      </trkpt>
      <trkpt lat="44.89214" lon="-0.083">
        <ele>54</ele>
        <time>2020-10-29T11:42:46Z</time>
      </trkpt>
      <trkpt lat="44.89214" lon="-0.08303">
        <ele>55</ele>
        <time>2020-10-29T11:43:11Z</time>
      </trkpt>
      <trkpt lat="44.89219" lon="-0.08307">
        <ele>55</ele>
        <time>2020-10-29T11:43:37Z</time>
      </trkpt>
      <trkpt lat="44.89221" lon="-0.08313">
        <ele>56</ele>
        <time>2020-10-29T11:43:57Z</time>
      </trkpt>
      <trkpt lat="44.89223" lon="-0.08313">
        <ele>55</ele>
        <time>2020-10-29T11:44:31Z</time>
      </trkpt>
      <trkpt lat="44.89213" lon="-0.08307">
        <ele>55</ele>
        <time>2020-10-29T11:45:16Z</time>
      </trkpt>
      <trkpt lat="44.89211" lon="-0.08301">
        <ele>55</ele>
        <time>2020-10-29T11:45:52Z</time>
      </trkpt>
      <trkpt lat="44.89216" lon="-0.08307">
        <ele>55</ele>
        <time>2020-10-29T11:46:30Z</time>
      </trkpt>
      <trkpt lat="44.89217" lon="-0.08311">
        <ele>55</ele>
        <time>2020-10-29T11:47:16Z</time>
      </trkpt>
      <trkpt lat="44.89217" lon="-0.08307">
        <ele>55</ele>
        <time>2020-10-29T11:47:59Z</time>
      </trkpt>
      <trkpt lat="44.89218" lon="-0.0831">
        <ele>55</ele>
        <time>2020-10-29T11:48:41Z</time>
      </trkpt>
      <trkpt lat="44.89218" lon="-0.08309">
        <ele>55</ele>
        <time>2020-10-29T11:49:20Z</time>
      </trkpt>
      <trkpt lat="44.89219" lon="-0.08309">
        <ele>55</ele>
        <time>2020-10-29T11:49:50Z</time>
      </trkpt>
      <trkpt lat="44.89219" lon="-0.08305">
        <ele>55</ele>
        <time>2020-10-29T11:50:22Z</time>
      </trkpt>
      <trkpt lat="44.89217" lon="-0.08307">
        <ele>55</ele>
        <time>2020-10-29T11:50:54Z</time>
      </trkpt>
      <trkpt lat="44.8922" lon="-0.08309">
        <ele>55</ele>
        <time>2020-10-29T11:51:27Z</time>
      </trkpt>
      <trkpt lat="44.89219" lon="-0.08308">
        <ele>55</ele>
        <time>2020-10-29T11:51:56Z</time>
      </trkpt>
      <trkpt lat="44.8922" lon="-0.08306">
        <ele>55</ele>
        <time>2020-10-29T11:52:32Z</time>
      </trkpt>
      <trkpt lat="44.89218" lon="-0.08304">
        <ele>55</ele>
        <time>2020-10-29T11:53:05Z</time>
      </trkpt>
      <trkpt lat="44.89219" lon="-0.08308">
        <ele>58</ele>
        <time>2020-10-29T11:53:33Z</time>
      </trkpt>
      <trkpt lat="44.89219" lon="-0.08304">
        <ele>52</ele>
        <time>2020-10-29T11:53:40Z</time>
      </trkpt>
      <trkpt lat="44.8922" lon="-0.08304">
        <ele>57</ele>
        <time>2020-10-29T11:53:44Z</time>
      </trkpt>
      <trkpt lat="44.89216" lon="-0.08301">
        <ele>57</ele>
        <time>2020-10-29T11:53:58Z</time>
      </trkpt>
      <trkpt lat="44.8922" lon="-0.08291">
        <ele>57</ele>
        <time>2020-10-29T11:54:12Z</time>
      </trkpt>
      <trkpt lat="44.89229" lon="-0.08278">
        <ele>57</ele>
        <time>2020-10-29T11:54:30Z</time>
      </trkpt>
      <trkpt lat="44.89234" lon="-0.08271">
        <ele>58</ele>
        <time>2020-10-29T11:54:41Z</time>
      </trkpt>
      <trkpt lat="44.89246" lon="-0.08256">
        <ele>61</ele>
        <time>2020-10-29T11:54:58Z</time>
      </trkpt>
      <trkpt lat="44.89253" lon="-0.08243">
        <ele>58</ele>
        <time>2020-10-29T11:55:10Z</time>
      </trkpt>
      <trkpt lat="44.89261" lon="-0.0823">
        <ele>59</ele>
        <time>2020-10-29T11:55:22Z</time>
      </trkpt>
      <trkpt lat="44.89264" lon="-0.08227">
        <ele>59</ele>
        <time>2020-10-29T11:55:26Z</time>
      </trkpt>
      <trkpt lat="44.89274" lon="-0.08218">
        <ele>60</ele>
        <time>2020-10-29T11:55:38Z</time>
      </trkpt>
      <trkpt lat="44.89284" lon="-0.08209">
        <ele>61</ele>
        <time>2020-10-29T11:55:50Z</time>
      </trkpt>
      <trkpt lat="44.89288" lon="-0.08203">
        <ele>61</ele>
        <time>2020-10-29T11:55:57Z</time>
      </trkpt>
      <trkpt lat="44.89294" lon="-0.082">
        <ele>61</ele>
        <time>2020-10-29T11:56:01Z</time>
      </trkpt>
      <trkpt lat="44.89307" lon="-0.08186">
        <ele>62</ele>
        <time>2020-10-29T11:56:17Z</time>
      </trkpt>
      <trkpt lat="44.89308" lon="-0.08186">
        <ele>62</ele>
        <time>2020-10-29T11:56:18Z</time>
      </trkpt>
      <trkpt lat="44.89311" lon="-0.08183">
        <ele>62</ele>
        <time>2020-10-29T11:56:22Z</time>
      </trkpt>
      <trkpt lat="44.89326" lon="-0.0817">
        <ele>62</ele>
        <time>2020-10-29T11:56:38Z</time>
      </trkpt>
      <trkpt lat="44.89342" lon="-0.08155">
        <ele>63</ele>
        <time>2020-10-29T11:56:56Z</time>
      </trkpt>
      <trkpt lat="44.89356" lon="-0.08145">
        <ele>63</ele>
        <time>2020-10-29T11:57:11Z</time>
      </trkpt>
      <trkpt lat="44.89372" lon="-0.08138">
        <ele>63</ele>
        <time>2020-10-29T11:57:26Z</time>
      </trkpt>
      <trkpt lat="44.89384" lon="-0.08138">
        <ele>63</ele>
        <time>2020-10-29T11:57:38Z</time>
      </trkpt>
      <trkpt lat="44.89397" lon="-0.08142">
        <ele>64</ele>
        <time>2020-10-29T11:57:50Z</time>
      </trkpt>
      <trkpt lat="44.89399" lon="-0.08143">
        <ele>64</ele>
        <time>2020-10-29T11:57:52Z</time>
      </trkpt>
      <trkpt lat="44.89412" lon="-0.08153">
        <ele>65</ele>
        <time>2020-10-29T11:58:05Z</time>
      </trkpt>
      <trkpt lat="44.89415" lon="-0.08156">
        <ele>65</ele>
        <time>2020-10-29T11:58:10Z</time>
      </trkpt>
      <trkpt lat="44.89421" lon="-0.08162">
        <ele>65</ele>
        <time>2020-10-29T11:58:14Z</time>
      </trkpt>
      <trkpt lat="44.89422" lon="-0.08163">
        <ele>65</ele>
        <time>2020-10-29T11:58:15Z</time>
      </trkpt>
      <trkpt lat="44.89423" lon="-0.08164">
        <ele>65</ele>
        <time>2020-10-29T11:58:16Z</time>
      </trkpt>
      <trkpt lat="44.89423" lon="-0.08165">
        <ele>65</ele>
        <time>2020-10-29T11:58:17Z</time>
      </trkpt>
      <trkpt lat="44.89424" lon="-0.08165">
        <ele>63</ele>
        <time>2020-10-29T11:58:18Z</time>
      </trkpt>
      <trkpt lat="44.89425" lon="-0.08166">
        <ele>66</ele>
        <time>2020-10-29T11:58:19Z</time>
      </trkpt>
      <trkpt lat="44.89427" lon="-0.08167">
        <ele>65</ele>
        <time>2020-10-29T11:58:20Z</time>
      </trkpt>
      <trkpt lat="44.8944" lon="-0.08171">
        <ele>64</ele>
        <time>2020-10-29T11:58:36Z</time>
      </trkpt>
      <trkpt lat="44.89459" lon="-0.08172">
        <ele>62</ele>
        <time>2020-10-29T11:58:51Z</time>
      </trkpt>
      <trkpt lat="44.89466" lon="-0.08168">
        <ele>62</ele>
        <time>2020-10-29T11:59:00Z</time>
      </trkpt>
      <trkpt lat="44.89467" lon="-0.08167">
        <ele>62</ele>
        <time>2020-10-29T11:59:01Z</time>
      </trkpt>
      <trkpt lat="44.89466" lon="-0.08159">
        <ele>62</ele>
        <time>2020-10-29T11:59:08Z</time>
      </trkpt>
      <trkpt lat="44.89465" lon="-0.08157">
        <ele>62</ele>
        <time>2020-10-29T11:59:09Z</time>
      </trkpt>
      <trkpt lat="44.8946" lon="-0.08142">
        <ele>63</ele>
        <time>2020-10-29T11:59:19Z</time>
      </trkpt>
      <trkpt lat="44.89453" lon="-0.08126">
        <ele>64</ele>
        <time>2020-10-29T11:59:33Z</time>
      </trkpt>
      <trkpt lat="44.89448" lon="-0.08115">
        <ele>65</ele>
        <time>2020-10-29T11:59:43Z</time>
      </trkpt>
      <trkpt lat="44.89444" lon="-0.08108">
        <ele>66</ele>
        <time>2020-10-29T11:59:48Z</time>
      </trkpt>
      <trkpt lat="44.89438" lon="-0.08092">
        <ele>67</ele>
        <time>2020-10-29T12:00:03Z</time>
      </trkpt>
      <trkpt lat="44.89432" lon="-0.08074">
        <ele>68</ele>
        <time>2020-10-29T12:00:17Z</time>
      </trkpt>
      <trkpt lat="44.89423" lon="-0.08063">
        <ele>69</ele>
        <time>2020-10-29T12:00:29Z</time>
      </trkpt>
      <trkpt lat="44.89418" lon="-0.08057">
        <ele>69</ele>
        <time>2020-10-29T12:00:35Z</time>
      </trkpt>
      <trkpt lat="44.89413" lon="-0.0805">
        <ele>70</ele>
        <time>2020-10-29T12:00:42Z</time>
      </trkpt>
      <trkpt lat="44.89407" lon="-0.08043">
        <ele>70</ele>
        <time>2020-10-29T12:00:49Z</time>
      </trkpt>
      <trkpt lat="44.89402" lon="-0.08037">
        <ele>71</ele>
        <time>2020-10-29T12:00:56Z</time>
      </trkpt>
      <trkpt lat="44.89391" lon="-0.08027">
        <ele>72</ele>
        <time>2020-10-29T12:01:10Z</time>
      </trkpt>
      <trkpt lat="44.89379" lon="-0.08018">
        <ele>72</ele>
        <time>2020-10-29T12:01:22Z</time>
      </trkpt>
      <trkpt lat="44.89377" lon="-0.08016">
        <ele>73</ele>
        <time>2020-10-29T12:01:26Z</time>
      </trkpt>
      <trkpt lat="44.89373" lon="-0.08012">
        <ele>73</ele>
        <time>2020-10-29T12:01:31Z</time>
      </trkpt>
      <trkpt lat="44.89367" lon="-0.08007">
        <ele>73</ele>
        <time>2020-10-29T12:01:38Z</time>
      </trkpt>
      <trkpt lat="44.89359" lon="-0.08001">
        <ele>75</ele>
        <time>2020-10-29T12:01:50Z</time>
      </trkpt>
      <trkpt lat="44.89356" lon="-0.07999">
        <ele>75</ele>
        <time>2020-10-29T12:02:00Z</time>
      </trkpt>
      <trkpt lat="44.89349" lon="-0.07996">
        <ele>76</ele>
        <time>2020-10-29T12:02:07Z</time>
      </trkpt>
      <trkpt lat="44.89342" lon="-0.0799">
        <ele>77</ele>
        <time>2020-10-29T12:02:15Z</time>
      </trkpt>
      <trkpt lat="44.89328" lon="-0.0798">
        <ele>78</ele>
        <time>2020-10-29T12:02:31Z</time>
      </trkpt>
      <trkpt lat="44.89314" lon="-0.07964">
        <ele>77</ele>
        <time>2020-10-29T12:02:50Z</time>
      </trkpt>
      <trkpt lat="44.89306" lon="-0.07957">
        <ele>77</ele>
        <time>2020-10-29T12:02:59Z</time>
      </trkpt>
      <trkpt lat="44.89297" lon="-0.07947">
        <ele>77</ele>
        <time>2020-10-29T12:03:11Z</time>
      </trkpt>
      <trkpt lat="44.89286" lon="-0.07936">
        <ele>75</ele>
        <time>2020-10-29T12:03:26Z</time>
      </trkpt>
      <trkpt lat="44.89285" lon="-0.07935">
        <ele>78</ele>
        <time>2020-10-29T12:03:27Z</time>
      </trkpt>
      <trkpt lat="44.89277" lon="-0.07924">
        <ele>76</ele>
        <time>2020-10-29T12:03:38Z</time>
      </trkpt>
      <trkpt lat="44.89265" lon="-0.07911">
        <ele>76</ele>
        <time>2020-10-29T12:03:53Z</time>
      </trkpt>
      <trkpt lat="44.89264" lon="-0.0791">
        <ele>76</ele>
        <time>2020-10-29T12:03:55Z</time>
      </trkpt>
      <trkpt lat="44.89248" lon="-0.07892">
        <ele>75</ele>
        <time>2020-10-29T12:04:11Z</time>
      </trkpt>
      <trkpt lat="44.89246" lon="-0.07888">
        <ele>75</ele>
        <time>2020-10-29T12:04:16Z</time>
      </trkpt>
      <trkpt lat="44.89237" lon="-0.07877">
        <ele>75</ele>
        <time>2020-10-29T12:04:27Z</time>
      </trkpt>
      <trkpt lat="44.89225" lon="-0.07861">
        <ele>75</ele>
        <time>2020-10-29T12:04:41Z</time>
      </trkpt>
      <trkpt lat="44.89217" lon="-0.07845">
        <ele>75</ele>
        <time>2020-10-29T12:04:56Z</time>
      </trkpt>
      <trkpt lat="44.89209" lon="-0.07832">
        <ele>75</ele>
        <time>2020-10-29T12:05:08Z</time>
      </trkpt>
      <trkpt lat="44.89201" lon="-0.07814">
        <ele>75</ele>
        <time>2020-10-29T12:05:21Z</time>
      </trkpt>
      <trkpt lat="44.892" lon="-0.07811">
        <ele>77</ele>
        <time>2020-10-29T12:05:24Z</time>
      </trkpt>
      <trkpt lat="44.89193" lon="-0.07798">
        <ele>77</ele>
        <time>2020-10-29T12:05:35Z</time>
      </trkpt>
      <trkpt lat="44.89186" lon="-0.07785">
        <ele>78</ele>
        <time>2020-10-29T12:05:45Z</time>
      </trkpt>
      <trkpt lat="44.89175" lon="-0.07774">
        <ele>78</ele>
        <time>2020-10-29T12:05:57Z</time>
      </trkpt>
      <trkpt lat="44.8917" lon="-0.07771">
        <ele>79</ele>
        <time>2020-10-29T12:06:04Z</time>
      </trkpt>
      <trkpt lat="44.89157" lon="-0.07768">
        <ele>80</ele>
        <time>2020-10-29T12:06:16Z</time>
      </trkpt>
      <trkpt lat="44.89146" lon="-0.07765">
        <ele>80</ele>
        <time>2020-10-29T12:06:27Z</time>
      </trkpt>
      <trkpt lat="44.89143" lon="-0.07764">
        <ele>80</ele>
        <time>2020-10-29T12:06:30Z</time>
      </trkpt>
      <trkpt lat="44.89137" lon="-0.07762">
        <ele>81</ele>
        <time>2020-10-29T12:06:37Z</time>
      </trkpt>
      <trkpt lat="44.89124" lon="-0.07753">
        <ele>81</ele>
        <time>2020-10-29T12:06:51Z</time>
      </trkpt>
      <trkpt lat="44.8911" lon="-0.0774">
        <ele>81</ele>
        <time>2020-10-29T12:07:06Z</time>
      </trkpt>
      <trkpt lat="44.89108" lon="-0.07736">
        <ele>81</ele>
        <time>2020-10-29T12:07:10Z</time>
      </trkpt>
      <trkpt lat="44.89105" lon="-0.07726">
        <ele>81</ele>
        <time>2020-10-29T12:07:15Z</time>
      </trkpt>
      <trkpt lat="44.89097" lon="-0.07702">
        <ele>81</ele>
        <time>2020-10-29T12:07:28Z</time>
      </trkpt>
      <trkpt lat="44.89094" lon="-0.07684">
        <ele>81</ele>
        <time>2020-10-29T12:07:44Z</time>
      </trkpt>
      <trkpt lat="44.89092" lon="-0.0766">
        <ele>81</ele>
        <time>2020-10-29T12:07:58Z</time>
      </trkpt>
      <trkpt lat="44.89088" lon="-0.07639">
        <ele>81</ele>
        <time>2020-10-29T12:08:10Z</time>
      </trkpt>
      <trkpt lat="44.89086" lon="-0.07624">
        <ele>82</ele>
        <time>2020-10-29T12:08:22Z</time>
      </trkpt>
      <trkpt lat="44.89085" lon="-0.07616">
        <ele>82</ele>
        <time>2020-10-29T12:08:29Z</time>
      </trkpt>
      <trkpt lat="44.89085" lon="-0.07611">
        <ele>82</ele>
        <time>2020-10-29T12:08:32Z</time>
      </trkpt>
      <trkpt lat="44.89085" lon="-0.07596">
        <ele>83</ele>
        <time>2020-10-29T12:08:47Z</time>
      </trkpt>
      <trkpt lat="44.89085" lon="-0.07595">
        <ele>83</ele>
        <time>2020-10-29T12:08:48Z</time>
      </trkpt>
      <trkpt lat="44.89087" lon="-0.07579">
        <ele>84</ele>
        <time>2020-10-29T12:09:00Z</time>
      </trkpt>
      <trkpt lat="44.89088" lon="-0.07558">
        <ele>84</ele>
        <time>2020-10-29T12:09:15Z</time>
      </trkpt>
      <trkpt lat="44.89088" lon="-0.07538">
        <ele>84</ele>
        <time>2020-10-29T12:09:28Z</time>
      </trkpt>
      <trkpt lat="44.89088" lon="-0.07514">
        <ele>85</ele>
        <time>2020-10-29T12:09:43Z</time>
      </trkpt>
      <trkpt lat="44.89088" lon="-0.07496">
        <ele>86</ele>
        <time>2020-10-29T12:09:55Z</time>
      </trkpt>
      <trkpt lat="44.89088" lon="-0.07486">
        <ele>86</ele>
        <time>2020-10-29T12:10:00Z</time>
      </trkpt>
      <trkpt lat="44.89082" lon="-0.07463">
        <ele>87</ele>
        <time>2020-10-29T12:10:15Z</time>
      </trkpt>
      <trkpt lat="44.89077" lon="-0.07455">
        <ele>87</ele>
        <time>2020-10-29T12:10:22Z</time>
      </trkpt>
      <trkpt lat="44.8907" lon="-0.07437">
        <ele>89</ele>
        <time>2020-10-29T12:10:38Z</time>
      </trkpt>
      <trkpt lat="44.89069" lon="-0.07433">
        <ele>89</ele>
        <time>2020-10-29T12:10:40Z</time>
      </trkpt>
      <trkpt lat="44.89067" lon="-0.07419">
        <ele>90</ele>
        <time>2020-10-29T12:10:46Z</time>
      </trkpt>
      <trkpt lat="44.89064" lon="-0.07412">
        <ele>90</ele>
        <time>2020-10-29T12:10:53Z</time>
      </trkpt>
      <trkpt lat="44.89062" lon="-0.0739">
        <ele>90</ele>
        <time>2020-10-29T12:11:06Z</time>
      </trkpt>
      <trkpt lat="44.89063" lon="-0.07368">
        <ele>91</ele>
        <time>2020-10-29T12:11:18Z</time>
      </trkpt>
      <trkpt lat="44.89064" lon="-0.07362">
        <ele>91</ele>
        <time>2020-10-29T12:11:24Z</time>
      </trkpt>
      <trkpt lat="44.89067" lon="-0.07341">
        <ele>91</ele>
        <time>2020-10-29T12:11:38Z</time>
      </trkpt>
      <trkpt lat="44.89067" lon="-0.0734">
        <ele>91</ele>
        <time>2020-10-29T12:11:40Z</time>
      </trkpt>
      <trkpt lat="44.89066" lon="-0.07332">
        <ele>91</ele>
        <time>2020-10-29T12:11:44Z</time>
      </trkpt>
      <trkpt lat="44.89068" lon="-0.07312">
        <ele>91</ele>
        <time>2020-10-29T12:11:57Z</time>
      </trkpt>
      <trkpt lat="44.8907" lon="-0.07299">
        <ele>91</ele>
        <time>2020-10-29T12:12:02Z</time>
      </trkpt>
      <trkpt lat="44.8907" lon="-0.07282">
        <ele>91</ele>
        <time>2020-10-29T12:12:17Z</time>
      </trkpt>
      <trkpt lat="44.89076" lon="-0.07251">
        <ele>91</ele>
        <time>2020-10-29T12:12:30Z</time>
      </trkpt>
      <trkpt lat="44.89079" lon="-0.07233">
        <ele>91</ele>
        <time>2020-10-29T12:12:45Z</time>
      </trkpt>
      <trkpt lat="44.89087" lon="-0.07213">
        <ele>91</ele>
        <time>2020-10-29T12:13:00Z</time>
      </trkpt>
      <trkpt lat="44.89088" lon="-0.07208">
        <ele>91</ele>
        <time>2020-10-29T12:13:04Z</time>
      </trkpt>
      <trkpt lat="44.89094" lon="-0.07193">
        <ele>90</ele>
        <time>2020-10-29T12:13:18Z</time>
      </trkpt>
      <trkpt lat="44.89104" lon="-0.07176">
        <ele>89</ele>
        <time>2020-10-29T12:13:29Z</time>
      </trkpt>
      <trkpt lat="44.89114" lon="-0.07146">
        <ele>87</ele>
        <time>2020-10-29T12:13:45Z</time>
      </trkpt>
      <trkpt lat="44.89125" lon="-0.07118">
        <ele>85</ele>
        <time>2020-10-29T12:13:59Z</time>
      </trkpt>
      <trkpt lat="44.8913" lon="-0.07105">
        <ele>83</ele>
        <time>2020-10-29T12:14:10Z</time>
      </trkpt>
      <trkpt lat="44.89131" lon="-0.07099">
        <ele>83</ele>
        <time>2020-10-29T12:14:14Z</time>
      </trkpt>
      <trkpt lat="44.89136" lon="-0.07084">
        <ele>82</ele>
        <time>2020-10-29T12:14:26Z</time>
      </trkpt>
      <trkpt lat="44.89134" lon="-0.07084">
        <ele>82</ele>
        <time>2020-10-29T12:14:41Z</time>
      </trkpt>
      <trkpt lat="44.89132" lon="-0.07082">
        <ele>81</ele>
        <time>2020-10-29T12:14:58Z</time>
      </trkpt>
      <trkpt lat="44.89138" lon="-0.07065">
        <ele>80</ele>
        <time>2020-10-29T12:15:17Z</time>
      </trkpt>
      <trkpt lat="44.89141" lon="-0.07055">
        <ele>79</ele>
        <time>2020-10-29T12:15:29Z</time>
      </trkpt>
      <trkpt lat="44.89133" lon="-0.07032">
        <ele>76</ele>
        <time>2020-10-29T12:15:48Z</time>
      </trkpt>
      <trkpt lat="44.89128" lon="-0.07026">
        <ele>76</ele>
        <time>2020-10-29T12:15:54Z</time>
      </trkpt>
      <trkpt lat="44.89122" lon="-0.07017">
        <ele>76</ele>
        <time>2020-10-29T12:16:03Z</time>
      </trkpt>
      <trkpt lat="44.89107" lon="-0.06999">
        <ele>75</ele>
        <time>2020-10-29T12:16:22Z</time>
      </trkpt>
      <trkpt lat="44.89095" lon="-0.06982">
        <ele>74</ele>
        <time>2020-10-29T12:16:37Z</time>
      </trkpt>
      <trkpt lat="44.89087" lon="-0.06969">
        <ele>74</ele>
        <time>2020-10-29T12:16:49Z</time>
      </trkpt>
      <trkpt lat="44.89081" lon="-0.06962">
        <ele>74</ele>
        <time>2020-10-29T12:16:59Z</time>
      </trkpt>
      <trkpt lat="44.89077" lon="-0.06959">
        <ele>74</ele>
        <time>2020-10-29T12:17:03Z</time>
      </trkpt>
      <trkpt lat="44.89065" lon="-0.06945">
        <ele>74</ele>
        <time>2020-10-29T12:17:20Z</time>
      </trkpt>
      <trkpt lat="44.89063" lon="-0.06943">
        <ele>74</ele>
        <time>2020-10-29T12:17:23Z</time>
      </trkpt>
      <trkpt lat="44.89056" lon="-0.06937">
        <ele>74</ele>
        <time>2020-10-29T12:17:31Z</time>
      </trkpt>
      <trkpt lat="44.89043" lon="-0.06924">
        <ele>74</ele>
        <time>2020-10-29T12:17:45Z</time>
      </trkpt>
      <trkpt lat="44.89032" lon="-0.06913">
        <ele>74</ele>
        <time>2020-10-29T12:17:57Z</time>
      </trkpt>
      <trkpt lat="44.89029" lon="-0.06908">
        <ele>74</ele>
        <time>2020-10-29T12:18:02Z</time>
      </trkpt>
      <trkpt lat="44.89023" lon="-0.069">
        <ele>75</ele>
        <time>2020-10-29T12:18:10Z</time>
      </trkpt>
      <trkpt lat="44.89012" lon="-0.0689">
        <ele>76</ele>
        <time>2020-10-29T12:18:22Z</time>
      </trkpt>
      <trkpt lat="44.88998" lon="-0.06881">
        <ele>76</ele>
        <time>2020-10-29T12:18:36Z</time>
      </trkpt>
      <trkpt lat="44.88983" lon="-0.06864">
        <ele>76</ele>
        <time>2020-10-29T12:18:51Z</time>
      </trkpt>
      <trkpt lat="44.88973" lon="-0.06851">
        <ele>76</ele>
        <time>2020-10-29T12:19:04Z</time>
      </trkpt>
      <trkpt lat="44.88964" lon="-0.06832">
        <ele>74</ele>
        <time>2020-10-29T12:19:20Z</time>
      </trkpt>
      <trkpt lat="44.88963" lon="-0.0683">
        <ele>74</ele>
        <time>2020-10-29T12:19:21Z</time>
      </trkpt>
      <trkpt lat="44.88948" lon="-0.06806">
        <ele>73</ele>
        <time>2020-10-29T12:19:39Z</time>
      </trkpt>
      <trkpt lat="44.88935" lon="-0.06789">
        <ele>72</ele>
        <time>2020-10-29T12:19:55Z</time>
      </trkpt>
      <trkpt lat="44.88924" lon="-0.06785">
        <ele>72</ele>
        <time>2020-10-29T12:20:05Z</time>
      </trkpt>
      <trkpt lat="44.88918" lon="-0.0678">
        <ele>72</ele>
        <time>2020-10-29T12:20:10Z</time>
      </trkpt>
      <trkpt lat="44.88909" lon="-0.06779">
        <ele>72</ele>
        <time>2020-10-29T12:20:24Z</time>
      </trkpt>
      <trkpt lat="44.88907" lon="-0.06778">
        <ele>72</ele>
        <time>2020-10-29T12:20:32Z</time>
      </trkpt>
      <trkpt lat="44.88893" lon="-0.06774">
        <ele>72</ele>
        <time>2020-10-29T12:20:44Z</time>
      </trkpt>
      <trkpt lat="44.88873" lon="-0.06767">
        <ele>73</ele>
        <time>2020-10-29T12:21:03Z</time>
      </trkpt>
      <trkpt lat="44.88864" lon="-0.06764">
        <ele>74</ele>
        <time>2020-10-29T12:21:19Z</time>
      </trkpt>
      <trkpt lat="44.88862" lon="-0.06764">
        <ele>75</ele>
        <time>2020-10-29T12:21:34Z</time>
      </trkpt>
      <trkpt lat="44.88872" lon="-0.06619">
        <ele>80.5</ele>
      </trkpt>
      <trkpt lat="44.88878" lon="-0.06583">
        <ele>83.2</ele>
      </trkpt>
      <trkpt lat="44.88904" lon="-0.06542">
        <ele>83.6</ele>
      </trkpt>
      <trkpt lat="44.88918" lon="-0.06505">
        <ele>83.6</ele>
      </trkpt>
      <trkpt lat="44.88928" lon="-0.06471">
        <ele>84.1</ele>
      </trkpt>
      <trkpt lat="44.88913" lon="-0.0639">
        <ele>90</ele>
      </trkpt>
      <trkpt lat="44.88926" lon="-0.06331">
        <ele>91</ele>
      </trkpt>
      <trkpt lat="44.88979" lon="-0.06238">
        <ele>91.5</ele>
      </trkpt>
      <trkpt lat="44.88988" lon="-0.06226">
        <ele>91.5</ele>
      </trkpt>
      <trkpt lat="44.88989" lon="-0.06225">
        <ele>91.6</ele>
      </trkpt>
      <trkpt lat="44.88991" lon="-0.06225">
        <ele>91.6</ele>
      </trkpt>
      <trkpt lat="44.89007" lon="-0.06215">
        <ele>91.8</ele>
      </trkpt>
      <trkpt lat="44.89026" lon="-0.06199">
        <ele>91.9</ele>
      </trkpt>
      <trkpt lat="44.89039" lon="-0.0619">
        <ele>91.5</ele>
      </trkpt>
      <trkpt lat="44.89041" lon="-0.0619">
        <ele>91.4</ele>
      </trkpt>
      <trkpt lat="44.89044" lon="-0.06189">
        <ele>91.3</ele>
      </trkpt>
      <trkpt lat="44.89045" lon="-0.06184">
        <ele>91.2</ele>
      </trkpt>
      <trkpt lat="44.89044" lon="-0.06189">
        <ele>91.3</ele>
      </trkpt>
      <trkpt lat="44.89045" lon="-0.06189">
        <ele>91.3</ele>
      </trkpt>
      <trkpt lat="44.89051" lon="-0.06194">
        <ele>91.2</ele>
      </trkpt>
      <trkpt lat="44.89056" lon="-0.06203">
        <ele>91.3</ele>
      </trkpt>
      <trkpt lat="44.8907" lon="-0.06238">
        <ele>91.2</ele>
      </trkpt>
      <trkpt lat="44.89074" lon="-0.06244">
        <ele>91.1</ele>
      </trkpt>
      <trkpt lat="44.89076" lon="-0.06248">
        <ele>91</ele>
      </trkpt>
      <trkpt lat="44.8908" lon="-0.06253">
        <ele>91</ele>
      </trkpt>
      <trkpt lat="44.89085" lon="-0.06256">
        <ele>91</ele>
      </trkpt>
      <trkpt lat="44.89093" lon="-0.06258">
        <ele>91</ele>
      </trkpt>
      <trkpt lat="44.89112" lon="-0.06259">
        <ele>91</ele>
      </trkpt>
      <trkpt lat="44.89121" lon="-0.0626">
        <ele>91</ele>
      </trkpt>
      <trkpt lat="44.89131" lon="-0.06262">
        <ele>91</ele>
      </trkpt>
      <trkpt lat="44.89142" lon="-0.06264">
        <ele>91</ele>
      </trkpt>
      <trkpt lat="44.89153" lon="-0.06266">
        <ele>91</ele>
      </trkpt>
      <trkpt lat="44.89172" lon="-0.06267">
        <ele>91</ele>
      </trkpt>
      <trkpt lat="44.89189" lon="-0.06265">
        <ele>91</ele>
      </trkpt>
      <trkpt lat="44.89237" lon="-0.06256">
        <ele>90.3</ele>
      </trkpt>
      <trkpt lat="44.89287" lon="-0.06246">
        <ele>89.7</ele>
      </trkpt>
      <trkpt lat="44.89299" lon="-0.06243">
        <ele>89.4</ele>
      </trkpt>
      <trkpt lat="44.89317" lon="-0.06239">
        <ele>89.4</ele>
      </trkpt>
      <trkpt lat="44.89329" lon="-0.06237">
        <ele>89.5</ele>
      </trkpt>
      <trkpt lat="44.89335" lon="-0.06236">
        <ele>89.5</ele>
      </trkpt>
      <trkpt lat="44.89341" lon="-0.06238">
        <ele>89.4</ele>
      </trkpt>
      <trkpt lat="44.89347" lon="-0.0624">
        <ele>89.4</ele>
      </trkpt>
      <trkpt lat="44.89352" lon="-0.06244">
        <ele>89.2</ele>
      </trkpt>
      <trkpt lat="44.89363" lon="-0.06256">
        <ele>89</ele>
      </trkpt>
      <trkpt lat="44.89382" lon="-0.06285">
        <ele>87.9</ele>
      </trkpt>
      <trkpt lat="44.89387" lon="-0.06291">
        <ele>87.6</ele>
      </trkpt>
      <trkpt lat="44.89394" lon="-0.06298">
        <ele>87.1</ele>
      </trkpt>
      <trkpt lat="44.89399" lon="-0.06302">
        <ele>86.8</ele>
      </trkpt>
      <trkpt lat="44.89405" lon="-0.06303">
        <ele>86.5</ele>
      </trkpt>
      <trkpt lat="44.89426" lon="-0.06303">
        <ele>86.1</ele>
      </trkpt>
      <trkpt lat="44.89437" lon="-0.06304">
        <ele>86.1</ele>
      </trkpt>
      <trkpt lat="44.89447" lon="-0.06305">
        <ele>86.1</ele>
      </trkpt>
      <trkpt lat="44.89455" lon="-0.06306">
        <ele>86.4</ele>
      </trkpt>
      <trkpt lat="44.89464" lon="-0.06307">
        <ele>86.7</ele>
      </trkpt>
      <trkpt lat="44.89471" lon="-0.06309">
        <ele>86.9</ele>
      </trkpt>
      <trkpt lat="44.8948" lon="-0.06313">
        <ele>87.3</ele>
      </trkpt>
      <trkpt lat="44.89487" lon="-0.06318">
        <ele>87.5</ele>
      </trkpt>
      <trkpt lat="44.89494" lon="-0.06323">
        <ele>87.8</ele>
      </trkpt>
      <trkpt lat="44.89504" lon="-0.06334">
        <ele>87.8</ele>
      </trkpt>
      <trkpt lat="44.89506" lon="-0.06336">
        <ele>87.7</ele>
      </trkpt>
      <trkpt lat="44.89512" lon="-0.06341">
        <ele>87.4</ele>
      </trkpt>
      <trkpt lat="44.89521" lon="-0.06347">
        <ele>87.1</ele>
      </trkpt>
      <trkpt lat="44.8953" lon="-0.0635">
        <ele>87</ele>
      </trkpt>
      <trkpt lat="44.8954" lon="-0.0635">
        <ele>86.7</ele>
      </trkpt>
      <trkpt lat="44.89549" lon="-0.06351">
        <ele>86.5</ele>
      </trkpt>
      <trkpt lat="44.89557" lon="-0.06349">
        <ele>86.4</ele>
      </trkpt>
      <trkpt lat="44.89562" lon="-0.06345">
        <ele>86.3</ele>
      </trkpt>
      <trkpt lat="44.89575" lon="-0.06336">
        <ele>86.1</ele>
      </trkpt>
      <trkpt lat="44.89593" lon="-0.06322">
        <ele>85.8</ele>
      </trkpt>
      <trkpt lat="44.89617" lon="-0.06305">
        <ele>86</ele>
      </trkpt>
      <trkpt lat="44.89645" lon="-0.06287">
        <ele>86</ele>
      </trkpt>
      <trkpt lat="44.89679" lon="-0.0627">
        <ele>86.2</ele>
      </trkpt>
      <trkpt lat="44.89721" lon="-0.06247">
        <ele>85</ele>
      </trkpt>
      <trkpt lat="44.89741" lon="-0.06237">
        <ele>85</ele>
      </trkpt>
      <trkpt lat="44.89745" lon="-0.06242">
        <ele>85</ele>
      </trkpt>
      <trkpt lat="44.89763" lon="-0.06254">
        <ele>84.9</ele>
      </trkpt>
      <trkpt lat="44.89769" lon="-0.06258">
        <ele>84.8</ele>
      </trkpt>
      <trkpt lat="44.89777" lon="-0.06262">
        <ele>84.6</ele>
      </trkpt>
      <trkpt lat="44.89784" lon="-0.06263">
        <ele>84.5</ele>
      </trkpt>
      <trkpt lat="44.89788" lon="-0.06263">
        <ele>84.5</ele>
      </trkpt>
      <trkpt lat="44.8979" lon="-0.06263">
        <ele>84.5</ele>
      </trkpt>
      <trkpt lat="44.89796" lon="-0.06262">
        <ele>84.6</ele>
      </trkpt>
      <trkpt lat="44.89807" lon="-0.06254">
        <ele>84.9</ele>
      </trkpt>
      <trkpt lat="44.89831" lon="-0.06236">
        <ele>85</ele>
      </trkpt>
      <trkpt lat="44.89833" lon="-0.06235">
        <ele>85</ele>
      </trkpt>
      <trkpt lat="44.89832" lon="-0.06236">
        <ele>85</ele>
      </trkpt>
      <trkpt lat="44.89852" lon="-0.06221">
        <ele>85</ele>
      </trkpt>
      <trkpt lat="44.89858" lon="-0.06217">
        <ele>85</ele>
      </trkpt>
      <trkpt lat="44.89855" lon="-0.06206">
        <ele>85</ele>
      </trkpt>
      <trkpt lat="44.89849" lon="-0.06186">
        <ele>85</ele>
      </trkpt>
      <trkpt lat="44.89846" lon="-0.06171">
        <ele>85</ele>
      </trkpt>
      <trkpt lat="44.89844" lon="-0.06161">
        <ele>85.2</ele>
      </trkpt>
      <trkpt lat="44.89843" lon="-0.06148">
        <ele>85.7</ele>
      </trkpt>
      <trkpt lat="44.89842" lon="-0.06131">
        <ele>86</ele>
      </trkpt>
      <trkpt lat="44.89842" lon="-0.06106">
        <ele>86.1</ele>
      </trkpt>
      <trkpt lat="44.89842" lon="-0.06083">
        <ele>86.7</ele>
      </trkpt>
      <trkpt lat="44.89842" lon="-0.0608">
        <ele>86.7</ele>
      </trkpt>
      <trkpt lat="44.89842" lon="-0.0607">
        <ele>86.7</ele>
      </trkpt>
      <trkpt lat="44.89842" lon="-0.06063">
        <ele>86.7</ele>
      </trkpt>
      <trkpt lat="44.89842" lon="-0.06059">
        <ele>86.7</ele>
      </trkpt>
      <trkpt lat="44.8984" lon="-0.06048">
        <ele>87</ele>
      </trkpt>
      <trkpt lat="44.89834" lon="-0.0602">
        <ele>88</ele>
      </trkpt>
      <trkpt lat="44.8983" lon="-0.06005">
        <ele>88</ele>
      </trkpt>
      <trkpt lat="44.89827" lon="-0.05993">
        <ele>88</ele>
      </trkpt>
      <trkpt lat="44.89823" lon="-0.0598">
        <ele>88</ele>
      </trkpt>
      <trkpt lat="44.89817" lon="-0.05966">
        <ele>88</ele>
      </trkpt>
      <trkpt lat="44.89806" lon="-0.0594">
        <ele>88</ele>
      </trkpt>
      <trkpt lat="44.89786" lon="-0.05896">
        <ele>87.8</ele>
      </trkpt>
      <trkpt lat="44.8978" lon="-0.05882">
        <ele>87.9</ele>
      </trkpt>
      <trkpt lat="44.89778" lon="-0.05872">
        <ele>88</ele>
      </trkpt>
      <trkpt lat="44.89774" lon="-0.05857">
        <ele>88</ele>
      </trkpt>
      <trkpt lat="44.89767" lon="-0.05829">
        <ele>88</ele>
      </trkpt>
      <trkpt lat="44.89756" lon="-0.05792">
        <ele>88.4</ele>
      </trkpt>
      <trkpt lat="44.89751" lon="-0.05779">
        <ele>88.9</ele>
      </trkpt>
      <trkpt lat="44.89743" lon="-0.05756">
        <ele>88.4</ele>
      </trkpt>
      <trkpt lat="44.89732" lon="-0.05728">
        <ele>88.6</ele>
      </trkpt>
      <trkpt lat="44.89727" lon="-0.05712">
        <ele>88.8</ele>
      </trkpt>
      <trkpt lat="44.89724" lon="-0.05703">
        <ele>88.9</ele>
      </trkpt>
      <trkpt lat="44.89722" lon="-0.05694">
        <ele>89</ele>
      </trkpt>
      <trkpt lat="44.89722" lon="-0.05687">
        <ele>89</ele>
      </trkpt>
      <trkpt lat="44.89722" lon="-0.05681">
        <ele>89</ele>
      </trkpt>
      <trkpt lat="44.89723" lon="-0.05675">
        <ele>89</ele>
      </trkpt>
      <trkpt lat="44.89725" lon="-0.05668">
        <ele>88.9</ele>
      </trkpt>
      <trkpt lat="44.89715" lon="-0.05588">
        <ele>87.7</ele>
      </trkpt>
      <trkpt lat="44.89725" lon="-0.05492">
        <ele>85.6</ele>
      </trkpt>
      <trkpt lat="44.89686" lon="-0.05416">
        <ele>86.3</ele>
      </trkpt>
      <trkpt lat="44.89649" lon="-0.05356">
        <ele>84.5</ele>
      </trkpt>
      <trkpt lat="44.89645" lon="-0.05337">
        <ele>84.1</ele>
      </trkpt>
      <trkpt lat="44.89628" lon="-0.05278">
        <ele>85.4</ele>
      </trkpt>
      <trkpt lat="44.89589" lon="-0.05173">
        <ele>88.8</ele>
      </trkpt>
      <trkpt lat="44.89581" lon="-0.05137">
        <ele>90</ele>
      </trkpt>
      <trkpt lat="44.89582" lon="-0.05093">
        <ele>90.7</ele>
      </trkpt>
      <trkpt lat="44.8959" lon="-0.05054">
        <ele>91.8</ele>
      </trkpt>
      <trkpt lat="44.89609" lon="-0.05045">
        <ele>91.4</ele>
      </trkpt>
      <trkpt lat="44.89625" lon="-0.05034">
        <ele>91.4</ele>
      </trkpt>
      <trkpt lat="44.89624" lon="-0.04995">
        <ele>92.1</ele>
      </trkpt>
      <trkpt lat="44.89617" lon="-0.04964">
        <ele>93.1</ele>
      </trkpt>
      <trkpt lat="44.89414" lon="-0.05021">
        <ele>91</ele>
      </trkpt>
      <trkpt lat="44.89383" lon="-0.04815">
        <ele>91.1</ele>
      </trkpt>
      <trkpt lat="44.8935" lon="-0.04643">
        <ele>92.8</ele>
      </trkpt>
      <trkpt lat="44.89313" lon="-0.0442">
        <ele>95.2</ele>
      </trkpt>
      <trkpt lat="44.89335" lon="-0.04384">
        <ele>94.9</ele>
      </trkpt>
      <trkpt lat="44.89354" lon="-0.04373">
        <ele>95.2</ele>
      </trkpt>
      <trkpt lat="44.8934" lon="-0.04353">
        <ele>94.2</ele>
      </trkpt>
      <trkpt lat="44.89307" lon="-0.0435">
        <ele>94</ele>
      </trkpt>
      <trkpt lat="44.8929" lon="-0.04341">
        <ele>93.6</ele>
      </trkpt>
      <trkpt lat="44.89279" lon="-0.04289">
        <ele>92.4</ele>
      </trkpt>
      <trkpt lat="44.89261" lon="-0.04212">
        <ele>89.9</ele>
      </trkpt>
      <trkpt lat="44.8926" lon="-0.04174">
        <ele>87.1</ele>
      </trkpt>
      <trkpt lat="44.89247" lon="-0.04141">
        <ele>85.4</ele>
      </trkpt>
      <trkpt lat="44.89252" lon="-0.04042">
        <ele>80.4</ele>
      </trkpt>
      <trkpt lat="44.89233" lon="-0.03968">
        <ele>77.6</ele>
      </trkpt>
      <trkpt lat="44.89232" lon="-0.03945">
        <ele>76.3</ele>
      </trkpt>
      <trkpt lat="44.89183" lon="-0.03969">
        <ele>81.7</ele>
      </trkpt>
      <trkpt lat="44.89134" lon="-0.03989">
        <ele>84.9</ele>
      </trkpt>
      <trkpt lat="44.89075" lon="-0.04008">
        <ele>89.6</ele>
      </trkpt>
      <trkpt lat="44.89045" lon="-0.04024">
        <ele>90.1</ele>
      </trkpt>
      <trkpt lat="44.89045" lon="-0.03974">
        <ele>88.3</ele>
      </trkpt>
      <trkpt lat="44.89041" lon="-0.03921">
        <ele>85.7</ele>
      </trkpt>
      <trkpt lat="44.8904" lon="-0.03901">
        <ele>85.3</ele>
      </trkpt>
      <trkpt lat="44.89017" lon="-0.03716">
        <ele>79</ele>
      </trkpt>
      <trkpt lat="44.89005" lon="-0.03595">
        <ele>74.8</ele>
      </trkpt>
      <trkpt lat="44.88996" lon="-0.03515">
        <ele>73.4</ele>
      </trkpt>
      <trkpt lat="44.88985" lon="-0.03478">
        <ele>72.5</ele>
      </trkpt>
      <trkpt lat="44.88964" lon="-0.03421">
        <ele>70.4</ele>
      </trkpt>
      <trkpt lat="44.88869" lon="-0.03193">
        <ele>64.4</ele>
      </trkpt>
      <trkpt lat="44.88866" lon="-0.03038">
        <ele>57.6</ele>
      </trkpt>
      <trkpt lat="44.8879" lon="-0.02729">
        <ele>41.8</ele>
      </trkpt>
      <trkpt lat="44.88894" lon="-0.02609">
        <ele>44.6</ele>
      </trkpt>
      <trkpt lat="44.88809" lon="-0.02292">
        <ele>46.2</ele>
      </trkpt>
      <trkpt lat="44.88772" lon="-0.01957">
        <ele>42</ele>
      </trkpt>
      <trkpt lat="44.88772" lon="-0.01922">
        <ele>41.4</ele>
      </trkpt>
      <trkpt lat="44.88768" lon="-0.01921">
        <ele>41</ele>
      </trkpt>
      <trkpt lat="44.88762" lon="-0.01921">
        <ele>40.4</ele>
      </trkpt>
      <trkpt lat="44.88757" lon="-0.01922">
        <ele>39.9</ele>
      </trkpt>
      <trkpt lat="44.88752" lon="-0.01922">
        <ele>39.4</ele>
      </trkpt>
      <trkpt lat="44.88748" lon="-0.01923">
        <ele>39</ele>
      </trkpt>
      <trkpt lat="44.88744" lon="-0.01925">
        <ele>38.5</ele>
      </trkpt>
      <trkpt lat="44.88738" lon="-0.0193">
        <ele>38</ele>
      </trkpt>
      <trkpt lat="44.88731" lon="-0.01938">
        <ele>37.6</ele>
      </trkpt>
      <trkpt lat="44.8872" lon="-0.01955">
        <ele>37</ele>
      </trkpt>
      <trkpt lat="44.88709" lon="-0.0198">
        <ele>35.8</ele>
      </trkpt>
      <trkpt lat="44.88706" lon="-0.01991">
        <ele>35.5</ele>
      </trkpt>
      <trkpt lat="44.887" lon="-0.02005">
        <ele>34.9</ele>
      </trkpt>
      <trkpt lat="44.88693" lon="-0.02017">
        <ele>34.5</ele>
      </trkpt>
      <trkpt lat="44.88688" lon="-0.02022">
        <ele>34.1</ele>
      </trkpt>
      <trkpt lat="44.88685" lon="-0.02025">
        <ele>33.9</ele>
      </trkpt>
      <trkpt lat="44.8868" lon="-0.02028">
        <ele>33.5</ele>
      </trkpt>
      <trkpt lat="44.88675" lon="-0.02031">
        <ele>33.1</ele>
      </trkpt>
      <trkpt lat="44.8867" lon="-0.02033">
        <ele>32.7</ele>
      </trkpt>
      <trkpt lat="44.88665" lon="-0.02035">
        <ele>32.5</ele>
      </trkpt>
      <trkpt lat="44.88659" lon="-0.02036">
        <ele>32.5</ele>
      </trkpt>
      <trkpt lat="44.88652" lon="-0.02036">
        <ele>32.4</ele>
      </trkpt>
      <trkpt lat="44.88646" lon="-0.02036">
        <ele>32.4</ele>
      </trkpt>
      <trkpt lat="44.88643" lon="-0.02035">
        <ele>32.3</ele>
      </trkpt>
      <trkpt lat="44.88637" lon="-0.02035">
        <ele>32.3</ele>
      </trkpt>
      <trkpt lat="44.88629" lon="-0.02035">
        <ele>32.5</ele>
      </trkpt>
      <trkpt lat="44.88621" lon="-0.02036">
        <ele>32.7</ele>
      </trkpt>
      <trkpt lat="44.88614" lon="-0.02036">
        <ele>32.9</ele>
      </trkpt>
      <trkpt lat="44.88608" lon="-0.02036">
        <ele>33.1</ele>
      </trkpt>
      <trkpt lat="44.88607" lon="-0.02036">
        <ele>33.1</ele>
      </trkpt>
      <trkpt lat="44.88601" lon="-0.02037">
        <ele>33.4</ele>
      </trkpt>
      <trkpt lat="44.88595" lon="-0.02038">
        <ele>33.6</ele>
      </trkpt>
      <trkpt lat="44.88589" lon="-0.0204">
        <ele>33.8</ele>
      </trkpt>
      <trkpt lat="44.88584" lon="-0.02042">
        <ele>34</ele>
      </trkpt>
      <trkpt lat="44.8858" lon="-0.02045">
        <ele>34.4</ele>
      </trkpt>
      <trkpt lat="44.88576" lon="-0.02049">
        <ele>34.8</ele>
      </trkpt>
      <trkpt lat="44.88573" lon="-0.02052">
        <ele>35.1</ele>
      </trkpt>
      <trkpt lat="44.88569" lon="-0.02057">
        <ele>35.5</ele>
      </trkpt>
      <trkpt lat="44.88566" lon="-0.02061">
        <ele>35.9</ele>
      </trkpt>
      <trkpt lat="44.88564" lon="-0.02065">
        <ele>36.1</ele>
      </trkpt>
      <trkpt lat="44.88562" lon="-0.0207">
        <ele>36.3</ele>
      </trkpt>
      <trkpt lat="44.8856" lon="-0.02077">
        <ele>36.5</ele>
      </trkpt>
      <trkpt lat="44.88559" lon="-0.02083">
        <ele>36.6</ele>
      </trkpt>
      <trkpt lat="44.88557" lon="-0.02091">
        <ele>36.8</ele>
      </trkpt>
      <trkpt lat="44.88555" lon="-0.02097">
        <ele>37.1</ele>
      </trkpt>
      <trkpt lat="44.88554" lon="-0.02105">
        <ele>37.2</ele>
      </trkpt>
      <trkpt lat="44.88552" lon="-0.02116">
        <ele>37.2</ele>
      </trkpt>
      <trkpt lat="44.88551" lon="-0.02125">
        <ele>37.1</ele>
      </trkpt>
      <trkpt lat="44.8855" lon="-0.02135">
        <ele>36.9</ele>
      </trkpt>
      <trkpt lat="44.88548" lon="-0.02144">
        <ele>37.1</ele>
      </trkpt>
      <trkpt lat="44.88547" lon="-0.02152">
        <ele>37.2</ele>
      </trkpt>
      <trkpt lat="44.88545" lon="-0.02162">
        <ele>37.5</ele>
      </trkpt>
      <trkpt lat="44.88543" lon="-0.0217">
        <ele>37.8</ele>
      </trkpt>
      <trkpt lat="44.8854" lon="-0.02179">
        <ele>38</ele>
      </trkpt>
      <trkpt lat="44.88537" lon="-0.02187">
        <ele>38.2</ele>
      </trkpt>
      <trkpt lat="44.88534" lon="-0.02194">
        <ele>38.3</ele>
      </trkpt>
      <trkpt lat="44.8853" lon="-0.02202">
        <ele>38.5</ele>
      </trkpt>
      <trkpt lat="44.88526" lon="-0.0221">
        <ele>38.6</ele>
      </trkpt>
      <trkpt lat="44.8852" lon="-0.02217">
        <ele>39</ele>
      </trkpt>
      <trkpt lat="44.88514" lon="-0.02223">
        <ele>39.4</ele>
      </trkpt>
      <trkpt lat="44.8851" lon="-0.02226">
        <ele>39.6</ele>
      </trkpt>
      <trkpt lat="44.88504" lon="-0.02229">
        <ele>40.1</ele>
      </trkpt>
      <trkpt lat="44.88498" lon="-0.02232">
        <ele>40.4</ele>
      </trkpt>
      <trkpt lat="44.88492" lon="-0.02233">
        <ele>40.7</ele>
      </trkpt>
      <trkpt lat="44.88486" lon="-0.02233">
        <ele>41</ele>
      </trkpt>
      <trkpt lat="44.8848" lon="-0.02232">
        <ele>41.5</ele>
      </trkpt>
      <trkpt lat="44.88473" lon="-0.0223">
        <ele>42.1</ele>
      </trkpt>
      <trkpt lat="44.88468" lon="-0.02229">
        <ele>42.4</ele>
      </trkpt>
      <trkpt lat="44.88462" lon="-0.02226">
        <ele>43</ele>
      </trkpt>
      <trkpt lat="44.88456" lon="-0.02223">
        <ele>43.5</ele>
      </trkpt>
      <trkpt lat="44.88449" lon="-0.0222">
        <ele>44</ele>
      </trkpt>
      <trkpt lat="44.88443" lon="-0.02216">
        <ele>44.4</ele>
      </trkpt>
      <trkpt lat="44.88438" lon="-0.02213">
        <ele>44.7</ele>
      </trkpt>
      <trkpt lat="44.88432" lon="-0.02209">
        <ele>45</ele>
      </trkpt>
      <trkpt lat="44.88427" lon="-0.02204">
        <ele>45.3</ele>
      </trkpt>
      <trkpt lat="44.88422" lon="-0.02199">
        <ele>45.7</ele>
      </trkpt>
      <trkpt lat="44.88419" lon="-0.02194">
        <ele>46</ele>
      </trkpt>
      <trkpt lat="44.88416" lon="-0.02189">
        <ele>46.4</ele>
      </trkpt>
      <trkpt lat="44.88408" lon="-0.02176">
        <ele>47.5</ele>
      </trkpt>
      <trkpt lat="44.88405" lon="-0.0217">
        <ele>48.1</ele>
      </trkpt>
      <trkpt lat="44.88394" lon="-0.02145">
        <ele>50.2</ele>
      </trkpt>
      <trkpt lat="44.8839" lon="-0.02138">
        <ele>51</ele>
      </trkpt>
      <trkpt lat="44.88388" lon="-0.02134">
        <ele>51.2</ele>
      </trkpt>
      <trkpt lat="44.88385" lon="-0.02131">
        <ele>51.5</ele>
      </trkpt>
      <trkpt lat="44.8838" lon="-0.02126">
        <ele>51.9</ele>
      </trkpt>
      <trkpt lat="44.88374" lon="-0.02122">
        <ele>52.5</ele>
      </trkpt>
      <trkpt lat="44.88367" lon="-0.02117">
        <ele>53.2</ele>
      </trkpt>
      <trkpt lat="44.88359" lon="-0.02113">
        <ele>53.9</ele>
      </trkpt>
      <trkpt lat="44.88352" lon="-0.02109">
        <ele>54.3</ele>
      </trkpt>
      <trkpt lat="44.88345" lon="-0.02104">
        <ele>54.6</ele>
      </trkpt>
      <trkpt lat="44.88338" lon="-0.02098">
        <ele>55.1</ele>
      </trkpt>
      <trkpt lat="44.88332" lon="-0.02093">
        <ele>55.7</ele>
      </trkpt>
      <trkpt lat="44.88327" lon="-0.02087">
        <ele>56.3</ele>
      </trkpt>
      <trkpt lat="44.88322" lon="-0.0208">
        <ele>56.7</ele>
      </trkpt>
      <trkpt lat="44.88318" lon="-0.02073">
        <ele>56.9</ele>
      </trkpt>
      <trkpt lat="44.88314" lon="-0.02067">
        <ele>57.2</ele>
      </trkpt>
      <trkpt lat="44.8831" lon="-0.0206">
        <ele>57.5</ele>
      </trkpt>
      <trkpt lat="44.88305" lon="-0.02053">
        <ele>57.9</ele>
      </trkpt>
      <trkpt lat="44.883" lon="-0.02046">
        <ele>58.1</ele>
      </trkpt>
      <trkpt lat="44.88296" lon="-0.02041">
        <ele>58.3</ele>
      </trkpt>
      <trkpt lat="44.88292" lon="-0.02037">
        <ele>58.6</ele>
      </trkpt>
      <trkpt lat="44.88288" lon="-0.02034">
        <ele>59</ele>
      </trkpt>
      <trkpt lat="44.88282" lon="-0.02031">
        <ele>59.6</ele>
      </trkpt>
      <trkpt lat="44.88277" lon="-0.02029">
        <ele>60.1</ele>
      </trkpt>
      <trkpt lat="44.88272" lon="-0.02029">
        <ele>60.4</ele>
      </trkpt>
      <trkpt lat="44.88268" lon="-0.02029">
        <ele>60.7</ele>
      </trkpt>
      <trkpt lat="44.88262" lon="-0.0203">
        <ele>61.1</ele>
      </trkpt>
      <trkpt lat="44.88254" lon="-0.02032">
        <ele>61.7</ele>
      </trkpt>
      <trkpt lat="44.88249" lon="-0.02034">
        <ele>62</ele>
      </trkpt>
      <trkpt lat="44.88244" lon="-0.02037">
        <ele>62.1</ele>
      </trkpt>
      <trkpt lat="44.8824" lon="-0.02041">
        <ele>62.3</ele>
      </trkpt>
      <trkpt lat="44.88236" lon="-0.02046">
        <ele>62.7</ele>
      </trkpt>
      <trkpt lat="44.88225" lon="-0.02055">
        <ele>63.8</ele>
      </trkpt>
      <trkpt lat="44.88216" lon="-0.02062">
        <ele>64.1</ele>
      </trkpt>
      <trkpt lat="44.88209" lon="-0.02065">
        <ele>64.3</ele>
      </trkpt>
      <trkpt lat="44.88196" lon="-0.0207">
        <ele>65</ele>
      </trkpt>
      <trkpt lat="44.88188" lon="-0.0207">
        <ele>65.6</ele>
      </trkpt>
      <trkpt lat="44.88181" lon="-0.0207">
        <ele>66.2</ele>
      </trkpt>
      <trkpt lat="44.88175" lon="-0.02069">
        <ele>66.7</ele>
      </trkpt>
      <trkpt lat="44.8817" lon="-0.02068">
        <ele>67.1</ele>
      </trkpt>
      <trkpt lat="44.88165" lon="-0.02066">
        <ele>67.5</ele>
      </trkpt>
      <trkpt lat="44.8816" lon="-0.02065">
        <ele>67.8</ele>
      </trkpt>
      <trkpt lat="44.88156" lon="-0.02064">
        <ele>68.1</ele>
      </trkpt>
      <trkpt lat="44.8815" lon="-0.02065">
        <ele>68.5</ele>
      </trkpt>
      <trkpt lat="44.88148" lon="-0.02064">
        <ele>68.6</ele>
      </trkpt>
      <trkpt lat="44.88139" lon="-0.02067">
        <ele>69.4</ele>
      </trkpt>
      <trkpt lat="44.88127" lon="-0.02073">
        <ele>70.5</ele>
      </trkpt>
      <trkpt lat="44.88125" lon="-0.0206">
        <ele>70.2</ele>
      </trkpt>
      <trkpt lat="44.88127" lon="-0.02073">
        <ele>70.5</ele>
      </trkpt>
      <trkpt lat="44.88034" lon="-0.02131">
        <ele>76.4</ele>
      </trkpt>
      <trkpt lat="44.88028" lon="-0.02137">
        <ele>77</ele>
      </trkpt>
      <trkpt lat="44.88022" lon="-0.02143">
        <ele>77.9</ele>
      </trkpt>
      <trkpt lat="44.8802" lon="-0.02151">
        <ele>78.2</ele>
      </trkpt>
      <trkpt lat="44.88019" lon="-0.02159">
        <ele>78.5</ele>
      </trkpt>
      <trkpt lat="44.88018" lon="-0.02176">
        <ele>79</ele>
      </trkpt>
      <trkpt lat="44.88017" lon="-0.02196">
        <ele>79.6</ele>
      </trkpt>
      <trkpt lat="44.88016" lon="-0.02219">
        <ele>80.6</ele>
      </trkpt>
      <trkpt lat="44.88014" lon="-0.02234">
        <ele>81.2</ele>
      </trkpt>
      <trkpt lat="44.88009" lon="-0.02249">
        <ele>82</ele>
      </trkpt>
      <trkpt lat="44.87999" lon="-0.02269">
        <ele>83.1</ele>
      </trkpt>
      <trkpt lat="44.87986" lon="-0.0229">
        <ele>84.4</ele>
      </trkpt>
      <trkpt lat="44.87972" lon="-0.02308">
        <ele>85.1</ele>
      </trkpt>
      <trkpt lat="44.87938" lon="-0.0234">
        <ele>85.6</ele>
      </trkpt>
      <trkpt lat="44.87888" lon="-0.02388">
        <ele>87</ele>
      </trkpt>
      <trkpt lat="44.87848" lon="-0.02425">
        <ele>89.3</ele>
      </trkpt>
      <trkpt lat="44.87829" lon="-0.02445">
        <ele>90.3</ele>
      </trkpt>
      <trkpt lat="44.87828" lon="-0.02475">
        <ele>91.4</ele>
      </trkpt>
      <trkpt lat="44.87832" lon="-0.02494">
        <ele>91.1</ele>
      </trkpt>
      <trkpt lat="44.87837" lon="-0.0253">
        <ele>91.8</ele>
      </trkpt>
      <trkpt lat="44.87842" lon="-0.02557">
        <ele>92.5</ele>
      </trkpt>
      <trkpt lat="44.87847" lon="-0.02579">
        <ele>93.3</ele>
      </trkpt>
      <trkpt lat="44.87853" lon="-0.02598">
        <ele>93.4</ele>
      </trkpt>
      <trkpt lat="44.87866" lon="-0.02622">
        <ele>93.4</ele>
      </trkpt>
      <trkpt lat="44.87874" lon="-0.02643">
        <ele>93.8</ele>
      </trkpt>
      <trkpt lat="44.87887" lon="-0.02682">
        <ele>93.8</ele>
      </trkpt>
      <trkpt lat="44.8789" lon="-0.02693">
        <ele>93.8</ele>
      </trkpt>
      <trkpt lat="44.87892" lon="-0.02705">
        <ele>94.1</ele>
      </trkpt>
      <trkpt lat="44.87892" lon="-0.02716">
        <ele>94.5</ele>
      </trkpt>
      <trkpt lat="44.8789" lon="-0.02726">
        <ele>95.1</ele>
      </trkpt>
      <trkpt lat="44.87887" lon="-0.0274">
        <ele>95.8</ele>
      </trkpt>
      <trkpt lat="44.87884" lon="-0.0275">
        <ele>96.4</ele>
      </trkpt>
      <trkpt lat="44.8788" lon="-0.02759">
        <ele>96.9</ele>
      </trkpt>
      <trkpt lat="44.87875" lon="-0.02767">
        <ele>97.3</ele>
      </trkpt>
      <trkpt lat="44.8787" lon="-0.02774">
        <ele>97.6</ele>
      </trkpt>
      <trkpt lat="44.8782" lon="-0.02811">
        <ele>99.6</ele>
      </trkpt>
      <trkpt lat="44.87816" lon="-0.0281">
        <ele>98.601562</ele>
      </trkpt>
      <trkpt lat="44.87739" lon="-0.02483">
        <ele>94.5625</ele>
      </trkpt>
      <trkpt lat="44.87642" lon="-0.02262">
        <ele>87.078125</ele>
      </trkpt>
      <trkpt lat="44.87627" lon="-0.02224">
        <ele>85.144531</ele>
      </trkpt>
      <trkpt lat="44.87719" lon="-0.02138">
        <ele>76.34375</ele>
      </trkpt>
      <trkpt lat="44.87717" lon="-0.02102">
        <ele>74.597656</ele>
      </trkpt>
      <trkpt lat="44.87688" lon="-0.02001">
        <ele>71.851562</ele>
      </trkpt>
      <trkpt lat="44.8764" lon="-0.01912">
        <ele>70.058594</ele>
      </trkpt>
      <trkpt lat="44.87565" lon="-0.01839">
        <ele>70.453125</ele>
      </trkpt>
      <trkpt lat="44.87441" lon="-0.01752">
        <ele>71.894531</ele>
      </trkpt>
      <trkpt lat="44.87369" lon="-0.0174">
        <ele>69.984375</ele>
      </trkpt>
      <trkpt lat="44.87263" lon="-0.01724">
        <ele>62.351562</ele>
      </trkpt>
      <trkpt lat="44.87212" lon="-0.01692">
        <ele>57.394531</ele>
      </trkpt>
      <trkpt lat="44.87052" lon="-0.01679">
        <ele>39.925781</ele>
      </trkpt>
      <trkpt lat="44.8704" lon="-0.01661">
        <ele>38.414062</ele>
      </trkpt>
      <trkpt lat="44.86885" lon="-0.01656">
        <ele>24.019531</ele>
      </trkpt>
      <trkpt lat="44.8684" lon="-0.01664">
        <ele>25.90625</ele>
      </trkpt>
      <trkpt lat="44.86749" lon="-0.01712">
        <ele>32.40625</ele>
      </trkpt>
      <trkpt lat="44.86754" lon="-0.01819">
        <ele>40.382812</ele>
      </trkpt>
      <trkpt lat="44.86724" lon="-0.01951">
        <ele>52.226562</ele>
      </trkpt>
      <trkpt lat="44.86785" lon="-0.01996">
        <ele>50.851562</ele>
      </trkpt>
      <trkpt lat="44.86796" lon="-0.02148">
        <ele>51.488281</ele>
      </trkpt>
      <trkpt lat="44.86772" lon="-0.02159">
        <ele>55.933594</ele>
      </trkpt>
      <trkpt lat="44.86733" lon="-0.02113">
        <ele>64.078125</ele>
      </trkpt>
      <trkpt lat="44.86589" lon="-0.02169">
        <ele>80.453125</ele>
      </trkpt>
      <trkpt lat="44.86584" lon="-0.02313">
        <ele>82.445312</ele>
      </trkpt>
      <trkpt lat="44.86546" lon="-0.02389">
        <ele>85.84375</ele>
      </trkpt>
      <trkpt lat="44.86366" lon="-0.02432">
        <ele>90.535156</ele>
      </trkpt>
      <trkpt lat="44.86334" lon="-0.02511">
        <ele>92.351562</ele>
      </trkpt>
      <trkpt lat="44.86343" lon="-0.0262">
        <ele>93.992188</ele>
      </trkpt>
      <trkpt lat="44.8636" lon="-0.02691">
        <ele>95.1</ele>
      </trkpt>
      <trkpt lat="44.86351" lon="-0.02775">
        <ele>97.5</ele>
      </trkpt>
      <trkpt lat="44.86406" lon="-0.02944">
        <ele>101.2</ele>
      </trkpt>
      <trkpt lat="44.86488" lon="-0.03202">
        <ele>100.8</ele>
      </trkpt>
      <trkpt lat="44.86366" lon="-0.03255">
        <ele>93.6</ele>
      </trkpt>
      <trkpt lat="44.86327" lon="-0.03294">
        <ele>93.2</ele>
      </trkpt>
      <trkpt lat="44.8624" lon="-0.03448">
        <ele>86.5</ele>
      </trkpt>
      <trkpt lat="44.86185" lon="-0.03485">
        <ele>78.9</ele>
      </trkpt>
      <trkpt lat="44.86153" lon="-0.03455">
        <ele>74.2</ele>
      </trkpt>
      <trkpt lat="44.86123" lon="-0.03416">
        <ele>68.2</ele>
      </trkpt>
      <trkpt lat="44.86091" lon="-0.0338">
        <ele>61.3</ele>
      </trkpt>
      <trkpt lat="44.85951" lon="-0.03382">
        <ele>38.1</ele>
      </trkpt>
      <trkpt lat="44.85902" lon="-0.03384">
        <ele>34</ele>
      </trkpt>
      <trkpt lat="44.85835" lon="-0.03399">
        <ele>30.7</ele>
      </trkpt>
      <trkpt lat="44.85806" lon="-0.03416">
        <ele>30.9</ele>
      </trkpt>
      <trkpt lat="44.85759" lon="-0.03867">
        <ele>25.1</ele>
      </trkpt>
      <trkpt lat="44.8572" lon="-0.0418">
        <ele>24.5</ele>
      </trkpt>
      <trkpt lat="44.85709" lon="-0.04401">
        <ele>24</ele>
      </trkpt>
      <trkpt lat="44.85654" lon="-0.04443">
        <ele>21.6</ele>
      </trkpt>
      <trkpt lat="44.85565" lon="-0.04522">
        <ele>16.2</ele>
      </trkpt>
      <trkpt lat="44.85574" lon="-0.04606">
        <ele>16.9</ele>
      </trkpt>
      <trkpt lat="44.85543" lon="-0.04701">
        <ele>19.5</ele>
      </trkpt>
      <trkpt lat="44.85516" lon="-0.04803">
        <ele>20.4</ele>
      </trkpt>
      <trkpt lat="44.85428" lon="-0.04944">
        <ele>21</ele>
      </trkpt>
      <trkpt lat="44.85274" lon="-0.0518">
        <ele>21</ele>
      </trkpt>
      <trkpt lat="44.85096" lon="-0.05319">
        <ele>19</ele>
      </trkpt>
      <trkpt lat="44.84965" lon="-0.05307">
        <ele>18</ele>
      </trkpt>
      <trkpt lat="44.84944" lon="-0.05295">
        <ele>18</ele>
      </trkpt>
      <trkpt lat="44.84941" lon="-0.05304">
        <ele>17.9</ele>
      </trkpt>
      <trkpt lat="44.84939" lon="-0.05313">
        <ele>17.8</ele>
      </trkpt>
      <trkpt lat="44.8492" lon="-0.05378">
        <ele>17.1</ele>
      </trkpt>
      <trkpt lat="44.8491" lon="-0.05411">
        <ele>17</ele>
      </trkpt>
      <trkpt lat="44.84898" lon="-0.05443">
        <ele>17.3</ele>
      </trkpt>
      <trkpt lat="44.84895" lon="-0.0545">
        <ele>17.2</ele>
      </trkpt>
      <trkpt lat="44.84879" lon="-0.05491">
        <ele>17</ele>
      </trkpt>
      <trkpt lat="44.84873" lon="-0.05505">
        <ele>17</ele>
      </trkpt>
      <trkpt lat="44.84872" lon="-0.05508">
        <ele>17</ele>
      </trkpt>
      <trkpt lat="44.84868" lon="-0.05518">
        <ele>17</ele>
      </trkpt>
      <trkpt lat="44.84863" lon="-0.05531">
        <ele>17</ele>
      </trkpt>
      <trkpt lat="44.84852" lon="-0.05561">
        <ele>17</ele>
      </trkpt>
      <trkpt lat="44.84847" lon="-0.05577">
        <ele>17</ele>
      </trkpt>
      <trkpt lat="44.84829" lon="-0.05631">
        <ele>17</ele>
      </trkpt>
      <trkpt lat="44.84805" lon="-0.05697">
        <ele>17</ele>
      </trkpt>
      <trkpt lat="44.84799" lon="-0.05712">
        <ele>17</ele>
      </trkpt>
      <trkpt lat="44.84793" lon="-0.05728">
        <ele>17</ele>
      </trkpt>
      <trkpt lat="44.84787" lon="-0.05741">
        <ele>17</ele>
      </trkpt>
      <trkpt lat="44.84773" lon="-0.05772">
        <ele>17</ele>
      </trkpt>
      <trkpt lat="44.84755" lon="-0.05807">
        <ele>17.2</ele>
      </trkpt>
      <trkpt lat="44.84731" lon="-0.05854">
        <ele>17</ele>
      </trkpt>
      <trkpt lat="44.84719" lon="-0.05882">
        <ele>17</ele>
      </trkpt>
      <trkpt lat="44.84716" lon="-0.05882">
        <ele>17</ele>
      </trkpt>
      <trkpt lat="44.84714" lon="-0.05882">
        <ele>17</ele>
      </trkpt>
      <trkpt lat="44.84711" lon="-0.05883">
        <ele>17</ele>
      </trkpt>
      <trkpt lat="44.84708" lon="-0.05886">
        <ele>17</ele>
      </trkpt>
      <trkpt lat="44.84705" lon="-0.05889">
        <ele>17</ele>
      </trkpt>
      <trkpt lat="44.84695" lon="-0.05903">
        <ele>17</ele>
      </trkpt>
      <trkpt lat="44.8468" lon="-0.05923">
        <ele>17</ele>
      </trkpt>
      <trkpt lat="44.84673" lon="-0.05932">
        <ele>17</ele>
      </trkpt>
      <trkpt lat="44.84642" lon="-0.05972">
        <ele>17</ele>
      </trkpt>
      <trkpt lat="44.84607" lon="-0.06016">
        <ele>16</ele>
      </trkpt>
      <trkpt lat="44.84581" lon="-0.06042">
        <ele>16</ele>
      </trkpt>
      <trkpt lat="44.84542" lon="-0.06081">
        <ele>16</ele>
      </trkpt>
      <trkpt lat="44.84516" lon="-0.0611">
        <ele>16</ele>
      </trkpt>
      <trkpt lat="44.84497" lon="-0.06136">
        <ele>16</ele>
      </trkpt>
      <trkpt lat="44.84475" lon="-0.06164">
        <ele>16</ele>
      </trkpt>
      <trkpt lat="44.84435" lon="-0.06218">
        <ele>16</ele>
      </trkpt>
      <trkpt lat="44.84383" lon="-0.06288">
        <ele>16</ele>
      </trkpt>
      <trkpt lat="44.84349" lon="-0.06333">
        <ele>16</ele>
      </trkpt>
      <trkpt lat="44.84333" lon="-0.06354">
        <ele>16</ele>
      </trkpt>
      <trkpt lat="44.84308" lon="-0.06385">
        <ele>16</ele>
      </trkpt>
      <trkpt lat="44.84296" lon="-0.06402">
        <ele>15.8</ele>
      </trkpt>
      <trkpt lat="44.84284" lon="-0.06419">
        <ele>15.2</ele>
      </trkpt>
      <trkpt lat="44.84248" lon="-0.06471">
        <ele>14</ele>
      </trkpt>
      <trkpt lat="44.84219" lon="-0.06515">
        <ele>13.9</ele>
      </trkpt>
      <trkpt lat="44.84184" lon="-0.06562">
        <ele>14</ele>
      </trkpt>
      <trkpt lat="44.84156" lon="-0.06604">
        <ele>13.7</ele>
      </trkpt>
      <trkpt lat="44.84144" lon="-0.06626">
        <ele>13.6</ele>
      </trkpt>
      <trkpt lat="44.84136" lon="-0.06644">
        <ele>14.1</ele>
      </trkpt>
      <trkpt lat="44.84125" lon="-0.06677">
        <ele>14.5</ele>
      </trkpt>
      <trkpt lat="44.84114" lon="-0.06708">
        <ele>14.5</ele>
      </trkpt>
      <trkpt lat="44.84104" lon="-0.06734">
        <ele>14</ele>
      </trkpt>
      <trkpt lat="44.84085" lon="-0.06769">
        <ele>13.9</ele>
      </trkpt>
      <trkpt lat="44.84064" lon="-0.06808">
        <ele>14.1</ele>
      </trkpt>
      <trkpt lat="44.84045" lon="-0.06839">
        <ele>14.7</ele>
      </trkpt>
      <trkpt lat="44.84029" lon="-0.06869">
        <ele>15</ele>
      </trkpt>
      <trkpt lat="44.84014" lon="-0.06906">
        <ele>15</ele>
      </trkpt>
      <trkpt lat="44.83999" lon="-0.06945">
        <ele>14.9</ele>
      </trkpt>
      <trkpt lat="44.83984" lon="-0.06989">
        <ele>14.2</ele>
      </trkpt>
      <trkpt lat="44.8397" lon="-0.07035">
        <ele>13.7</ele>
      </trkpt>
      <trkpt lat="44.83962" lon="-0.07064">
        <ele>13</ele>
      </trkpt>
      <trkpt lat="44.83954" lon="-0.07078">
        <ele>13</ele>
      </trkpt>
      <trkpt lat="44.83945" lon="-0.07091">
        <ele>12.7</ele>
      </trkpt>
      <trkpt lat="44.8393" lon="-0.07098">
        <ele>11.4</ele>
      </trkpt>
      <trkpt lat="44.83908" lon="-0.07105">
        <ele>9.5</ele>
      </trkpt>
      <trkpt lat="44.83892" lon="-0.0711">
        <ele>8.2</ele>
      </trkpt>
      <trkpt lat="44.83882" lon="-0.07115">
        <ele>7.8</ele>
      </trkpt>
      <trkpt lat="44.83871" lon="-0.07122">
        <ele>7.6</ele>
      </trkpt>
      <trkpt lat="44.83861" lon="-0.07131">
        <ele>7.7</ele>
      </trkpt>
      <trkpt lat="44.8385" lon="-0.07144">
        <ele>6.6</ele>
      </trkpt>
      <trkpt lat="44.8384" lon="-0.07158">
        <ele>6.5</ele>
      </trkpt>
      <trkpt lat="44.83832" lon="-0.07174">
        <ele>7</ele>
      </trkpt>
      <trkpt lat="44.83822" lon="-0.07198">
        <ele>6.1</ele>
      </trkpt>
      <trkpt lat="44.83812" lon="-0.07224">
        <ele>6.5</ele>
      </trkpt>
      <trkpt lat="44.83801" lon="-0.07264">
        <ele>6.8</ele>
      </trkpt>
      <trkpt lat="44.83795" lon="-0.07291">
        <ele>6.8</ele>
      </trkpt>
      <trkpt lat="44.83783" lon="-0.07321">
        <ele>6.8</ele>
      </trkpt>
      <trkpt lat="44.83781" lon="-0.07328">
        <ele>6.9</ele>
      </trkpt>
      <trkpt lat="44.83778" lon="-0.07336">
        <ele>7</ele>
      </trkpt>
      <trkpt lat="44.83777" lon="-0.07349">
        <ele>6.9</ele>
      </trkpt>
      <trkpt lat="44.83776" lon="-0.07363">
        <ele>6.9</ele>
      </trkpt>
      <trkpt lat="44.83777" lon="-0.07405">
        <ele>7</ele>
      </trkpt>
      <trkpt lat="44.83777" lon="-0.07434">
        <ele>7</ele>
      </trkpt>
      <trkpt lat="44.83778" lon="-0.07461">
        <ele>7</ele>
      </trkpt>
      <trkpt lat="44.83778" lon="-0.07488">
        <ele>7</ele>
      </trkpt>
      <trkpt lat="44.83778" lon="-0.07513">
        <ele>7</ele>
      </trkpt>
      <trkpt lat="44.83778" lon="-0.07515">
        <ele>7</ele>
      </trkpt>
      <trkpt lat="44.83778" lon="-0.07538">
        <ele>7</ele>
      </trkpt>
      <trkpt lat="44.83777" lon="-0.07562">
        <ele>7</ele>
      </trkpt>
      <trkpt lat="44.83775" lon="-0.0759">
        <ele>7</ele>
      </trkpt>
      <trkpt lat="44.83767" lon="-0.0768">
        <ele>7</ele>
      </trkpt>
      <trkpt lat="44.83755" lon="-0.07809">
        <ele>7</ele>
      </trkpt>
      <trkpt lat="44.83748" lon="-0.07891">
        <ele>7</ele>
      </trkpt>
      <trkpt lat="44.83744" lon="-0.07986">
        <ele>7</ele>
      </trkpt>
      <trkpt lat="44.83742" lon="-0.08063">
        <ele>7</ele>
      </trkpt>
      <trkpt lat="44.8374" lon="-0.08112">
        <ele>7</ele>
      </trkpt>
      <trkpt lat="44.83738" lon="-0.08132">
        <ele>7</ele>
      </trkpt>
      <trkpt lat="44.83723" lon="-0.08297">
        <ele>7</ele>
      </trkpt>
      <trkpt lat="44.83718" lon="-0.08359">
        <ele>7</ele>
      </trkpt>
      <trkpt lat="44.83714" lon="-0.08442">
        <ele>7</ele>
      </trkpt>
      <trkpt lat="44.83713" lon="-0.08481">
        <ele>7</ele>
      </trkpt>
      <trkpt lat="44.83713" lon="-0.08488">
        <ele>7</ele>
      </trkpt>
      <trkpt lat="44.83713" lon="-0.08481">
        <ele>7</ele>
      </trkpt>
      <trkpt lat="44.83731" lon="-0.08669">
        <ele>7</ele>
      </trkpt>
      <trkpt lat="44.8374" lon="-0.08862">
        <ele>6</ele>
      </trkpt>
      <trkpt lat="44.83684" lon="-0.09062">
        <ele>6</ele>
      </trkpt>
      <trkpt lat="44.83684" lon="-0.09311">
        <ele>6</ele>
      </trkpt>
      <trkpt lat="44.83698" lon="-0.09368">
        <ele>5.9</ele>
      </trkpt>
      <trkpt lat="44.83616" lon="-0.09559">
        <ele>6</ele>
      </trkpt>
      <trkpt lat="44.83456" lon="-0.09826">
        <ele>5</ele>
      </trkpt>
      <trkpt lat="44.83384" lon="-0.10053">
        <ele>5</ele>
      </trkpt>
      <trkpt lat="44.83325" lon="-0.10092">
        <ele>5.3</ele>
      </trkpt>
      <trkpt lat="44.83226" lon="-0.10248">
        <ele>5</ele>
      </trkpt>
      <trkpt lat="44.83095" lon="-0.10386">
        <ele>5.6</ele>
      </trkpt>
      <trkpt lat="44.83042" lon="-0.10471">
        <ele>6</ele>
      </trkpt>
      <trkpt lat="44.8305" lon="-0.10555">
        <ele>5.2</ele>
      </trkpt>
      <trkpt lat="44.83006" lon="-0.106">
        <ele>5</ele>
      </trkpt>
      <trkpt lat="44.83057" lon="-0.10836">
        <ele>5.8</ele>
      </trkpt>
      <trkpt lat="44.82998" lon="-0.10892">
        <ele>5.1</ele>
      </trkpt>
      <trkpt lat="44.82957" lon="-0.10879">
        <ele>5.4</ele>
      </trkpt>
      <trkpt lat="44.82891" lon="-0.10901">
        <ele>5.2</ele>
      </trkpt>
      <trkpt lat="44.82796" lon="-0.10924">
        <ele>5.9</ele>
      </trkpt>
      <trkpt lat="44.82828" lon="-0.1135">
        <ele>8.9</ele>
      </trkpt>
      <trkpt lat="44.82822" lon="-0.11349">
        <ele>8.8</ele>
      </trkpt>
      <trkpt lat="44.82819" lon="-0.11361">
        <ele>8.5</ele>
      </trkpt>
      <trkpt lat="44.82817" lon="-0.11368">
        <ele>8.3</ele>
      </trkpt>
      <trkpt lat="44.82816" lon="-0.11375">
        <ele>8.2</ele>
      </trkpt>
      <trkpt lat="44.82818" lon="-0.11427">
        <ele>8</ele>
      </trkpt>
      <trkpt lat="44.82821" lon="-0.11469">
        <ele>8</ele>
      </trkpt>
      <trkpt lat="44.82822" lon="-0.11493">
        <ele>8</ele>
      </trkpt>
      <trkpt lat="44.82832" lon="-0.1157">
        <ele>8</ele>
      </trkpt>
      <trkpt lat="44.82838" lon="-0.11609">
        <ele>8</ele>
      </trkpt>
      <trkpt lat="44.82846" lon="-0.11652">
        <ele>7.8</ele>
      </trkpt>
      <trkpt lat="44.82853" lon="-0.11683">
        <ele>7.7</ele>
      </trkpt>
      <trkpt lat="44.82853" lon="-0.11687">
        <ele>7.8</ele>
      </trkpt>
      <trkpt lat="44.82855" lon="-0.11698">
        <ele>7.9</ele>
      </trkpt>
      <trkpt lat="44.82845" lon="-0.117">
        <ele>7.9</ele>
      </trkpt>
      <trkpt lat="44.82811" lon="-0.11709">
        <ele>7.6</ele>
      </trkpt>
      <trkpt lat="44.82774" lon="-0.1172">
        <ele>7</ele>
      </trkpt>
      <trkpt lat="44.82741" lon="-0.1173">
        <ele>6.5</ele>
      </trkpt>
      <trkpt lat="44.82733" lon="-0.11732">
        <ele>6.3</ele>
      </trkpt>
      <trkpt lat="44.82725" lon="-0.11734">
        <ele>6.1</ele>
      </trkpt>
      <trkpt lat="44.82713" lon="-0.11737">
        <ele>6</ele>
      </trkpt>
      <trkpt lat="44.82697" lon="-0.11741">
        <ele>6</ele>
      </trkpt>
      <trkpt lat="44.82686" lon="-0.11745">
        <ele>6.1</ele>
      </trkpt>
      <trkpt lat="44.82677" lon="-0.11749">
        <ele>6</ele>
      </trkpt>
      <trkpt lat="44.82671" lon="-0.11754">
        <ele>6</ele>
      </trkpt>
      <trkpt lat="44.82667" lon="-0.11762">
        <ele>6</ele>
      </trkpt>
      <trkpt lat="44.82662" lon="-0.11772">
        <ele>6</ele>
      </trkpt>
      <trkpt lat="44.82654" lon="-0.11797">
        <ele>6</ele>
      </trkpt>
      <trkpt lat="44.82641" lon="-0.11838">
        <ele>6</ele>
      </trkpt>
      <trkpt lat="44.82633" lon="-0.11861">
        <ele>6</ele>
      </trkpt>
      <trkpt lat="44.82626" lon="-0.11877">
        <ele>6</ele>
      </trkpt>
      <trkpt lat="44.82605" lon="-0.11918">
        <ele>6</ele>
      </trkpt>
      <trkpt lat="44.8258" lon="-0.11968">
        <ele>6.1</ele>
      </trkpt>
      <trkpt lat="44.82548" lon="-0.12028">
        <ele>6.3</ele>
      </trkpt>
      <trkpt lat="44.82527" lon="-0.12065">
        <ele>7</ele>
      </trkpt>
      <trkpt lat="44.82515" lon="-0.12088">
        <ele>7</ele>
      </trkpt>
      <trkpt lat="44.82508" lon="-0.121">
        <ele>7</ele>
      </trkpt>
      <trkpt lat="44.82502" lon="-0.12113">
        <ele>7</ele>
      </trkpt>
      <trkpt lat="44.82495" lon="-0.1213">
        <ele>7.1</ele>
      </trkpt>
      <trkpt lat="44.82488" lon="-0.12153">
        <ele>7.4</ele>
      </trkpt>
      <trkpt lat="44.8248" lon="-0.12176">
        <ele>7.5</ele>
      </trkpt>
      <trkpt lat="44.82475" lon="-0.12199">
        <ele>7.1</ele>
      </trkpt>
      <trkpt lat="44.82474" lon="-0.12203">
        <ele>7.3</ele>
      </trkpt>
      <trkpt lat="44.82469" lon="-0.12237">
        <ele>7.4</ele>
      </trkpt>
      <trkpt lat="44.82461" lon="-0.123">
        <ele>6.4</ele>
      </trkpt>
      <trkpt lat="44.82456" lon="-0.12344">
        <ele>7.2</ele>
      </trkpt>
      <trkpt lat="44.82449" lon="-0.12391">
        <ele>7.2</ele>
      </trkpt>
      <trkpt lat="44.82439" lon="-0.1244">
        <ele>6.8</ele>
      </trkpt>
      <trkpt lat="44.82425" lon="-0.12491">
        <ele>6</ele>
      </trkpt>
      <trkpt lat="44.82417" lon="-0.12525">
        <ele>6</ele>
      </trkpt>
      <trkpt lat="44.82407" lon="-0.12556">
        <ele>6</ele>
      </trkpt>
      <trkpt lat="44.82397" lon="-0.12588">
        <ele>6.3</ele>
      </trkpt>
      <trkpt lat="44.82379" lon="-0.12638">
        <ele>6</ele>
      </trkpt>
      <trkpt lat="44.82359" lon="-0.12681">
        <ele>5.8</ele>
      </trkpt>
      <trkpt lat="44.82358" lon="-0.12683">
        <ele>5.7</ele>
      </trkpt>
      <trkpt lat="44.82341" lon="-0.12721">
        <ele>6</ele>
      </trkpt>
      <trkpt lat="44.82325" lon="-0.12757">
        <ele>5.7</ele>
      </trkpt>
      <trkpt lat="44.82316" lon="-0.1278">
        <ele>6.3</ele>
      </trkpt>
      <trkpt lat="44.82306" lon="-0.12807">
        <ele>6.1</ele>
      </trkpt>
      <trkpt lat="44.82299" lon="-0.12824">
        <ele>6</ele>
      </trkpt>
      <trkpt lat="44.82288" lon="-0.12855">
        <ele>6.2</ele>
      </trkpt>
      <trkpt lat="44.82277" lon="-0.12881">
        <ele>6.6</ele>
      </trkpt>
      <trkpt lat="44.82264" lon="-0.12908">
        <ele>5.8</ele>
      </trkpt>
      <trkpt lat="44.82245" lon="-0.12938">
        <ele>6.4</ele>
      </trkpt>
      <trkpt lat="44.82216" lon="-0.12986">
        <ele>6</ele>
      </trkpt>
      <trkpt lat="44.82202" lon="-0.13005">
        <ele>6.4</ele>
      </trkpt>
      <trkpt lat="44.82183" lon="-0.1303">
        <ele>5.8</ele>
      </trkpt>
      <trkpt lat="44.82171" lon="-0.13046">
        <ele>5.5</ele>
      </trkpt>
      <trkpt lat="44.82158" lon="-0.13058">
        <ele>5.4</ele>
      </trkpt>
      <trkpt lat="44.82144" lon="-0.13071">
        <ele>5.3</ele>
      </trkpt>
      <trkpt lat="44.82135" lon="-0.13079">
        <ele>5.5</ele>
      </trkpt>
      <trkpt lat="44.82112" lon="-0.13097">
        <ele>6</ele>
      </trkpt>
      <trkpt lat="44.821" lon="-0.13107">
        <ele>5.8</ele>
      </trkpt>
      <trkpt lat="44.82086" lon="-0.1312">
        <ele>5.8</ele>
      </trkpt>
      <trkpt lat="44.82079" lon="-0.13128">
        <ele>5.9</ele>
      </trkpt>
      <trkpt lat="44.82074" lon="-0.13136">
        <ele>6.4</ele>
      </trkpt>
      <trkpt lat="44.82067" lon="-0.13148">
        <ele>6.6</ele>
      </trkpt>
      <trkpt lat="44.82063" lon="-0.13155">
        <ele>6.7</ele>
      </trkpt>
      <trkpt lat="44.82061" lon="-0.13163">
        <ele>6.9</ele>
      </trkpt>
      <trkpt lat="44.82053" lon="-0.13197">
        <ele>6.3</ele>
      </trkpt>
      <trkpt lat="44.82043" lon="-0.13246">
        <ele>7.1</ele>
      </trkpt>
      <trkpt lat="44.82038" lon="-0.13267">
        <ele>7.4</ele>
      </trkpt>
      <trkpt lat="44.82033" lon="-0.13294">
        <ele>7.3</ele>
      </trkpt>
      <trkpt lat="44.82023" lon="-0.13339">
        <ele>7</ele>
      </trkpt>
      <trkpt lat="44.82018" lon="-0.13368">
        <ele>7</ele>
      </trkpt>
      <trkpt lat="44.82013" lon="-0.13391">
        <ele>7</ele>
      </trkpt>
      <trkpt lat="44.82012" lon="-0.13405">
        <ele>7</ele>
      </trkpt>
      <trkpt lat="44.82011" lon="-0.13422">
        <ele>7</ele>
      </trkpt>
      <trkpt lat="44.8201" lon="-0.1345">
        <ele>7</ele>
      </trkpt>
      <trkpt lat="44.82012" lon="-0.13493">
        <ele>7</ele>
      </trkpt>
      <trkpt lat="44.82012" lon="-0.13497">
        <ele>7</ele>
      </trkpt>
      <trkpt lat="44.82012" lon="-0.13517">
        <ele>7.3</ele>
      </trkpt>
      <trkpt lat="44.82012" lon="-0.13541">
        <ele>7.3</ele>
      </trkpt>
      <trkpt lat="44.82004" lon="-0.13541">
        <ele>7.4</ele>
      </trkpt>
      <trkpt lat="44.82" lon="-0.13541">
        <ele>7.5</ele>
      </trkpt>
      <trkpt lat="44.81995" lon="-0.1354">
        <ele>7.6</ele>
      </trkpt>
      <trkpt lat="44.81994" lon="-0.1354">
        <ele>7.6</ele>
      </trkpt>
      <trkpt lat="44.81986" lon="-0.1354">
        <ele>7.6</ele>
      </trkpt>
      <trkpt lat="44.81973" lon="-0.13542">
        <ele>7.5</ele>
      </trkpt>
      <trkpt lat="44.81966" lon="-0.13544">
        <ele>7.3</ele>
      </trkpt>
      <trkpt lat="44.8196" lon="-0.13547">
        <ele>7.2</ele>
      </trkpt>
      <trkpt lat="44.81952" lon="-0.13552">
        <ele>7</ele>
      </trkpt>
      <trkpt lat="44.81946" lon="-0.13555">
        <ele>7</ele>
      </trkpt>
      <trkpt lat="44.81938" lon="-0.13556">
        <ele>7</ele>
      </trkpt>
      <trkpt lat="44.8193" lon="-0.13558">
        <ele>7</ele>
      </trkpt>
      <trkpt lat="44.8192" lon="-0.1356">
        <ele>7</ele>
      </trkpt>
      <trkpt lat="44.81897" lon="-0.13567">
        <ele>7</ele>
      </trkpt>
      <trkpt lat="44.81878" lon="-0.13574">
        <ele>7</ele>
      </trkpt>
      <trkpt lat="44.81847" lon="-0.13586">
        <ele>7</ele>
      </trkpt>
      <trkpt lat="44.81839" lon="-0.13588">
        <ele>7</ele>
      </trkpt>
      <trkpt lat="44.81832" lon="-0.13591">
        <ele>7</ele>
      </trkpt>
      <trkpt lat="44.81822" lon="-0.13597">
        <ele>7</ele>
      </trkpt>
      <trkpt lat="44.81811" lon="-0.13602">
        <ele>7</ele>
      </trkpt>
      <trkpt lat="44.81794" lon="-0.13608">
        <ele>7</ele>
      </trkpt>
      <trkpt lat="44.8178" lon="-0.13612">
        <ele>7</ele>
      </trkpt>
      <trkpt lat="44.81763" lon="-0.13617">
        <ele>7</ele>
      </trkpt>
      <trkpt lat="44.81761" lon="-0.13618">
        <ele>7</ele>
      </trkpt>
      <trkpt lat="44.81731" lon="-0.13629">
        <ele>7</ele>
      </trkpt>
      <trkpt lat="44.81725" lon="-0.13632">
        <ele>7</ele>
      </trkpt>
      <trkpt lat="44.8169" lon="-0.13646">
        <ele>7</ele>
      </trkpt>
      <trkpt lat="44.81672" lon="-0.13654">
        <ele>7</ele>
      </trkpt>
      <trkpt lat="44.81664" lon="-0.1366">
        <ele>7</ele>
      </trkpt>
      <trkpt lat="44.8166" lon="-0.13663">
        <ele>7</ele>
      </trkpt>
      <trkpt lat="44.81656" lon="-0.13667">
        <ele>7</ele>
      </trkpt>
      <trkpt lat="44.81643" lon="-0.13693">
        <ele>7</ele>
      </trkpt>
      <trkpt lat="44.81637" lon="-0.13706">
        <ele>7</ele>
      </trkpt>
      <trkpt lat="44.81632" lon="-0.13714">
        <ele>6.9</ele>
      </trkpt>
      <trkpt lat="44.81622" lon="-0.13727">
        <ele>6.9</ele>
      </trkpt>
      <trkpt lat="44.81587" lon="-0.13762">
        <ele>7.3</ele>
      </trkpt>
      <trkpt lat="44.81556" lon="-0.1379">
        <ele>7</ele>
      </trkpt>
      <trkpt lat="44.81523" lon="-0.13814">
        <ele>7.4</ele>
      </trkpt>
      <trkpt lat="44.81507" lon="-0.13825">
        <ele>7.4</ele>
      </trkpt>
      <trkpt lat="44.81482" lon="-0.1384">
        <ele>3.9</ele>
      </trkpt>
      <trkpt lat="44.81458" lon="-0.13854">
        <ele>2</ele>
      </trkpt>
      <trkpt lat="44.81405" lon="-0.13883">
        <ele>2</ele>
      </trkpt>
      <trkpt lat="44.81362" lon="-0.13902">
        <ele>2.9</ele>
      </trkpt>
      <trkpt lat="44.81357" lon="-0.13905">
        <ele>4.1</ele>
      </trkpt>
      <trkpt lat="44.81355" lon="-0.13906">
        <ele>4.6</ele>
      </trkpt>
      <trkpt lat="44.81352" lon="-0.13909">
        <ele>5.5</ele>
      </trkpt>
      <trkpt lat="44.8135" lon="-0.13912">
        <ele>6.1</ele>
      </trkpt>
      <trkpt lat="44.81349" lon="-0.13914">
        <ele>6.5</ele>
      </trkpt>
      <trkpt lat="44.81349" lon="-0.13917">
        <ele>6.6</ele>
      </trkpt>
      <trkpt lat="44.81349" lon="-0.13922">
        <ele>6.8</ele>
      </trkpt>
      <trkpt lat="44.8135" lon="-0.13928">
        <ele>6.8</ele>
      </trkpt>
      <trkpt lat="44.81352" lon="-0.13941">
        <ele>6.8</ele>
      </trkpt>
      <trkpt lat="44.81359" lon="-0.13965">
        <ele>7.6</ele>
      </trkpt>
      <trkpt lat="44.81364" lon="-0.13982">
        <ele>7.8</ele>
      </trkpt>
      <trkpt lat="44.81366" lon="-0.13989">
        <ele>7.9</ele>
      </trkpt>
      <trkpt lat="44.81368" lon="-0.13996">
        <ele>8</ele>
      </trkpt>
      <trkpt lat="44.81371" lon="-0.14011">
        <ele>8.5</ele>
      </trkpt>
      <trkpt lat="44.81374" lon="-0.14024">
        <ele>8.9</ele>
      </trkpt>
      <trkpt lat="44.81376" lon="-0.1404">
        <ele>9.8</ele>
      </trkpt>
      <trkpt lat="44.81379" lon="-0.14059">
        <ele>10.5</ele>
      </trkpt>
      <trkpt lat="44.8138" lon="-0.1407">
        <ele>10.4</ele>
      </trkpt>
      <trkpt lat="44.81381" lon="-0.1408">
        <ele>10.4</ele>
      </trkpt>
      <trkpt lat="44.81381" lon="-0.14092">
        <ele>11</ele>
      </trkpt>
      <trkpt lat="44.81381" lon="-0.141">
        <ele>11.4</ele>
      </trkpt>
      <trkpt lat="44.8138" lon="-0.14107">
        <ele>12</ele>
      </trkpt>
      <trkpt lat="44.81379" lon="-0.14114">
        <ele>12.5</ele>
      </trkpt>
      <trkpt lat="44.81377" lon="-0.14122">
        <ele>12.8</ele>
      </trkpt>
      <trkpt lat="44.81375" lon="-0.14129">
        <ele>13</ele>
      </trkpt>
      <trkpt lat="44.81373" lon="-0.14136">
        <ele>13.2</ele>
      </trkpt>
      <trkpt lat="44.81372" lon="-0.14141">
        <ele>13.2</ele>
      </trkpt>
      <trkpt lat="44.81371" lon="-0.14146">
        <ele>13.4</ele>
      </trkpt>
      <trkpt lat="44.81369" lon="-0.14153">
        <ele>13.6</ele>
      </trkpt>
      <trkpt lat="44.81367" lon="-0.14158">
        <ele>13.7</ele>
      </trkpt>
      <trkpt lat="44.81364" lon="-0.14163">
        <ele>13.9</ele>
      </trkpt>
      <trkpt lat="44.81367" lon="-0.14171">
        <ele>13.8</ele>
      </trkpt>
      <trkpt lat="44.81368" lon="-0.14178">
        <ele>13.8</ele>
      </trkpt>
      <trkpt lat="44.8137" lon="-0.14181">
        <ele>13.7</ele>
      </trkpt>
      <trkpt lat="44.81371" lon="-0.14185">
        <ele>13.6</ele>
      </trkpt>
      <trkpt lat="44.81374" lon="-0.14191">
        <ele>13.5</ele>
      </trkpt>
      <trkpt lat="44.8138" lon="-0.142">
        <ele>13.5</ele>
      </trkpt>
      <trkpt lat="44.81394" lon="-0.1422">
        <ele>13.6</ele>
      </trkpt>
      <trkpt lat="44.81404" lon="-0.14236">
        <ele>13.4</ele>
      </trkpt>
      <trkpt lat="44.81419" lon="-0.14268">
        <ele>12.9</ele>
      </trkpt>
      <trkpt lat="44.81437" lon="-0.14308">
        <ele>12.4</ele>
      </trkpt>
      <trkpt lat="44.81452" lon="-0.14351">
        <ele>10.5</ele>
      </trkpt>
      <trkpt lat="44.81489" lon="-0.14458">
        <ele>8.7</ele>
      </trkpt>
      <trkpt lat="44.81249" lon="-0.1466">
        <ele>8.5</ele>
      </trkpt>
      <trkpt lat="44.81084" lon="-0.14694">
        <ele>10</ele>
      </trkpt>
      <trkpt lat="44.81024" lon="-0.14797">
        <ele>9</ele>
      </trkpt>
      <trkpt lat="44.8092" lon="-0.14909">
        <ele>11.1</ele>
      </trkpt>
      <trkpt lat="44.80858" lon="-0.15067">
        <ele>7.3</ele>
      </trkpt>
      <trkpt lat="44.80915" lon="-0.15197">
        <ele>6</ele>
      </trkpt>
      <trkpt lat="44.80947" lon="-0.15349">
        <ele>14.1</ele>
      </trkpt>
      <trkpt lat="44.80931" lon="-0.154">
        <ele>17.5</ele>
      </trkpt>
      <trkpt lat="44.80976" lon="-0.15504">
        <ele>21.6</ele>
      </trkpt>
      <trkpt lat="44.80917" lon="-0.15561">
        <ele>24.4</ele>
      </trkpt>
      <trkpt lat="44.80879" lon="-0.15621">
        <ele>29.4</ele>
      </trkpt>
      <trkpt lat="44.80964" lon="-0.15859">
        <ele>48.3</ele>
      </trkpt>
      <trkpt lat="44.80952" lon="-0.15935">
        <ele>51.3</ele>
      </trkpt>
      <trkpt lat="44.80879" lon="-0.16091">
        <ele>55</ele>
      </trkpt>
      <trkpt lat="44.80824" lon="-0.16222">
        <ele>63.3</ele>
      </trkpt>
      <trkpt lat="44.80822" lon="-0.16251">
        <ele>64.2</ele>
      </trkpt>
      <trkpt lat="44.80826" lon="-0.16268">
        <ele>63</ele>
      </trkpt>
      <trkpt lat="44.80833" lon="-0.16306">
        <ele>62</ele>
      </trkpt>
      <trkpt lat="44.80862" lon="-0.16417">
        <ele>63</ele>
      </trkpt>
      <trkpt lat="44.80871" lon="-0.16477">
        <ele>65</ele>
      </trkpt>
      <trkpt lat="44.80875" lon="-0.16614">
        <ele>64</ele>
      </trkpt>
      <trkpt lat="44.80887" lon="-0.16719">
        <ele>66</ele>
      </trkpt>
      <trkpt lat="44.80876" lon="-0.16758">
        <ele>67</ele>
      </trkpt>
      <trkpt lat="44.80867" lon="-0.16761">
        <ele>67</ele>
      </trkpt>
      <trkpt lat="44.80794" lon="-0.16741">
        <ele>62</ele>
      </trkpt>
      <trkpt lat="44.8079" lon="-0.16734">
        <ele>62</ele>
      </trkpt>
      <trkpt lat="44.80795" lon="-0.1674">
        <ele>62</ele>
      </trkpt>
      <trkpt lat="44.80789" lon="-0.16733">
        <ele>62</ele>
      </trkpt>
      <trkpt lat="44.80766" lon="-0.16725">
        <ele>61</ele>
      </trkpt>
      <trkpt lat="44.80706" lon="-0.16689">
        <ele>55</ele>
      </trkpt>
      <trkpt lat="44.80695" lon="-0.16673">
        <ele>53</ele>
      </trkpt>
      <trkpt lat="44.80673" lon="-0.16598">
        <ele>40</ele>
      </trkpt>
      <trkpt lat="44.80645" lon="-0.16544">
        <ele>33</ele>
      </trkpt>
      <trkpt lat="44.80578" lon="-0.16456">
        <ele>29</ele>
      </trkpt>
      <trkpt lat="44.80555" lon="-0.16433">
        <ele>28</ele>
      </trkpt>
      <trkpt lat="44.80513" lon="-0.16429">
        <ele>26</ele>
      </trkpt>
      <trkpt lat="44.80469" lon="-0.1644">
        <ele>24</ele>
      </trkpt>
      <trkpt lat="44.80458" lon="-0.16438">
        <ele>24</ele>
      </trkpt>
      <trkpt lat="44.80432" lon="-0.16448">
        <ele>23</ele>
      </trkpt>
      <trkpt lat="44.80409" lon="-0.16463">
        <ele>25</ele>
      </trkpt>
      <trkpt lat="44.80393" lon="-0.16463">
        <ele>25</ele>
      </trkpt>
      <trkpt lat="44.80392" lon="-0.16471">
        <ele>25</ele>
      </trkpt>
      <trkpt lat="44.80344" lon="-0.16504">
        <ele>27</ele>
      </trkpt>
      <trkpt lat="44.8033" lon="-0.16508">
        <ele>28</ele>
      </trkpt>
      <trkpt lat="44.80325" lon="-0.16514">
        <ele>28</ele>
      </trkpt>
      <trkpt lat="44.80291" lon="-0.16508">
        <ele>29</ele>
      </trkpt>
      <trkpt lat="44.80287" lon="-0.16504">
        <ele>29</ele>
      </trkpt>
      <trkpt lat="44.80262" lon="-0.16502">
        <ele>30</ele>
      </trkpt>
      <trkpt lat="44.802" lon="-0.16503">
        <ele>31</ele>
      </trkpt>
      <trkpt lat="44.80138" lon="-0.16526">
        <ele>36</ele>
      </trkpt>
      <trkpt lat="44.80117" lon="-0.16415">
        <ele>27</ele>
      </trkpt>
      <trkpt lat="44.80103" lon="-0.16387">
        <ele>26</ele>
      </trkpt>
      <trkpt lat="44.80084" lon="-0.16389">
        <ele>27</ele>
      </trkpt>
      <trkpt lat="44.79989" lon="-0.1643">
        <ele>34</ele>
      </trkpt>
      <trkpt lat="44.79979" lon="-0.16429">
        <ele>35</ele>
      </trkpt>
      <trkpt lat="44.79924" lon="-0.16453">
        <ele>37</ele>
      </trkpt>
      <trkpt lat="44.79895" lon="-0.16461">
        <ele>35</ele>
      </trkpt>
      <trkpt lat="44.79827" lon="-0.16494">
        <ele>31</ele>
      </trkpt>
      <trkpt lat="44.79786" lon="-0.16494">
        <ele>27</ele>
      </trkpt>
      <trkpt lat="44.79777" lon="-0.165">
        <ele>30</ele>
      </trkpt>
      <trkpt lat="44.79736" lon="-0.16377">
        <ele>21.7</ele>
      </trkpt>
      <trkpt lat="44.79751" lon="-0.16368">
        <ele>22.8</ele>
      </trkpt>
      <trkpt lat="44.79683" lon="-0.16143">
        <ele>22.5</ele>
      </trkpt>
      <trkpt lat="44.79622" lon="-0.15988">
        <ele>19.4</ele>
      </trkpt>
      <trkpt lat="44.79504" lon="-0.16117">
        <ele>15.1</ele>
      </trkpt>
      <trkpt lat="44.79436" lon="-0.1605">
        <ele>10.7</ele>
      </trkpt>
      <trkpt lat="44.79235" lon="-0.1584">
        <ele>10.5</ele>
      </trkpt>
      <trkpt lat="44.79382" lon="-0.15591">
        <ele>9.8</ele>
      </trkpt>
      <trkpt lat="44.79461" lon="-0.15261">
        <ele>16.2</ele>
      </trkpt>
      <trkpt lat="44.79726" lon="-0.15407">
        <ele>38.7</ele>
      </trkpt>
      <trkpt lat="44.79564" lon="-0.15188">
        <ele>53.9</ele>
      </trkpt>
      <trkpt lat="44.79531" lon="-0.14965">
        <ele>62.6</ele>
      </trkpt>
      <trkpt lat="44.7947" lon="-0.14857">
        <ele>64.1</ele>
      </trkpt>
      <trkpt lat="44.79552" lon="-0.14754">
        <ele>69</ele>
      </trkpt>
      <trkpt lat="44.79403" lon="-0.14351">
        <ele>77.2</ele>
      </trkpt>
      <trkpt lat="44.79397" lon="-0.1436">
        <ele>77</ele>
        <time>2016-11-24T12:48:04Z</time>
      </trkpt>
      <trkpt lat="44.79329" lon="-0.14326">
        <ele>81</ele>
        <time>2016-11-24T12:46:04Z</time>
      </trkpt>
      <trkpt lat="44.79142" lon="-0.14304">
        <ele>73</ele>
        <time>2016-11-24T12:44:04Z</time>
      </trkpt>
      <trkpt lat="44.79076" lon="-0.14217">
        <ele>72</ele>
        <time>2016-11-24T12:42:04Z</time>
      </trkpt>
      <trkpt lat="44.78996" lon="-0.14085">
        <ele>68</ele>
        <time>2016-11-24T12:40:04Z</time>
      </trkpt>
      <trkpt lat="44.78959" lon="-0.14045">
        <ele>67</ele>
        <time>2016-11-24T12:38:04Z</time>
      </trkpt>
      <trkpt lat="44.78848" lon="-0.13953">
        <ele>70</ele>
        <time>2016-11-24T12:36:04Z</time>
      </trkpt>
      <trkpt lat="44.78825" lon="-0.13925">
        <ele>71</ele>
        <time>2016-11-24T12:34:04Z</time>
      </trkpt>
      <trkpt lat="44.78812" lon="-0.13883">
        <ele>72</ele>
        <time>2016-11-24T12:32:04Z</time>
      </trkpt>
      <trkpt lat="44.78781" lon="-0.13767">
        <ele>74</ele>
        <time>2016-11-24T12:30:04Z</time>
      </trkpt>
      <trkpt lat="44.78737" lon="-0.13699">
        <ele>76</ele>
        <time>2016-11-24T12:28:04Z</time>
      </trkpt>
      <trkpt lat="44.78687" lon="-0.13624">
        <ele>77</ele>
        <time>2016-11-24T12:26:04Z</time>
      </trkpt>
      <trkpt lat="44.78676" lon="-0.13572">
        <ele>79</ele>
        <time>2016-11-24T12:24:04Z</time>
      </trkpt>
      <trkpt lat="44.78651" lon="-0.13501">
        <ele>80</ele>
        <time>2016-11-24T12:22:04Z</time>
      </trkpt>
      <trkpt lat="44.78613" lon="-0.13437">
        <ele>79</ele>
        <time>2016-11-24T12:20:04Z</time>
      </trkpt>
      <trkpt lat="44.78543" lon="-0.13394">
        <ele>80</ele>
        <time>2016-11-24T12:18:04Z</time>
      </trkpt>
      <trkpt lat="44.78483" lon="-0.13336">
        <ele>81</ele>
        <time>2016-11-24T12:16:04Z</time>
      </trkpt>
      <trkpt lat="44.7843" lon="-0.13287">
        <ele>81</ele>
        <time>2016-11-24T12:14:04Z</time>
      </trkpt>
      <trkpt lat="44.78361" lon="-0.13205">
        <ele>79</ele>
        <time>2016-11-24T12:12:04Z</time>
      </trkpt>
      <trkpt lat="44.78308" lon="-0.13166">
        <ele>78</ele>
        <time>2016-11-24T12:10:04Z</time>
      </trkpt>
      <trkpt lat="44.78229" lon="-0.13136">
        <ele>77</ele>
        <time>2016-11-24T12:08:04Z</time>
      </trkpt>
      <trkpt lat="44.78179" lon="-0.13095">
        <ele>74</ele>
        <time>2016-11-24T12:06:04Z</time>
      </trkpt>
      <trkpt lat="44.78145" lon="-0.13077">
        <ele>73</ele>
        <time>2016-11-24T12:04:04Z</time>
      </trkpt>
      <trkpt lat="44.7808" lon="-0.13095">
        <ele>74</ele>
        <time>2016-11-24T12:02:04Z</time>
      </trkpt>
      <trkpt lat="44.78024" lon="-0.1309">
        <ele>73</ele>
        <time>2016-11-24T12:00:04Z</time>
      </trkpt>
      <trkpt lat="44.77997" lon="-0.12989">
        <ele>68</ele>
        <time>2016-11-24T11:58:04Z</time>
      </trkpt>
      <trkpt lat="44.77961" lon="-0.12918">
        <ele>62</ele>
        <time>2016-11-24T11:56:04Z</time>
      </trkpt>
      <trkpt lat="44.77945" lon="-0.12918">
        <ele>61</ele>
        <time>2016-11-24T11:54:04Z</time>
      </trkpt>
      <trkpt lat="44.77927" lon="-0.12897">
        <ele>59</ele>
        <time>2016-11-24T11:52:04Z</time>
      </trkpt>
      <trkpt lat="44.77899" lon="-0.12902">
        <ele>59</ele>
        <time>2016-11-24T11:50:04Z</time>
      </trkpt>
      <trkpt lat="44.7787" lon="-0.12846">
        <ele>56</ele>
        <time>2016-11-24T11:48:04Z</time>
      </trkpt>
      <trkpt lat="44.77859" lon="-0.12807">
        <ele>56</ele>
        <time>2016-11-24T11:46:04Z</time>
      </trkpt>
      <trkpt lat="44.77881" lon="-0.1276">
        <ele>58</ele>
        <time>2016-11-24T11:44:04Z</time>
      </trkpt>
      <trkpt lat="44.77872" lon="-0.127">
        <ele>62</ele>
        <time>2016-11-24T11:42:04Z</time>
      </trkpt>
      <trkpt lat="44.7784" lon="-0.12695">
        <ele>62</ele>
        <time>2016-11-24T11:40:04Z</time>
      </trkpt>
      <trkpt lat="44.77831" lon="-0.12672">
        <ele>64</ele>
        <time>2016-11-24T11:38:04Z</time>
      </trkpt>
      <trkpt lat="44.7779" lon="-0.12557">
        <ele>68</ele>
        <time>2016-11-24T18:14:04Z</time>
      </trkpt>
      <trkpt lat="44.7778" lon="-0.12535">
        <ele>69</ele>
        <time>2016-11-24T18:12:04Z</time>
      </trkpt>
      <trkpt lat="44.77767" lon="-0.12529">
        <ele>69</ele>
        <time>2016-11-24T18:10:04Z</time>
      </trkpt>
      <trkpt lat="44.77734" lon="-0.12449">
        <ele>70</ele>
        <time>2016-11-24T18:08:04Z</time>
      </trkpt>
      <trkpt lat="44.77674" lon="-0.1232">
        <ele>73</ele>
        <time>2016-11-24T18:06:04Z</time>
      </trkpt>
      <trkpt lat="44.77653" lon="-0.12261">
        <ele>75</ele>
        <time>2016-11-24T18:04:04Z</time>
      </trkpt>
      <trkpt lat="44.77601" lon="-0.12095">
        <ele>77</ele>
        <time>2016-11-24T18:02:04Z</time>
      </trkpt>
      <trkpt lat="44.77585" lon="-0.11995">
        <ele>79</ele>
        <time>2016-11-24T18:00:04Z</time>
      </trkpt>
      <trkpt lat="44.77573" lon="-0.11967">
        <ele>79</ele>
        <time>2016-11-24T17:58:04Z</time>
      </trkpt>
      <trkpt lat="44.77538" lon="-0.11923">
        <ele>80</ele>
        <time>2016-11-24T17:56:04Z</time>
      </trkpt>
      <trkpt lat="44.77496" lon="-0.11786">
        <ele>81</ele>
        <time>2016-11-24T17:54:04Z</time>
      </trkpt>
      <trkpt lat="44.77447" lon="-0.11768">
        <ele>80</ele>
        <time>2016-11-24T17:52:04Z</time>
      </trkpt>
      <trkpt lat="44.77351" lon="-0.11713">
        <ele>81</ele>
        <time>2016-11-24T17:50:04Z</time>
      </trkpt>
      <trkpt lat="44.77233" lon="-0.11774">
        <ele>81</ele>
        <time>2016-11-24T17:48:04Z</time>
      </trkpt>
      <trkpt lat="44.77066" lon="-0.11846">
        <ele>80</ele>
        <time>2016-11-24T17:46:04Z</time>
      </trkpt>
      <trkpt lat="44.76945" lon="-0.11889">
        <ele>81</ele>
        <time>2016-11-24T17:44:04Z</time>
      </trkpt>
      <trkpt lat="44.76774" lon="-0.11634">
        <ele>88</ele>
        <time>2016-11-24T17:42:04Z</time>
      </trkpt>
      <trkpt lat="44.76758" lon="-0.11595">
        <ele>89</ele>
        <time>2016-11-24T17:40:04Z</time>
      </trkpt>
      <trkpt lat="44.76722" lon="-0.11454">
        <ele>94</ele>
        <time>2016-11-24T17:38:04Z</time>
      </trkpt>
      <trkpt lat="44.76689" lon="-0.11377">
        <ele>95</ele>
        <time>2016-11-24T17:36:04Z</time>
      </trkpt>
      <trkpt lat="44.76689" lon="-0.1116">
        <ele>96</ele>
        <time>2016-11-24T17:34:04Z</time>
      </trkpt>
      <trkpt lat="44.76691" lon="-0.10891">
        <ele>98</ele>
        <time>2016-11-24T17:32:04Z</time>
      </trkpt>
      <trkpt lat="44.767" lon="-0.10836">
        <ele>99</ele>
        <time>2016-11-24T17:30:04Z</time>
      </trkpt>
      <trkpt lat="44.76719" lon="-0.10738">
        <ele>97</ele>
        <time>2016-11-24T17:28:04Z</time>
      </trkpt>
      <trkpt lat="44.76717" lon="-0.10716">
        <ele>97</ele>
        <time>2016-11-24T17:26:04Z</time>
      </trkpt>
      <trkpt lat="44.76607" lon="-0.10567">
        <ele>90</ele>
        <time>2016-11-24T17:24:04Z</time>
      </trkpt>
      <trkpt lat="44.76525" lon="-0.10531">
        <ele>87</ele>
        <time>2016-11-24T17:22:04Z</time>
      </trkpt>
      <trkpt lat="44.76479" lon="-0.10536">
        <ele>85</ele>
        <time>2016-11-24T17:20:04Z</time>
      </trkpt>
      <trkpt lat="44.76249" lon="-0.1038">
        <ele>76</ele>
        <time>2016-11-24T17:18:04Z</time>
      </trkpt>
      <trkpt lat="44.7611" lon="-0.10295">
        <ele>64.5</ele>
      </trkpt>
      <trkpt lat="44.76046" lon="-0.10162">
        <ele>60.6</ele>
      </trkpt>
      <trkpt lat="44.76091" lon="-0.09823">
        <ele>67.4</ele>
      </trkpt>
      <trkpt lat="44.76003" lon="-0.09441">
        <ele>67.3</ele>
      </trkpt>
      <trkpt lat="44.7604" lon="-0.09278">
        <ele>67.9</ele>
      </trkpt>
      <trkpt lat="44.75956" lon="-0.09155">
        <ele>65.4</ele>
      </trkpt>
      <trkpt lat="44.75904" lon="-0.09207">
        <ele>58.9</ele>
      </trkpt>
      <trkpt lat="44.7585" lon="-0.09221">
        <ele>56.7</ele>
      </trkpt>
      <trkpt lat="44.75789" lon="-0.09281">
        <ele>49.3</ele>
      </trkpt>
      <trkpt lat="44.75759" lon="-0.09315">
        <ele>51.4</ele>
      </trkpt>
      <trkpt lat="44.75692" lon="-0.09212">
        <ele>48.7</ele>
      </trkpt>
      <trkpt lat="44.75649" lon="-0.09111">
        <ele>47.6</ele>
      </trkpt>
      <trkpt lat="44.75588" lon="-0.08967">
        <ele>45.5</ele>
      </trkpt>
      <trkpt lat="44.75512" lon="-0.08796">
        <ele>44.6</ele>
      </trkpt>
      <trkpt lat="44.75496" lon="-0.08768">
        <ele>43.9</ele>
      </trkpt>
      <trkpt lat="44.75509" lon="-0.08731">
        <ele>42.8</ele>
      </trkpt>
      <trkpt lat="44.75518" lon="-0.08703">
        <ele>43.3</ele>
      </trkpt>
      <trkpt lat="44.75461" lon="-0.08634">
        <ele>43</ele>
      </trkpt>
      <trkpt lat="44.75426" lon="-0.08613">
        <ele>42.2</ele>
      </trkpt>
      <trkpt lat="44.75402" lon="-0.0857">
        <ele>43.4</ele>
      </trkpt>
      <trkpt lat="44.75353" lon="-0.0855">
        <ele>43.1</ele>
      </trkpt>
      <trkpt lat="44.75325" lon="-0.08548">
        <ele>42.8</ele>
      </trkpt>
      <trkpt lat="44.75289" lon="-0.08517">
        <ele>45.2</ele>
      </trkpt>
      <trkpt lat="44.75248" lon="-0.08403">
        <ele>42.8</ele>
      </trkpt>
      <trkpt lat="44.7524" lon="-0.08333">
        <ele>42.6</ele>
      </trkpt>
      <trkpt lat="44.75212" lon="-0.08241">
        <ele>42.3</ele>
      </trkpt>
      <trkpt lat="44.75196" lon="-0.08254">
        <ele>38.3</ele>
      </trkpt>
      <trkpt lat="44.75172" lon="-0.08269">
        <ele>34.74</ele>
        <time>2014-11-23T13:27:46Z</time>
      </trkpt>
      <trkpt lat="44.75161" lon="-0.08296">
        <ele>37.15</ele>
        <time>2014-11-23T13:28:06Z</time>
      </trkpt>
      <trkpt lat="44.75153" lon="-0.08307">
        <ele>39.07</ele>
        <time>2014-11-23T13:28:20Z</time>
      </trkpt>
      <trkpt lat="44.75154" lon="-0.08314">
        <ele>39.07</ele>
        <time>2014-11-23T13:28:34Z</time>
      </trkpt>
      <trkpt lat="44.75155" lon="-0.08334">
        <ele>38.59</ele>
        <time>2014-11-23T13:28:47Z</time>
      </trkpt>
      <trkpt lat="44.75157" lon="-0.08344">
        <ele>39.07</ele>
        <time>2014-11-23T13:29:02Z</time>
      </trkpt>
      <trkpt lat="44.75159" lon="-0.08348">
        <ele>38.59</ele>
        <time>2014-11-23T13:29:11Z</time>
      </trkpt>
      <trkpt lat="44.75165" lon="-0.08376">
        <ele>38.59</ele>
        <time>2014-11-23T13:29:30Z</time>
      </trkpt>
      <trkpt lat="44.7517" lon="-0.08399">
        <ele>38.11</ele>
        <time>2014-11-23T13:29:45Z</time>
      </trkpt>
      <trkpt lat="44.75174" lon="-0.08419">
        <ele>37.63</ele>
        <time>2014-11-23T13:30:00Z</time>
      </trkpt>
      <trkpt lat="44.75179" lon="-0.08435">
        <ele>37.63</ele>
        <time>2014-11-23T13:30:15Z</time>
      </trkpt>
      <trkpt lat="44.75181" lon="-0.08457">
        <ele>37.15</ele>
        <time>2014-11-23T13:30:32Z</time>
      </trkpt>
      <trkpt lat="44.75178" lon="-0.08471">
        <ele>37.63</ele>
        <time>2014-11-23T13:30:42Z</time>
      </trkpt>
      <trkpt lat="44.75168" lon="-0.08493">
        <ele>37.15</ele>
        <time>2014-11-23T13:31:01Z</time>
      </trkpt>
      <trkpt lat="44.75175" lon="-0.08521">
        <ele>36.67</ele>
        <time>2014-11-23T13:31:24Z</time>
      </trkpt>
      <trkpt lat="44.7515" lon="-0.08547">
        <ele>36.19</ele>
        <time>2014-11-23T13:31:45Z</time>
      </trkpt>
      <trkpt lat="44.75126" lon="-0.08571">
        <ele>36.67</ele>
        <time>2014-11-23T13:32:05Z</time>
      </trkpt>
      <trkpt lat="44.75119" lon="-0.08582">
        <ele>37.15</ele>
        <time>2014-11-23T13:32:23Z</time>
      </trkpt>
      <trkpt lat="44.75113" lon="-0.08594">
        <ele>36.19</ele>
        <time>2014-11-23T13:32:38Z</time>
      </trkpt>
      <trkpt lat="44.75109" lon="-0.08622">
        <ele>36.67</ele>
        <time>2014-11-23T13:32:56Z</time>
      </trkpt>
      <trkpt lat="44.7511" lon="-0.08636">
        <ele>36.67</ele>
        <time>2014-11-23T13:33:04Z</time>
      </trkpt>
      <trkpt lat="44.75119" lon="-0.08666">
        <ele>36.67</ele>
        <time>2014-11-23T13:33:25Z</time>
      </trkpt>
      <trkpt lat="44.75124" lon="-0.08695">
        <ele>37.15</ele>
        <time>2014-11-23T13:33:45Z</time>
      </trkpt>
      <trkpt lat="44.75126" lon="-0.08729">
        <ele>36.67</ele>
        <time>2014-11-23T13:34:06Z</time>
      </trkpt>
      <trkpt lat="44.75118" lon="-0.08762">
        <ele>36.67</ele>
        <time>2014-11-23T13:34:27Z</time>
      </trkpt>
      <trkpt lat="44.75102" lon="-0.08793">
        <ele>37.15</ele>
        <time>2014-11-23T13:34:46Z</time>
      </trkpt>
      <trkpt lat="44.75096" lon="-0.08822">
        <ele>36.67</ele>
        <time>2014-11-23T13:35:05Z</time>
      </trkpt>
      <trkpt lat="44.75093" lon="-0.08834">
        <ele>36.19</ele>
        <time>2014-11-23T13:35:15Z</time>
      </trkpt>
      <trkpt lat="44.75027" lon="-0.0887">
        <ele>47.1</ele>
      </trkpt>
      <trkpt lat="44.74968" lon="-0.08889">
        <ele>49.4</ele>
      </trkpt>
      <trkpt lat="44.74917" lon="-0.08932">
        <ele>50.3</ele>
      </trkpt>
      <trkpt lat="44.74867" lon="-0.08917">
        <ele>54</ele>
      </trkpt>
      <trkpt lat="44.74836" lon="-0.08893">
        <ele>54.1</ele>
      </trkpt>
      <trkpt lat="44.74813" lon="-0.08871">
        <ele>53.4</ele>
      </trkpt>
      <trkpt lat="44.74793" lon="-0.08833">
        <ele>53.1</ele>
      </trkpt>
      <trkpt lat="44.74764" lon="-0.08843">
        <ele>49.8</ele>
      </trkpt>
      <trkpt lat="44.7471" lon="-0.08846">
        <ele>47</ele>
      </trkpt>
      <trkpt lat="44.74641" lon="-0.08861">
        <ele>47.9</ele>
      </trkpt>
      <trkpt lat="44.74753" lon="-0.08935">
        <ele>54</ele>
      </trkpt>
      <trkpt lat="44.74841" lon="-0.09317">
        <ele>70.1</ele>
      </trkpt>
      <trkpt lat="44.75018" lon="-0.09474">
        <ele>65.4</ele>
      </trkpt>
      <trkpt lat="44.75059" lon="-0.09789">
        <ele>78.8</ele>
      </trkpt>
      <trkpt lat="44.74915" lon="-0.10023">
        <ele>88.1</ele>
      </trkpt>
      <trkpt lat="44.74675" lon="-0.10158">
        <ele>86</ele>
      </trkpt>
      <trkpt lat="44.74579" lon="-0.10184">
        <ele>84.5</ele>
      </trkpt>
      <trkpt lat="44.74448" lon="-0.10107">
        <ele>75.6</ele>
      </trkpt>
      <trkpt lat="44.74285" lon="-0.10044">
        <ele>65.5</ele>
      </trkpt>
      <trkpt lat="44.74273" lon="-0.10039">
        <ele>63.103638</ele>
        <time>2010-05-20T10:01:26Z</time>
      </trkpt>
      <trkpt lat="44.74191" lon="-0.09906">
        <ele>65.987671</ele>
        <time>2010-05-20T09:58:44Z</time>
      </trkpt>
      <trkpt lat="44.74109" lon="-0.09868">
        <ele>70.794189</ele>
        <time>2010-05-20T09:57:32Z</time>
      </trkpt>
      <trkpt lat="44.73971" lon="-0.0981">
        <ele>72.236206</ele>
        <time>2010-05-20T09:54:28Z</time>
      </trkpt>
      <trkpt lat="44.73888" lon="-0.09772">
        <ele>72.236206</ele>
        <time>2010-05-20T09:53:16Z</time>
      </trkpt>
      <trkpt lat="44.73839" lon="-0.09743">
        <ele>71.755493</ele>
        <time>2010-05-20T09:52:33Z</time>
      </trkpt>
      <trkpt lat="44.73716" lon="-0.09624">
        <ele>69.832886</ele>
        <time>2010-05-20T09:50:36Z</time>
      </trkpt>
      <trkpt lat="44.73469" lon="-0.09551">
        <ele>68.871582</ele>
        <time>2010-05-20T09:47:09Z</time>
      </trkpt>
      <trkpt lat="44.73474" lon="-0.09501">
        <ele>69.352295</ele>
        <time>2010-05-20T09:46:41Z</time>
      </trkpt>
      <trkpt lat="44.73496" lon="-0.09454">
        <ele>71.274902</ele>
        <time>2010-05-20T09:46:08Z</time>
      </trkpt>
      <trkpt lat="44.73603" lon="-0.09324">
        <ele>73.678223</ele>
        <time>2010-05-20T09:43:55Z</time>
      </trkpt>
      <trkpt lat="44.73536" lon="-0.09145">
        <ele>79.926636</ele>
        <time>2010-05-20T09:41:55Z</time>
      </trkpt>
      <trkpt lat="44.73503" lon="-0.09087">
        <ele>80.407471</ele>
        <time>2010-05-20T09:41:10Z</time>
      </trkpt>
      <trkpt lat="44.73314" lon="-0.09069">
        <ele>82.810791</ele>
        <time>2010-05-20T09:38:41Z</time>
      </trkpt>
      <trkpt lat="44.73232" lon="-0.09053">
        <ele>89.059326</ele>
        <time>2010-05-20T09:37:37Z</time>
      </trkpt>
      <trkpt lat="44.73088" lon="-0.09019">
        <ele>93.385132</ele>
        <time>2010-05-20T09:35:35Z</time>
      </trkpt>
      <trkpt lat="44.73039" lon="-0.09038">
        <ele>98.191895</ele>
        <time>2010-05-20T09:34:46Z</time>
      </trkpt>
      <trkpt lat="44.7298" lon="-0.09063">
        <ele>96.749878</ele>
        <time>2010-05-20T09:33:45Z</time>
      </trkpt>
      <trkpt lat="44.72976" lon="-0.09055">
        <ele>96.749878</ele>
        <time>2010-05-20T09:33:39Z</time>
      </trkpt>
      <trkpt lat="44.72976" lon="-0.09042">
        <ele>98.672485</ele>
        <time>2010-05-20T09:33:30Z</time>
      </trkpt>
      <trkpt lat="44.72975" lon="-0.09001">
        <ele>97.711182</ele>
        <time>2010-05-20T09:33:04Z</time>
      </trkpt>
      <trkpt lat="44.72985" lon="-0.08863">
        <ele>99.633789</ele>
        <time>2010-05-20T09:31:40Z</time>
      </trkpt>
      <trkpt lat="44.72988" lon="-0.08693">
        <ele>97.711182</ele>
        <time>2010-05-20T09:27:13Z</time>
      </trkpt>
      <trkpt lat="44.72936" lon="-0.08718">
        <ele>99.153076</ele>
        <time>2010-05-20T09:25:16Z</time>
      </trkpt>
      <trkpt lat="44.72839" lon="-0.08747">
        <ele>94.827148</ele>
        <time>2010-05-20T09:23:53Z</time>
      </trkpt>
      <trkpt lat="44.72745" lon="-0.08707">
        <ele>91.943237</ele>
        <time>2010-05-20T09:22:33Z</time>
      </trkpt>
      <trkpt lat="44.7233" lon="-0.08576">
        <ele>74.158813</ele>
        <time>2010-05-20T09:16:09Z</time>
      </trkpt>
      <trkpt lat="44.72237" lon="-0.08566">
        <ele>73.197632</ele>
        <time>2010-05-20T09:14:42Z</time>
      </trkpt>
      <trkpt lat="44.72206" lon="-0.08496">
        <ele>74.639526</ele>
        <time>2010-05-20T09:13:50Z</time>
      </trkpt>
      <trkpt lat="44.72162" lon="-0.08462">
        <ele>77.523438</ele>
        <time>2010-05-20T09:13:04Z</time>
      </trkpt>
      <trkpt lat="44.72156" lon="-0.08432">
        <ele>79.446045</ele>
        <time>2010-05-20T09:12:43Z</time>
      </trkpt>
      <trkpt lat="44.72098" lon="-0.08386">
        <ele>80.407471</ele>
        <time>2010-05-20T09:11:54Z</time>
      </trkpt>
      <trkpt lat="44.72051" lon="-0.08316">
        <ele>82.330078</ele>
        <time>2010-05-20T09:10:57Z</time>
      </trkpt>
      <trkpt lat="44.72026" lon="-0.08336">
        <ele>79.926636</ele>
        <time>2010-05-20T09:10:28Z</time>
      </trkpt>
      <trkpt lat="44.72006" lon="-0.08329">
        <ele>80.407471</ele>
        <time>2010-05-20T09:05:54Z</time>
      </trkpt>
      <trkpt lat="44.7198" lon="-0.08287">
        <ele>80.888184</ele>
        <time>2010-05-20T09:05:19Z</time>
      </trkpt>
      <trkpt lat="44.71938" lon="-0.08219">
        <ele>79.926636</ele>
        <time>2010-05-20T09:04:28Z</time>
      </trkpt>
      <trkpt lat="44.71888" lon="-0.08179">
        <ele>80.407471</ele>
        <time>2010-05-20T09:03:42Z</time>
      </trkpt>
      <trkpt lat="44.71832" lon="-0.08169">
        <ele>76.081421</ele>
        <time>2010-05-20T09:02:55Z</time>
      </trkpt>
      <trkpt lat="44.71738" lon="-0.08096">
        <ele>68.871582</ele>
        <time>2010-05-20T09:01:25Z</time>
      </trkpt>
      <trkpt lat="44.71643" lon="-0.08138">
        <ele>65.50708</ele>
        <time>2010-05-20T09:00:04Z</time>
      </trkpt>
      <trkpt lat="44.7158" lon="-0.08131">
        <ele>63.584351</ele>
        <time>2010-05-20T08:59:09Z</time>
      </trkpt>
      <trkpt lat="44.71551" lon="-0.08105">
        <ele>63.584351</ele>
        <time>2010-05-20T08:58:44Z</time>
      </trkpt>
      <trkpt lat="44.7146" lon="-0.0796">
        <ele>69.352295</ele>
        <time>2010-05-20T08:56:44Z</time>
      </trkpt>
      <trkpt lat="44.71375" lon="-0.08094">
        <ele>65.987671</ele>
        <time>2010-05-20T08:54:51Z</time>
      </trkpt>
      <trkpt lat="44.71357" lon="-0.08111">
        <ele>67.910278</ele>
        <time>2010-05-20T08:54:34Z</time>
      </trkpt>
      <trkpt lat="44.71301" lon="-0.08158">
        <ele>60.700317</ele>
        <time>2010-05-20T08:53:43Z</time>
      </trkpt>
      <trkpt lat="44.71263" lon="-0.08143">
        <ele>61.661743</ele>
        <time>2010-05-20T08:53:13Z</time>
      </trkpt>
      <trkpt lat="44.71224" lon="-0.0811">
        <ele>60.700317</ele>
        <time>2010-05-20T08:52:38Z</time>
      </trkpt>
      <trkpt lat="44.7119" lon="-0.08107">
        <ele>61.661743</ele>
        <time>2010-05-20T08:52:11Z</time>
      </trkpt>
      <trkpt lat="44.71051" lon="-0.07971">
        <ele>65.987671</ele>
        <time>2010-05-20T08:49:49Z</time>
      </trkpt>
      <trkpt lat="44.70757" lon="-0.07866">
        <ele>60.700317</ele>
        <time>2010-05-20T08:45:57Z</time>
      </trkpt>
      <trkpt lat="44.70612" lon="-0.07842">
        <ele>56.374512</ele>
        <time>2010-05-20T08:44:03Z</time>
      </trkpt>
      <trkpt lat="44.70501" lon="-0.07766">
        <ele>56.374512</ele>
        <time>2010-05-20T08:42:30Z</time>
      </trkpt>
      <trkpt lat="44.70354" lon="-0.07697">
        <ele>59.739136</ele>
        <time>2010-05-20T08:40:38Z</time>
      </trkpt>
      <trkpt lat="44.70265" lon="-0.07656">
        <ele>57.816528</ele>
        <time>2010-05-20T08:39:29Z</time>
      </trkpt>
      <trkpt lat="44.7025" lon="-0.07724">
        <ele>54.451782</ele>
        <time>2010-05-20T08:38:52Z</time>
      </trkpt>
      <trkpt lat="44.70252" lon="-0.07739">
        <ele>55.893799</ele>
        <time>2010-05-20T08:38:44Z</time>
      </trkpt>
      <trkpt lat="44.70274" lon="-0.07984">
        <ele>65.987671</ele>
        <time>2010-05-20T08:36:45Z</time>
      </trkpt>
      <trkpt lat="44.70273" lon="-0.08006">
        <ele>66.948975</ele>
        <time>2010-05-20T08:36:32Z</time>
      </trkpt>
      <trkpt lat="44.70263" lon="-0.08005">
        <ele>66.468262</ele>
        <time>2010-05-20T08:36:13Z</time>
      </trkpt>
      <trkpt lat="44.70273" lon="-0.08028">
        <ele>68.871582</ele>
        <time>2010-05-20T08:35:20Z</time>
      </trkpt>
      <trkpt lat="44.70271" lon="-0.08245">
        <ele>81.849365</ele>
        <time>2010-05-20T08:33:16Z</time>
      </trkpt>
      <trkpt lat="44.70265" lon="-0.08319">
        <ele>83.771973</ele>
        <time>2010-05-20T08:32:36Z</time>
      </trkpt>
      <trkpt lat="44.70238" lon="-0.08408">
        <ele>84.733398</ele>
        <time>2010-05-20T08:31:43Z</time>
      </trkpt>
      <trkpt lat="44.70068" lon="-0.08629">
        <ele>90.501343</ele>
        <time>2010-05-20T08:28:44Z</time>
      </trkpt>
      <trkpt lat="44.70055" lon="-0.08815">
        <ele>97.711182</ele>
        <time>2010-05-20T08:26:56Z</time>
      </trkpt>
      <trkpt lat="44.70013" lon="-0.08809">
        <ele>100.114502</ele>
        <time>2010-05-20T08:26:23Z</time>
      </trkpt>
      <trkpt lat="44.69863" lon="-0.08807">
        <ele>96.749878</ele>
        <time>2010-05-20T08:24:20Z</time>
      </trkpt>
      <trkpt lat="44.69737" lon="-0.08826">
        <ele>94.827148</ele>
        <time>2010-05-20T08:22:40Z</time>
      </trkpt>
      <trkpt lat="44.69629" lon="-0.08819">
        <ele>90.02063</ele>
        <time>2010-05-20T08:21:20Z</time>
      </trkpt>
      <trkpt lat="44.6952" lon="-0.08836">
        <ele>83.771973</ele>
        <time>2010-05-20T08:19:49Z</time>
      </trkpt>
      <trkpt lat="44.69453" lon="-0.08856">
        <ele>78.1</ele>
      </trkpt>
      <trkpt lat="44.69296" lon="-0.08886">
        <ele>65.9</ele>
      </trkpt>
      <trkpt lat="44.69231" lon="-0.08907">
        <ele>62.7</ele>
      </trkpt>
      <trkpt lat="44.69161" lon="-0.08888">
        <ele>60</ele>
      </trkpt>
      <trkpt lat="44.69055" lon="-0.08841">
        <ele>57</ele>
      </trkpt>
      <trkpt lat="44.69043" lon="-0.08866">
        <ele>56.3</ele>
      </trkpt>
      <trkpt lat="44.69049" lon="-0.09025">
        <ele>56.1</ele>
      </trkpt>
      <trkpt lat="44.69049" lon="-0.09323">
        <ele>62.5</ele>
      </trkpt>
      <trkpt lat="44.69002" lon="-0.09594">
        <ele>65.7</ele>
      </trkpt>
      <trkpt lat="44.68895" lon="-0.10066">
        <ele>74</ele>
      </trkpt>
      <trkpt lat="44.68843" lon="-0.10143">
        <ele>76.5</ele>
      </trkpt>
      <trkpt lat="44.6873" lon="-0.10235">
        <ele>80.9</ele>
      </trkpt>
      <trkpt lat="44.68633" lon="-0.10289">
        <ele>79.2</ele>
      </trkpt>
      <trkpt lat="44.68526" lon="-0.10413">
        <ele>78.8</ele>
      </trkpt>
      <trkpt lat="44.68483" lon="-0.10607">
        <ele>84.9</ele>
      </trkpt>
      <trkpt lat="44.68482" lon="-0.10855">
        <ele>88.1</ele>
      </trkpt>
      <trkpt lat="44.68482" lon="-0.11285">
        <ele>84.1</ele>
      </trkpt>
      <trkpt lat="44.68468" lon="-0.12064">
        <ele>84</ele>
      </trkpt>
      <trkpt lat="44.68476" lon="-0.12162">
        <ele>84.3</ele>
      </trkpt>
      <trkpt lat="44.68498" lon="-0.12296">
        <ele>84.8</ele>
      </trkpt>
      <trkpt lat="44.68559" lon="-0.12503">
        <ele>87.3</ele>
      </trkpt>
      <trkpt lat="44.6863" lon="-0.1275">
        <ele>86</ele>
      </trkpt>
      <trkpt lat="44.68727" lon="-0.13003">
        <ele>83.8</ele>
      </trkpt>
      <trkpt lat="44.68834" lon="-0.13186">
        <ele>79</ele>
      </trkpt>
      <trkpt lat="44.69005" lon="-0.13366">
        <ele>76.8</ele>
      </trkpt>
      <trkpt lat="44.69125" lon="-0.13611">
        <ele>75.5</ele>
      </trkpt>
      <trkpt lat="44.69165" lon="-0.1389">
        <ele>75.1</ele>
      </trkpt>
      <trkpt lat="44.69199" lon="-0.14413">
        <ele>69.9</ele>
      </trkpt>
      <trkpt lat="44.69225" lon="-0.14508">
        <ele>70.2</ele>
      </trkpt>
      <trkpt lat="44.6926" lon="-0.14626">
        <ele>71.8</ele>
      </trkpt>
      <trkpt lat="44.69331" lon="-0.14733">
        <ele>73</ele>
      </trkpt>
      <trkpt lat="44.69456" lon="-0.14881">
        <ele>73.9</ele>
      </trkpt>
      <trkpt lat="44.69722" lon="-0.15179">
        <ele>69</ele>
      </trkpt>
      <trkpt lat="44.69944" lon="-0.15454">
        <ele>66</ele>
      </trkpt>
      <trkpt lat="44.70073" lon="-0.15587">
        <ele>63.6</ele>
      </trkpt>
      <trkpt lat="44.70138" lon="-0.15686">
        <ele>66</ele>
      </trkpt>
      <trkpt lat="44.70356" lon="-0.15932">
        <ele>66.4</ele>
      </trkpt>
      <trkpt lat="44.70515" lon="-0.16115">
        <ele>65</ele>
      </trkpt>
      <trkpt lat="44.70783" lon="-0.16308">
        <ele>65.1</ele>
      </trkpt>
      <trkpt lat="44.70799" lon="-0.16441">
        <ele>63.5</ele>
      </trkpt>
      <trkpt lat="44.70808" lon="-0.16503">
        <ele>62</ele>
      </trkpt>
      <trkpt lat="44.70843" lon="-0.16664">
        <ele>58.4</ele>
      </trkpt>
      <trkpt lat="44.70863" lon="-0.16776">
        <ele>55.1</ele>
      </trkpt>
      <trkpt lat="44.708" lon="-0.16761">
        <ele>55.7</ele>
      </trkpt>
      <trkpt lat="44.7084" lon="-0.16889">
        <ele>53.8</ele>
      </trkpt>
      <trkpt lat="44.70869" lon="-0.16945">
        <ele>51.7</ele>
      </trkpt>
      <trkpt lat="44.70881" lon="-0.1704">
        <ele>50.6</ele>
      </trkpt>
      <trkpt lat="44.70928" lon="-0.1711">
        <ele>49.2</ele>
      </trkpt>
      <trkpt lat="44.70924" lon="-0.17183">
        <ele>46.3</ele>
      </trkpt>
      <trkpt lat="44.70965" lon="-0.17218">
        <ele>42.8</ele>
      </trkpt>
      <trkpt lat="44.70977" lon="-0.17254">
        <ele>42</ele>
      </trkpt>
      <trkpt lat="44.70968" lon="-0.17321">
        <ele>43.3</ele>
      </trkpt>
      <trkpt lat="44.70985" lon="-0.17344">
        <ele>45.4</ele>
      </trkpt>
      <trkpt lat="44.71033" lon="-0.17288">
        <ele>46.7</ele>
      </trkpt>
      <trkpt lat="44.7105" lon="-0.17314">
        <ele>49.6</ele>
      </trkpt>
      <trkpt lat="44.71061" lon="-0.1743">
        <ele>53.7</ele>
      </trkpt>
      <trkpt lat="44.7109" lon="-0.17593">
        <ele>59.4</ele>
      </trkpt>
      <trkpt lat="44.71072" lon="-0.17941">
        <ele>68.4</ele>
      </trkpt>
      <trkpt lat="44.71058" lon="-0.18087">
        <ele>69</ele>
      </trkpt>
      <trkpt lat="44.711" lon="-0.18436">
        <ele>75</ele>
      </trkpt>
      <trkpt lat="44.71053" lon="-0.18754">
        <ele>78.9</ele>
      </trkpt>
      <trkpt lat="44.71029" lon="-0.18926">
        <ele>80</ele>
      </trkpt>
      <trkpt lat="44.71083" lon="-0.192">
        <ele>79.6</ele>
      </trkpt>
      <trkpt lat="44.71091" lon="-0.1931">
        <ele>75.5</ele>
      </trkpt>
      <trkpt lat="44.71087" lon="-0.1931">
        <ele>75.2</ele>
      </trkpt>
      <trkpt lat="44.7108" lon="-0.19357">
        <ele>74.1</ele>
      </trkpt>
      <trkpt lat="44.71057" lon="-0.19466">
        <ele>73</ele>
      </trkpt>
      <trkpt lat="44.71019" lon="-0.19569">
        <ele>74.2</ele>
      </trkpt>
      <trkpt lat="44.70968" lon="-0.19719">
        <ele>77</ele>
      </trkpt>
      <trkpt lat="44.70904" lon="-0.19904">
        <ele>80.3</ele>
      </trkpt>
      <trkpt lat="44.70915" lon="-0.20163">
        <ele>83</ele>
      </trkpt>
      <trkpt lat="44.70901" lon="-0.20265">
        <ele>84</ele>
      </trkpt>
      <trkpt lat="44.70859" lon="-0.20425">
        <ele>78.8</ele>
      </trkpt>
      <trkpt lat="44.70783" lon="-0.20692">
        <ele>68.5</ele>
      </trkpt>
      <trkpt lat="44.70798" lon="-0.2078">
        <ele>67.6</ele>
      </trkpt>
      <trkpt lat="44.70834" lon="-0.20885">
        <ele>66.2</ele>
      </trkpt>
      <trkpt lat="44.70877" lon="-0.20979">
        <ele>68.2</ele>
      </trkpt>
      <trkpt lat="44.70939" lon="-0.21102">
        <ele>65.3</ele>
      </trkpt>
      <trkpt lat="44.70968" lon="-0.2114">
        <ele>65</ele>
      </trkpt>
      <trkpt lat="44.71032" lon="-0.21185">
        <ele>67.6</ele>
      </trkpt>
      <trkpt lat="44.71085" lon="-0.21236">
        <ele>68.6</ele>
      </trkpt>
      <trkpt lat="44.71163" lon="-0.21326">
        <ele>66.6</ele>
      </trkpt>
      <trkpt lat="44.71207" lon="-0.21419">
        <ele>67.5</ele>
      </trkpt>
      <trkpt lat="44.71212" lon="-0.21582">
        <ele>68.7</ele>
      </trkpt>
      <trkpt lat="44.71221" lon="-0.21803">
        <ele>64.9</ele>
      </trkpt>
      <trkpt lat="44.7118" lon="-0.22039">
        <ele>68.4</ele>
      </trkpt>
      <trkpt lat="44.71148" lon="-0.22202">
        <ele>64.5</ele>
      </trkpt>
      <trkpt lat="44.71122" lon="-0.22362">
        <ele>60.4</ele>
      </trkpt>
      <trkpt lat="44.71115" lon="-0.22519">
        <ele>57</ele>
      </trkpt>
      <trkpt lat="44.71112" lon="-0.226">
        <ele>57</ele>
      </trkpt>
      <trkpt lat="44.71058" lon="-0.22593">
        <ele>56.4</ele>
      </trkpt>
      <trkpt lat="44.71024" lon="-0.22593">
        <ele>56.3</ele>
      </trkpt>
      <trkpt lat="44.70993" lon="-0.22607">
        <ele>56</ele>
      </trkpt>
      <trkpt lat="44.7094" lon="-0.22614">
        <ele>55.1</ele>
      </trkpt>
      <trkpt lat="44.70908" lon="-0.22624">
        <ele>55.3</ele>
      </trkpt>
      <trkpt lat="44.70874" lon="-0.22677">
        <ele>55.2</ele>
      </trkpt>
      <trkpt lat="44.70838" lon="-0.22769">
        <ele>55.3</ele>
      </trkpt>
      <trkpt lat="44.7081" lon="-0.22838">
        <ele>54.2</ele>
      </trkpt>
      <trkpt lat="44.70793" lon="-0.22892">
        <ele>54</ele>
      </trkpt>
      <trkpt lat="44.70795" lon="-0.22938">
        <ele>54</ele>
      </trkpt>
      <trkpt lat="44.7078" lon="-0.22977">
        <ele>53.1</ele>
      </trkpt>
      <trkpt lat="44.7074" lon="-0.23042">
        <ele>53</ele>
      </trkpt>
      <trkpt lat="44.70711" lon="-0.23105">
        <ele>52.9</ele>
      </trkpt>
      <trkpt lat="44.70688" lon="-0.23168">
        <ele>53.8</ele>
      </trkpt>
      <trkpt lat="44.70666" lon="-0.23198">
        <ele>53.3</ele>
      </trkpt>
      <trkpt lat="44.70658" lon="-0.23221">
        <ele>54.9</ele>
      </trkpt>
      <trkpt lat="44.70666" lon="-0.23247">
        <ele>55</ele>
      </trkpt>
      <trkpt lat="44.70663" lon="-0.23255">
        <ele>55.5</ele>
      </trkpt>
      <trkpt lat="44.70645" lon="-0.23286">
        <ele>57.1</ele>
      </trkpt>
      <trkpt lat="44.70615" lon="-0.2334">
        <ele>57.1</ele>
      </trkpt>
      <trkpt lat="44.70585" lon="-0.23396">
        <ele>56.1</ele>
      </trkpt>
      <trkpt lat="44.70559" lon="-0.23439">
        <ele>55.9</ele>
      </trkpt>
      <trkpt lat="44.7054" lon="-0.23471">
        <ele>54.9</ele>
      </trkpt>
      <trkpt lat="44.70521" lon="-0.23512">
        <ele>56.3</ele>
      </trkpt>
      <trkpt lat="44.7058" lon="-0.23574">
        <ele>57.7</ele>
      </trkpt>
      <trkpt lat="44.7063" lon="-0.23634">
        <ele>59.1</ele>
      </trkpt>
      <trkpt lat="44.70677" lon="-0.23696">
        <ele>61.4</ele>
      </trkpt>
      <trkpt lat="44.70694" lon="-0.23715">
        <ele>62.7</ele>
      </trkpt>
      <trkpt lat="44.70717" lon="-0.23683">
        <ele>62.5</ele>
      </trkpt>
      <trkpt lat="44.70744" lon="-0.23715">
        <ele>63.9</ele>
      </trkpt>
      <trkpt lat="44.70755" lon="-0.23759">
        <ele>64.8</ele>
      </trkpt>
      <trkpt lat="44.70773" lon="-0.23799">
        <ele>66.1</ele>
      </trkpt>
      <trkpt lat="44.70796" lon="-0.23844">
        <ele>68.4</ele>
      </trkpt>
      <trkpt lat="44.70803" lon="-0.23895">
        <ele>66</ele>
      </trkpt>
      <trkpt lat="44.70832" lon="-0.23954">
        <ele>65.6</ele>
      </trkpt>
      <trkpt lat="44.70861" lon="-0.23999">
        <ele>65</ele>
      </trkpt>
      <trkpt lat="44.70878" lon="-0.24048">
        <ele>66.7</ele>
      </trkpt>
      <trkpt lat="44.70893" lon="-0.24144">
        <ele>65</ele>
      </trkpt>
      <trkpt lat="44.70899" lon="-0.24215">
        <ele>64.7</ele>
      </trkpt>
      <trkpt lat="44.70899" lon="-0.24328">
        <ele>65.9</ele>
      </trkpt>
      <trkpt lat="44.70901" lon="-0.24399">
        <ele>67.9</ele>
      </trkpt>
      <trkpt lat="44.70907" lon="-0.24467">
        <ele>68.7</ele>
      </trkpt>
      <trkpt lat="44.70908" lon="-0.2449">
        <ele>68.7</ele>
      </trkpt>
      <trkpt lat="44.70914" lon="-0.24494">
        <ele>68.9</ele>
      </trkpt>
      <trkpt lat="44.71093" lon="-0.24339">
        <ele>71.9</ele>
      </trkpt>
      <trkpt lat="44.71224" lon="-0.2419">
        <ele>72.9</ele>
      </trkpt>
      <trkpt lat="44.7127" lon="-0.24254">
        <ele>70.3</ele>
      </trkpt>
      <trkpt lat="44.71344" lon="-0.24346">
        <ele>68.5</ele>
      </trkpt>
      <trkpt lat="44.71418" lon="-0.24407">
        <ele>67.3</ele>
      </trkpt>
      <trkpt lat="44.71465" lon="-0.24454">
        <ele>66.5</ele>
      </trkpt>
      <trkpt lat="44.715" lon="-0.24492">
        <ele>66</ele>
      </trkpt>
      <trkpt lat="44.71498" lon="-0.24508">
        <ele>65.7</ele>
      </trkpt>
      <trkpt lat="44.71531" lon="-0.24559">
        <ele>65.1</ele>
      </trkpt>
      <trkpt lat="44.71578" lon="-0.24631">
        <ele>63.4</ele>
      </trkpt>
      <trkpt lat="44.71664" lon="-0.24755">
        <ele>62</ele>
      </trkpt>
      <trkpt lat="44.71702" lon="-0.2468">
        <ele>63.3</ele>
      </trkpt>
      <trkpt lat="44.71737" lon="-0.24659">
        <ele>64.8</ele>
      </trkpt>
      <trkpt lat="44.71769" lon="-0.24647">
        <ele>66.6</ele>
      </trkpt>
      <trkpt lat="44.71796" lon="-0.24579">
        <ele>68.6</ele>
      </trkpt>
      <trkpt lat="44.71835" lon="-0.24426">
        <ele>71.1</ele>
      </trkpt>
      <trkpt lat="44.71855" lon="-0.24357">
        <ele>72.9</ele>
      </trkpt>
      <trkpt lat="44.71872" lon="-0.243">
        <ele>75</ele>
      </trkpt>
      <trkpt lat="44.71883" lon="-0.24261">
        <ele>76.7</ele>
      </trkpt>
      <trkpt lat="44.71911" lon="-0.24181">
        <ele>79.9</ele>
      </trkpt>
      <trkpt lat="44.71926" lon="-0.2418">
        <ele>80.3</ele>
      </trkpt>
      <trkpt lat="44.71945" lon="-0.24214">
        <ele>81</ele>
      </trkpt>
      <trkpt lat="44.71994" lon="-0.24351">
        <ele>77.4</ele>
      </trkpt>
      <trkpt lat="44.72021" lon="-0.24445">
        <ele>73.2</ele>
      </trkpt>
      <trkpt lat="44.72034" lon="-0.24508">
        <ele>69.3</ele>
      </trkpt>
      <trkpt lat="44.72064" lon="-0.24496">
        <ele>72.5</ele>
      </trkpt>
      <trkpt lat="44.72075" lon="-0.24483">
        <ele>73.8</ele>
      </trkpt>
      <trkpt lat="44.72112" lon="-0.24582">
        <ele>70.1</ele>
      </trkpt>
      <trkpt lat="44.72163" lon="-0.24493">
        <ele>74.4</ele>
      </trkpt>
      <trkpt lat="44.72181" lon="-0.24464">
        <ele>75.3</ele>
      </trkpt>
      <trkpt lat="44.72276" lon="-0.24442">
        <ele>73.2</ele>
      </trkpt>
      <trkpt lat="44.7237" lon="-0.24427">
        <ele>71.1</ele>
      </trkpt>
      <trkpt lat="44.72414" lon="-0.24409">
        <ele>69.1</ele>
      </trkpt>
      <trkpt lat="44.72453" lon="-0.24367">
        <ele>68.2</ele>
      </trkpt>
      <trkpt lat="44.72488" lon="-0.24359">
        <ele>68</ele>
      </trkpt>
      <trkpt lat="44.72616" lon="-0.24388">
        <ele>70</ele>
      </trkpt>
      <trkpt lat="44.72695" lon="-0.24386">
        <ele>68.1</ele>
      </trkpt>
      <trkpt lat="44.72777" lon="-0.24355">
        <ele>68.2</ele>
      </trkpt>
      <trkpt lat="44.7283" lon="-0.24331">
        <ele>71.1</ele>
      </trkpt>
      <trkpt lat="44.72861" lon="-0.24332">
        <ele>71.1</ele>
      </trkpt>
      <trkpt lat="44.72877" lon="-0.24564">
        <ele>66</ele>
      </trkpt>
      <trkpt lat="44.72995" lon="-0.24874">
        <ele>68.5</ele>
      </trkpt>
      <trkpt lat="44.7305" lon="-0.25039">
        <ele>67</ele>
      </trkpt>
      <trkpt lat="44.73057" lon="-0.2506">
        <ele>67</ele>
      </trkpt>
      <trkpt lat="44.7305" lon="-0.25064">
        <ele>67</ele>
      </trkpt>
    </trkseg>
  </trk>
</gpx>